<?xml version="1.0" encoding="UTF-8" standalone="no" ?>
<gpx xmlns="http://www.topografix.com/GPX/1/1" xmlns:xsi="http://www.w3.org/2001/XMLSchema-instance" xsi:schemaLocation="http://www.topografix.com/GPX/1/1 http://www.topografix.com/GPX/1/1/gpx.xsd" version="1.1" creator="VisuGPX - https://www.visugpx.com">
  <metadata>
    <name>L'Octocote - 45kms - 2012</name>
    <desc><![CDATA[Parcours du 45kms de l'otoctone en mai 2012]]></desc>
  </metadata>
  <trk>
    <name><![CDATA[L'Octocote - 45kms - 2012_1]]></name>
    <trkseg>
      <trkpt lat="45.84469" lon="4.85056">
        <ele>277</ele>
        <time>2012-05-13T06:52:19Z</time>
      </trkpt>
      <trkpt lat="45.84465" lon="4.85044">
        <ele>277.25</ele>
        <time>2012-05-13T06:52:21Z</time>
      </trkpt>
      <trkpt lat="45.8446" lon="4.85033">
        <ele>277.25</ele>
        <time>2012-05-13T06:52:23Z</time>
      </trkpt>
      <trkpt lat="45.84455" lon="4.85016">
        <ele>277</ele>
        <time>2012-05-13T06:52:26Z</time>
      </trkpt>
      <trkpt lat="45.8445" lon="4.84998">
        <ele>277</ele>
        <time>2012-05-13T06:52:28Z</time>
      </trkpt>
      <trkpt lat="45.84446" lon="4.84984">
        <ele>276.5</ele>
        <time>2012-05-13T06:52:30Z</time>
      </trkpt>
      <trkpt lat="45.84442" lon="4.84971">
        <ele>276</ele>
        <time>2012-05-13T06:52:32Z</time>
      </trkpt>
      <trkpt lat="45.84438" lon="4.84958">
        <ele>275.25</ele>
        <time>2012-05-13T06:52:34Z</time>
      </trkpt>
      <trkpt lat="45.84435" lon="4.84944">
        <ele>274.75</ele>
        <time>2012-05-13T06:52:36Z</time>
      </trkpt>
      <trkpt lat="45.84432" lon="4.84931">
        <ele>275.25</ele>
        <time>2012-05-13T06:52:38Z</time>
      </trkpt>
      <trkpt lat="45.84428" lon="4.84915">
        <ele>277.25</ele>
        <time>2012-05-13T06:52:43Z</time>
      </trkpt>
      <trkpt lat="45.8443" lon="4.84902">
        <ele>272.5</ele>
        <time>2012-05-13T06:53:29Z</time>
      </trkpt>
      <trkpt lat="45.84424" lon="4.84891">
        <ele>274.5</ele>
        <time>2012-05-13T06:53:34Z</time>
      </trkpt>
      <trkpt lat="45.84418" lon="4.84876">
        <ele>276.5</ele>
        <time>2012-05-13T06:53:38Z</time>
      </trkpt>
      <trkpt lat="45.84413" lon="4.84864">
        <ele>277.5</ele>
        <time>2012-05-13T06:53:40Z</time>
      </trkpt>
      <trkpt lat="45.84409" lon="4.84849">
        <ele>277.75</ele>
        <time>2012-05-13T06:53:42Z</time>
      </trkpt>
      <trkpt lat="45.84406" lon="4.84833">
        <ele>277.25</ele>
        <time>2012-05-13T06:53:46Z</time>
      </trkpt>
      <trkpt lat="45.84402" lon="4.8482">
        <ele>277.75</ele>
        <time>2012-05-13T06:53:48Z</time>
      </trkpt>
      <trkpt lat="45.84395" lon="4.84802">
        <ele>278.5</ele>
        <time>2012-05-13T06:53:50Z</time>
      </trkpt>
      <trkpt lat="45.84384" lon="4.84782">
        <ele>279.75</ele>
        <time>2012-05-13T06:53:52Z</time>
      </trkpt>
      <trkpt lat="45.84374" lon="4.84767">
        <ele>281.25</ele>
        <time>2012-05-13T06:53:54Z</time>
      </trkpt>
      <trkpt lat="45.84367" lon="4.84753">
        <ele>282.5</ele>
        <time>2012-05-13T06:53:57Z</time>
      </trkpt>
      <trkpt lat="45.84362" lon="4.84737">
        <ele>283.25</ele>
        <time>2012-05-13T06:53:59Z</time>
      </trkpt>
      <trkpt lat="45.84388" lon="4.84695">
        <ele>281.75</ele>
        <time>2012-05-13T06:54:34Z</time>
      </trkpt>
      <trkpt lat="45.84417" lon="4.84662">
        <ele>280</ele>
        <time>2012-05-13T06:54:35Z</time>
      </trkpt>
      <trkpt lat="45.84447" lon="4.84631">
        <ele>278.5</ele>
        <time>2012-05-13T06:54:36Z</time>
      </trkpt>
      <trkpt lat="45.84478" lon="4.84601">
        <ele>277</ele>
        <time>2012-05-13T06:54:37Z</time>
      </trkpt>
      <trkpt lat="45.84489" lon="4.84598">
        <ele>277.5</ele>
        <time>2012-05-13T06:54:41Z</time>
      </trkpt>
      <trkpt lat="45.84498" lon="4.84605">
        <ele>278</ele>
        <time>2012-05-13T06:54:45Z</time>
      </trkpt>
      <trkpt lat="45.84504" lon="4.84615">
        <ele>278</ele>
        <time>2012-05-13T06:54:48Z</time>
      </trkpt>
      <trkpt lat="45.84513" lon="4.8463">
        <ele>278</ele>
        <time>2012-05-13T06:54:52Z</time>
      </trkpt>
      <trkpt lat="45.8452" lon="4.84641">
        <ele>278</ele>
        <time>2012-05-13T06:54:55Z</time>
      </trkpt>
      <trkpt lat="45.84528" lon="4.84653">
        <ele>278</ele>
        <time>2012-05-13T06:54:58Z</time>
      </trkpt>
      <trkpt lat="45.84537" lon="4.84668">
        <ele>278</ele>
        <time>2012-05-13T06:55:03Z</time>
      </trkpt>
      <trkpt lat="45.84543" lon="4.84677">
        <ele>278</ele>
        <time>2012-05-13T06:55:05Z</time>
      </trkpt>
      <trkpt lat="45.8455" lon="4.84689">
        <ele>278</ele>
        <time>2012-05-13T06:55:08Z</time>
      </trkpt>
      <trkpt lat="45.84557" lon="4.84703">
        <ele>278</ele>
        <time>2012-05-13T06:55:11Z</time>
      </trkpt>
      <trkpt lat="45.84564" lon="4.84716">
        <ele>278</ele>
        <time>2012-05-13T06:55:13Z</time>
      </trkpt>
      <trkpt lat="45.84572" lon="4.84731">
        <ele>278</ele>
        <time>2012-05-13T06:55:16Z</time>
      </trkpt>
      <trkpt lat="45.8458" lon="4.84746">
        <ele>278</ele>
        <time>2012-05-13T06:55:19Z</time>
      </trkpt>
      <trkpt lat="45.84587" lon="4.84759">
        <ele>278</ele>
        <time>2012-05-13T06:55:21Z</time>
      </trkpt>
      <trkpt lat="45.84594" lon="4.84771">
        <ele>278</ele>
        <time>2012-05-13T06:55:23Z</time>
      </trkpt>
      <trkpt lat="45.84604" lon="4.84783">
        <ele>278.75</ele>
        <time>2012-05-13T06:55:27Z</time>
      </trkpt>
      <trkpt lat="45.84614" lon="4.84796">
        <ele>279</ele>
        <time>2012-05-13T06:55:30Z</time>
      </trkpt>
      <trkpt lat="45.84625" lon="4.84803">
        <ele>279</ele>
        <time>2012-05-13T06:55:33Z</time>
      </trkpt>
      <trkpt lat="45.84637" lon="4.84805">
        <ele>279</ele>
        <time>2012-05-13T06:55:36Z</time>
      </trkpt>
      <trkpt lat="45.84649" lon="4.84802">
        <ele>279.25</ele>
        <time>2012-05-13T06:55:39Z</time>
      </trkpt>
      <trkpt lat="45.84658" lon="4.848">
        <ele>279.75</ele>
        <time>2012-05-13T06:55:41Z</time>
      </trkpt>
      <trkpt lat="45.84669" lon="4.84801">
        <ele>280.75</ele>
        <time>2012-05-13T06:55:45Z</time>
      </trkpt>
      <trkpt lat="45.84678" lon="4.84807">
        <ele>281</ele>
        <time>2012-05-13T06:55:48Z</time>
      </trkpt>
      <trkpt lat="45.84688" lon="4.84815">
        <ele>281</ele>
        <time>2012-05-13T06:55:51Z</time>
      </trkpt>
      <trkpt lat="45.84696" lon="4.84823">
        <ele>281</ele>
        <time>2012-05-13T06:55:54Z</time>
      </trkpt>
      <trkpt lat="45.84708" lon="4.84835">
        <ele>281.75</ele>
        <time>2012-05-13T06:55:57Z</time>
      </trkpt>
      <trkpt lat="45.84717" lon="4.84844">
        <ele>282</ele>
        <time>2012-05-13T06:55:59Z</time>
      </trkpt>
      <trkpt lat="45.84728" lon="4.84854">
        <ele>282</ele>
        <time>2012-05-13T06:56:04Z</time>
      </trkpt>
      <trkpt lat="45.84739" lon="4.84864">
        <ele>282.25</ele>
        <time>2012-05-13T06:56:06Z</time>
      </trkpt>
      <trkpt lat="45.8475" lon="4.84874">
        <ele>283</ele>
        <time>2012-05-13T06:56:10Z</time>
      </trkpt>
      <trkpt lat="45.84762" lon="4.84884">
        <ele>283</ele>
        <time>2012-05-13T06:56:13Z</time>
      </trkpt>
      <trkpt lat="45.84773" lon="4.84892">
        <ele>283</ele>
        <time>2012-05-13T06:56:16Z</time>
      </trkpt>
      <trkpt lat="45.84783" lon="4.849">
        <ele>283.5</ele>
        <time>2012-05-13T06:56:20Z</time>
      </trkpt>
      <trkpt lat="45.84793" lon="4.84908">
        <ele>284</ele>
        <time>2012-05-13T06:56:22Z</time>
      </trkpt>
      <trkpt lat="45.84803" lon="4.84916">
        <ele>284</ele>
        <time>2012-05-13T06:56:26Z</time>
      </trkpt>
      <trkpt lat="45.84813" lon="4.84924">
        <ele>284</ele>
        <time>2012-05-13T06:56:28Z</time>
      </trkpt>
      <trkpt lat="45.84823" lon="4.84932">
        <ele>284</ele>
        <time>2012-05-13T06:56:31Z</time>
      </trkpt>
      <trkpt lat="45.84834" lon="4.84938">
        <ele>284.75</ele>
        <time>2012-05-13T06:56:34Z</time>
      </trkpt>
      <trkpt lat="45.84847" lon="4.84944">
        <ele>285</ele>
        <time>2012-05-13T06:56:37Z</time>
      </trkpt>
      <trkpt lat="45.84856" lon="4.84947">
        <ele>285</ele>
        <time>2012-05-13T06:56:39Z</time>
      </trkpt>
      <trkpt lat="45.84867" lon="4.84951">
        <ele>285</ele>
        <time>2012-05-13T06:56:41Z</time>
      </trkpt>
      <trkpt lat="45.84878" lon="4.84955">
        <ele>285</ele>
        <time>2012-05-13T06:56:45Z</time>
      </trkpt>
      <trkpt lat="45.84891" lon="4.8496">
        <ele>285</ele>
        <time>2012-05-13T06:56:48Z</time>
      </trkpt>
      <trkpt lat="45.849" lon="4.84963">
        <ele>285</ele>
        <time>2012-05-13T06:56:50Z</time>
      </trkpt>
      <trkpt lat="45.84911" lon="4.84968">
        <ele>285</ele>
        <time>2012-05-13T06:56:52Z</time>
      </trkpt>
      <trkpt lat="45.84921" lon="4.84976">
        <ele>284.75</ele>
        <time>2012-05-13T06:56:55Z</time>
      </trkpt>
      <trkpt lat="45.84929" lon="4.84989">
        <ele>284.25</ele>
        <time>2012-05-13T06:56:57Z</time>
      </trkpt>
      <trkpt lat="45.84936" lon="4.85004">
        <ele>284.25</ele>
        <time>2012-05-13T06:56:59Z</time>
      </trkpt>
      <trkpt lat="45.84941" lon="4.85015">
        <ele>284.75</ele>
        <time>2012-05-13T06:57:03Z</time>
      </trkpt>
      <trkpt lat="45.84954" lon="4.8502">
        <ele>285</ele>
        <time>2012-05-13T06:57:06Z</time>
      </trkpt>
      <trkpt lat="45.84965" lon="4.85019">
        <ele>285.75</ele>
        <time>2012-05-13T06:57:09Z</time>
      </trkpt>
      <trkpt lat="45.84977" lon="4.85023">
        <ele>285.5</ele>
        <time>2012-05-13T06:57:13Z</time>
      </trkpt>
      <trkpt lat="45.84988" lon="4.85029">
        <ele>285.25</ele>
        <time>2012-05-13T06:57:16Z</time>
      </trkpt>
      <trkpt lat="45.84998" lon="4.85034">
        <ele>285.75</ele>
        <time>2012-05-13T06:57:18Z</time>
      </trkpt>
      <trkpt lat="45.85007" lon="4.85039">
        <ele>286</ele>
        <time>2012-05-13T06:57:20Z</time>
      </trkpt>
      <trkpt lat="45.85017" lon="4.85044">
        <ele>286.25</ele>
        <time>2012-05-13T06:57:23Z</time>
      </trkpt>
      <trkpt lat="45.85027" lon="4.85049">
        <ele>287</ele>
        <time>2012-05-13T06:57:26Z</time>
      </trkpt>
      <trkpt lat="45.85037" lon="4.85056">
        <ele>286.25</ele>
        <time>2012-05-13T06:57:29Z</time>
      </trkpt>
      <trkpt lat="45.85047" lon="4.85069">
        <ele>286.75</ele>
        <time>2012-05-13T06:57:32Z</time>
      </trkpt>
      <trkpt lat="45.85054" lon="4.85079">
        <ele>287</ele>
        <time>2012-05-13T06:57:35Z</time>
      </trkpt>
      <trkpt lat="45.85061" lon="4.85092">
        <ele>287.25</ele>
        <time>2012-05-13T06:57:38Z</time>
      </trkpt>
      <trkpt lat="45.85068" lon="4.85105">
        <ele>288</ele>
        <time>2012-05-13T06:57:41Z</time>
      </trkpt>
      <trkpt lat="45.85077" lon="4.85107">
        <ele>288.25</ele>
        <time>2012-05-13T06:57:46Z</time>
      </trkpt>
      <trkpt lat="45.85085" lon="4.85099">
        <ele>288.75</ele>
        <time>2012-05-13T06:57:48Z</time>
      </trkpt>
      <trkpt lat="45.85094" lon="4.85086">
        <ele>289.25</ele>
        <time>2012-05-13T06:57:52Z</time>
      </trkpt>
      <trkpt lat="45.851" lon="4.85076">
        <ele>289.75</ele>
        <time>2012-05-13T06:57:53Z</time>
      </trkpt>
      <trkpt lat="45.85108" lon="4.85065">
        <ele>290</ele>
        <time>2012-05-13T06:57:57Z</time>
      </trkpt>
      <trkpt lat="45.85117" lon="4.85054">
        <ele>290</ele>
        <time>2012-05-13T06:57:59Z</time>
      </trkpt>
      <trkpt lat="45.85144" lon="4.85086">
        <ele>289.75</ele>
        <time>2012-05-13T06:58:32Z</time>
      </trkpt>
      <trkpt lat="45.85168" lon="4.85121">
        <ele>289.5</ele>
        <time>2012-05-13T06:58:33Z</time>
      </trkpt>
      <trkpt lat="45.85192" lon="4.85157">
        <ele>289.5</ele>
        <time>2012-05-13T06:58:34Z</time>
      </trkpt>
      <trkpt lat="45.85217" lon="4.85192">
        <ele>289.5</ele>
        <time>2012-05-13T06:58:35Z</time>
      </trkpt>
      <trkpt lat="45.85225" lon="4.85181">
        <ele>290</ele>
        <time>2012-05-13T06:58:39Z</time>
      </trkpt>
      <trkpt lat="45.8523" lon="4.8517">
        <ele>289.5</ele>
        <time>2012-05-13T06:58:41Z</time>
      </trkpt>
      <trkpt lat="45.85239" lon="4.85158">
        <ele>288.5</ele>
        <time>2012-05-13T06:58:43Z</time>
      </trkpt>
      <trkpt lat="45.8525" lon="4.85143">
        <ele>287.5</ele>
        <time>2012-05-13T06:58:45Z</time>
      </trkpt>
      <trkpt lat="45.85261" lon="4.85129">
        <ele>286.5</ele>
        <time>2012-05-13T06:58:46Z</time>
      </trkpt>
      <trkpt lat="45.85268" lon="4.85119">
        <ele>285.75</ele>
        <time>2012-05-13T06:58:47Z</time>
      </trkpt>
      <trkpt lat="45.85277" lon="4.85108">
        <ele>284.75</ele>
        <time>2012-05-13T06:58:48Z</time>
      </trkpt>
      <trkpt lat="45.85286" lon="4.85096">
        <ele>283.75</ele>
        <time>2012-05-13T06:58:49Z</time>
      </trkpt>
      <trkpt lat="45.85294" lon="4.8509">
        <ele>282.5</ele>
        <time>2012-05-13T06:58:51Z</time>
      </trkpt>
      <trkpt lat="45.85304" lon="4.85094">
        <ele>280.25</ele>
        <time>2012-05-13T06:58:55Z</time>
      </trkpt>
      <trkpt lat="45.85312" lon="4.8511">
        <ele>280</ele>
        <time>2012-05-13T06:58:59Z</time>
      </trkpt>
      <trkpt lat="45.8532" lon="4.85129">
        <ele>280</ele>
        <time>2012-05-13T06:59:04Z</time>
      </trkpt>
      <trkpt lat="45.85329" lon="4.85151">
        <ele>280.25</ele>
        <time>2012-05-13T06:59:06Z</time>
      </trkpt>
      <trkpt lat="45.85336" lon="4.85168">
        <ele>281</ele>
        <time>2012-05-13T06:59:10Z</time>
      </trkpt>
      <trkpt lat="45.85339" lon="4.85181">
        <ele>281</ele>
        <time>2012-05-13T06:59:12Z</time>
      </trkpt>
      <trkpt lat="45.85343" lon="4.85194">
        <ele>281</ele>
        <time>2012-05-13T06:59:15Z</time>
      </trkpt>
      <trkpt lat="45.85347" lon="4.8521">
        <ele>281.75</ele>
        <time>2012-05-13T06:59:18Z</time>
      </trkpt>
      <trkpt lat="45.8535" lon="4.85223">
        <ele>282</ele>
        <time>2012-05-13T06:59:20Z</time>
      </trkpt>
      <trkpt lat="45.85354" lon="4.85237">
        <ele>282</ele>
        <time>2012-05-13T06:59:23Z</time>
      </trkpt>
      <trkpt lat="45.85358" lon="4.85253">
        <ele>282</ele>
        <time>2012-05-13T06:59:27Z</time>
      </trkpt>
      <trkpt lat="45.85363" lon="4.85264">
        <ele>282</ele>
        <time>2012-05-13T06:59:30Z</time>
      </trkpt>
      <trkpt lat="45.85368" lon="4.85276">
        <ele>283</ele>
        <time>2012-05-13T06:59:34Z</time>
      </trkpt>
      <trkpt lat="45.85372" lon="4.85288">
        <ele>283.75</ele>
        <time>2012-05-13T06:59:38Z</time>
      </trkpt>
      <trkpt lat="45.85377" lon="4.85302">
        <ele>284</ele>
        <time>2012-05-13T06:59:43Z</time>
      </trkpt>
      <trkpt lat="45.85379" lon="4.85314">
        <ele>284</ele>
        <time>2012-05-13T06:59:49Z</time>
      </trkpt>
      <trkpt lat="45.8538" lon="4.85328">
        <ele>284.5</ele>
        <time>2012-05-13T06:59:55Z</time>
      </trkpt>
      <trkpt lat="45.85383" lon="4.85344">
        <ele>286</ele>
        <time>2012-05-13T07:00:04Z</time>
      </trkpt>
      <trkpt lat="45.85387" lon="4.85356">
        <ele>287.5</ele>
        <time>2012-05-13T07:00:07Z</time>
      </trkpt>
      <trkpt lat="45.8539" lon="4.85368">
        <ele>290.75</ele>
        <time>2012-05-13T07:00:12Z</time>
      </trkpt>
      <trkpt lat="45.85393" lon="4.85386">
        <ele>291.75</ele>
        <time>2012-05-13T07:00:16Z</time>
      </trkpt>
      <trkpt lat="45.85395" lon="4.85399">
        <ele>292.75</ele>
        <time>2012-05-13T07:00:20Z</time>
      </trkpt>
      <trkpt lat="45.85398" lon="4.85414">
        <ele>293.75</ele>
        <time>2012-05-13T07:00:24Z</time>
      </trkpt>
      <trkpt lat="45.85397" lon="4.85427">
        <ele>295.25</ele>
        <time>2012-05-13T07:00:29Z</time>
      </trkpt>
      <trkpt lat="45.85395" lon="4.85443">
        <ele>296.75</ele>
        <time>2012-05-13T07:00:34Z</time>
      </trkpt>
      <trkpt lat="45.85395" lon="4.85457">
        <ele>298</ele>
        <time>2012-05-13T07:00:39Z</time>
      </trkpt>
      <trkpt lat="45.85398" lon="4.8547">
        <ele>298</ele>
        <time>2012-05-13T07:00:43Z</time>
      </trkpt>
      <trkpt lat="45.85405" lon="4.85484">
        <ele>297.5</ele>
        <time>2012-05-13T07:00:49Z</time>
      </trkpt>
      <trkpt lat="45.85412" lon="4.85494">
        <ele>297.25</ele>
        <time>2012-05-13T07:00:51Z</time>
      </trkpt>
      <trkpt lat="45.85423" lon="4.85504">
        <ele>298</ele>
        <time>2012-05-13T07:00:55Z</time>
      </trkpt>
      <trkpt lat="45.85437" lon="4.85517">
        <ele>298</ele>
        <time>2012-05-13T07:00:59Z</time>
      </trkpt>
      <trkpt lat="45.85448" lon="4.85525">
        <ele>299</ele>
        <time>2012-05-13T07:01:05Z</time>
      </trkpt>
      <trkpt lat="45.85458" lon="4.85522">
        <ele>300.25</ele>
        <time>2012-05-13T07:01:08Z</time>
      </trkpt>
      <trkpt lat="45.85469" lon="4.85512">
        <ele>300.5</ele>
        <time>2012-05-13T07:01:11Z</time>
      </trkpt>
      <trkpt lat="45.85478" lon="4.85502">
        <ele>300</ele>
        <time>2012-05-13T07:01:13Z</time>
      </trkpt>
      <trkpt lat="45.85487" lon="4.85496">
        <ele>299.75</ele>
        <time>2012-05-13T07:01:14Z</time>
      </trkpt>
      <trkpt lat="45.85497" lon="4.85489">
        <ele>299.5</ele>
        <time>2012-05-13T07:01:15Z</time>
      </trkpt>
      <trkpt lat="45.85508" lon="4.85482">
        <ele>299.25</ele>
        <time>2012-05-13T07:01:16Z</time>
      </trkpt>
      <trkpt lat="45.85521" lon="4.85474">
        <ele>299</ele>
        <time>2012-05-13T07:01:17Z</time>
      </trkpt>
      <trkpt lat="45.85533" lon="4.85467">
        <ele>299</ele>
        <time>2012-05-13T07:01:19Z</time>
      </trkpt>
      <trkpt lat="45.85546" lon="4.85459">
        <ele>298.75</ele>
        <time>2012-05-13T07:01:20Z</time>
      </trkpt>
      <trkpt lat="45.85557" lon="4.85453">
        <ele>298.5</ele>
        <time>2012-05-13T07:01:21Z</time>
      </trkpt>
      <trkpt lat="45.85566" lon="4.85448">
        <ele>298</ele>
        <time>2012-05-13T07:01:22Z</time>
      </trkpt>
      <trkpt lat="45.85578" lon="4.85443">
        <ele>296.75</ele>
        <time>2012-05-13T07:01:24Z</time>
      </trkpt>
      <trkpt lat="45.85587" lon="4.85444">
        <ele>293.75</ele>
        <time>2012-05-13T07:01:28Z</time>
      </trkpt>
      <trkpt lat="45.85596" lon="4.85448">
        <ele>285.5</ele>
        <time>2012-05-13T07:01:38Z</time>
      </trkpt>
      <trkpt lat="45.85605" lon="4.85451">
        <ele>281.75</ele>
        <time>2012-05-13T07:02:00Z</time>
      </trkpt>
      <trkpt lat="45.85611" lon="4.85463">
        <ele>277.5</ele>
        <time>2012-05-13T07:03:17Z</time>
      </trkpt>
      <trkpt lat="45.85616" lon="4.85477">
        <ele>277</ele>
        <time>2012-05-13T07:03:19Z</time>
      </trkpt>
      <trkpt lat="45.85621" lon="4.85489">
        <ele>277</ele>
        <time>2012-05-13T07:03:21Z</time>
      </trkpt>
      <trkpt lat="45.85628" lon="4.85501">
        <ele>277</ele>
        <time>2012-05-13T07:03:23Z</time>
      </trkpt>
      <trkpt lat="45.85637" lon="4.85509">
        <ele>277</ele>
        <time>2012-05-13T07:03:25Z</time>
      </trkpt>
      <trkpt lat="45.85646" lon="4.85512">
        <ele>277</ele>
        <time>2012-05-13T07:03:29Z</time>
      </trkpt>
      <trkpt lat="45.85656" lon="4.85514">
        <ele>277.75</ele>
        <time>2012-05-13T07:03:32Z</time>
      </trkpt>
      <trkpt lat="45.85665" lon="4.85522">
        <ele>278.75</ele>
        <time>2012-05-13T07:03:35Z</time>
      </trkpt>
      <trkpt lat="45.85673" lon="4.85531">
        <ele>280</ele>
        <time>2012-05-13T07:03:38Z</time>
      </trkpt>
      <trkpt lat="45.85681" lon="4.8554">
        <ele>281.5</ele>
        <time>2012-05-13T07:03:41Z</time>
      </trkpt>
      <trkpt lat="45.85689" lon="4.85548">
        <ele>282</ele>
        <time>2012-05-13T07:03:44Z</time>
      </trkpt>
      <trkpt lat="45.85696" lon="4.85556">
        <ele>282.5</ele>
        <time>2012-05-13T07:03:46Z</time>
      </trkpt>
      <trkpt lat="45.85703" lon="4.85567">
        <ele>283</ele>
        <time>2012-05-13T07:03:50Z</time>
      </trkpt>
      <trkpt lat="45.8571" lon="4.85579">
        <ele>282.5</ele>
        <time>2012-05-13T07:03:54Z</time>
      </trkpt>
      <trkpt lat="45.85722" lon="4.85597">
        <ele>282.25</ele>
        <time>2012-05-13T07:04:32Z</time>
      </trkpt>
      <trkpt lat="45.85731" lon="4.85618">
        <ele>282.75</ele>
        <time>2012-05-13T07:04:33Z</time>
      </trkpt>
      <trkpt lat="45.8574" lon="4.85641">
        <ele>283.25</ele>
        <time>2012-05-13T07:04:34Z</time>
      </trkpt>
      <trkpt lat="45.8575" lon="4.85665">
        <ele>284.25</ele>
        <time>2012-05-13T07:04:35Z</time>
      </trkpt>
      <trkpt lat="45.85754" lon="4.85681">
        <ele>284.5</ele>
        <time>2012-05-13T07:04:39Z</time>
      </trkpt>
      <trkpt lat="45.85758" lon="4.85696">
        <ele>284</ele>
        <time>2012-05-13T07:04:42Z</time>
      </trkpt>
      <trkpt lat="45.85761" lon="4.85711">
        <ele>284</ele>
        <time>2012-05-13T07:04:45Z</time>
      </trkpt>
      <trkpt lat="45.85765" lon="4.85725">
        <ele>284</ele>
        <time>2012-05-13T07:04:48Z</time>
      </trkpt>
      <trkpt lat="45.85768" lon="4.85737">
        <ele>284</ele>
        <time>2012-05-13T07:04:52Z</time>
      </trkpt>
      <trkpt lat="45.85774" lon="4.85751">
        <ele>284</ele>
        <time>2012-05-13T07:04:54Z</time>
      </trkpt>
      <trkpt lat="45.8578" lon="4.85764">
        <ele>284.5</ele>
        <time>2012-05-13T07:04:56Z</time>
      </trkpt>
      <trkpt lat="45.85788" lon="4.85777">
        <ele>285</ele>
        <time>2012-05-13T07:04:59Z</time>
      </trkpt>
      <trkpt lat="45.85794" lon="4.8579">
        <ele>285.75</ele>
        <time>2012-05-13T07:05:02Z</time>
      </trkpt>
      <trkpt lat="45.858" lon="4.85805">
        <ele>286.75</ele>
        <time>2012-05-13T07:05:05Z</time>
      </trkpt>
      <trkpt lat="45.85804" lon="4.85819">
        <ele>287.75</ele>
        <time>2012-05-13T07:05:08Z</time>
      </trkpt>
      <trkpt lat="45.85806" lon="4.85833">
        <ele>288.75</ele>
        <time>2012-05-13T07:05:10Z</time>
      </trkpt>
      <trkpt lat="45.85809" lon="4.85851">
        <ele>289.5</ele>
        <time>2012-05-13T07:05:14Z</time>
      </trkpt>
      <trkpt lat="45.85814" lon="4.85865">
        <ele>290</ele>
        <time>2012-05-13T07:05:16Z</time>
      </trkpt>
      <trkpt lat="45.85817" lon="4.8588">
        <ele>290.5</ele>
        <time>2012-05-13T07:05:19Z</time>
      </trkpt>
      <trkpt lat="45.85817" lon="4.85894">
        <ele>291.5</ele>
        <time>2012-05-13T07:05:23Z</time>
      </trkpt>
      <trkpt lat="45.85815" lon="4.85907">
        <ele>292.25</ele>
        <time>2012-05-13T07:05:25Z</time>
      </trkpt>
      <trkpt lat="45.85813" lon="4.85921">
        <ele>292.5</ele>
        <time>2012-05-13T07:05:27Z</time>
      </trkpt>
      <trkpt lat="45.85812" lon="4.85935">
        <ele>292.25</ele>
        <time>2012-05-13T07:05:30Z</time>
      </trkpt>
      <trkpt lat="45.85819" lon="4.85952">
        <ele>291.25</ele>
        <time>2012-05-13T07:05:34Z</time>
      </trkpt>
      <trkpt lat="45.85827" lon="4.85966">
        <ele>291</ele>
        <time>2012-05-13T07:05:36Z</time>
      </trkpt>
      <trkpt lat="45.85832" lon="4.85982">
        <ele>291.5</ele>
        <time>2012-05-13T07:05:38Z</time>
      </trkpt>
      <trkpt lat="45.85835" lon="4.85997">
        <ele>292</ele>
        <time>2012-05-13T07:05:41Z</time>
      </trkpt>
      <trkpt lat="45.85839" lon="4.86013">
        <ele>293</ele>
        <time>2012-05-13T07:05:44Z</time>
      </trkpt>
      <trkpt lat="45.85844" lon="4.86026">
        <ele>294</ele>
        <time>2012-05-13T07:05:46Z</time>
      </trkpt>
      <trkpt lat="45.85851" lon="4.86041">
        <ele>294.75</ele>
        <time>2012-05-13T07:05:48Z</time>
      </trkpt>
      <trkpt lat="45.85856" lon="4.86057">
        <ele>295.5</ele>
        <time>2012-05-13T07:05:50Z</time>
      </trkpt>
      <trkpt lat="45.85856" lon="4.86071">
        <ele>296</ele>
        <time>2012-05-13T07:05:52Z</time>
      </trkpt>
      <trkpt lat="45.85854" lon="4.86086">
        <ele>295.75</ele>
        <time>2012-05-13T07:05:55Z</time>
      </trkpt>
      <trkpt lat="45.85853" lon="4.86104">
        <ele>295.75</ele>
        <time>2012-05-13T07:05:57Z</time>
      </trkpt>
      <trkpt lat="45.85853" lon="4.86121">
        <ele>296</ele>
        <time>2012-05-13T07:05:59Z</time>
      </trkpt>
      <trkpt lat="45.85855" lon="4.86138">
        <ele>295.75</ele>
        <time>2012-05-13T07:06:02Z</time>
      </trkpt>
      <trkpt lat="45.85856" lon="4.86157">
        <ele>295.5</ele>
        <time>2012-05-13T07:06:05Z</time>
      </trkpt>
      <trkpt lat="45.85855" lon="4.86171">
        <ele>296</ele>
        <time>2012-05-13T07:06:08Z</time>
      </trkpt>
      <trkpt lat="45.85851" lon="4.86189">
        <ele>297.5</ele>
        <time>2012-05-13T07:06:11Z</time>
      </trkpt>
      <trkpt lat="45.85844" lon="4.86202">
        <ele>297.75</ele>
        <time>2012-05-13T07:06:15Z</time>
      </trkpt>
      <trkpt lat="45.85837" lon="4.86215">
        <ele>297.25</ele>
        <time>2012-05-13T07:06:18Z</time>
      </trkpt>
      <trkpt lat="45.85837" lon="4.86233">
        <ele>298</ele>
        <time>2012-05-13T07:06:21Z</time>
      </trkpt>
      <trkpt lat="45.85844" lon="4.8625">
        <ele>297</ele>
        <time>2012-05-13T07:06:24Z</time>
      </trkpt>
      <trkpt lat="45.85849" lon="4.86262">
        <ele>296</ele>
        <time>2012-05-13T07:06:27Z</time>
      </trkpt>
      <trkpt lat="45.85855" lon="4.86278">
        <ele>296</ele>
        <time>2012-05-13T07:06:29Z</time>
      </trkpt>
      <trkpt lat="45.85861" lon="4.86293">
        <ele>296</ele>
        <time>2012-05-13T07:06:31Z</time>
      </trkpt>
      <trkpt lat="45.85864" lon="4.86306">
        <ele>296.5</ele>
        <time>2012-05-13T07:06:34Z</time>
      </trkpt>
      <trkpt lat="45.85867" lon="4.86323">
        <ele>297</ele>
        <time>2012-05-13T07:06:36Z</time>
      </trkpt>
      <trkpt lat="45.85872" lon="4.86339">
        <ele>297.5</ele>
        <time>2012-05-13T07:06:39Z</time>
      </trkpt>
      <trkpt lat="45.85875" lon="4.86355">
        <ele>294.25</ele>
        <time>2012-05-13T07:07:32Z</time>
      </trkpt>
      <trkpt lat="45.85883" lon="4.86365">
        <ele>292</ele>
        <time>2012-05-13T07:07:35Z</time>
      </trkpt>
      <trkpt lat="45.85887" lon="4.86377">
        <ele>294</ele>
        <time>2012-05-13T07:08:05Z</time>
      </trkpt>
      <trkpt lat="45.85896" lon="4.86381">
        <ele>296.5</ele>
        <time>2012-05-13T07:08:17Z</time>
      </trkpt>
      <trkpt lat="45.85906" lon="4.86387">
        <ele>298.25</ele>
        <time>2012-05-13T07:08:19Z</time>
      </trkpt>
      <trkpt lat="45.85915" lon="4.86394">
        <ele>299</ele>
        <time>2012-05-13T07:08:22Z</time>
      </trkpt>
      <trkpt lat="45.85924" lon="4.86401">
        <ele>299</ele>
        <time>2012-05-13T07:08:26Z</time>
      </trkpt>
      <trkpt lat="45.85933" lon="4.86412">
        <ele>299.75</ele>
        <time>2012-05-13T07:08:29Z</time>
      </trkpt>
      <trkpt lat="45.8594" lon="4.86422">
        <ele>300.75</ele>
        <time>2012-05-13T07:08:31Z</time>
      </trkpt>
      <trkpt lat="45.85946" lon="4.86432">
        <ele>301.5</ele>
        <time>2012-05-13T07:08:35Z</time>
      </trkpt>
      <trkpt lat="45.85953" lon="4.86446">
        <ele>302.5</ele>
        <time>2012-05-13T07:08:38Z</time>
      </trkpt>
      <trkpt lat="45.85961" lon="4.8646">
        <ele>304</ele>
        <time>2012-05-13T07:08:41Z</time>
      </trkpt>
      <trkpt lat="45.85968" lon="4.86475">
        <ele>305</ele>
        <time>2012-05-13T07:08:44Z</time>
      </trkpt>
      <trkpt lat="45.85973" lon="4.86488">
        <ele>304.75</ele>
        <time>2012-05-13T07:08:47Z</time>
      </trkpt>
      <trkpt lat="45.85982" lon="4.86498">
        <ele>304</ele>
        <time>2012-05-13T07:08:50Z</time>
      </trkpt>
      <trkpt lat="45.85993" lon="4.86497">
        <ele>305.5</ele>
        <time>2012-05-13T07:08:54Z</time>
      </trkpt>
      <trkpt lat="45.86003" lon="4.8649">
        <ele>306.5</ele>
        <time>2012-05-13T07:08:57Z</time>
      </trkpt>
      <trkpt lat="45.8601" lon="4.86481">
        <ele>307</ele>
        <time>2012-05-13T07:08:59Z</time>
      </trkpt>
      <trkpt lat="45.86019" lon="4.86462">
        <ele>307.5</ele>
        <time>2012-05-13T07:09:02Z</time>
      </trkpt>
      <trkpt lat="45.86024" lon="4.86451">
        <ele>308</ele>
        <time>2012-05-13T07:09:05Z</time>
      </trkpt>
      <trkpt lat="45.86031" lon="4.86434">
        <ele>308</ele>
        <time>2012-05-13T07:09:08Z</time>
      </trkpt>
      <trkpt lat="45.86038" lon="4.86417">
        <ele>308</ele>
        <time>2012-05-13T07:09:10Z</time>
      </trkpt>
      <trkpt lat="45.86041" lon="4.86399">
        <ele>308.25</ele>
        <time>2012-05-13T07:09:13Z</time>
      </trkpt>
      <trkpt lat="45.86043" lon="4.86384">
        <ele>308.5</ele>
        <time>2012-05-13T07:09:16Z</time>
      </trkpt>
      <trkpt lat="45.86053" lon="4.86371">
        <ele>308.75</ele>
        <time>2012-05-13T07:09:19Z</time>
      </trkpt>
      <trkpt lat="45.86059" lon="4.86361">
        <ele>310.5</ele>
        <time>2012-05-13T07:09:23Z</time>
      </trkpt>
      <trkpt lat="45.86067" lon="4.8635">
        <ele>312.75</ele>
        <time>2012-05-13T07:09:28Z</time>
      </trkpt>
      <trkpt lat="45.86077" lon="4.86345">
        <ele>315</ele>
        <time>2012-05-13T07:09:31Z</time>
      </trkpt>
      <trkpt lat="45.86083" lon="4.86334">
        <ele>316.5</ele>
        <time>2012-05-13T07:09:35Z</time>
      </trkpt>
      <trkpt lat="45.86087" lon="4.86321">
        <ele>318</ele>
        <time>2012-05-13T07:09:41Z</time>
      </trkpt>
      <trkpt lat="45.86092" lon="4.86308">
        <ele>317.75</ele>
        <time>2012-05-13T07:09:45Z</time>
      </trkpt>
      <trkpt lat="45.86099" lon="4.86298">
        <ele>317.75</ele>
        <time>2012-05-13T07:09:50Z</time>
      </trkpt>
      <trkpt lat="45.86103" lon="4.86286">
        <ele>318.75</ele>
        <time>2012-05-13T07:09:57Z</time>
      </trkpt>
      <trkpt lat="45.86106" lon="4.86271">
        <ele>319.25</ele>
        <time>2012-05-13T07:10:03Z</time>
      </trkpt>
      <trkpt lat="45.86109" lon="4.86257">
        <ele>320.25</ele>
        <time>2012-05-13T07:10:08Z</time>
      </trkpt>
      <trkpt lat="45.86111" lon="4.86241">
        <ele>321</ele>
        <time>2012-05-13T07:10:13Z</time>
      </trkpt>
      <trkpt lat="45.86111" lon="4.86227">
        <ele>322.25</ele>
        <time>2012-05-13T07:10:16Z</time>
      </trkpt>
      <trkpt lat="45.86111" lon="4.86212">
        <ele>323.5</ele>
        <time>2012-05-13T07:10:19Z</time>
      </trkpt>
      <trkpt lat="45.86117" lon="4.86201">
        <ele>322.75</ele>
        <time>2012-05-13T07:10:23Z</time>
      </trkpt>
      <trkpt lat="45.86123" lon="4.86186">
        <ele>323</ele>
        <time>2012-05-13T07:10:27Z</time>
      </trkpt>
      <trkpt lat="45.86128" lon="4.86169">
        <ele>323.75</ele>
        <time>2012-05-13T07:10:30Z</time>
      </trkpt>
      <trkpt lat="45.86133" lon="4.86158">
        <ele>324.5</ele>
        <time>2012-05-13T07:10:34Z</time>
      </trkpt>
      <trkpt lat="45.86141" lon="4.86149">
        <ele>325.5</ele>
        <time>2012-05-13T07:10:37Z</time>
      </trkpt>
      <trkpt lat="45.86149" lon="4.86139">
        <ele>326.75</ele>
        <time>2012-05-13T07:10:40Z</time>
      </trkpt>
      <trkpt lat="45.86159" lon="4.86136">
        <ele>328.5</ele>
        <time>2012-05-13T07:10:44Z</time>
      </trkpt>
      <trkpt lat="45.86171" lon="4.86139">
        <ele>330.5</ele>
        <time>2012-05-13T07:10:48Z</time>
      </trkpt>
      <trkpt lat="45.8618" lon="4.86137">
        <ele>331.75</ele>
        <time>2012-05-13T07:10:54Z</time>
      </trkpt>
      <trkpt lat="45.86189" lon="4.86133">
        <ele>333.75</ele>
        <time>2012-05-13T07:10:59Z</time>
      </trkpt>
      <trkpt lat="45.862" lon="4.86123">
        <ele>335</ele>
        <time>2012-05-13T07:11:04Z</time>
      </trkpt>
      <trkpt lat="45.86209" lon="4.86117">
        <ele>335</ele>
        <time>2012-05-13T07:11:06Z</time>
      </trkpt>
      <trkpt lat="45.86218" lon="4.86114">
        <ele>335.25</ele>
        <time>2012-05-13T07:11:08Z</time>
      </trkpt>
      <trkpt lat="45.8623" lon="4.86116">
        <ele>336.5</ele>
        <time>2012-05-13T07:11:11Z</time>
      </trkpt>
      <trkpt lat="45.86242" lon="4.8612">
        <ele>337.75</ele>
        <time>2012-05-13T07:11:14Z</time>
      </trkpt>
      <trkpt lat="45.86254" lon="4.86124">
        <ele>339.75</ele>
        <time>2012-05-13T07:11:17Z</time>
      </trkpt>
      <trkpt lat="45.86264" lon="4.86128">
        <ele>339</ele>
        <time>2012-05-13T07:11:22Z</time>
      </trkpt>
      <trkpt lat="45.86275" lon="4.86131">
        <ele>340.25</ele>
        <time>2012-05-13T07:11:28Z</time>
      </trkpt>
      <trkpt lat="45.86285" lon="4.86135">
        <ele>342.25</ele>
        <time>2012-05-13T07:11:32Z</time>
      </trkpt>
      <trkpt lat="45.86295" lon="4.86139">
        <ele>343.5</ele>
        <time>2012-05-13T07:11:37Z</time>
      </trkpt>
      <trkpt lat="45.86305" lon="4.86143">
        <ele>345.5</ele>
        <time>2012-05-13T07:11:44Z</time>
      </trkpt>
      <trkpt lat="45.86304" lon="4.86129">
        <ele>347.25</ele>
        <time>2012-05-13T07:11:57Z</time>
      </trkpt>
      <trkpt lat="45.86296" lon="4.8612">
        <ele>347</ele>
        <time>2012-05-13T07:12:04Z</time>
      </trkpt>
      <trkpt lat="45.86289" lon="4.86107">
        <ele>346.75</ele>
        <time>2012-05-13T07:12:08Z</time>
      </trkpt>
      <trkpt lat="45.86285" lon="4.86094">
        <ele>344.5</ele>
        <time>2012-05-13T07:12:12Z</time>
      </trkpt>
      <trkpt lat="45.86282" lon="4.86077">
        <ele>343.25</ele>
        <time>2012-05-13T07:12:15Z</time>
      </trkpt>
      <trkpt lat="45.86279" lon="4.86063">
        <ele>342.5</ele>
        <time>2012-05-13T07:12:17Z</time>
      </trkpt>
      <trkpt lat="45.86274" lon="4.8605">
        <ele>342</ele>
        <time>2012-05-13T07:12:21Z</time>
      </trkpt>
      <trkpt lat="45.86272" lon="4.86034">
        <ele>341.25</ele>
        <time>2012-05-13T07:12:24Z</time>
      </trkpt>
      <trkpt lat="45.86271" lon="4.86022">
        <ele>341</ele>
        <time>2012-05-13T07:12:26Z</time>
      </trkpt>
      <trkpt lat="45.86271" lon="4.86005">
        <ele>340.25</ele>
        <time>2012-05-13T07:12:29Z</time>
      </trkpt>
      <trkpt lat="45.86274" lon="4.85987">
        <ele>339.5</ele>
        <time>2012-05-13T07:12:32Z</time>
      </trkpt>
      <trkpt lat="45.86278" lon="4.85972">
        <ele>338.75</ele>
        <time>2012-05-13T07:12:36Z</time>
      </trkpt>
      <trkpt lat="45.86284" lon="4.85957">
        <ele>338</ele>
        <time>2012-05-13T07:12:39Z</time>
      </trkpt>
      <trkpt lat="45.8629" lon="4.85942">
        <ele>338</ele>
        <time>2012-05-13T07:12:42Z</time>
      </trkpt>
      <trkpt lat="45.86296" lon="4.8593">
        <ele>337.5</ele>
        <time>2012-05-13T07:12:44Z</time>
      </trkpt>
      <trkpt lat="45.86302" lon="4.85917">
        <ele>336.75</ele>
        <time>2012-05-13T07:12:46Z</time>
      </trkpt>
      <trkpt lat="45.86308" lon="4.85905">
        <ele>336.25</ele>
        <time>2012-05-13T07:12:49Z</time>
      </trkpt>
      <trkpt lat="45.86315" lon="4.8589">
        <ele>335.75</ele>
        <time>2012-05-13T07:12:52Z</time>
      </trkpt>
      <trkpt lat="45.86322" lon="4.85876">
        <ele>335.25</ele>
        <time>2012-05-13T07:12:55Z</time>
      </trkpt>
      <trkpt lat="45.86329" lon="4.85865">
        <ele>335</ele>
        <time>2012-05-13T07:12:58Z</time>
      </trkpt>
      <trkpt lat="45.86335" lon="4.85855">
        <ele>336.25</ele>
        <time>2012-05-13T07:13:02Z</time>
      </trkpt>
      <trkpt lat="45.86339" lon="4.85844">
        <ele>336</ele>
        <time>2012-05-13T07:13:14Z</time>
      </trkpt>
      <trkpt lat="45.86347" lon="4.85835">
        <ele>335</ele>
        <time>2012-05-13T07:13:30Z</time>
      </trkpt>
      <trkpt lat="45.86353" lon="4.85824">
        <ele>335</ele>
        <time>2012-05-13T07:13:33Z</time>
      </trkpt>
      <trkpt lat="45.8636" lon="4.85812">
        <ele>335</ele>
        <time>2012-05-13T07:13:36Z</time>
      </trkpt>
      <trkpt lat="45.86367" lon="4.85798">
        <ele>335.25</ele>
        <time>2012-05-13T07:13:38Z</time>
      </trkpt>
      <trkpt lat="45.86373" lon="4.85786">
        <ele>335.75</ele>
        <time>2012-05-13T07:13:40Z</time>
      </trkpt>
      <trkpt lat="45.86379" lon="4.85771">
        <ele>336.75</ele>
        <time>2012-05-13T07:13:43Z</time>
      </trkpt>
      <trkpt lat="45.86384" lon="4.85758">
        <ele>337.5</ele>
        <time>2012-05-13T07:13:46Z</time>
      </trkpt>
      <trkpt lat="45.86391" lon="4.85745">
        <ele>338.5</ele>
        <time>2012-05-13T07:13:49Z</time>
      </trkpt>
      <trkpt lat="45.86399" lon="4.85732">
        <ele>339.75</ele>
        <time>2012-05-13T07:13:52Z</time>
      </trkpt>
      <trkpt lat="45.86405" lon="4.85721">
        <ele>340</ele>
        <time>2012-05-13T07:13:54Z</time>
      </trkpt>
      <trkpt lat="45.86412" lon="4.8571">
        <ele>340</ele>
        <time>2012-05-13T07:13:57Z</time>
      </trkpt>
      <trkpt lat="45.86417" lon="4.857">
        <ele>340</ele>
        <time>2012-05-13T07:14:00Z</time>
      </trkpt>
      <trkpt lat="45.86441" lon="4.85663">
        <ele>338.25</ele>
        <time>2012-05-13T07:14:32Z</time>
      </trkpt>
      <trkpt lat="45.86465" lon="4.85624">
        <ele>336.5</ele>
        <time>2012-05-13T07:14:33Z</time>
      </trkpt>
      <trkpt lat="45.86489" lon="4.85585">
        <ele>334.75</ele>
        <time>2012-05-13T07:14:34Z</time>
      </trkpt>
      <trkpt lat="45.86512" lon="4.85544">
        <ele>333.5</ele>
        <time>2012-05-13T07:14:35Z</time>
      </trkpt>
      <trkpt lat="45.86508" lon="4.85525">
        <ele>334.25</ele>
        <time>2012-05-13T07:14:39Z</time>
      </trkpt>
      <trkpt lat="45.86508" lon="4.85511">
        <ele>334</ele>
        <time>2012-05-13T07:14:42Z</time>
      </trkpt>
      <trkpt lat="45.86505" lon="4.85499">
        <ele>333</ele>
        <time>2012-05-13T07:14:44Z</time>
      </trkpt>
      <trkpt lat="45.86499" lon="4.85479">
        <ele>331.5</ele>
        <time>2012-05-13T07:14:46Z</time>
      </trkpt>
      <trkpt lat="45.86494" lon="4.85462">
        <ele>330.5</ele>
        <time>2012-05-13T07:14:48Z</time>
      </trkpt>
      <trkpt lat="45.86494" lon="4.85445">
        <ele>329.5</ele>
        <time>2012-05-13T07:14:50Z</time>
      </trkpt>
      <trkpt lat="45.86497" lon="4.85422">
        <ele>327.25</ele>
        <time>2012-05-13T07:14:52Z</time>
      </trkpt>
      <trkpt lat="45.865" lon="4.85395">
        <ele>324.75</ele>
        <time>2012-05-13T07:14:54Z</time>
      </trkpt>
      <trkpt lat="45.86502" lon="4.85373">
        <ele>323</ele>
        <time>2012-05-13T07:14:57Z</time>
      </trkpt>
      <trkpt lat="45.86505" lon="4.85352">
        <ele>320.25</ele>
        <time>2012-05-13T07:14:59Z</time>
      </trkpt>
      <trkpt lat="45.86507" lon="4.85337">
        <ele>317.75</ele>
        <time>2012-05-13T07:15:01Z</time>
      </trkpt>
      <trkpt lat="45.86512" lon="4.85319">
        <ele>314.25</ele>
        <time>2012-05-13T07:15:04Z</time>
      </trkpt>
      <trkpt lat="45.86522" lon="4.85296">
        <ele>310</ele>
        <time>2012-05-13T07:15:06Z</time>
      </trkpt>
      <trkpt lat="45.86537" lon="4.85278">
        <ele>306.25</ele>
        <time>2012-05-13T07:15:09Z</time>
      </trkpt>
      <trkpt lat="45.86544" lon="4.85266">
        <ele>302.75</ele>
        <time>2012-05-13T07:15:13Z</time>
      </trkpt>
      <trkpt lat="45.86548" lon="4.8525">
        <ele>299</ele>
        <time>2012-05-13T07:15:15Z</time>
      </trkpt>
      <trkpt lat="45.86548" lon="4.85237">
        <ele>297</ele>
        <time>2012-05-13T07:15:17Z</time>
      </trkpt>
      <trkpt lat="45.86549" lon="4.85222">
        <ele>295.5</ele>
        <time>2012-05-13T07:15:19Z</time>
      </trkpt>
      <trkpt lat="45.86552" lon="4.85203">
        <ele>293.5</ele>
        <time>2012-05-13T07:15:23Z</time>
      </trkpt>
      <trkpt lat="45.86554" lon="4.85189">
        <ele>293</ele>
        <time>2012-05-13T07:15:25Z</time>
      </trkpt>
      <trkpt lat="45.86557" lon="4.8517">
        <ele>292.75</ele>
        <time>2012-05-13T07:15:28Z</time>
      </trkpt>
      <trkpt lat="45.8656" lon="4.85153">
        <ele>291</ele>
        <time>2012-05-13T07:15:30Z</time>
      </trkpt>
      <trkpt lat="45.86559" lon="4.85128">
        <ele>289.75</ele>
        <time>2012-05-13T07:15:32Z</time>
      </trkpt>
      <trkpt lat="45.86556" lon="4.85103">
        <ele>289.75</ele>
        <time>2012-05-13T07:15:34Z</time>
      </trkpt>
      <trkpt lat="45.86555" lon="4.85084">
        <ele>289.25</ele>
        <time>2012-05-13T07:15:37Z</time>
      </trkpt>
      <trkpt lat="45.86557" lon="4.85067">
        <ele>288.5</ele>
        <time>2012-05-13T07:15:40Z</time>
      </trkpt>
      <trkpt lat="45.86559" lon="4.85049">
        <ele>286</ele>
        <time>2012-05-13T07:15:43Z</time>
      </trkpt>
      <trkpt lat="45.86561" lon="4.85035">
        <ele>282.25</ele>
        <time>2012-05-13T07:15:46Z</time>
      </trkpt>
      <trkpt lat="45.86563" lon="4.85018">
        <ele>279</ele>
        <time>2012-05-13T07:15:50Z</time>
      </trkpt>
      <trkpt lat="45.86564" lon="4.85002">
        <ele>275.5</ele>
        <time>2012-05-13T07:15:54Z</time>
      </trkpt>
      <trkpt lat="45.86563" lon="4.84985">
        <ele>273</ele>
        <time>2012-05-13T07:15:57Z</time>
      </trkpt>
      <trkpt lat="45.86562" lon="4.84966">
        <ele>272</ele>
        <time>2012-05-13T07:16:00Z</time>
      </trkpt>
      <trkpt lat="45.86563" lon="4.84952">
        <ele>271.5</ele>
        <time>2012-05-13T07:16:03Z</time>
      </trkpt>
      <trkpt lat="45.86564" lon="4.84932">
        <ele>269.75</ele>
        <time>2012-05-13T07:16:05Z</time>
      </trkpt>
      <trkpt lat="45.86564" lon="4.84912">
        <ele>268.25</ele>
        <time>2012-05-13T07:16:07Z</time>
      </trkpt>
      <trkpt lat="45.86563" lon="4.84898">
        <ele>268</ele>
        <time>2012-05-13T07:16:10Z</time>
      </trkpt>
      <trkpt lat="45.86565" lon="4.84885">
        <ele>268.75</ele>
        <time>2012-05-13T07:16:12Z</time>
      </trkpt>
      <trkpt lat="45.86569" lon="4.8487">
        <ele>270</ele>
        <time>2012-05-13T07:16:15Z</time>
      </trkpt>
      <trkpt lat="45.86575" lon="4.84854">
        <ele>270.5</ele>
        <time>2012-05-13T07:16:17Z</time>
      </trkpt>
      <trkpt lat="45.8658" lon="4.84841">
        <ele>271</ele>
        <time>2012-05-13T07:16:19Z</time>
      </trkpt>
      <trkpt lat="45.86583" lon="4.84822">
        <ele>272</ele>
        <time>2012-05-13T07:16:21Z</time>
      </trkpt>
      <trkpt lat="45.86585" lon="4.84797">
        <ele>273.75</ele>
        <time>2012-05-13T07:16:23Z</time>
      </trkpt>
      <trkpt lat="45.86587" lon="4.84779">
        <ele>275.5</ele>
        <time>2012-05-13T07:16:25Z</time>
      </trkpt>
      <trkpt lat="45.86591" lon="4.84755">
        <ele>275.5</ele>
        <time>2012-05-13T07:16:27Z</time>
      </trkpt>
      <trkpt lat="45.86594" lon="4.84738">
        <ele>274.25</ele>
        <time>2012-05-13T07:16:30Z</time>
      </trkpt>
      <trkpt lat="45.86597" lon="4.84719">
        <ele>270.75</ele>
        <time>2012-05-13T07:16:32Z</time>
      </trkpt>
      <trkpt lat="45.86599" lon="4.84693">
        <ele>266.75</ele>
        <time>2012-05-13T07:16:34Z</time>
      </trkpt>
      <trkpt lat="45.86599" lon="4.84675">
        <ele>266</ele>
        <time>2012-05-13T07:16:36Z</time>
      </trkpt>
      <trkpt lat="45.86598" lon="4.84655">
        <ele>265</ele>
        <time>2012-05-13T07:16:38Z</time>
      </trkpt>
      <trkpt lat="45.86598" lon="4.84634">
        <ele>262.75</ele>
        <time>2012-05-13T07:16:40Z</time>
      </trkpt>
      <trkpt lat="45.86597" lon="4.84615">
        <ele>260.5</ele>
        <time>2012-05-13T07:16:42Z</time>
      </trkpt>
      <trkpt lat="45.86595" lon="4.84595">
        <ele>258.25</ele>
        <time>2012-05-13T07:16:44Z</time>
      </trkpt>
      <trkpt lat="45.86593" lon="4.84574">
        <ele>255.75</ele>
        <time>2012-05-13T07:16:46Z</time>
      </trkpt>
      <trkpt lat="45.86592" lon="4.84557">
        <ele>254</ele>
        <time>2012-05-13T07:16:49Z</time>
      </trkpt>
      <trkpt lat="45.86591" lon="4.84541">
        <ele>253</ele>
        <time>2012-05-13T07:16:51Z</time>
      </trkpt>
      <trkpt lat="45.86591" lon="4.84525">
        <ele>252.25</ele>
        <time>2012-05-13T07:16:53Z</time>
      </trkpt>
      <trkpt lat="45.86593" lon="4.84508">
        <ele>252</ele>
        <time>2012-05-13T07:16:55Z</time>
      </trkpt>
      <trkpt lat="45.86596" lon="4.84492">
        <ele>252</ele>
        <time>2012-05-13T07:16:57Z</time>
      </trkpt>
      <trkpt lat="45.86597" lon="4.84477">
        <ele>252.25</ele>
        <time>2012-05-13T07:16:59Z</time>
      </trkpt>
      <trkpt lat="45.86597" lon="4.84463">
        <ele>252.75</ele>
        <time>2012-05-13T07:17:03Z</time>
      </trkpt>
      <trkpt lat="45.86599" lon="4.8444">
        <ele>252.25</ele>
        <time>2012-05-13T07:17:06Z</time>
      </trkpt>
      <trkpt lat="45.86603" lon="4.84421">
        <ele>250.25</ele>
        <time>2012-05-13T07:17:08Z</time>
      </trkpt>
      <trkpt lat="45.86606" lon="4.84407">
        <ele>249</ele>
        <time>2012-05-13T07:17:10Z</time>
      </trkpt>
      <trkpt lat="45.86616" lon="4.84399">
        <ele>248</ele>
        <time>2012-05-13T07:17:15Z</time>
      </trkpt>
      <trkpt lat="45.86627" lon="4.84393">
        <ele>247</ele>
        <time>2012-05-13T07:17:17Z</time>
      </trkpt>
      <trkpt lat="45.86637" lon="4.84392">
        <ele>246.5</ele>
        <time>2012-05-13T07:17:21Z</time>
      </trkpt>
      <trkpt lat="45.86648" lon="4.84391">
        <ele>246</ele>
        <time>2012-05-13T07:17:23Z</time>
      </trkpt>
      <trkpt lat="45.8666" lon="4.8439">
        <ele>246</ele>
        <time>2012-05-13T07:17:26Z</time>
      </trkpt>
      <trkpt lat="45.86669" lon="4.84388">
        <ele>246</ele>
        <time>2012-05-13T07:17:30Z</time>
      </trkpt>
      <trkpt lat="45.8668" lon="4.84383">
        <ele>246</ele>
        <time>2012-05-13T07:17:35Z</time>
      </trkpt>
      <trkpt lat="45.86689" lon="4.84381">
        <ele>246.5</ele>
        <time>2012-05-13T07:17:38Z</time>
      </trkpt>
      <trkpt lat="45.867" lon="4.84378">
        <ele>247.5</ele>
        <time>2012-05-13T07:17:41Z</time>
      </trkpt>
      <trkpt lat="45.86709" lon="4.84376">
        <ele>249</ele>
        <time>2012-05-13T07:17:44Z</time>
      </trkpt>
      <trkpt lat="45.86719" lon="4.84372">
        <ele>249</ele>
        <time>2012-05-13T07:17:48Z</time>
      </trkpt>
      <trkpt lat="45.86727" lon="4.84361">
        <ele>249.5</ele>
        <time>2012-05-13T07:17:53Z</time>
      </trkpt>
      <trkpt lat="45.86733" lon="4.84349">
        <ele>249</ele>
        <time>2012-05-13T07:17:57Z</time>
      </trkpt>
      <trkpt lat="45.86747" lon="4.84316">
        <ele>248.75</ele>
        <time>2012-05-13T07:18:32Z</time>
      </trkpt>
      <trkpt lat="45.86757" lon="4.84293">
        <ele>248.75</ele>
        <time>2012-05-13T07:18:33Z</time>
      </trkpt>
      <trkpt lat="45.86765" lon="4.84272">
        <ele>249</ele>
        <time>2012-05-13T07:18:34Z</time>
      </trkpt>
      <trkpt lat="45.86774" lon="4.84252">
        <ele>249</ele>
        <time>2012-05-13T07:18:35Z</time>
      </trkpt>
      <trkpt lat="45.8678" lon="4.84242">
        <ele>242.5</ele>
        <time>2012-05-13T07:19:15Z</time>
      </trkpt>
      <trkpt lat="45.86784" lon="4.84225">
        <ele>242</ele>
        <time>2012-05-13T07:19:18Z</time>
      </trkpt>
      <trkpt lat="45.86787" lon="4.84211">
        <ele>241.25</ele>
        <time>2012-05-13T07:19:20Z</time>
      </trkpt>
      <trkpt lat="45.8679" lon="4.84196">
        <ele>240.25</ele>
        <time>2012-05-13T07:19:22Z</time>
      </trkpt>
      <trkpt lat="45.86794" lon="4.84179">
        <ele>240</ele>
        <time>2012-05-13T07:19:24Z</time>
      </trkpt>
      <trkpt lat="45.86801" lon="4.8416">
        <ele>240</ele>
        <time>2012-05-13T07:19:26Z</time>
      </trkpt>
      <trkpt lat="45.86807" lon="4.84149">
        <ele>240</ele>
        <time>2012-05-13T07:19:27Z</time>
      </trkpt>
      <trkpt lat="45.86812" lon="4.84139">
        <ele>239.75</ele>
        <time>2012-05-13T07:19:28Z</time>
      </trkpt>
      <trkpt lat="45.86819" lon="4.84125">
        <ele>239.25</ele>
        <time>2012-05-13T07:19:31Z</time>
      </trkpt>
      <trkpt lat="45.86825" lon="4.84104">
        <ele>237.75</ele>
        <time>2012-05-13T07:19:33Z</time>
      </trkpt>
      <trkpt lat="45.86827" lon="4.84089">
        <ele>236.75</ele>
        <time>2012-05-13T07:19:34Z</time>
      </trkpt>
      <trkpt lat="45.86829" lon="4.84072">
        <ele>235.75</ele>
        <time>2012-05-13T07:19:35Z</time>
      </trkpt>
      <trkpt lat="45.86829" lon="4.84052">
        <ele>234.5</ele>
        <time>2012-05-13T07:19:37Z</time>
      </trkpt>
      <trkpt lat="45.86829" lon="4.84036">
        <ele>233.25</ele>
        <time>2012-05-13T07:19:39Z</time>
      </trkpt>
      <trkpt lat="45.86829" lon="4.84014">
        <ele>231.25</ele>
        <time>2012-05-13T07:19:41Z</time>
      </trkpt>
      <trkpt lat="45.86832" lon="4.83997">
        <ele>230.25</ele>
        <time>2012-05-13T07:19:42Z</time>
      </trkpt>
      <trkpt lat="45.86837" lon="4.83976">
        <ele>229.75</ele>
        <time>2012-05-13T07:19:44Z</time>
      </trkpt>
      <trkpt lat="45.86836" lon="4.83958">
        <ele>229</ele>
        <time>2012-05-13T07:19:46Z</time>
      </trkpt>
      <trkpt lat="45.86826" lon="4.83952">
        <ele>228.25</ele>
        <time>2012-05-13T07:19:49Z</time>
      </trkpt>
      <trkpt lat="45.86814" lon="4.83953">
        <ele>227.75</ele>
        <time>2012-05-13T07:19:51Z</time>
      </trkpt>
      <trkpt lat="45.868" lon="4.83953">
        <ele>227.75</ele>
        <time>2012-05-13T07:19:53Z</time>
      </trkpt>
      <trkpt lat="45.86787" lon="4.83953">
        <ele>227.75</ele>
        <time>2012-05-13T07:19:55Z</time>
      </trkpt>
      <trkpt lat="45.86773" lon="4.83951">
        <ele>227.25</ele>
        <time>2012-05-13T07:19:57Z</time>
      </trkpt>
      <trkpt lat="45.86759" lon="4.8395">
        <ele>227</ele>
        <time>2012-05-13T07:19:59Z</time>
      </trkpt>
      <trkpt lat="45.86741" lon="4.83949">
        <ele>227.5</ele>
        <time>2012-05-13T07:20:03Z</time>
      </trkpt>
      <trkpt lat="45.8673" lon="4.83949">
        <ele>227.5</ele>
        <time>2012-05-13T07:20:04Z</time>
      </trkpt>
      <trkpt lat="45.86714" lon="4.83947">
        <ele>227.25</ele>
        <time>2012-05-13T07:20:06Z</time>
      </trkpt>
      <trkpt lat="45.86701" lon="4.83946">
        <ele>227</ele>
        <time>2012-05-13T07:20:08Z</time>
      </trkpt>
      <trkpt lat="45.86688" lon="4.83946">
        <ele>227</ele>
        <time>2012-05-13T07:20:10Z</time>
      </trkpt>
      <trkpt lat="45.86675" lon="4.83944">
        <ele>227.5</ele>
        <time>2012-05-13T07:20:12Z</time>
      </trkpt>
      <trkpt lat="45.86659" lon="4.83941">
        <ele>228.25</ele>
        <time>2012-05-13T07:20:14Z</time>
      </trkpt>
      <trkpt lat="45.86651" lon="4.83935">
        <ele>228.25</ele>
        <time>2012-05-13T07:20:17Z</time>
      </trkpt>
      <trkpt lat="45.86648" lon="4.8392">
        <ele>228</ele>
        <time>2012-05-13T07:20:21Z</time>
      </trkpt>
      <trkpt lat="45.86654" lon="4.83905">
        <ele>228</ele>
        <time>2012-05-13T07:20:24Z</time>
      </trkpt>
      <trkpt lat="45.86664" lon="4.83894">
        <ele>228.5</ele>
        <time>2012-05-13T07:20:27Z</time>
      </trkpt>
      <trkpt lat="45.86675" lon="4.83881">
        <ele>229</ele>
        <time>2012-05-13T07:20:29Z</time>
      </trkpt>
      <trkpt lat="45.86686" lon="4.83866">
        <ele>229.25</ele>
        <time>2012-05-13T07:20:31Z</time>
      </trkpt>
      <trkpt lat="45.86695" lon="4.83854">
        <ele>229.75</ele>
        <time>2012-05-13T07:20:34Z</time>
      </trkpt>
      <trkpt lat="45.86705" lon="4.83843">
        <ele>230</ele>
        <time>2012-05-13T07:20:36Z</time>
      </trkpt>
      <trkpt lat="45.86716" lon="4.83833">
        <ele>229.75</ele>
        <time>2012-05-13T07:20:38Z</time>
      </trkpt>
      <trkpt lat="45.86726" lon="4.83824">
        <ele>229</ele>
        <time>2012-05-13T07:20:40Z</time>
      </trkpt>
      <trkpt lat="45.86737" lon="4.83816">
        <ele>228.25</ele>
        <time>2012-05-13T07:20:42Z</time>
      </trkpt>
      <trkpt lat="45.86747" lon="4.83807">
        <ele>228.25</ele>
        <time>2012-05-13T07:20:44Z</time>
      </trkpt>
      <trkpt lat="45.86755" lon="4.83798">
        <ele>228.75</ele>
        <time>2012-05-13T07:20:46Z</time>
      </trkpt>
      <trkpt lat="45.86764" lon="4.83786">
        <ele>228.75</ele>
        <time>2012-05-13T07:20:49Z</time>
      </trkpt>
      <trkpt lat="45.86778" lon="4.83776">
        <ele>228.25</ele>
        <time>2012-05-13T07:20:51Z</time>
      </trkpt>
      <trkpt lat="45.86787" lon="4.8377">
        <ele>228</ele>
        <time>2012-05-13T07:20:52Z</time>
      </trkpt>
      <trkpt lat="45.86798" lon="4.83764">
        <ele>228</ele>
        <time>2012-05-13T07:20:55Z</time>
      </trkpt>
      <trkpt lat="45.86808" lon="4.83758">
        <ele>228.25</ele>
        <time>2012-05-13T07:20:57Z</time>
      </trkpt>
      <trkpt lat="45.86818" lon="4.83751">
        <ele>228.5</ele>
        <time>2012-05-13T07:20:59Z</time>
      </trkpt>
      <trkpt lat="45.86827" lon="4.83745">
        <ele>228.75</ele>
        <time>2012-05-13T07:21:01Z</time>
      </trkpt>
      <trkpt lat="45.86837" lon="4.83736">
        <ele>230</ele>
        <time>2012-05-13T07:21:04Z</time>
      </trkpt>
      <trkpt lat="45.86849" lon="4.83727">
        <ele>231.5</ele>
        <time>2012-05-13T07:21:06Z</time>
      </trkpt>
      <trkpt lat="45.86859" lon="4.8372">
        <ele>231.5</ele>
        <time>2012-05-13T07:21:08Z</time>
      </trkpt>
      <trkpt lat="45.86871" lon="4.83715">
        <ele>230.5</ele>
        <time>2012-05-13T07:21:10Z</time>
      </trkpt>
      <trkpt lat="45.86884" lon="4.83711">
        <ele>230</ele>
        <time>2012-05-13T07:21:12Z</time>
      </trkpt>
      <trkpt lat="45.86897" lon="4.83708">
        <ele>229.5</ele>
        <time>2012-05-13T07:21:14Z</time>
      </trkpt>
      <trkpt lat="45.86911" lon="4.83704">
        <ele>229</ele>
        <time>2012-05-13T07:21:16Z</time>
      </trkpt>
      <trkpt lat="45.86927" lon="4.83702">
        <ele>228.75</ele>
        <time>2012-05-13T07:21:21Z</time>
      </trkpt>
      <trkpt lat="45.86936" lon="4.83701">
        <ele>228.25</ele>
        <time>2012-05-13T07:21:22Z</time>
      </trkpt>
      <trkpt lat="45.86946" lon="4.837">
        <ele>227.75</ele>
        <time>2012-05-13T07:21:23Z</time>
      </trkpt>
      <trkpt lat="45.86955" lon="4.837">
        <ele>227.25</ele>
        <time>2012-05-13T07:21:24Z</time>
      </trkpt>
      <trkpt lat="45.86968" lon="4.837">
        <ele>226.75</ele>
        <time>2012-05-13T07:21:26Z</time>
      </trkpt>
      <trkpt lat="45.8698" lon="4.837">
        <ele>226.25</ele>
        <time>2012-05-13T07:21:28Z</time>
      </trkpt>
      <trkpt lat="45.86993" lon="4.837">
        <ele>225.75</ele>
        <time>2012-05-13T07:21:30Z</time>
      </trkpt>
      <trkpt lat="45.87005" lon="4.83699">
        <ele>225.25</ele>
        <time>2012-05-13T07:21:32Z</time>
      </trkpt>
      <trkpt lat="45.87018" lon="4.83699">
        <ele>225</ele>
        <time>2012-05-13T07:21:34Z</time>
      </trkpt>
      <trkpt lat="45.87033" lon="4.83699">
        <ele>225</ele>
        <time>2012-05-13T07:21:36Z</time>
      </trkpt>
      <trkpt lat="45.87047" lon="4.83701">
        <ele>225</ele>
        <time>2012-05-13T07:21:39Z</time>
      </trkpt>
      <trkpt lat="45.87063" lon="4.83702">
        <ele>224.5</ele>
        <time>2012-05-13T07:21:41Z</time>
      </trkpt>
      <trkpt lat="45.87075" lon="4.83703">
        <ele>224</ele>
        <time>2012-05-13T07:21:43Z</time>
      </trkpt>
      <trkpt lat="45.87085" lon="4.83702">
        <ele>223.5</ele>
        <time>2012-05-13T07:21:45Z</time>
      </trkpt>
      <trkpt lat="45.871" lon="4.83703">
        <ele>223.5</ele>
        <time>2012-05-13T07:21:48Z</time>
      </trkpt>
      <trkpt lat="45.87116" lon="4.83707">
        <ele>223.5</ele>
        <time>2012-05-13T07:21:50Z</time>
      </trkpt>
      <trkpt lat="45.87128" lon="4.8371">
        <ele>223</ele>
        <time>2012-05-13T07:21:52Z</time>
      </trkpt>
      <trkpt lat="45.87141" lon="4.83713">
        <ele>223</ele>
        <time>2012-05-13T07:21:54Z</time>
      </trkpt>
      <trkpt lat="45.87156" lon="4.83716">
        <ele>223.5</ele>
        <time>2012-05-13T07:21:56Z</time>
      </trkpt>
      <trkpt lat="45.87169" lon="4.83719">
        <ele>224</ele>
        <time>2012-05-13T07:21:59Z</time>
      </trkpt>
      <trkpt lat="45.87223" lon="4.83727">
        <ele>223.75</ele>
        <time>2012-05-13T07:22:32Z</time>
      </trkpt>
      <trkpt lat="45.8727" lon="4.83732">
        <ele>223.5</ele>
        <time>2012-05-13T07:22:33Z</time>
      </trkpt>
      <trkpt lat="45.87315" lon="4.83738">
        <ele>223.25</ele>
        <time>2012-05-13T07:22:34Z</time>
      </trkpt>
      <trkpt lat="45.87363" lon="4.83744">
        <ele>223</ele>
        <time>2012-05-13T07:22:35Z</time>
      </trkpt>
      <trkpt lat="45.87379" lon="4.83748">
        <ele>223</ele>
        <time>2012-05-13T07:22:37Z</time>
      </trkpt>
      <trkpt lat="45.87389" lon="4.8375">
        <ele>223</ele>
        <time>2012-05-13T07:22:38Z</time>
      </trkpt>
      <trkpt lat="45.87402" lon="4.83752">
        <ele>223</ele>
        <time>2012-05-13T07:22:40Z</time>
      </trkpt>
      <trkpt lat="45.87415" lon="4.83754">
        <ele>223</ele>
        <time>2012-05-13T07:22:44Z</time>
      </trkpt>
      <trkpt lat="45.87428" lon="4.83756">
        <ele>223</ele>
        <time>2012-05-13T07:22:46Z</time>
      </trkpt>
      <trkpt lat="45.87441" lon="4.83757">
        <ele>223</ele>
        <time>2012-05-13T07:22:48Z</time>
      </trkpt>
      <trkpt lat="45.87452" lon="4.83757">
        <ele>223</ele>
        <time>2012-05-13T07:22:51Z</time>
      </trkpt>
      <trkpt lat="45.87465" lon="4.8376">
        <ele>223</ele>
        <time>2012-05-13T07:22:53Z</time>
      </trkpt>
      <trkpt lat="45.87479" lon="4.83764">
        <ele>223</ele>
        <time>2012-05-13T07:22:55Z</time>
      </trkpt>
      <trkpt lat="45.87491" lon="4.83767">
        <ele>223</ele>
        <time>2012-05-13T07:22:57Z</time>
      </trkpt>
      <trkpt lat="45.87505" lon="4.8377">
        <ele>223</ele>
        <time>2012-05-13T07:22:59Z</time>
      </trkpt>
      <trkpt lat="45.8752" lon="4.83773">
        <ele>222.75</ele>
        <time>2012-05-13T07:23:03Z</time>
      </trkpt>
      <trkpt lat="45.87534" lon="4.83775">
        <ele>222.25</ele>
        <time>2012-05-13T07:23:05Z</time>
      </trkpt>
      <trkpt lat="45.87544" lon="4.83776">
        <ele>222</ele>
        <time>2012-05-13T07:23:09Z</time>
      </trkpt>
      <trkpt lat="45.8756" lon="4.83787">
        <ele>222</ele>
        <time>2012-05-13T07:23:12Z</time>
      </trkpt>
      <trkpt lat="45.87569" lon="4.83793">
        <ele>222</ele>
        <time>2012-05-13T07:23:13Z</time>
      </trkpt>
      <trkpt lat="45.8758" lon="4.83799">
        <ele>222</ele>
        <time>2012-05-13T07:23:14Z</time>
      </trkpt>
      <trkpt lat="45.87592" lon="4.83802">
        <ele>222</ele>
        <time>2012-05-13T07:23:17Z</time>
      </trkpt>
      <trkpt lat="45.87605" lon="4.83806">
        <ele>222</ele>
        <time>2012-05-13T07:23:20Z</time>
      </trkpt>
      <trkpt lat="45.87619" lon="4.8381">
        <ele>222</ele>
        <time>2012-05-13T07:23:22Z</time>
      </trkpt>
      <trkpt lat="45.87636" lon="4.83811">
        <ele>222</ele>
        <time>2012-05-13T07:23:26Z</time>
      </trkpt>
      <trkpt lat="45.87647" lon="4.83812">
        <ele>221.75</ele>
        <time>2012-05-13T07:23:30Z</time>
      </trkpt>
      <trkpt lat="45.87659" lon="4.83813">
        <ele>221.25</ele>
        <time>2012-05-13T07:23:32Z</time>
      </trkpt>
      <trkpt lat="45.87668" lon="4.83817">
        <ele>221</ele>
        <time>2012-05-13T07:23:35Z</time>
      </trkpt>
      <trkpt lat="45.87678" lon="4.83824">
        <ele>221.75</ele>
        <time>2012-05-13T07:23:38Z</time>
      </trkpt>
      <trkpt lat="45.87688" lon="4.83823">
        <ele>224</ele>
        <time>2012-05-13T07:23:42Z</time>
      </trkpt>
      <trkpt lat="45.87691" lon="4.83805">
        <ele>226.5</ele>
        <time>2012-05-13T07:23:46Z</time>
      </trkpt>
      <trkpt lat="45.87689" lon="4.83791">
        <ele>227</ele>
        <time>2012-05-13T07:23:50Z</time>
      </trkpt>
      <trkpt lat="45.87688" lon="4.83776">
        <ele>227</ele>
        <time>2012-05-13T07:23:52Z</time>
      </trkpt>
      <trkpt lat="45.87687" lon="4.83763">
        <ele>227</ele>
        <time>2012-05-13T07:23:54Z</time>
      </trkpt>
      <trkpt lat="45.87685" lon="4.83747">
        <ele>227.25</ele>
        <time>2012-05-13T07:23:58Z</time>
      </trkpt>
      <trkpt lat="45.87683" lon="4.8373">
        <ele>228</ele>
        <time>2012-05-13T07:24:03Z</time>
      </trkpt>
      <trkpt lat="45.87682" lon="4.83711">
        <ele>228</ele>
        <time>2012-05-13T07:24:06Z</time>
      </trkpt>
      <trkpt lat="45.8768" lon="4.83697">
        <ele>228</ele>
        <time>2012-05-13T07:24:09Z</time>
      </trkpt>
      <trkpt lat="45.87679" lon="4.83681">
        <ele>228</ele>
        <time>2012-05-13T07:24:12Z</time>
      </trkpt>
      <trkpt lat="45.87677" lon="4.83668">
        <ele>228</ele>
        <time>2012-05-13T07:24:15Z</time>
      </trkpt>
      <trkpt lat="45.87676" lon="4.83649">
        <ele>227.75</ele>
        <time>2012-05-13T07:24:18Z</time>
      </trkpt>
      <trkpt lat="45.87675" lon="4.83631">
        <ele>227</ele>
        <time>2012-05-13T07:24:21Z</time>
      </trkpt>
      <trkpt lat="45.87673" lon="4.83612">
        <ele>227</ele>
        <time>2012-05-13T07:24:24Z</time>
      </trkpt>
      <trkpt lat="45.87672" lon="4.83599">
        <ele>227</ele>
        <time>2012-05-13T07:24:26Z</time>
      </trkpt>
      <trkpt lat="45.87671" lon="4.83581">
        <ele>226.5</ele>
        <time>2012-05-13T07:24:28Z</time>
      </trkpt>
      <trkpt lat="45.8767" lon="4.83568">
        <ele>226</ele>
        <time>2012-05-13T07:24:31Z</time>
      </trkpt>
      <trkpt lat="45.87663" lon="4.83552">
        <ele>225</ele>
        <time>2012-05-13T07:24:36Z</time>
      </trkpt>
      <trkpt lat="45.87663" lon="4.83537">
        <ele>225</ele>
        <time>2012-05-13T07:24:40Z</time>
      </trkpt>
      <trkpt lat="45.87665" lon="4.83519">
        <ele>225.5</ele>
        <time>2012-05-13T07:24:43Z</time>
      </trkpt>
      <trkpt lat="45.87668" lon="4.835">
        <ele>225.5</ele>
        <time>2012-05-13T07:24:45Z</time>
      </trkpt>
      <trkpt lat="45.87668" lon="4.8348">
        <ele>224.75</ele>
        <time>2012-05-13T07:24:47Z</time>
      </trkpt>
      <trkpt lat="45.87664" lon="4.83467">
        <ele>224.25</ele>
        <time>2012-05-13T07:24:50Z</time>
      </trkpt>
      <trkpt lat="45.87657" lon="4.83451">
        <ele>224.5</ele>
        <time>2012-05-13T07:24:53Z</time>
      </trkpt>
      <trkpt lat="45.87649" lon="4.83435">
        <ele>225.5</ele>
        <time>2012-05-13T07:24:55Z</time>
      </trkpt>
      <trkpt lat="45.87642" lon="4.83424">
        <ele>226.5</ele>
        <time>2012-05-13T07:24:57Z</time>
      </trkpt>
      <trkpt lat="45.87633" lon="4.83415">
        <ele>227.25</ele>
        <time>2012-05-13T07:24:59Z</time>
      </trkpt>
      <trkpt lat="45.87613" lon="4.83371">
        <ele>228.5</ele>
        <time>2012-05-13T07:25:32Z</time>
      </trkpt>
      <trkpt lat="45.87595" lon="4.83327">
        <ele>229.75</ele>
        <time>2012-05-13T07:25:33Z</time>
      </trkpt>
      <trkpt lat="45.8758" lon="4.83282">
        <ele>231.25</ele>
        <time>2012-05-13T07:25:34Z</time>
      </trkpt>
      <trkpt lat="45.87566" lon="4.83238">
        <ele>232.5</ele>
        <time>2012-05-13T07:25:35Z</time>
      </trkpt>
      <trkpt lat="45.87569" lon="4.83221">
        <ele>233</ele>
        <time>2012-05-13T07:25:38Z</time>
      </trkpt>
      <trkpt lat="45.87563" lon="4.83205">
        <ele>233.75</ele>
        <time>2012-05-13T07:25:41Z</time>
      </trkpt>
      <trkpt lat="45.87556" lon="4.83194">
        <ele>234.25</ele>
        <time>2012-05-13T07:25:44Z</time>
      </trkpt>
      <trkpt lat="45.87551" lon="4.83182">
        <ele>234.75</ele>
        <time>2012-05-13T07:25:46Z</time>
      </trkpt>
      <trkpt lat="45.87545" lon="4.83169">
        <ele>235.75</ele>
        <time>2012-05-13T07:25:49Z</time>
      </trkpt>
      <trkpt lat="45.87543" lon="4.83155">
        <ele>236.25</ele>
        <time>2012-05-13T07:25:52Z</time>
      </trkpt>
      <trkpt lat="45.87544" lon="4.83141">
        <ele>237</ele>
        <time>2012-05-13T07:25:55Z</time>
      </trkpt>
      <trkpt lat="45.87544" lon="4.83124">
        <ele>237.25</ele>
        <time>2012-05-13T07:25:59Z</time>
      </trkpt>
      <trkpt lat="45.87543" lon="4.8311">
        <ele>238.25</ele>
        <time>2012-05-13T07:26:04Z</time>
      </trkpt>
      <trkpt lat="45.87542" lon="4.83092">
        <ele>239</ele>
        <time>2012-05-13T07:26:07Z</time>
      </trkpt>
      <trkpt lat="45.87541" lon="4.83078">
        <ele>240</ele>
        <time>2012-05-13T07:26:11Z</time>
      </trkpt>
      <trkpt lat="45.87539" lon="4.83064">
        <ele>242</ele>
        <time>2012-05-13T07:26:16Z</time>
      </trkpt>
      <trkpt lat="45.87538" lon="4.8305">
        <ele>244</ele>
        <time>2012-05-13T07:26:21Z</time>
      </trkpt>
      <trkpt lat="45.87537" lon="4.83035">
        <ele>246</ele>
        <time>2012-05-13T07:26:29Z</time>
      </trkpt>
      <trkpt lat="45.87537" lon="4.83019">
        <ele>248</ele>
        <time>2012-05-13T07:26:35Z</time>
      </trkpt>
      <trkpt lat="45.87535" lon="4.83003">
        <ele>248.75</ele>
        <time>2012-05-13T07:26:38Z</time>
      </trkpt>
      <trkpt lat="45.87532" lon="4.82986">
        <ele>249</ele>
        <time>2012-05-13T07:26:43Z</time>
      </trkpt>
      <trkpt lat="45.87528" lon="4.8297">
        <ele>249</ele>
        <time>2012-05-13T07:26:46Z</time>
      </trkpt>
      <trkpt lat="45.87525" lon="4.82956">
        <ele>250</ele>
        <time>2012-05-13T07:26:50Z</time>
      </trkpt>
      <trkpt lat="45.87521" lon="4.82943">
        <ele>250.5</ele>
        <time>2012-05-13T07:26:53Z</time>
      </trkpt>
      <trkpt lat="45.87517" lon="4.82929">
        <ele>251.25</ele>
        <time>2012-05-13T07:26:56Z</time>
      </trkpt>
      <trkpt lat="45.87512" lon="4.82915">
        <ele>252.75</ele>
        <time>2012-05-13T07:27:00Z</time>
      </trkpt>
      <trkpt lat="45.87507" lon="4.82902">
        <ele>253.75</ele>
        <time>2012-05-13T07:27:04Z</time>
      </trkpt>
      <trkpt lat="45.87502" lon="4.82887">
        <ele>255</ele>
        <time>2012-05-13T07:27:07Z</time>
      </trkpt>
      <trkpt lat="45.87498" lon="4.82875">
        <ele>255.25</ele>
        <time>2012-05-13T07:27:10Z</time>
      </trkpt>
      <trkpt lat="45.87493" lon="4.82864">
        <ele>256.5</ele>
        <time>2012-05-13T07:27:13Z</time>
      </trkpt>
      <trkpt lat="45.87487" lon="4.8285">
        <ele>257</ele>
        <time>2012-05-13T07:27:17Z</time>
      </trkpt>
      <trkpt lat="45.87482" lon="4.82839">
        <ele>257.5</ele>
        <time>2012-05-13T07:27:20Z</time>
      </trkpt>
      <trkpt lat="45.87476" lon="4.82828">
        <ele>258</ele>
        <time>2012-05-13T07:27:22Z</time>
      </trkpt>
      <trkpt lat="45.8747" lon="4.82816">
        <ele>258.25</ele>
        <time>2012-05-13T07:27:26Z</time>
      </trkpt>
      <trkpt lat="45.87464" lon="4.82801">
        <ele>259</ele>
        <time>2012-05-13T07:27:29Z</time>
      </trkpt>
      <trkpt lat="45.87459" lon="4.82786">
        <ele>259</ele>
        <time>2012-05-13T07:27:32Z</time>
      </trkpt>
      <trkpt lat="45.87453" lon="4.82775">
        <ele>259.25</ele>
        <time>2012-05-13T07:27:34Z</time>
      </trkpt>
      <trkpt lat="45.87448" lon="4.82764">
        <ele>259.75</ele>
        <time>2012-05-13T07:27:37Z</time>
      </trkpt>
      <trkpt lat="45.87441" lon="4.8275">
        <ele>260</ele>
        <time>2012-05-13T07:27:40Z</time>
      </trkpt>
      <trkpt lat="45.87435" lon="4.82737">
        <ele>260.25</ele>
        <time>2012-05-13T07:27:44Z</time>
      </trkpt>
      <trkpt lat="45.87428" lon="4.82724">
        <ele>260.75</ele>
        <time>2012-05-13T07:27:46Z</time>
      </trkpt>
      <trkpt lat="45.87421" lon="4.82711">
        <ele>261.5</ele>
        <time>2012-05-13T07:27:48Z</time>
      </trkpt>
      <trkpt lat="45.87414" lon="4.82697">
        <ele>262.25</ele>
        <time>2012-05-13T07:27:51Z</time>
      </trkpt>
      <trkpt lat="45.87406" lon="4.82683">
        <ele>263</ele>
        <time>2012-05-13T07:27:54Z</time>
      </trkpt>
      <trkpt lat="45.87398" lon="4.82668">
        <ele>263</ele>
        <time>2012-05-13T07:27:57Z</time>
      </trkpt>
      <trkpt lat="45.8739" lon="4.82652">
        <ele>263.5</ele>
        <time>2012-05-13T07:28:00Z</time>
      </trkpt>
      <trkpt lat="45.87381" lon="4.82644">
        <ele>264</ele>
        <time>2012-05-13T07:28:04Z</time>
      </trkpt>
      <trkpt lat="45.87372" lon="4.82637">
        <ele>264.25</ele>
        <time>2012-05-13T07:28:06Z</time>
      </trkpt>
      <trkpt lat="45.87361" lon="4.8263">
        <ele>265</ele>
        <time>2012-05-13T07:28:09Z</time>
      </trkpt>
      <trkpt lat="45.87351" lon="4.82619">
        <ele>265.25</ele>
        <time>2012-05-13T07:28:12Z</time>
      </trkpt>
      <trkpt lat="45.87341" lon="4.82606">
        <ele>266</ele>
        <time>2012-05-13T07:28:16Z</time>
      </trkpt>
      <trkpt lat="45.87334" lon="4.82596">
        <ele>266.25</ele>
        <time>2012-05-13T07:28:18Z</time>
      </trkpt>
      <trkpt lat="45.87326" lon="4.82584">
        <ele>267</ele>
        <time>2012-05-13T07:28:21Z</time>
      </trkpt>
      <trkpt lat="45.87318" lon="4.82569">
        <ele>267</ele>
        <time>2012-05-13T07:28:24Z</time>
      </trkpt>
      <trkpt lat="45.87311" lon="4.82556">
        <ele>267.75</ele>
        <time>2012-05-13T07:28:27Z</time>
      </trkpt>
      <trkpt lat="45.87304" lon="4.82544">
        <ele>268</ele>
        <time>2012-05-13T07:28:29Z</time>
      </trkpt>
      <trkpt lat="45.87295" lon="4.82532">
        <ele>268.25</ele>
        <time>2012-05-13T07:28:31Z</time>
      </trkpt>
      <trkpt lat="45.87284" lon="4.82519">
        <ele>269</ele>
        <time>2012-05-13T07:28:35Z</time>
      </trkpt>
      <trkpt lat="45.87276" lon="4.82509">
        <ele>269.25</ele>
        <time>2012-05-13T07:28:37Z</time>
      </trkpt>
      <trkpt lat="45.87267" lon="4.82498">
        <ele>269.75</ele>
        <time>2012-05-13T07:28:39Z</time>
      </trkpt>
      <trkpt lat="45.87259" lon="4.8249">
        <ele>270</ele>
        <time>2012-05-13T07:28:41Z</time>
      </trkpt>
      <trkpt lat="45.8725" lon="4.82481">
        <ele>270.75</ele>
        <time>2012-05-13T07:28:44Z</time>
      </trkpt>
      <trkpt lat="45.87241" lon="4.82472">
        <ele>271.5</ele>
        <time>2012-05-13T07:28:46Z</time>
      </trkpt>
      <trkpt lat="45.87228" lon="4.82457">
        <ele>272.5</ele>
        <time>2012-05-13T07:28:48Z</time>
      </trkpt>
      <trkpt lat="45.87219" lon="4.82447">
        <ele>273</ele>
        <time>2012-05-13T07:28:50Z</time>
      </trkpt>
      <trkpt lat="45.8721" lon="4.82438">
        <ele>273.5</ele>
        <time>2012-05-13T07:28:53Z</time>
      </trkpt>
      <trkpt lat="45.87203" lon="4.82428">
        <ele>274</ele>
        <time>2012-05-13T07:28:55Z</time>
      </trkpt>
      <trkpt lat="45.87196" lon="4.82417">
        <ele>273.5</ele>
        <time>2012-05-13T07:28:57Z</time>
      </trkpt>
      <trkpt lat="45.87189" lon="4.82406">
        <ele>273</ele>
        <time>2012-05-13T07:28:59Z</time>
      </trkpt>
      <trkpt lat="45.87151" lon="4.82358">
        <ele>274</ele>
        <time>2012-05-13T07:29:33Z</time>
      </trkpt>
      <trkpt lat="45.87118" lon="4.82319">
        <ele>275.25</ele>
        <time>2012-05-13T07:29:34Z</time>
      </trkpt>
      <trkpt lat="45.87085" lon="4.82281">
        <ele>276.5</ele>
        <time>2012-05-13T07:29:35Z</time>
      </trkpt>
      <trkpt lat="45.87053" lon="4.82246">
        <ele>277.75</ele>
        <time>2012-05-13T07:29:36Z</time>
      </trkpt>
      <trkpt lat="45.87043" lon="4.82255">
        <ele>280</ele>
        <time>2012-05-13T07:29:41Z</time>
      </trkpt>
      <trkpt lat="45.87033" lon="4.82255">
        <ele>281</ele>
        <time>2012-05-13T07:29:45Z</time>
      </trkpt>
      <trkpt lat="45.87023" lon="4.82253">
        <ele>281</ele>
        <time>2012-05-13T07:29:50Z</time>
      </trkpt>
      <trkpt lat="45.87009" lon="4.82251">
        <ele>281.25</ele>
        <time>2012-05-13T07:29:53Z</time>
      </trkpt>
      <trkpt lat="45.86998" lon="4.8225">
        <ele>283</ele>
        <time>2012-05-13T07:29:57Z</time>
      </trkpt>
      <trkpt lat="45.86986" lon="4.82248">
        <ele>284</ele>
        <time>2012-05-13T07:30:01Z</time>
      </trkpt>
      <trkpt lat="45.86978" lon="4.82242">
        <ele>284</ele>
        <time>2012-05-13T07:30:04Z</time>
      </trkpt>
      <trkpt lat="45.86968" lon="4.82236">
        <ele>284.25</ele>
        <time>2012-05-13T07:30:06Z</time>
      </trkpt>
      <trkpt lat="45.8696" lon="4.82229">
        <ele>285.25</ele>
        <time>2012-05-13T07:30:10Z</time>
      </trkpt>
      <trkpt lat="45.86952" lon="4.82222">
        <ele>286.5</ele>
        <time>2012-05-13T07:30:13Z</time>
      </trkpt>
      <trkpt lat="45.86942" lon="4.82214">
        <ele>288</ele>
        <time>2012-05-13T07:30:18Z</time>
      </trkpt>
      <trkpt lat="45.86931" lon="4.82203">
        <ele>289.75</ele>
        <time>2012-05-13T07:30:21Z</time>
      </trkpt>
      <trkpt lat="45.86922" lon="4.82195">
        <ele>290.25</ele>
        <time>2012-05-13T07:30:25Z</time>
      </trkpt>
      <trkpt lat="45.86912" lon="4.82191">
        <ele>291</ele>
        <time>2012-05-13T07:30:29Z</time>
      </trkpt>
      <trkpt lat="45.86903" lon="4.82185">
        <ele>291.5</ele>
        <time>2012-05-13T07:30:32Z</time>
      </trkpt>
      <trkpt lat="45.86896" lon="4.82172">
        <ele>293.75</ele>
        <time>2012-05-13T07:30:37Z</time>
      </trkpt>
      <trkpt lat="45.86888" lon="4.82164">
        <ele>296.5</ele>
        <time>2012-05-13T07:30:42Z</time>
      </trkpt>
      <trkpt lat="45.86881" lon="4.82156">
        <ele>297.5</ele>
        <time>2012-05-13T07:30:45Z</time>
      </trkpt>
      <trkpt lat="45.86873" lon="4.82148">
        <ele>298.75</ele>
        <time>2012-05-13T07:30:49Z</time>
      </trkpt>
      <trkpt lat="45.86865" lon="4.82139">
        <ele>299.75</ele>
        <time>2012-05-13T07:30:54Z</time>
      </trkpt>
      <trkpt lat="45.86855" lon="4.82133">
        <ele>301.25</ele>
        <time>2012-05-13T07:30:59Z</time>
      </trkpt>
      <trkpt lat="45.86844" lon="4.82131">
        <ele>302.75</ele>
        <time>2012-05-13T07:31:05Z</time>
      </trkpt>
      <trkpt lat="45.86834" lon="4.82131">
        <ele>304.5</ele>
        <time>2012-05-13T07:31:10Z</time>
      </trkpt>
      <trkpt lat="45.86824" lon="4.82128">
        <ele>306</ele>
        <time>2012-05-13T07:31:15Z</time>
      </trkpt>
      <trkpt lat="45.86815" lon="4.82121">
        <ele>307</ele>
        <time>2012-05-13T07:31:19Z</time>
      </trkpt>
      <trkpt lat="45.86806" lon="4.82111">
        <ele>308</ele>
        <time>2012-05-13T07:31:24Z</time>
      </trkpt>
      <trkpt lat="45.86798" lon="4.82101">
        <ele>309</ele>
        <time>2012-05-13T07:31:29Z</time>
      </trkpt>
      <trkpt lat="45.8679" lon="4.82092">
        <ele>309.5</ele>
        <time>2012-05-13T07:31:33Z</time>
      </trkpt>
      <trkpt lat="45.86779" lon="4.82085">
        <ele>311.25</ele>
        <time>2012-05-13T07:31:38Z</time>
      </trkpt>
      <trkpt lat="45.8677" lon="4.82083">
        <ele>312</ele>
        <time>2012-05-13T07:31:41Z</time>
      </trkpt>
      <trkpt lat="45.86759" lon="4.82083">
        <ele>314</ele>
        <time>2012-05-13T07:31:47Z</time>
      </trkpt>
      <trkpt lat="45.86748" lon="4.82086">
        <ele>316.25</ele>
        <time>2012-05-13T07:31:51Z</time>
      </trkpt>
      <trkpt lat="45.86738" lon="4.82088">
        <ele>318</ele>
        <time>2012-05-13T07:31:55Z</time>
      </trkpt>
      <trkpt lat="45.86727" lon="4.82088">
        <ele>320</ele>
        <time>2012-05-13T07:32:00Z</time>
      </trkpt>
      <trkpt lat="45.86715" lon="4.8209">
        <ele>320.75</ele>
        <time>2012-05-13T07:32:05Z</time>
      </trkpt>
      <trkpt lat="45.86705" lon="4.82092">
        <ele>321.75</ele>
        <time>2012-05-13T07:32:09Z</time>
      </trkpt>
      <trkpt lat="45.86694" lon="4.82093">
        <ele>323.5</ele>
        <time>2012-05-13T07:32:13Z</time>
      </trkpt>
      <trkpt lat="45.86685" lon="4.82093">
        <ele>324.75</ele>
        <time>2012-05-13T07:32:16Z</time>
      </trkpt>
      <trkpt lat="45.86674" lon="4.82093">
        <ele>326.25</ele>
        <time>2012-05-13T07:32:22Z</time>
      </trkpt>
      <trkpt lat="45.86663" lon="4.82093">
        <ele>327.5</ele>
        <time>2012-05-13T07:32:26Z</time>
      </trkpt>
      <trkpt lat="45.86653" lon="4.82094">
        <ele>328.25</ele>
        <time>2012-05-13T07:32:30Z</time>
      </trkpt>
      <trkpt lat="45.86642" lon="4.82096">
        <ele>329.5</ele>
        <time>2012-05-13T07:32:37Z</time>
      </trkpt>
      <trkpt lat="45.86633" lon="4.82095">
        <ele>330</ele>
        <time>2012-05-13T07:32:40Z</time>
      </trkpt>
      <trkpt lat="45.86621" lon="4.82094">
        <ele>330.75</ele>
        <time>2012-05-13T07:32:44Z</time>
      </trkpt>
      <trkpt lat="45.86609" lon="4.82094">
        <ele>331.25</ele>
        <time>2012-05-13T07:32:49Z</time>
      </trkpt>
      <trkpt lat="45.86597" lon="4.82093">
        <ele>332</ele>
        <time>2012-05-13T07:32:52Z</time>
      </trkpt>
      <trkpt lat="45.86588" lon="4.82092">
        <ele>332.5</ele>
        <time>2012-05-13T07:32:57Z</time>
      </trkpt>
      <trkpt lat="45.86576" lon="4.8209">
        <ele>333.5</ele>
        <time>2012-05-13T07:33:00Z</time>
      </trkpt>
      <trkpt lat="45.86567" lon="4.82093">
        <ele>334.75</ele>
        <time>2012-05-13T07:33:06Z</time>
      </trkpt>
      <trkpt lat="45.8656" lon="4.82102">
        <ele>336.5</ele>
        <time>2012-05-13T07:33:10Z</time>
      </trkpt>
      <trkpt lat="45.86554" lon="4.82113">
        <ele>338.5</ele>
        <time>2012-05-13T07:33:14Z</time>
      </trkpt>
      <trkpt lat="45.86546" lon="4.8212">
        <ele>341.25</ele>
        <time>2012-05-13T07:33:19Z</time>
      </trkpt>
      <trkpt lat="45.86536" lon="4.82121">
        <ele>342.5</ele>
        <time>2012-05-13T07:33:23Z</time>
      </trkpt>
      <trkpt lat="45.86525" lon="4.82121">
        <ele>344</ele>
        <time>2012-05-13T07:33:28Z</time>
      </trkpt>
      <trkpt lat="45.86516" lon="4.8212">
        <ele>344.25</ele>
        <time>2012-05-13T07:33:32Z</time>
      </trkpt>
      <trkpt lat="45.86504" lon="4.8212">
        <ele>345</ele>
        <time>2012-05-13T07:33:35Z</time>
      </trkpt>
      <trkpt lat="45.86493" lon="4.82121">
        <ele>345</ele>
        <time>2012-05-13T07:33:39Z</time>
      </trkpt>
      <trkpt lat="45.86484" lon="4.82123">
        <ele>345</ele>
        <time>2012-05-13T07:33:43Z</time>
      </trkpt>
      <trkpt lat="45.86474" lon="4.82124">
        <ele>345.75</ele>
        <time>2012-05-13T07:33:48Z</time>
      </trkpt>
      <trkpt lat="45.86465" lon="4.82125">
        <ele>347</ele>
        <time>2012-05-13T07:33:51Z</time>
      </trkpt>
      <trkpt lat="45.86456" lon="4.82128">
        <ele>347</ele>
        <time>2012-05-13T07:33:54Z</time>
      </trkpt>
      <trkpt lat="45.86447" lon="4.8213">
        <ele>347.5</ele>
        <time>2012-05-13T07:33:58Z</time>
      </trkpt>
      <trkpt lat="45.86437" lon="4.82131">
        <ele>348.5</ele>
        <time>2012-05-13T07:34:04Z</time>
      </trkpt>
      <trkpt lat="45.86426" lon="4.82131">
        <ele>349.75</ele>
        <time>2012-05-13T07:34:08Z</time>
      </trkpt>
      <trkpt lat="45.86417" lon="4.82131">
        <ele>351</ele>
        <time>2012-05-13T07:34:12Z</time>
      </trkpt>
      <trkpt lat="45.86406" lon="4.82131">
        <ele>352</ele>
        <time>2012-05-13T07:34:17Z</time>
      </trkpt>
      <trkpt lat="45.86397" lon="4.82132">
        <ele>352.75</ele>
        <time>2012-05-13T07:34:23Z</time>
      </trkpt>
      <trkpt lat="45.86387" lon="4.82136">
        <ele>354</ele>
        <time>2012-05-13T07:34:28Z</time>
      </trkpt>
      <trkpt lat="45.86379" lon="4.82146">
        <ele>358.25</ele>
        <time>2012-05-13T07:34:35Z</time>
      </trkpt>
      <trkpt lat="45.86375" lon="4.82159">
        <ele>362</ele>
        <time>2012-05-13T07:34:44Z</time>
      </trkpt>
      <trkpt lat="45.86368" lon="4.82167">
        <ele>365</ele>
        <time>2012-05-13T07:34:56Z</time>
      </trkpt>
      <trkpt lat="45.86359" lon="4.82178">
        <ele>365</ele>
        <time>2012-05-13T07:35:34Z</time>
      </trkpt>
      <trkpt lat="45.86367" lon="4.82172">
        <ele>366.75</ele>
        <time>2012-05-13T07:36:18Z</time>
      </trkpt>
      <trkpt lat="45.8636" lon="4.82181">
        <ele>369.25</ele>
        <time>2012-05-13T07:37:56Z</time>
      </trkpt>
      <trkpt lat="45.8635" lon="4.82183">
        <ele>369.5</ele>
        <time>2012-05-13T07:38:04Z</time>
      </trkpt>
      <trkpt lat="45.8634" lon="4.82179">
        <ele>369</ele>
        <time>2012-05-13T07:38:08Z</time>
      </trkpt>
      <trkpt lat="45.86336" lon="4.82168">
        <ele>369</ele>
        <time>2012-05-13T07:38:14Z</time>
      </trkpt>
      <trkpt lat="45.86333" lon="4.82153">
        <ele>370</ele>
        <time>2012-05-13T07:38:24Z</time>
      </trkpt>
      <trkpt lat="45.86329" lon="4.82141">
        <ele>370.5</ele>
        <time>2012-05-13T07:38:31Z</time>
      </trkpt>
      <trkpt lat="45.86323" lon="4.82129">
        <ele>372</ele>
        <time>2012-05-13T07:38:37Z</time>
      </trkpt>
      <trkpt lat="45.86316" lon="4.82118">
        <ele>372.5</ele>
        <time>2012-05-13T07:38:43Z</time>
      </trkpt>
      <trkpt lat="45.86309" lon="4.82108">
        <ele>373.25</ele>
        <time>2012-05-13T07:38:48Z</time>
      </trkpt>
      <trkpt lat="45.86301" lon="4.82101">
        <ele>374.25</ele>
        <time>2012-05-13T07:38:53Z</time>
      </trkpt>
      <trkpt lat="45.86293" lon="4.82094">
        <ele>375.75</ele>
        <time>2012-05-13T07:38:56Z</time>
      </trkpt>
      <trkpt lat="45.86284" lon="4.82086">
        <ele>376.5</ele>
        <time>2012-05-13T07:39:01Z</time>
      </trkpt>
      <trkpt lat="45.86276" lon="4.82079">
        <ele>377</ele>
        <time>2012-05-13T07:39:05Z</time>
      </trkpt>
      <trkpt lat="45.86266" lon="4.82073">
        <ele>377.75</ele>
        <time>2012-05-13T07:39:09Z</time>
      </trkpt>
      <trkpt lat="45.86257" lon="4.82065">
        <ele>379.5</ele>
        <time>2012-05-13T07:39:13Z</time>
      </trkpt>
      <trkpt lat="45.86248" lon="4.82059">
        <ele>380.25</ele>
        <time>2012-05-13T07:39:17Z</time>
      </trkpt>
      <trkpt lat="45.86239" lon="4.82053">
        <ele>381.25</ele>
        <time>2012-05-13T07:39:21Z</time>
      </trkpt>
      <trkpt lat="45.8623" lon="4.82046">
        <ele>382</ele>
        <time>2012-05-13T07:39:25Z</time>
      </trkpt>
      <trkpt lat="45.86222" lon="4.82041">
        <ele>383.5</ele>
        <time>2012-05-13T07:39:29Z</time>
      </trkpt>
      <trkpt lat="45.86212" lon="4.82035">
        <ele>384.75</ele>
        <time>2012-05-13T07:39:34Z</time>
      </trkpt>
      <trkpt lat="45.862" lon="4.82029">
        <ele>385.25</ele>
        <time>2012-05-13T07:39:38Z</time>
      </trkpt>
      <trkpt lat="45.86192" lon="4.82022">
        <ele>387</ele>
        <time>2012-05-13T07:39:41Z</time>
      </trkpt>
      <trkpt lat="45.86184" lon="4.82013">
        <ele>388.5</ele>
        <time>2012-05-13T07:39:45Z</time>
      </trkpt>
      <trkpt lat="45.86177" lon="4.82003">
        <ele>389.5</ele>
        <time>2012-05-13T07:39:49Z</time>
      </trkpt>
      <trkpt lat="45.86172" lon="4.81992">
        <ele>392</ele>
        <time>2012-05-13T07:39:54Z</time>
      </trkpt>
      <trkpt lat="45.86165" lon="4.81979">
        <ele>394</ele>
        <time>2012-05-13T07:39:59Z</time>
      </trkpt>
      <trkpt lat="45.8616" lon="4.81966">
        <ele>395.25</ele>
        <time>2012-05-13T07:40:04Z</time>
      </trkpt>
      <trkpt lat="45.86154" lon="4.81955">
        <ele>395.5</ele>
        <time>2012-05-13T07:40:10Z</time>
      </trkpt>
      <trkpt lat="45.86148" lon="4.81944">
        <ele>396.5</ele>
        <time>2012-05-13T07:40:15Z</time>
      </trkpt>
      <trkpt lat="45.8614" lon="4.81935">
        <ele>398.25</ele>
        <time>2012-05-13T07:40:22Z</time>
      </trkpt>
      <trkpt lat="45.86131" lon="4.81927">
        <ele>400.5</ele>
        <time>2012-05-13T07:40:28Z</time>
      </trkpt>
      <trkpt lat="45.86123" lon="4.81918">
        <ele>402.25</ele>
        <time>2012-05-13T07:40:33Z</time>
      </trkpt>
      <trkpt lat="45.86115" lon="4.81911">
        <ele>404</ele>
        <time>2012-05-13T07:40:40Z</time>
      </trkpt>
      <trkpt lat="45.86106" lon="4.81905">
        <ele>407.5</ele>
        <time>2012-05-13T07:40:47Z</time>
      </trkpt>
      <trkpt lat="45.86096" lon="4.81898">
        <ele>408.75</ele>
        <time>2012-05-13T07:40:53Z</time>
      </trkpt>
      <trkpt lat="45.86087" lon="4.81893">
        <ele>409.75</ele>
        <time>2012-05-13T07:40:59Z</time>
      </trkpt>
      <trkpt lat="45.86078" lon="4.81888">
        <ele>410.5</ele>
        <time>2012-05-13T07:41:04Z</time>
      </trkpt>
      <trkpt lat="45.86069" lon="4.81883">
        <ele>411.75</ele>
        <time>2012-05-13T07:41:09Z</time>
      </trkpt>
      <trkpt lat="45.86059" lon="4.81876">
        <ele>413.5</ele>
        <time>2012-05-13T07:41:16Z</time>
      </trkpt>
      <trkpt lat="45.8605" lon="4.81871">
        <ele>415.5</ele>
        <time>2012-05-13T07:41:22Z</time>
      </trkpt>
      <trkpt lat="45.8604" lon="4.81865">
        <ele>418.5</ele>
        <time>2012-05-13T07:41:29Z</time>
      </trkpt>
      <trkpt lat="45.86031" lon="4.81861">
        <ele>419.75</ele>
        <time>2012-05-13T07:41:33Z</time>
      </trkpt>
      <trkpt lat="45.8602" lon="4.81856">
        <ele>420</ele>
        <time>2012-05-13T07:41:38Z</time>
      </trkpt>
      <trkpt lat="45.86011" lon="4.81851">
        <ele>420</ele>
        <time>2012-05-13T07:41:43Z</time>
      </trkpt>
      <trkpt lat="45.86001" lon="4.81846">
        <ele>420.25</ele>
        <time>2012-05-13T07:41:48Z</time>
      </trkpt>
      <trkpt lat="45.85992" lon="4.81839">
        <ele>422</ele>
        <time>2012-05-13T07:41:53Z</time>
      </trkpt>
      <trkpt lat="45.85982" lon="4.81834">
        <ele>422.75</ele>
        <time>2012-05-13T07:41:58Z</time>
      </trkpt>
      <trkpt lat="45.85974" lon="4.81828">
        <ele>424</ele>
        <time>2012-05-13T07:42:04Z</time>
      </trkpt>
      <trkpt lat="45.85965" lon="4.81823">
        <ele>425.5</ele>
        <time>2012-05-13T07:42:10Z</time>
      </trkpt>
      <trkpt lat="45.85956" lon="4.81816">
        <ele>426.5</ele>
        <time>2012-05-13T07:42:16Z</time>
      </trkpt>
      <trkpt lat="45.85948" lon="4.81808">
        <ele>427.5</ele>
        <time>2012-05-13T07:42:23Z</time>
      </trkpt>
      <trkpt lat="45.85939" lon="4.81801">
        <ele>428.25</ele>
        <time>2012-05-13T07:42:29Z</time>
      </trkpt>
      <trkpt lat="45.8593" lon="4.8179">
        <ele>430.25</ele>
        <time>2012-05-13T07:42:38Z</time>
      </trkpt>
      <trkpt lat="45.85922" lon="4.81782">
        <ele>432.25</ele>
        <time>2012-05-13T07:42:43Z</time>
      </trkpt>
      <trkpt lat="45.85913" lon="4.81775">
        <ele>433.75</ele>
        <time>2012-05-13T07:42:48Z</time>
      </trkpt>
      <trkpt lat="45.85905" lon="4.81768">
        <ele>435.5</ele>
        <time>2012-05-13T07:42:55Z</time>
      </trkpt>
      <trkpt lat="45.85877" lon="4.81754">
        <ele>440</ele>
        <time>2012-05-13T07:43:32Z</time>
      </trkpt>
      <trkpt lat="45.85857" lon="4.81746">
        <ele>443</ele>
        <time>2012-05-13T07:43:33Z</time>
      </trkpt>
      <trkpt lat="45.85836" lon="4.81738">
        <ele>446</ele>
        <time>2012-05-13T07:43:34Z</time>
      </trkpt>
      <trkpt lat="45.85816" lon="4.8173">
        <ele>449.25</ele>
        <time>2012-05-13T07:43:35Z</time>
      </trkpt>
      <trkpt lat="45.85805" lon="4.81728">
        <ele>450.5</ele>
        <time>2012-05-13T07:43:39Z</time>
      </trkpt>
      <trkpt lat="45.85794" lon="4.81727">
        <ele>451.5</ele>
        <time>2012-05-13T07:43:42Z</time>
      </trkpt>
      <trkpt lat="45.85785" lon="4.81728">
        <ele>452</ele>
        <time>2012-05-13T07:43:45Z</time>
      </trkpt>
      <trkpt lat="45.85775" lon="4.81728">
        <ele>452.75</ele>
        <time>2012-05-13T07:43:48Z</time>
      </trkpt>
      <trkpt lat="45.85764" lon="4.81726">
        <ele>453.75</ele>
        <time>2012-05-13T07:43:53Z</time>
      </trkpt>
      <trkpt lat="45.85755" lon="4.81723">
        <ele>455</ele>
        <time>2012-05-13T07:43:56Z</time>
      </trkpt>
      <trkpt lat="45.85743" lon="4.8172">
        <ele>456.75</ele>
        <time>2012-05-13T07:44:00Z</time>
      </trkpt>
      <trkpt lat="45.85734" lon="4.81717">
        <ele>458</ele>
        <time>2012-05-13T07:44:05Z</time>
      </trkpt>
      <trkpt lat="45.85725" lon="4.81716">
        <ele>459.5</ele>
        <time>2012-05-13T07:44:09Z</time>
      </trkpt>
      <trkpt lat="45.85714" lon="4.81716">
        <ele>461.5</ele>
        <time>2012-05-13T07:44:13Z</time>
      </trkpt>
      <trkpt lat="45.85702" lon="4.81714">
        <ele>463.75</ele>
        <time>2012-05-13T07:44:19Z</time>
      </trkpt>
      <trkpt lat="45.85692" lon="4.81712">
        <ele>464.25</ele>
        <time>2012-05-13T07:44:23Z</time>
      </trkpt>
      <trkpt lat="45.85681" lon="4.81709">
        <ele>465.75</ele>
        <time>2012-05-13T07:44:28Z</time>
      </trkpt>
      <trkpt lat="45.85672" lon="4.81707">
        <ele>466.25</ele>
        <time>2012-05-13T07:44:33Z</time>
      </trkpt>
      <trkpt lat="45.8566" lon="4.81702">
        <ele>467.25</ele>
        <time>2012-05-13T07:44:36Z</time>
      </trkpt>
      <trkpt lat="45.8565" lon="4.81696">
        <ele>468.25</ele>
        <time>2012-05-13T07:44:41Z</time>
      </trkpt>
      <trkpt lat="45.85642" lon="4.81689">
        <ele>469</ele>
        <time>2012-05-13T07:44:45Z</time>
      </trkpt>
      <trkpt lat="45.85632" lon="4.81681">
        <ele>469</ele>
        <time>2012-05-13T07:44:48Z</time>
      </trkpt>
      <trkpt lat="45.85623" lon="4.81676">
        <ele>469</ele>
        <time>2012-05-13T07:44:51Z</time>
      </trkpt>
      <trkpt lat="45.85614" lon="4.8167">
        <ele>469</ele>
        <time>2012-05-13T07:44:54Z</time>
      </trkpt>
      <trkpt lat="45.85606" lon="4.81661">
        <ele>469.75</ele>
        <time>2012-05-13T07:44:58Z</time>
      </trkpt>
      <trkpt lat="45.85596" lon="4.81649">
        <ele>469.75</ele>
        <time>2012-05-13T07:45:03Z</time>
      </trkpt>
      <trkpt lat="45.85587" lon="4.81637">
        <ele>469</ele>
        <time>2012-05-13T07:45:06Z</time>
      </trkpt>
      <trkpt lat="45.85579" lon="4.81626">
        <ele>469</ele>
        <time>2012-05-13T07:45:11Z</time>
      </trkpt>
      <trkpt lat="45.85571" lon="4.81613">
        <ele>468.5</ele>
        <time>2012-05-13T07:45:16Z</time>
      </trkpt>
      <trkpt lat="45.85564" lon="4.81601">
        <ele>468</ele>
        <time>2012-05-13T07:45:19Z</time>
      </trkpt>
      <trkpt lat="45.85556" lon="4.81589">
        <ele>468.75</ele>
        <time>2012-05-13T07:45:23Z</time>
      </trkpt>
      <trkpt lat="45.8555" lon="4.81578">
        <ele>469.75</ele>
        <time>2012-05-13T07:45:27Z</time>
      </trkpt>
      <trkpt lat="45.85543" lon="4.81564">
        <ele>470</ele>
        <time>2012-05-13T07:45:32Z</time>
      </trkpt>
      <trkpt lat="45.85536" lon="4.81554">
        <ele>470.75</ele>
        <time>2012-05-13T07:45:38Z</time>
      </trkpt>
      <trkpt lat="45.8553" lon="4.81543">
        <ele>471.75</ele>
        <time>2012-05-13T07:45:42Z</time>
      </trkpt>
      <trkpt lat="45.85523" lon="4.81533">
        <ele>472.75</ele>
        <time>2012-05-13T07:45:46Z</time>
      </trkpt>
      <trkpt lat="45.85516" lon="4.81521">
        <ele>474.5</ele>
        <time>2012-05-13T07:45:50Z</time>
      </trkpt>
      <trkpt lat="45.8551" lon="4.8151">
        <ele>475.5</ele>
        <time>2012-05-13T07:45:53Z</time>
      </trkpt>
      <trkpt lat="45.85505" lon="4.81497">
        <ele>476.5</ele>
        <time>2012-05-13T07:45:58Z</time>
      </trkpt>
      <trkpt lat="45.85499" lon="4.81483">
        <ele>477</ele>
        <time>2012-05-13T07:46:05Z</time>
      </trkpt>
      <trkpt lat="45.85493" lon="4.81471">
        <ele>478</ele>
        <time>2012-05-13T07:46:09Z</time>
      </trkpt>
      <trkpt lat="45.85488" lon="4.81459">
        <ele>479</ele>
        <time>2012-05-13T07:46:14Z</time>
      </trkpt>
      <trkpt lat="45.85483" lon="4.81448">
        <ele>480.5</ele>
        <time>2012-05-13T07:46:19Z</time>
      </trkpt>
      <trkpt lat="45.85478" lon="4.81436">
        <ele>482.75</ele>
        <time>2012-05-13T07:46:25Z</time>
      </trkpt>
      <trkpt lat="45.8547" lon="4.81427">
        <ele>486</ele>
        <time>2012-05-13T07:46:34Z</time>
      </trkpt>
      <trkpt lat="45.85465" lon="4.81415">
        <ele>487.75</ele>
        <time>2012-05-13T07:46:39Z</time>
      </trkpt>
      <trkpt lat="45.85463" lon="4.81399">
        <ele>488.5</ele>
        <time>2012-05-13T07:46:44Z</time>
      </trkpt>
      <trkpt lat="45.85463" lon="4.81382">
        <ele>489</ele>
        <time>2012-05-13T07:46:49Z</time>
      </trkpt>
      <trkpt lat="45.85463" lon="4.81369">
        <ele>489.75</ele>
        <time>2012-05-13T07:46:52Z</time>
      </trkpt>
      <trkpt lat="45.85464" lon="4.81355">
        <ele>490</ele>
        <time>2012-05-13T07:46:56Z</time>
      </trkpt>
      <trkpt lat="45.85467" lon="4.81343">
        <ele>490.75</ele>
        <time>2012-05-13T07:46:59Z</time>
      </trkpt>
      <trkpt lat="45.85475" lon="4.81326">
        <ele>491.5</ele>
        <time>2012-05-13T07:47:04Z</time>
      </trkpt>
      <trkpt lat="45.85481" lon="4.81313">
        <ele>492.25</ele>
        <time>2012-05-13T07:47:06Z</time>
      </trkpt>
      <trkpt lat="45.85487" lon="4.81303">
        <ele>493.25</ele>
        <time>2012-05-13T07:47:11Z</time>
      </trkpt>
      <trkpt lat="45.85489" lon="4.81289">
        <ele>494</ele>
        <time>2012-05-13T07:47:15Z</time>
      </trkpt>
      <trkpt lat="45.85485" lon="4.81276">
        <ele>493</ele>
        <time>2012-05-13T07:47:19Z</time>
      </trkpt>
      <trkpt lat="45.85477" lon="4.81267">
        <ele>493.5</ele>
        <time>2012-05-13T07:47:23Z</time>
      </trkpt>
      <trkpt lat="45.85467" lon="4.81257">
        <ele>494.75</ele>
        <time>2012-05-13T07:47:28Z</time>
      </trkpt>
      <trkpt lat="45.85459" lon="4.8125">
        <ele>495.75</ele>
        <time>2012-05-13T07:47:31Z</time>
      </trkpt>
      <trkpt lat="45.8545" lon="4.81244">
        <ele>497</ele>
        <time>2012-05-13T07:47:35Z</time>
      </trkpt>
      <trkpt lat="45.85439" lon="4.81237">
        <ele>496.75</ele>
        <time>2012-05-13T07:47:40Z</time>
      </trkpt>
      <trkpt lat="45.85429" lon="4.81231">
        <ele>497</ele>
        <time>2012-05-13T07:47:44Z</time>
      </trkpt>
      <trkpt lat="45.85418" lon="4.81224">
        <ele>497.5</ele>
        <time>2012-05-13T07:47:49Z</time>
      </trkpt>
      <trkpt lat="45.85409" lon="4.81218">
        <ele>498</ele>
        <time>2012-05-13T07:47:51Z</time>
      </trkpt>
      <trkpt lat="45.854" lon="4.81213">
        <ele>499.25</ele>
        <time>2012-05-13T07:47:55Z</time>
      </trkpt>
      <trkpt lat="45.85392" lon="4.81206">
        <ele>500.75</ele>
        <time>2012-05-13T07:48:00Z</time>
      </trkpt>
      <trkpt lat="45.85372" lon="4.81191">
        <ele>502.75</ele>
        <time>2012-05-13T07:48:32Z</time>
      </trkpt>
      <trkpt lat="45.85352" lon="4.81175">
        <ele>504.5</ele>
        <time>2012-05-13T07:48:33Z</time>
      </trkpt>
      <trkpt lat="45.85332" lon="4.81159">
        <ele>506.25</ele>
        <time>2012-05-13T07:48:34Z</time>
      </trkpt>
      <trkpt lat="45.85311" lon="4.81142">
        <ele>508.25</ele>
        <time>2012-05-13T07:48:35Z</time>
      </trkpt>
      <trkpt lat="45.85304" lon="4.81133">
        <ele>509</ele>
        <time>2012-05-13T07:48:39Z</time>
      </trkpt>
      <trkpt lat="45.85295" lon="4.81122">
        <ele>509.75</ele>
        <time>2012-05-13T07:48:43Z</time>
      </trkpt>
      <trkpt lat="45.85287" lon="4.81113">
        <ele>510</ele>
        <time>2012-05-13T07:48:47Z</time>
      </trkpt>
      <trkpt lat="45.85278" lon="4.81105">
        <ele>511</ele>
        <time>2012-05-13T07:48:51Z</time>
      </trkpt>
      <trkpt lat="45.85269" lon="4.81095">
        <ele>512.25</ele>
        <time>2012-05-13T07:48:56Z</time>
      </trkpt>
      <trkpt lat="45.85259" lon="4.81084">
        <ele>514</ele>
        <time>2012-05-13T07:49:00Z</time>
      </trkpt>
      <trkpt lat="45.85251" lon="4.81076">
        <ele>515.25</ele>
        <time>2012-05-13T07:49:04Z</time>
      </trkpt>
      <trkpt lat="45.85244" lon="4.81067">
        <ele>516</ele>
        <time>2012-05-13T07:49:08Z</time>
      </trkpt>
      <trkpt lat="45.85237" lon="4.81056">
        <ele>517.25</ele>
        <time>2012-05-13T07:49:11Z</time>
      </trkpt>
      <trkpt lat="45.8523" lon="4.81046">
        <ele>518.25</ele>
        <time>2012-05-13T07:49:14Z</time>
      </trkpt>
      <trkpt lat="45.85222" lon="4.81037">
        <ele>519</ele>
        <time>2012-05-13T07:49:18Z</time>
      </trkpt>
      <trkpt lat="45.85215" lon="4.81028">
        <ele>519.75</ele>
        <time>2012-05-13T07:49:22Z</time>
      </trkpt>
      <trkpt lat="45.85207" lon="4.81021">
        <ele>520.75</ele>
        <time>2012-05-13T07:49:25Z</time>
      </trkpt>
      <trkpt lat="45.85196" lon="4.81014">
        <ele>521</ele>
        <time>2012-05-13T07:49:29Z</time>
      </trkpt>
      <trkpt lat="45.85188" lon="4.81006">
        <ele>521.5</ele>
        <time>2012-05-13T07:49:33Z</time>
      </trkpt>
      <trkpt lat="45.85179" lon="4.80998">
        <ele>522</ele>
        <time>2012-05-13T07:49:37Z</time>
      </trkpt>
      <trkpt lat="45.85171" lon="4.80991">
        <ele>522.25</ele>
        <time>2012-05-13T07:49:41Z</time>
      </trkpt>
      <trkpt lat="45.85163" lon="4.80984">
        <ele>523</ele>
        <time>2012-05-13T07:49:45Z</time>
      </trkpt>
      <trkpt lat="45.85155" lon="4.80975">
        <ele>523.75</ele>
        <time>2012-05-13T07:49:52Z</time>
      </trkpt>
      <trkpt lat="45.85144" lon="4.80964">
        <ele>526.25</ele>
        <time>2012-05-13T07:49:55Z</time>
      </trkpt>
      <trkpt lat="45.85134" lon="4.80957">
        <ele>527</ele>
        <time>2012-05-13T07:50:00Z</time>
      </trkpt>
      <trkpt lat="45.85125" lon="4.80949">
        <ele>529.25</ele>
        <time>2012-05-13T07:50:05Z</time>
      </trkpt>
      <trkpt lat="45.85117" lon="4.80938">
        <ele>531.25</ele>
        <time>2012-05-13T07:50:10Z</time>
      </trkpt>
      <trkpt lat="45.85111" lon="4.80925">
        <ele>532.5</ele>
        <time>2012-05-13T07:50:13Z</time>
      </trkpt>
      <trkpt lat="45.85103" lon="4.80917">
        <ele>534.25</ele>
        <time>2012-05-13T07:50:18Z</time>
      </trkpt>
      <trkpt lat="45.85096" lon="4.80909">
        <ele>535.25</ele>
        <time>2012-05-13T07:50:21Z</time>
      </trkpt>
      <trkpt lat="45.85087" lon="4.80898">
        <ele>536</ele>
        <time>2012-05-13T07:50:25Z</time>
      </trkpt>
      <trkpt lat="45.8508" lon="4.80886">
        <ele>536.75</ele>
        <time>2012-05-13T07:50:29Z</time>
      </trkpt>
      <trkpt lat="45.85074" lon="4.80876">
        <ele>537.75</ele>
        <time>2012-05-13T07:50:32Z</time>
      </trkpt>
      <trkpt lat="45.85065" lon="4.80862">
        <ele>538.75</ele>
        <time>2012-05-13T07:50:37Z</time>
      </trkpt>
      <trkpt lat="45.85059" lon="4.80851">
        <ele>539.75</ele>
        <time>2012-05-13T07:50:40Z</time>
      </trkpt>
      <trkpt lat="45.85051" lon="4.80842">
        <ele>541</ele>
        <time>2012-05-13T07:50:45Z</time>
      </trkpt>
      <trkpt lat="45.85042" lon="4.80832">
        <ele>542.25</ele>
        <time>2012-05-13T07:50:48Z</time>
      </trkpt>
      <trkpt lat="45.85033" lon="4.80824">
        <ele>542.75</ele>
        <time>2012-05-13T07:50:51Z</time>
      </trkpt>
      <trkpt lat="45.85024" lon="4.80814">
        <ele>542</ele>
        <time>2012-05-13T07:50:55Z</time>
      </trkpt>
      <trkpt lat="45.85016" lon="4.80805">
        <ele>543</ele>
        <time>2012-05-13T07:50:59Z</time>
      </trkpt>
      <trkpt lat="45.85008" lon="4.80792">
        <ele>544.25</ele>
        <time>2012-05-13T07:51:04Z</time>
      </trkpt>
      <trkpt lat="45.85001" lon="4.8078">
        <ele>545</ele>
        <time>2012-05-13T07:51:06Z</time>
      </trkpt>
      <trkpt lat="45.84994" lon="4.80768">
        <ele>545.75</ele>
        <time>2012-05-13T07:51:09Z</time>
      </trkpt>
      <trkpt lat="45.84989" lon="4.80756">
        <ele>546</ele>
        <time>2012-05-13T07:51:12Z</time>
      </trkpt>
      <trkpt lat="45.84984" lon="4.80742">
        <ele>546.75</ele>
        <time>2012-05-13T07:51:16Z</time>
      </trkpt>
      <trkpt lat="45.8498" lon="4.80728">
        <ele>546.5</ele>
        <time>2012-05-13T07:51:21Z</time>
      </trkpt>
      <trkpt lat="45.84979" lon="4.80714">
        <ele>546</ele>
        <time>2012-05-13T07:51:25Z</time>
      </trkpt>
      <trkpt lat="45.84977" lon="4.80699">
        <ele>545.75</ele>
        <time>2012-05-13T07:51:28Z</time>
      </trkpt>
      <trkpt lat="45.84975" lon="4.80682">
        <ele>545.25</ele>
        <time>2012-05-13T07:51:31Z</time>
      </trkpt>
      <trkpt lat="45.84973" lon="4.80669">
        <ele>544.5</ele>
        <time>2012-05-13T07:51:33Z</time>
      </trkpt>
      <trkpt lat="45.84971" lon="4.80653">
        <ele>543.25</ele>
        <time>2012-05-13T07:51:36Z</time>
      </trkpt>
      <trkpt lat="45.84971" lon="4.80637">
        <ele>542.25</ele>
        <time>2012-05-13T07:51:38Z</time>
      </trkpt>
      <trkpt lat="45.84969" lon="4.80617">
        <ele>541</ele>
        <time>2012-05-13T07:51:41Z</time>
      </trkpt>
      <trkpt lat="45.84964" lon="4.80595">
        <ele>539.25</ele>
        <time>2012-05-13T07:51:43Z</time>
      </trkpt>
      <trkpt lat="45.84958" lon="4.80579">
        <ele>538</ele>
        <time>2012-05-13T07:51:46Z</time>
      </trkpt>
      <trkpt lat="45.84954" lon="4.80561">
        <ele>537.25</ele>
        <time>2012-05-13T07:51:48Z</time>
      </trkpt>
      <trkpt lat="45.84952" lon="4.80545">
        <ele>537</ele>
        <time>2012-05-13T07:51:50Z</time>
      </trkpt>
      <trkpt lat="45.8495" lon="4.8053">
        <ele>537</ele>
        <time>2012-05-13T07:51:52Z</time>
      </trkpt>
      <trkpt lat="45.84947" lon="4.80515">
        <ele>537</ele>
        <time>2012-05-13T07:51:54Z</time>
      </trkpt>
      <trkpt lat="45.84943" lon="4.80503">
        <ele>536.5</ele>
        <time>2012-05-13T07:51:56Z</time>
      </trkpt>
      <trkpt lat="45.84933" lon="4.80489">
        <ele>536</ele>
        <time>2012-05-13T07:51:59Z</time>
      </trkpt>
      <trkpt lat="45.84923" lon="4.80482">
        <ele>536</ele>
        <time>2012-05-13T07:52:03Z</time>
      </trkpt>
      <trkpt lat="45.84914" lon="4.80475">
        <ele>536</ele>
        <time>2012-05-13T07:52:05Z</time>
      </trkpt>
      <trkpt lat="45.84905" lon="4.80466">
        <ele>536</ele>
        <time>2012-05-13T07:52:08Z</time>
      </trkpt>
      <trkpt lat="45.84898" lon="4.80454">
        <ele>536.25</ele>
        <time>2012-05-13T07:52:12Z</time>
      </trkpt>
      <trkpt lat="45.84892" lon="4.80441">
        <ele>536.75</ele>
        <time>2012-05-13T07:52:17Z</time>
      </trkpt>
      <trkpt lat="45.84883" lon="4.8043">
        <ele>535.5</ele>
        <time>2012-05-13T07:52:21Z</time>
      </trkpt>
      <trkpt lat="45.84876" lon="4.8042">
        <ele>535</ele>
        <time>2012-05-13T07:52:25Z</time>
      </trkpt>
      <trkpt lat="45.84867" lon="4.80412">
        <ele>534.75</ele>
        <time>2012-05-13T07:52:30Z</time>
      </trkpt>
      <trkpt lat="45.8486" lon="4.80404">
        <ele>534</ele>
        <time>2012-05-13T07:52:33Z</time>
      </trkpt>
      <trkpt lat="45.84852" lon="4.80393">
        <ele>534</ele>
        <time>2012-05-13T07:52:37Z</time>
      </trkpt>
      <trkpt lat="45.84847" lon="4.80382">
        <ele>534.25</ele>
        <time>2012-05-13T07:52:41Z</time>
      </trkpt>
      <trkpt lat="45.84842" lon="4.80371">
        <ele>534.5</ele>
        <time>2012-05-13T07:52:43Z</time>
      </trkpt>
      <trkpt lat="45.84836" lon="4.80357">
        <ele>534.5</ele>
        <time>2012-05-13T07:52:48Z</time>
      </trkpt>
      <trkpt lat="45.84831" lon="4.80346">
        <ele>534</ele>
        <time>2012-05-13T07:52:51Z</time>
      </trkpt>
      <trkpt lat="45.84822" lon="4.80334">
        <ele>533.25</ele>
        <time>2012-05-13T07:52:55Z</time>
      </trkpt>
      <trkpt lat="45.84814" lon="4.80324">
        <ele>533</ele>
        <time>2012-05-13T07:52:59Z</time>
      </trkpt>
      <trkpt lat="45.84799" lon="4.80309">
        <ele>534.25</ele>
        <time>2012-05-13T07:53:32Z</time>
      </trkpt>
      <trkpt lat="45.84785" lon="4.80295">
        <ele>535.5</ele>
        <time>2012-05-13T07:53:33Z</time>
      </trkpt>
      <trkpt lat="45.8477" lon="4.8028">
        <ele>536.75</ele>
        <time>2012-05-13T07:53:34Z</time>
      </trkpt>
      <trkpt lat="45.84756" lon="4.80266">
        <ele>538</ele>
        <time>2012-05-13T07:53:35Z</time>
      </trkpt>
      <trkpt lat="45.84748" lon="4.80256">
        <ele>538</ele>
        <time>2012-05-13T07:53:41Z</time>
      </trkpt>
      <trkpt lat="45.84742" lon="4.80245">
        <ele>538.5</ele>
        <time>2012-05-13T07:53:47Z</time>
      </trkpt>
      <trkpt lat="45.84734" lon="4.80237">
        <ele>540.5</ele>
        <time>2012-05-13T07:53:52Z</time>
      </trkpt>
      <trkpt lat="45.84726" lon="4.8023">
        <ele>541.75</ele>
        <time>2012-05-13T07:53:57Z</time>
      </trkpt>
      <trkpt lat="45.84718" lon="4.80221">
        <ele>543.25</ele>
        <time>2012-05-13T07:54:03Z</time>
      </trkpt>
      <trkpt lat="45.84709" lon="4.80215">
        <ele>544</ele>
        <time>2012-05-13T07:54:07Z</time>
      </trkpt>
      <trkpt lat="45.84701" lon="4.80205">
        <ele>545.25</ele>
        <time>2012-05-13T07:54:12Z</time>
      </trkpt>
      <trkpt lat="45.84695" lon="4.80194">
        <ele>546.25</ele>
        <time>2012-05-13T07:54:17Z</time>
      </trkpt>
      <trkpt lat="45.8469" lon="4.80183">
        <ele>547.25</ele>
        <time>2012-05-13T07:54:23Z</time>
      </trkpt>
      <trkpt lat="45.84683" lon="4.80172">
        <ele>549.25</ele>
        <time>2012-05-13T07:54:30Z</time>
      </trkpt>
      <trkpt lat="45.84675" lon="4.80163">
        <ele>550</ele>
        <time>2012-05-13T07:54:35Z</time>
      </trkpt>
      <trkpt lat="45.84664" lon="4.80153">
        <ele>550</ele>
        <time>2012-05-13T07:54:39Z</time>
      </trkpt>
      <trkpt lat="45.84656" lon="4.80144">
        <ele>550.5</ele>
        <time>2012-05-13T07:54:42Z</time>
      </trkpt>
      <trkpt lat="45.84646" lon="4.80134">
        <ele>551.5</ele>
        <time>2012-05-13T07:54:47Z</time>
      </trkpt>
      <trkpt lat="45.84638" lon="4.80126">
        <ele>552</ele>
        <time>2012-05-13T07:54:49Z</time>
      </trkpt>
      <trkpt lat="45.84631" lon="4.80115">
        <ele>552.75</ele>
        <time>2012-05-13T07:54:53Z</time>
      </trkpt>
      <trkpt lat="45.84626" lon="4.80101">
        <ele>554.75</ele>
        <time>2012-05-13T07:54:58Z</time>
      </trkpt>
      <trkpt lat="45.8462" lon="4.8009">
        <ele>556</ele>
        <time>2012-05-13T07:55:03Z</time>
      </trkpt>
      <trkpt lat="45.84612" lon="4.80083">
        <ele>556.75</ele>
        <time>2012-05-13T07:55:06Z</time>
      </trkpt>
      <trkpt lat="45.84606" lon="4.80071">
        <ele>557.75</ele>
        <time>2012-05-13T07:55:14Z</time>
      </trkpt>
      <trkpt lat="45.846" lon="4.80062">
        <ele>560</ele>
        <time>2012-05-13T07:55:23Z</time>
      </trkpt>
      <trkpt lat="45.84591" lon="4.80063">
        <ele>562</ele>
        <time>2012-05-13T07:55:32Z</time>
      </trkpt>
      <trkpt lat="45.84582" lon="4.80058">
        <ele>565.25</ele>
        <time>2012-05-13T07:55:44Z</time>
      </trkpt>
      <trkpt lat="45.84573" lon="4.80053">
        <ele>569</ele>
        <time>2012-05-13T07:55:59Z</time>
      </trkpt>
      <trkpt lat="45.84565" lon="4.80047">
        <ele>571</ele>
        <time>2012-05-13T07:56:12Z</time>
      </trkpt>
      <trkpt lat="45.84556" lon="4.80042">
        <ele>569.5</ele>
        <time>2012-05-13T07:56:19Z</time>
      </trkpt>
      <trkpt lat="45.84548" lon="4.80033">
        <ele>571.25</ele>
        <time>2012-05-13T07:56:35Z</time>
      </trkpt>
      <trkpt lat="45.8454" lon="4.80028">
        <ele>572</ele>
        <time>2012-05-13T07:56:43Z</time>
      </trkpt>
      <trkpt lat="45.84532" lon="4.8002">
        <ele>573</ele>
        <time>2012-05-13T07:56:51Z</time>
      </trkpt>
      <trkpt lat="45.84525" lon="4.80012">
        <ele>572.25</ele>
        <time>2012-05-13T07:56:58Z</time>
      </trkpt>
      <trkpt lat="45.84516" lon="4.80008">
        <ele>573.5</ele>
        <time>2012-05-13T07:57:04Z</time>
      </trkpt>
      <trkpt lat="45.84507" lon="4.80001">
        <ele>575.25</ele>
        <time>2012-05-13T07:57:09Z</time>
      </trkpt>
      <trkpt lat="45.845" lon="4.79992">
        <ele>576.75</ele>
        <time>2012-05-13T07:57:18Z</time>
      </trkpt>
      <trkpt lat="45.84494" lon="4.79979">
        <ele>578</ele>
        <time>2012-05-13T07:57:27Z</time>
      </trkpt>
      <trkpt lat="45.84486" lon="4.7997">
        <ele>579</ele>
        <time>2012-05-13T07:57:34Z</time>
      </trkpt>
      <trkpt lat="45.8448" lon="4.79958">
        <ele>580</ele>
        <time>2012-05-13T07:57:43Z</time>
      </trkpt>
      <trkpt lat="45.84472" lon="4.7995">
        <ele>581</ele>
        <time>2012-05-13T07:57:52Z</time>
      </trkpt>
      <trkpt lat="45.84465" lon="4.7994">
        <ele>581.5</ele>
        <time>2012-05-13T07:57:59Z</time>
      </trkpt>
      <trkpt lat="45.84459" lon="4.7993">
        <ele>583.5</ele>
        <time>2012-05-13T07:58:07Z</time>
      </trkpt>
      <trkpt lat="45.84454" lon="4.79918">
        <ele>585.5</ele>
        <time>2012-05-13T07:58:14Z</time>
      </trkpt>
      <trkpt lat="45.84445" lon="4.79908">
        <ele>587</ele>
        <time>2012-05-13T07:58:20Z</time>
      </trkpt>
      <trkpt lat="45.84436" lon="4.79898">
        <ele>586.75</ele>
        <time>2012-05-13T07:58:26Z</time>
      </trkpt>
      <trkpt lat="45.84428" lon="4.79891">
        <ele>588</ele>
        <time>2012-05-13T07:58:30Z</time>
      </trkpt>
      <trkpt lat="45.84422" lon="4.79882">
        <ele>588.5</ele>
        <time>2012-05-13T07:58:35Z</time>
      </trkpt>
      <trkpt lat="45.84417" lon="4.7987">
        <ele>589</ele>
        <time>2012-05-13T07:58:41Z</time>
      </trkpt>
      <trkpt lat="45.84412" lon="4.79857">
        <ele>589</ele>
        <time>2012-05-13T07:58:45Z</time>
      </trkpt>
      <trkpt lat="45.84407" lon="4.79843">
        <ele>589</ele>
        <time>2012-05-13T07:58:49Z</time>
      </trkpt>
      <trkpt lat="45.84406" lon="4.79829">
        <ele>589</ele>
        <time>2012-05-13T07:58:53Z</time>
      </trkpt>
      <trkpt lat="45.84405" lon="4.79815">
        <ele>589</ele>
        <time>2012-05-13T07:59:04Z</time>
      </trkpt>
      <trkpt lat="45.84405" lon="4.798">
        <ele>587.75</ele>
        <time>2012-05-13T07:59:09Z</time>
      </trkpt>
      <trkpt lat="45.84405" lon="4.79783">
        <ele>586.75</ele>
        <time>2012-05-13T07:59:11Z</time>
      </trkpt>
      <trkpt lat="45.84406" lon="4.79761">
        <ele>585.5</ele>
        <time>2012-05-13T07:59:14Z</time>
      </trkpt>
      <trkpt lat="45.84407" lon="4.79743">
        <ele>585</ele>
        <time>2012-05-13T07:59:16Z</time>
      </trkpt>
      <trkpt lat="45.84408" lon="4.79728">
        <ele>584.25</ele>
        <time>2012-05-13T07:59:18Z</time>
      </trkpt>
      <trkpt lat="45.84408" lon="4.79715">
        <ele>583</ele>
        <time>2012-05-13T07:59:20Z</time>
      </trkpt>
      <trkpt lat="45.84408" lon="4.79697">
        <ele>581.25</ele>
        <time>2012-05-13T07:59:23Z</time>
      </trkpt>
      <trkpt lat="45.84408" lon="4.79678">
        <ele>578.5</ele>
        <time>2012-05-13T07:59:27Z</time>
      </trkpt>
      <trkpt lat="45.8441" lon="4.79663">
        <ele>576.5</ele>
        <time>2012-05-13T07:59:29Z</time>
      </trkpt>
      <trkpt lat="45.84411" lon="4.79645">
        <ele>574</ele>
        <time>2012-05-13T07:59:32Z</time>
      </trkpt>
      <trkpt lat="45.84412" lon="4.79627">
        <ele>572.5</ele>
        <time>2012-05-13T07:59:35Z</time>
      </trkpt>
      <trkpt lat="45.84413" lon="4.7961">
        <ele>571.5</ele>
        <time>2012-05-13T07:59:38Z</time>
      </trkpt>
      <trkpt lat="45.84412" lon="4.79596">
        <ele>571</ele>
        <time>2012-05-13T07:59:41Z</time>
      </trkpt>
      <trkpt lat="45.84413" lon="4.7958">
        <ele>570</ele>
        <time>2012-05-13T07:59:45Z</time>
      </trkpt>
      <trkpt lat="45.84416" lon="4.79568">
        <ele>568.75</ele>
        <time>2012-05-13T07:59:50Z</time>
      </trkpt>
      <trkpt lat="45.84419" lon="4.79554">
        <ele>567.5</ele>
        <time>2012-05-13T07:59:53Z</time>
      </trkpt>
      <trkpt lat="45.84421" lon="4.79541">
        <ele>567</ele>
        <time>2012-05-13T07:59:57Z</time>
      </trkpt>
      <trkpt lat="45.84433" lon="4.79491">
        <ele>566</ele>
        <time>2012-05-13T08:00:32Z</time>
      </trkpt>
      <trkpt lat="45.84442" lon="4.79451">
        <ele>565.5</ele>
        <time>2012-05-13T08:00:33Z</time>
      </trkpt>
      <trkpt lat="45.8445" lon="4.79415">
        <ele>565.25</ele>
        <time>2012-05-13T08:00:34Z</time>
      </trkpt>
      <trkpt lat="45.84456" lon="4.79381">
        <ele>565</ele>
        <time>2012-05-13T08:00:35Z</time>
      </trkpt>
      <trkpt lat="45.84449" lon="4.79371">
        <ele>565</ele>
        <time>2012-05-13T08:00:39Z</time>
      </trkpt>
      <trkpt lat="45.8444" lon="4.79363">
        <ele>565</ele>
        <time>2012-05-13T08:00:43Z</time>
      </trkpt>
      <trkpt lat="45.84432" lon="4.79355">
        <ele>565.5</ele>
        <time>2012-05-13T08:00:47Z</time>
      </trkpt>
      <trkpt lat="45.84421" lon="4.79346">
        <ele>566.5</ele>
        <time>2012-05-13T08:00:52Z</time>
      </trkpt>
      <trkpt lat="45.84412" lon="4.79338">
        <ele>567.25</ele>
        <time>2012-05-13T08:00:55Z</time>
      </trkpt>
      <trkpt lat="45.84401" lon="4.79329">
        <ele>568.75</ele>
        <time>2012-05-13T08:00:59Z</time>
      </trkpt>
      <trkpt lat="45.84391" lon="4.79322">
        <ele>569.75</ele>
        <time>2012-05-13T08:01:03Z</time>
      </trkpt>
      <trkpt lat="45.8438" lon="4.79317">
        <ele>570.75</ele>
        <time>2012-05-13T08:01:07Z</time>
      </trkpt>
      <trkpt lat="45.84368" lon="4.79313">
        <ele>571.5</ele>
        <time>2012-05-13T08:01:10Z</time>
      </trkpt>
      <trkpt lat="45.84357" lon="4.79313">
        <ele>572</ele>
        <time>2012-05-13T08:01:13Z</time>
      </trkpt>
      <trkpt lat="45.84347" lon="4.79315">
        <ele>572.5</ele>
        <time>2012-05-13T08:01:16Z</time>
      </trkpt>
      <trkpt lat="45.84337" lon="4.79317">
        <ele>573</ele>
        <time>2012-05-13T08:01:19Z</time>
      </trkpt>
      <trkpt lat="45.84327" lon="4.79321">
        <ele>573</ele>
        <time>2012-05-13T08:01:22Z</time>
      </trkpt>
      <trkpt lat="45.84317" lon="4.79324">
        <ele>573</ele>
        <time>2012-05-13T08:01:26Z</time>
      </trkpt>
      <trkpt lat="45.84306" lon="4.79326">
        <ele>573.25</ele>
        <time>2012-05-13T08:01:30Z</time>
      </trkpt>
      <trkpt lat="45.84296" lon="4.79329">
        <ele>574</ele>
        <time>2012-05-13T08:01:34Z</time>
      </trkpt>
      <trkpt lat="45.84285" lon="4.79332">
        <ele>575</ele>
        <time>2012-05-13T08:01:38Z</time>
      </trkpt>
      <trkpt lat="45.84274" lon="4.79334">
        <ele>575.25</ele>
        <time>2012-05-13T08:01:42Z</time>
      </trkpt>
      <trkpt lat="45.84262" lon="4.79336">
        <ele>576</ele>
        <time>2012-05-13T08:01:46Z</time>
      </trkpt>
      <trkpt lat="45.84248" lon="4.79335">
        <ele>576</ele>
        <time>2012-05-13T08:01:49Z</time>
      </trkpt>
      <trkpt lat="45.84235" lon="4.79328">
        <ele>576</ele>
        <time>2012-05-13T08:01:52Z</time>
      </trkpt>
      <trkpt lat="45.84233" lon="4.79314">
        <ele>576.25</ele>
        <time>2012-05-13T08:01:54Z</time>
      </trkpt>
      <trkpt lat="45.84233" lon="4.79299">
        <ele>576.75</ele>
        <time>2012-05-13T08:01:57Z</time>
      </trkpt>
      <trkpt lat="45.84236" lon="4.79281">
        <ele>577</ele>
        <time>2012-05-13T08:02:01Z</time>
      </trkpt>
      <trkpt lat="45.84235" lon="4.79266">
        <ele>577.5</ele>
        <time>2012-05-13T08:02:04Z</time>
      </trkpt>
      <trkpt lat="45.84231" lon="4.7925">
        <ele>578.5</ele>
        <time>2012-05-13T08:02:07Z</time>
      </trkpt>
      <trkpt lat="45.84225" lon="4.7924">
        <ele>579</ele>
        <time>2012-05-13T08:02:10Z</time>
      </trkpt>
      <trkpt lat="45.84217" lon="4.7923">
        <ele>579.25</ele>
        <time>2012-05-13T08:02:13Z</time>
      </trkpt>
      <trkpt lat="45.84209" lon="4.7922">
        <ele>580</ele>
        <time>2012-05-13T08:02:17Z</time>
      </trkpt>
      <trkpt lat="45.84202" lon="4.79211">
        <ele>580</ele>
        <time>2012-05-13T08:02:20Z</time>
      </trkpt>
      <trkpt lat="45.84192" lon="4.79197">
        <ele>580.75</ele>
        <time>2012-05-13T08:02:23Z</time>
      </trkpt>
      <trkpt lat="45.84185" lon="4.79186">
        <ele>581</ele>
        <time>2012-05-13T08:02:25Z</time>
      </trkpt>
      <trkpt lat="45.84176" lon="4.79174">
        <ele>581.75</ele>
        <time>2012-05-13T08:02:28Z</time>
      </trkpt>
      <trkpt lat="45.84169" lon="4.79163">
        <ele>582.25</ele>
        <time>2012-05-13T08:02:31Z</time>
      </trkpt>
      <trkpt lat="45.84163" lon="4.7915">
        <ele>583.25</ele>
        <time>2012-05-13T08:02:35Z</time>
      </trkpt>
      <trkpt lat="45.84159" lon="4.79137">
        <ele>584.25</ele>
        <time>2012-05-13T08:02:40Z</time>
      </trkpt>
      <trkpt lat="45.84163" lon="4.79124">
        <ele>586</ele>
        <time>2012-05-13T08:02:48Z</time>
      </trkpt>
      <trkpt lat="45.84166" lon="4.7911">
        <ele>587.5</ele>
        <time>2012-05-13T08:02:55Z</time>
      </trkpt>
      <trkpt lat="45.84166" lon="4.79096">
        <ele>589</ele>
        <time>2012-05-13T08:03:05Z</time>
      </trkpt>
      <trkpt lat="45.84167" lon="4.79083">
        <ele>590</ele>
        <time>2012-05-13T08:03:17Z</time>
      </trkpt>
      <trkpt lat="45.8417" lon="4.79069">
        <ele>591.25</ele>
        <time>2012-05-13T08:03:25Z</time>
      </trkpt>
      <trkpt lat="45.84172" lon="4.79055">
        <ele>592.25</ele>
        <time>2012-05-13T08:03:30Z</time>
      </trkpt>
      <trkpt lat="45.84174" lon="4.79041">
        <ele>595</ele>
        <time>2012-05-13T08:03:37Z</time>
      </trkpt>
      <trkpt lat="45.84176" lon="4.79027">
        <ele>595.5</ele>
        <time>2012-05-13T08:03:44Z</time>
      </trkpt>
      <trkpt lat="45.84178" lon="4.79013">
        <ele>596.75</ele>
        <time>2012-05-13T08:03:52Z</time>
      </trkpt>
      <trkpt lat="45.8418" lon="4.78999">
        <ele>596</ele>
        <time>2012-05-13T08:03:57Z</time>
      </trkpt>
      <trkpt lat="45.84189" lon="4.78971">
        <ele>599.25</ele>
        <time>2012-05-13T08:04:33Z</time>
      </trkpt>
      <trkpt lat="45.84197" lon="4.78948">
        <ele>602</ele>
        <time>2012-05-13T08:04:34Z</time>
      </trkpt>
      <trkpt lat="45.84205" lon="4.78926">
        <ele>604.5</ele>
        <time>2012-05-13T08:04:35Z</time>
      </trkpt>
      <trkpt lat="45.84213" lon="4.78903">
        <ele>607</ele>
        <time>2012-05-13T08:04:36Z</time>
      </trkpt>
      <trkpt lat="45.84213" lon="4.7889">
        <ele>608</ele>
        <time>2012-05-13T08:04:40Z</time>
      </trkpt>
      <trkpt lat="45.84212" lon="4.78877">
        <ele>609</ele>
        <time>2012-05-13T08:04:44Z</time>
      </trkpt>
      <trkpt lat="45.84212" lon="4.78862">
        <ele>609.5</ele>
        <time>2012-05-13T08:04:48Z</time>
      </trkpt>
      <trkpt lat="45.84215" lon="4.78839">
        <ele>609</ele>
        <time>2012-05-13T08:04:53Z</time>
      </trkpt>
      <trkpt lat="45.84218" lon="4.78823">
        <ele>609.5</ele>
        <time>2012-05-13T08:04:58Z</time>
      </trkpt>
      <trkpt lat="45.84221" lon="4.78807">
        <ele>610</ele>
        <time>2012-05-13T08:05:01Z</time>
      </trkpt>
      <trkpt lat="45.84225" lon="4.78786">
        <ele>610</ele>
        <time>2012-05-13T08:05:04Z</time>
      </trkpt>
      <trkpt lat="45.84229" lon="4.78768">
        <ele>610</ele>
        <time>2012-05-13T08:05:07Z</time>
      </trkpt>
      <trkpt lat="45.84233" lon="4.78752">
        <ele>610</ele>
        <time>2012-05-13T08:05:09Z</time>
      </trkpt>
      <trkpt lat="45.84238" lon="4.78731">
        <ele>610</ele>
        <time>2012-05-13T08:05:11Z</time>
      </trkpt>
      <trkpt lat="45.84244" lon="4.78708">
        <ele>610</ele>
        <time>2012-05-13T08:05:13Z</time>
      </trkpt>
      <trkpt lat="45.84249" lon="4.78693">
        <ele>610</ele>
        <time>2012-05-13T08:05:14Z</time>
      </trkpt>
      <trkpt lat="45.84257" lon="4.78672">
        <ele>610</ele>
        <time>2012-05-13T08:05:16Z</time>
      </trkpt>
      <trkpt lat="45.84266" lon="4.78651">
        <ele>610.25</ele>
        <time>2012-05-13T08:05:18Z</time>
      </trkpt>
      <trkpt lat="45.84275" lon="4.78633">
        <ele>611</ele>
        <time>2012-05-13T08:05:20Z</time>
      </trkpt>
      <trkpt lat="45.84286" lon="4.7861">
        <ele>612</ele>
        <time>2012-05-13T08:05:23Z</time>
      </trkpt>
      <trkpt lat="45.8429" lon="4.78595">
        <ele>612.25</ele>
        <time>2012-05-13T08:05:24Z</time>
      </trkpt>
      <trkpt lat="45.84293" lon="4.78583">
        <ele>612.25</ele>
        <time>2012-05-13T08:05:25Z</time>
      </trkpt>
      <trkpt lat="45.84295" lon="4.7857">
        <ele>612</ele>
        <time>2012-05-13T08:05:27Z</time>
      </trkpt>
      <trkpt lat="45.84291" lon="4.78543">
        <ele>612.5</ele>
        <time>2012-05-13T08:05:29Z</time>
      </trkpt>
      <trkpt lat="45.84289" lon="4.78524">
        <ele>612.5</ele>
        <time>2012-05-13T08:05:30Z</time>
      </trkpt>
      <trkpt lat="45.84287" lon="4.78501">
        <ele>612.25</ele>
        <time>2012-05-13T08:05:31Z</time>
      </trkpt>
      <trkpt lat="45.84287" lon="4.78487">
        <ele>611.75</ele>
        <time>2012-05-13T08:05:32Z</time>
      </trkpt>
      <trkpt lat="45.84287" lon="4.78474">
        <ele>611</ele>
        <time>2012-05-13T08:05:33Z</time>
      </trkpt>
      <trkpt lat="45.84286" lon="4.7846">
        <ele>610.5</ele>
        <time>2012-05-13T08:05:34Z</time>
      </trkpt>
      <trkpt lat="45.84285" lon="4.78446">
        <ele>610</ele>
        <time>2012-05-13T08:05:35Z</time>
      </trkpt>
      <trkpt lat="45.84285" lon="4.78431">
        <ele>609.5</ele>
        <time>2012-05-13T08:05:36Z</time>
      </trkpt>
      <trkpt lat="45.84285" lon="4.78417">
        <ele>609.5</ele>
        <time>2012-05-13T08:05:37Z</time>
      </trkpt>
      <trkpt lat="45.84284" lon="4.78403">
        <ele>609.5</ele>
        <time>2012-05-13T08:05:38Z</time>
      </trkpt>
      <trkpt lat="45.84283" lon="4.78385">
        <ele>609.25</ele>
        <time>2012-05-13T08:05:40Z</time>
      </trkpt>
      <trkpt lat="45.84282" lon="4.78369">
        <ele>608.5</ele>
        <time>2012-05-13T08:05:41Z</time>
      </trkpt>
      <trkpt lat="45.84282" lon="4.78353">
        <ele>607.5</ele>
        <time>2012-05-13T08:05:42Z</time>
      </trkpt>
      <trkpt lat="45.84284" lon="4.78339">
        <ele>606.5</ele>
        <time>2012-05-13T08:05:43Z</time>
      </trkpt>
      <trkpt lat="45.84293" lon="4.78324">
        <ele>606.25</ele>
        <time>2012-05-13T08:05:45Z</time>
      </trkpt>
      <trkpt lat="45.84307" lon="4.78322">
        <ele>608</ele>
        <time>2012-05-13T08:05:47Z</time>
      </trkpt>
      <trkpt lat="45.84324" lon="4.78331">
        <ele>610.25</ele>
        <time>2012-05-13T08:05:49Z</time>
      </trkpt>
      <trkpt lat="45.84334" lon="4.78339">
        <ele>610.75</ele>
        <time>2012-05-13T08:05:50Z</time>
      </trkpt>
      <trkpt lat="45.84344" lon="4.78345">
        <ele>611</ele>
        <time>2012-05-13T08:05:52Z</time>
      </trkpt>
      <trkpt lat="45.84354" lon="4.78352">
        <ele>610.75</ele>
        <time>2012-05-13T08:05:53Z</time>
      </trkpt>
      <trkpt lat="45.84363" lon="4.78358">
        <ele>610.5</ele>
        <time>2012-05-13T08:05:54Z</time>
      </trkpt>
      <trkpt lat="45.84374" lon="4.78364">
        <ele>608.5</ele>
        <time>2012-05-13T08:05:56Z</time>
      </trkpt>
      <trkpt lat="45.84373" lon="4.78378">
        <ele>593</ele>
        <time>2012-05-13T08:06:20Z</time>
      </trkpt>
      <trkpt lat="45.84373" lon="4.78393">
        <ele>591</ele>
        <time>2012-05-13T08:06:24Z</time>
      </trkpt>
      <trkpt lat="45.8438" lon="4.78405">
        <ele>590</ele>
        <time>2012-05-13T08:06:27Z</time>
      </trkpt>
      <trkpt lat="45.84394" lon="4.78423">
        <ele>589.25</ele>
        <time>2012-05-13T08:06:29Z</time>
      </trkpt>
      <trkpt lat="45.84402" lon="4.78433">
        <ele>588.75</ele>
        <time>2012-05-13T08:06:30Z</time>
      </trkpt>
      <trkpt lat="45.84411" lon="4.78446">
        <ele>587</ele>
        <time>2012-05-13T08:06:32Z</time>
      </trkpt>
      <trkpt lat="45.84425" lon="4.78464">
        <ele>584.5</ele>
        <time>2012-05-13T08:06:34Z</time>
      </trkpt>
      <trkpt lat="45.84434" lon="4.78477">
        <ele>583</ele>
        <time>2012-05-13T08:06:35Z</time>
      </trkpt>
      <trkpt lat="45.8444" lon="4.78487">
        <ele>582.25</ele>
        <time>2012-05-13T08:06:36Z</time>
      </trkpt>
      <trkpt lat="45.84445" lon="4.78498">
        <ele>581.75</ele>
        <time>2012-05-13T08:06:37Z</time>
      </trkpt>
      <trkpt lat="45.84452" lon="4.7851">
        <ele>581.25</ele>
        <time>2012-05-13T08:06:38Z</time>
      </trkpt>
      <trkpt lat="45.84459" lon="4.78523">
        <ele>581</ele>
        <time>2012-05-13T08:06:39Z</time>
      </trkpt>
      <trkpt lat="45.84466" lon="4.78537">
        <ele>580.75</ele>
        <time>2012-05-13T08:06:40Z</time>
      </trkpt>
      <trkpt lat="45.84473" lon="4.78551">
        <ele>580.5</ele>
        <time>2012-05-13T08:06:41Z</time>
      </trkpt>
      <trkpt lat="45.84482" lon="4.78567">
        <ele>580</ele>
        <time>2012-05-13T08:06:43Z</time>
      </trkpt>
      <trkpt lat="45.8449" lon="4.78582">
        <ele>579.25</ele>
        <time>2012-05-13T08:06:44Z</time>
      </trkpt>
      <trkpt lat="45.84498" lon="4.78595">
        <ele>578.75</ele>
        <time>2012-05-13T08:06:45Z</time>
      </trkpt>
      <trkpt lat="45.84505" lon="4.78605">
        <ele>578.25</ele>
        <time>2012-05-13T08:06:46Z</time>
      </trkpt>
      <trkpt lat="45.84512" lon="4.78617">
        <ele>577.75</ele>
        <time>2012-05-13T08:06:48Z</time>
      </trkpt>
      <trkpt lat="45.84523" lon="4.78635">
        <ele>577.75</ele>
        <time>2012-05-13T08:06:50Z</time>
      </trkpt>
      <trkpt lat="45.84531" lon="4.78646">
        <ele>577.75</ele>
        <time>2012-05-13T08:06:51Z</time>
      </trkpt>
      <trkpt lat="45.84545" lon="4.78663">
        <ele>577.75</ele>
        <time>2012-05-13T08:06:53Z</time>
      </trkpt>
      <trkpt lat="45.84552" lon="4.78672">
        <ele>577.25</ele>
        <time>2012-05-13T08:06:54Z</time>
      </trkpt>
      <trkpt lat="45.8456" lon="4.78684">
        <ele>576.25</ele>
        <time>2012-05-13T08:06:56Z</time>
      </trkpt>
      <trkpt lat="45.84571" lon="4.78692">
        <ele>574.5</ele>
        <time>2012-05-13T08:06:57Z</time>
      </trkpt>
      <trkpt lat="45.84581" lon="4.78699">
        <ele>572.75</ele>
        <time>2012-05-13T08:06:58Z</time>
      </trkpt>
      <trkpt lat="45.84593" lon="4.78708">
        <ele>571</ele>
        <time>2012-05-13T08:07:00Z</time>
      </trkpt>
      <trkpt lat="45.84653" lon="4.78773">
        <ele>561.75</ele>
        <time>2012-05-13T08:07:32Z</time>
      </trkpt>
      <trkpt lat="45.84707" lon="4.78833">
        <ele>553.75</ele>
        <time>2012-05-13T08:07:33Z</time>
      </trkpt>
      <trkpt lat="45.84761" lon="4.78891">
        <ele>546</ele>
        <time>2012-05-13T08:07:34Z</time>
      </trkpt>
      <trkpt lat="45.84814" lon="4.78948">
        <ele>537.5</ele>
        <time>2012-05-13T08:07:35Z</time>
      </trkpt>
      <trkpt lat="45.84825" lon="4.78952">
        <ele>534</ele>
        <time>2012-05-13T08:07:39Z</time>
      </trkpt>
      <trkpt lat="45.84834" lon="4.78953">
        <ele>528.75</ele>
        <time>2012-05-13T08:07:48Z</time>
      </trkpt>
      <trkpt lat="45.84841" lon="4.78962">
        <ele>522</ele>
        <time>2012-05-13T08:08:14Z</time>
      </trkpt>
      <trkpt lat="45.84847" lon="4.78973">
        <ele>521.5</ele>
        <time>2012-05-13T08:08:36Z</time>
      </trkpt>
      <trkpt lat="45.84852" lon="4.78985">
        <ele>522.5</ele>
        <time>2012-05-13T08:08:41Z</time>
      </trkpt>
      <trkpt lat="45.84855" lon="4.78998">
        <ele>522.25</ele>
        <time>2012-05-13T08:08:46Z</time>
      </trkpt>
      <trkpt lat="45.84858" lon="4.79013">
        <ele>521</ele>
        <time>2012-05-13T08:08:49Z</time>
      </trkpt>
      <trkpt lat="45.84864" lon="4.79025">
        <ele>519.5</ele>
        <time>2012-05-13T08:08:54Z</time>
      </trkpt>
      <trkpt lat="45.8487" lon="4.79034">
        <ele>516.75</ele>
        <time>2012-05-13T08:08:58Z</time>
      </trkpt>
      <trkpt lat="45.84876" lon="4.79047">
        <ele>515.75</ele>
        <time>2012-05-13T08:09:05Z</time>
      </trkpt>
      <trkpt lat="45.8488" lon="4.79061">
        <ele>515.25</ele>
        <time>2012-05-13T08:09:10Z</time>
      </trkpt>
      <trkpt lat="45.84882" lon="4.79077">
        <ele>516</ele>
        <time>2012-05-13T08:09:14Z</time>
      </trkpt>
      <trkpt lat="45.8488" lon="4.79092">
        <ele>515.75</ele>
        <time>2012-05-13T08:09:18Z</time>
      </trkpt>
      <trkpt lat="45.84874" lon="4.79112">
        <ele>515</ele>
        <time>2012-05-13T08:09:21Z</time>
      </trkpt>
      <trkpt lat="45.84871" lon="4.79131">
        <ele>515</ele>
        <time>2012-05-13T08:09:24Z</time>
      </trkpt>
      <trkpt lat="45.84872" lon="4.79148">
        <ele>514.75</ele>
        <time>2012-05-13T08:09:28Z</time>
      </trkpt>
      <trkpt lat="45.84872" lon="4.79162">
        <ele>514</ele>
        <time>2012-05-13T08:09:31Z</time>
      </trkpt>
      <trkpt lat="45.84872" lon="4.79179">
        <ele>513.25</ele>
        <time>2012-05-13T08:09:33Z</time>
      </trkpt>
      <trkpt lat="45.84875" lon="4.79194">
        <ele>512.75</ele>
        <time>2012-05-13T08:09:36Z</time>
      </trkpt>
      <trkpt lat="45.84879" lon="4.79208">
        <ele>512.25</ele>
        <time>2012-05-13T08:09:38Z</time>
      </trkpt>
      <trkpt lat="45.84884" lon="4.79222">
        <ele>512</ele>
        <time>2012-05-13T08:09:40Z</time>
      </trkpt>
      <trkpt lat="45.8489" lon="4.79235">
        <ele>512</ele>
        <time>2012-05-13T08:09:42Z</time>
      </trkpt>
      <trkpt lat="45.84896" lon="4.79248">
        <ele>512.5</ele>
        <time>2012-05-13T08:09:44Z</time>
      </trkpt>
      <trkpt lat="45.84902" lon="4.79262">
        <ele>512.75</ele>
        <time>2012-05-13T08:09:46Z</time>
      </trkpt>
      <trkpt lat="45.84909" lon="4.79275">
        <ele>512</ele>
        <time>2012-05-13T08:09:49Z</time>
      </trkpt>
      <trkpt lat="45.8492" lon="4.79288">
        <ele>511.25</ele>
        <time>2012-05-13T08:09:52Z</time>
      </trkpt>
      <trkpt lat="45.84932" lon="4.79294">
        <ele>512</ele>
        <time>2012-05-13T08:09:55Z</time>
      </trkpt>
      <trkpt lat="45.84942" lon="4.793">
        <ele>512</ele>
        <time>2012-05-13T08:09:59Z</time>
      </trkpt>
      <trkpt lat="45.84952" lon="4.79303">
        <ele>511</ele>
        <time>2012-05-13T08:10:04Z</time>
      </trkpt>
      <trkpt lat="45.8495" lon="4.79289">
        <ele>511</ele>
        <time>2012-05-13T08:10:13Z</time>
      </trkpt>
      <trkpt lat="45.84946" lon="4.79277">
        <ele>511</ele>
        <time>2012-05-13T08:10:18Z</time>
      </trkpt>
      <trkpt lat="45.84945" lon="4.79262">
        <ele>510.5</ele>
        <time>2012-05-13T08:10:23Z</time>
      </trkpt>
      <trkpt lat="45.8495" lon="4.79252">
        <ele>510</ele>
        <time>2012-05-13T08:10:31Z</time>
      </trkpt>
      <trkpt lat="45.84959" lon="4.79248">
        <ele>512.75</ele>
        <time>2012-05-13T08:10:38Z</time>
      </trkpt>
      <trkpt lat="45.84968" lon="4.79246">
        <ele>514.5</ele>
        <time>2012-05-13T08:10:42Z</time>
      </trkpt>
      <trkpt lat="45.84978" lon="4.79247">
        <ele>517</ele>
        <time>2012-05-13T08:10:46Z</time>
      </trkpt>
      <trkpt lat="45.84989" lon="4.79248">
        <ele>518.75</ele>
        <time>2012-05-13T08:10:52Z</time>
      </trkpt>
      <trkpt lat="45.84999" lon="4.79248">
        <ele>520.5</ele>
        <time>2012-05-13T08:10:57Z</time>
      </trkpt>
      <trkpt lat="45.85027" lon="4.79255">
        <ele>523.75</ele>
        <time>2012-05-13T08:11:32Z</time>
      </trkpt>
      <trkpt lat="45.85048" lon="4.79261">
        <ele>525.75</ele>
        <time>2012-05-13T08:11:33Z</time>
      </trkpt>
      <trkpt lat="45.85066" lon="4.79267">
        <ele>527.5</ele>
        <time>2012-05-13T08:11:34Z</time>
      </trkpt>
      <trkpt lat="45.85084" lon="4.79272">
        <ele>529</ele>
        <time>2012-05-13T08:11:35Z</time>
      </trkpt>
      <trkpt lat="45.85095" lon="4.79272">
        <ele>530.25</ele>
        <time>2012-05-13T08:11:39Z</time>
      </trkpt>
      <trkpt lat="45.85106" lon="4.79272">
        <ele>531.25</ele>
        <time>2012-05-13T08:11:43Z</time>
      </trkpt>
      <trkpt lat="45.85116" lon="4.79274">
        <ele>532</ele>
        <time>2012-05-13T08:11:46Z</time>
      </trkpt>
      <trkpt lat="45.85128" lon="4.79274">
        <ele>532</ele>
        <time>2012-05-13T08:11:50Z</time>
      </trkpt>
      <trkpt lat="45.85138" lon="4.79273">
        <ele>532</ele>
        <time>2012-05-13T08:11:56Z</time>
      </trkpt>
      <trkpt lat="45.85149" lon="4.79273">
        <ele>532.25</ele>
        <time>2012-05-13T08:11:59Z</time>
      </trkpt>
      <trkpt lat="45.85157" lon="4.79277">
        <ele>533</ele>
        <time>2012-05-13T08:12:03Z</time>
      </trkpt>
      <trkpt lat="45.85168" lon="4.79282">
        <ele>534.25</ele>
        <time>2012-05-13T08:12:05Z</time>
      </trkpt>
      <trkpt lat="45.85179" lon="4.79291">
        <ele>535.5</ele>
        <time>2012-05-13T08:12:07Z</time>
      </trkpt>
      <trkpt lat="45.85187" lon="4.79298">
        <ele>536</ele>
        <time>2012-05-13T08:12:10Z</time>
      </trkpt>
      <trkpt lat="45.85197" lon="4.79308">
        <ele>536</ele>
        <time>2012-05-13T08:12:12Z</time>
      </trkpt>
      <trkpt lat="45.85208" lon="4.79319">
        <ele>536</ele>
        <time>2012-05-13T08:12:14Z</time>
      </trkpt>
      <trkpt lat="45.85219" lon="4.79325">
        <ele>535.5</ele>
        <time>2012-05-13T08:12:18Z</time>
      </trkpt>
      <trkpt lat="45.85228" lon="4.79332">
        <ele>534</ele>
        <time>2012-05-13T08:12:23Z</time>
      </trkpt>
      <trkpt lat="45.85236" lon="4.7934">
        <ele>531.5</ele>
        <time>2012-05-13T08:12:28Z</time>
      </trkpt>
      <trkpt lat="45.85247" lon="4.79343">
        <ele>529.75</ele>
        <time>2012-05-13T08:12:35Z</time>
      </trkpt>
      <trkpt lat="45.85256" lon="4.79342">
        <ele>528.75</ele>
        <time>2012-05-13T08:12:38Z</time>
      </trkpt>
      <trkpt lat="45.8527" lon="4.7934">
        <ele>527.75</ele>
        <time>2012-05-13T08:12:41Z</time>
      </trkpt>
      <trkpt lat="45.85284" lon="4.79341">
        <ele>526.5</ele>
        <time>2012-05-13T08:12:44Z</time>
      </trkpt>
      <trkpt lat="45.85302" lon="4.79348">
        <ele>525.75</ele>
        <time>2012-05-13T08:12:46Z</time>
      </trkpt>
      <trkpt lat="45.85314" lon="4.79353">
        <ele>525.25</ele>
        <time>2012-05-13T08:12:48Z</time>
      </trkpt>
      <trkpt lat="45.85326" lon="4.79358">
        <ele>524.25</ele>
        <time>2012-05-13T08:12:49Z</time>
      </trkpt>
      <trkpt lat="45.85337" lon="4.79363">
        <ele>523</ele>
        <time>2012-05-13T08:12:50Z</time>
      </trkpt>
      <trkpt lat="45.8535" lon="4.7937">
        <ele>520.5</ele>
        <time>2012-05-13T08:12:52Z</time>
      </trkpt>
      <trkpt lat="45.85361" lon="4.79374">
        <ele>519</ele>
        <time>2012-05-13T08:12:54Z</time>
      </trkpt>
      <trkpt lat="45.8537" lon="4.79377">
        <ele>516.75</ele>
        <time>2012-05-13T08:12:57Z</time>
      </trkpt>
      <trkpt lat="45.85378" lon="4.79366">
        <ele>510.75</ele>
        <time>2012-05-13T08:13:03Z</time>
      </trkpt>
      <trkpt lat="45.85382" lon="4.79351">
        <ele>507</ele>
        <time>2012-05-13T08:13:06Z</time>
      </trkpt>
      <trkpt lat="45.85385" lon="4.79334">
        <ele>505</ele>
        <time>2012-05-13T08:13:10Z</time>
      </trkpt>
      <trkpt lat="45.85388" lon="4.79319">
        <ele>504</ele>
        <time>2012-05-13T08:13:15Z</time>
      </trkpt>
      <trkpt lat="45.85392" lon="4.79305">
        <ele>504</ele>
        <time>2012-05-13T08:13:20Z</time>
      </trkpt>
      <trkpt lat="45.854" lon="4.79298">
        <ele>504</ele>
        <time>2012-05-13T08:13:24Z</time>
      </trkpt>
      <trkpt lat="45.85411" lon="4.79302">
        <ele>504</ele>
        <time>2012-05-13T08:13:30Z</time>
      </trkpt>
      <trkpt lat="45.85421" lon="4.79305">
        <ele>504</ele>
        <time>2012-05-13T08:13:33Z</time>
      </trkpt>
      <trkpt lat="45.85432" lon="4.79308">
        <ele>504</ele>
        <time>2012-05-13T08:13:38Z</time>
      </trkpt>
      <trkpt lat="45.85443" lon="4.79313">
        <ele>504.75</ele>
        <time>2012-05-13T08:13:42Z</time>
      </trkpt>
      <trkpt lat="45.85452" lon="4.79316">
        <ele>505.25</ele>
        <time>2012-05-13T08:13:46Z</time>
      </trkpt>
      <trkpt lat="45.85462" lon="4.79318">
        <ele>506</ele>
        <time>2012-05-13T08:13:50Z</time>
      </trkpt>
      <trkpt lat="45.85469" lon="4.79307">
        <ele>507</ele>
        <time>2012-05-13T08:13:56Z</time>
      </trkpt>
      <trkpt lat="45.8547" lon="4.79293">
        <ele>507</ele>
        <time>2012-05-13T08:14:03Z</time>
      </trkpt>
      <trkpt lat="45.85477" lon="4.79277">
        <ele>507.75</ele>
        <time>2012-05-13T08:14:06Z</time>
      </trkpt>
      <trkpt lat="45.85488" lon="4.79275">
        <ele>508</ele>
        <time>2012-05-13T08:14:10Z</time>
      </trkpt>
      <trkpt lat="45.85499" lon="4.79274">
        <ele>508.25</ele>
        <time>2012-05-13T08:14:14Z</time>
      </trkpt>
      <trkpt lat="45.85509" lon="4.79273">
        <ele>509</ele>
        <time>2012-05-13T08:14:18Z</time>
      </trkpt>
      <trkpt lat="45.8552" lon="4.7927">
        <ele>509.25</ele>
        <time>2012-05-13T08:14:23Z</time>
      </trkpt>
      <trkpt lat="45.8553" lon="4.79269">
        <ele>510.25</ele>
        <time>2012-05-13T08:14:26Z</time>
      </trkpt>
      <trkpt lat="45.85541" lon="4.79267">
        <ele>511</ele>
        <time>2012-05-13T08:14:31Z</time>
      </trkpt>
      <trkpt lat="45.8555" lon="4.79266">
        <ele>511.5</ele>
        <time>2012-05-13T08:14:35Z</time>
      </trkpt>
      <trkpt lat="45.85559" lon="4.79268">
        <ele>512</ele>
        <time>2012-05-13T08:14:38Z</time>
      </trkpt>
      <trkpt lat="45.85567" lon="4.79275">
        <ele>512</ele>
        <time>2012-05-13T08:14:42Z</time>
      </trkpt>
      <trkpt lat="45.85575" lon="4.79287">
        <ele>512.25</ele>
        <time>2012-05-13T08:14:46Z</time>
      </trkpt>
      <trkpt lat="45.85583" lon="4.79298">
        <ele>513.5</ele>
        <time>2012-05-13T08:14:51Z</time>
      </trkpt>
      <trkpt lat="45.85591" lon="4.79308">
        <ele>514</ele>
        <time>2012-05-13T08:14:55Z</time>
      </trkpt>
      <trkpt lat="45.85599" lon="4.79319">
        <ele>515.5</ele>
        <time>2012-05-13T08:14:59Z</time>
      </trkpt>
      <trkpt lat="45.85606" lon="4.79332">
        <ele>516</ele>
        <time>2012-05-13T08:15:03Z</time>
      </trkpt>
      <trkpt lat="45.85614" lon="4.79345">
        <ele>516.25</ele>
        <time>2012-05-13T08:15:08Z</time>
      </trkpt>
      <trkpt lat="45.85619" lon="4.79331">
        <ele>517</ele>
        <time>2012-05-13T08:15:19Z</time>
      </trkpt>
      <trkpt lat="45.85617" lon="4.79318">
        <ele>517.5</ele>
        <time>2012-05-13T08:15:22Z</time>
      </trkpt>
      <trkpt lat="45.85613" lon="4.79302">
        <ele>517.5</ele>
        <time>2012-05-13T08:15:26Z</time>
      </trkpt>
      <trkpt lat="45.85609" lon="4.79287">
        <ele>519.25</ele>
        <time>2012-05-13T08:15:29Z</time>
      </trkpt>
      <trkpt lat="45.85605" lon="4.79272">
        <ele>520.5</ele>
        <time>2012-05-13T08:15:32Z</time>
      </trkpt>
      <trkpt lat="45.85603" lon="4.79258">
        <ele>521.5</ele>
        <time>2012-05-13T08:15:35Z</time>
      </trkpt>
      <trkpt lat="45.85602" lon="4.79241">
        <ele>522.5</ele>
        <time>2012-05-13T08:15:39Z</time>
      </trkpt>
      <trkpt lat="45.856" lon="4.79224">
        <ele>523</ele>
        <time>2012-05-13T08:15:42Z</time>
      </trkpt>
      <trkpt lat="45.856" lon="4.79209">
        <ele>523</ele>
        <time>2012-05-13T08:15:45Z</time>
      </trkpt>
      <trkpt lat="45.85599" lon="4.79194">
        <ele>523</ele>
        <time>2012-05-13T08:15:48Z</time>
      </trkpt>
      <trkpt lat="45.85599" lon="4.7918">
        <ele>523</ele>
        <time>2012-05-13T08:15:51Z</time>
      </trkpt>
      <trkpt lat="45.85598" lon="4.79166">
        <ele>523</ele>
        <time>2012-05-13T08:15:55Z</time>
      </trkpt>
      <trkpt lat="45.85599" lon="4.7915">
        <ele>523.25</ele>
        <time>2012-05-13T08:15:58Z</time>
      </trkpt>
      <trkpt lat="45.85599" lon="4.79136">
        <ele>524</ele>
        <time>2012-05-13T08:16:01Z</time>
      </trkpt>
      <trkpt lat="45.85599" lon="4.79123">
        <ele>524</ele>
        <time>2012-05-13T08:16:04Z</time>
      </trkpt>
      <trkpt lat="45.85598" lon="4.79107">
        <ele>523.75</ele>
        <time>2012-05-13T08:16:08Z</time>
      </trkpt>
      <trkpt lat="45.85594" lon="4.79093">
        <ele>524.5</ele>
        <time>2012-05-13T08:16:11Z</time>
      </trkpt>
      <trkpt lat="45.85587" lon="4.79083">
        <ele>525.75</ele>
        <time>2012-05-13T08:16:15Z</time>
      </trkpt>
      <trkpt lat="45.85579" lon="4.79076">
        <ele>528</ele>
        <time>2012-05-13T08:16:18Z</time>
      </trkpt>
      <trkpt lat="45.85569" lon="4.7907">
        <ele>529.75</ele>
        <time>2012-05-13T08:16:21Z</time>
      </trkpt>
      <trkpt lat="45.85558" lon="4.79063">
        <ele>531.75</ele>
        <time>2012-05-13T08:16:25Z</time>
      </trkpt>
      <trkpt lat="45.85548" lon="4.79057">
        <ele>533.5</ele>
        <time>2012-05-13T08:16:29Z</time>
      </trkpt>
      <trkpt lat="45.85539" lon="4.79051">
        <ele>534.5</ele>
        <time>2012-05-13T08:16:32Z</time>
      </trkpt>
      <trkpt lat="45.8553" lon="4.79044">
        <ele>535.25</ele>
        <time>2012-05-13T08:16:35Z</time>
      </trkpt>
      <trkpt lat="45.85522" lon="4.79036">
        <ele>536.5</ele>
        <time>2012-05-13T08:16:39Z</time>
      </trkpt>
      <trkpt lat="45.85514" lon="4.79029">
        <ele>537</ele>
        <time>2012-05-13T08:16:41Z</time>
      </trkpt>
      <trkpt lat="45.85505" lon="4.79021">
        <ele>537.75</ele>
        <time>2012-05-13T08:16:44Z</time>
      </trkpt>
      <trkpt lat="45.85516" lon="4.79023">
        <ele>539.5</ele>
        <time>2012-05-13T08:16:52Z</time>
      </trkpt>
      <trkpt lat="45.85528" lon="4.79031">
        <ele>540</ele>
        <time>2012-05-13T08:16:56Z</time>
      </trkpt>
      <trkpt lat="45.85537" lon="4.79037">
        <ele>540.25</ele>
        <time>2012-05-13T08:16:58Z</time>
      </trkpt>
      <trkpt lat="45.85563" lon="4.79049">
        <ele>541</ele>
        <time>2012-05-13T08:17:33Z</time>
      </trkpt>
      <trkpt lat="45.85583" lon="4.79055">
        <ele>541.5</ele>
        <time>2012-05-13T08:17:34Z</time>
      </trkpt>
      <trkpt lat="45.85603" lon="4.79061">
        <ele>542.25</ele>
        <time>2012-05-13T08:17:35Z</time>
      </trkpt>
      <trkpt lat="45.85622" lon="4.79066">
        <ele>542.75</ele>
        <time>2012-05-13T08:17:36Z</time>
      </trkpt>
      <trkpt lat="45.85633" lon="4.79073">
        <ele>544.25</ele>
        <time>2012-05-13T08:17:40Z</time>
      </trkpt>
      <trkpt lat="45.85644" lon="4.79081">
        <ele>544.5</ele>
        <time>2012-05-13T08:17:44Z</time>
      </trkpt>
      <trkpt lat="45.85653" lon="4.79089">
        <ele>544</ele>
        <time>2012-05-13T08:17:47Z</time>
      </trkpt>
      <trkpt lat="45.85664" lon="4.79097">
        <ele>544.75</ele>
        <time>2012-05-13T08:17:51Z</time>
      </trkpt>
      <trkpt lat="45.85672" lon="4.79102">
        <ele>545</ele>
        <time>2012-05-13T08:17:54Z</time>
      </trkpt>
      <trkpt lat="45.85682" lon="4.79109">
        <ele>545.75</ele>
        <time>2012-05-13T08:17:58Z</time>
      </trkpt>
      <trkpt lat="45.85693" lon="4.79115">
        <ele>547.25</ele>
        <time>2012-05-13T08:18:03Z</time>
      </trkpt>
      <trkpt lat="45.85706" lon="4.79122">
        <ele>548.75</ele>
        <time>2012-05-13T08:18:07Z</time>
      </trkpt>
      <trkpt lat="45.85716" lon="4.79125">
        <ele>549</ele>
        <time>2012-05-13T08:18:10Z</time>
      </trkpt>
      <trkpt lat="45.85727" lon="4.79128">
        <ele>549.75</ele>
        <time>2012-05-13T08:18:14Z</time>
      </trkpt>
      <trkpt lat="45.85739" lon="4.79131">
        <ele>550.5</ele>
        <time>2012-05-13T08:18:18Z</time>
      </trkpt>
      <trkpt lat="45.85749" lon="4.79135">
        <ele>551.25</ele>
        <time>2012-05-13T08:18:22Z</time>
      </trkpt>
      <trkpt lat="45.85759" lon="4.79142">
        <ele>551.25</ele>
        <time>2012-05-13T08:18:26Z</time>
      </trkpt>
      <trkpt lat="45.85773" lon="4.79149">
        <ele>552.5</ele>
        <time>2012-05-13T08:18:29Z</time>
      </trkpt>
      <trkpt lat="45.85784" lon="4.79155">
        <ele>553.75</ele>
        <time>2012-05-13T08:18:32Z</time>
      </trkpt>
      <trkpt lat="45.85794" lon="4.79161">
        <ele>555</ele>
        <time>2012-05-13T08:18:35Z</time>
      </trkpt>
      <trkpt lat="45.85802" lon="4.79166">
        <ele>556</ele>
        <time>2012-05-13T08:18:38Z</time>
      </trkpt>
      <trkpt lat="45.85814" lon="4.79171">
        <ele>557</ele>
        <time>2012-05-13T08:18:41Z</time>
      </trkpt>
      <trkpt lat="45.85823" lon="4.79175">
        <ele>557</ele>
        <time>2012-05-13T08:18:44Z</time>
      </trkpt>
      <trkpt lat="45.85832" lon="4.7918">
        <ele>557.5</ele>
        <time>2012-05-13T08:18:47Z</time>
      </trkpt>
      <trkpt lat="45.85841" lon="4.79184">
        <ele>558</ele>
        <time>2012-05-13T08:18:49Z</time>
      </trkpt>
      <trkpt lat="45.85852" lon="4.79188">
        <ele>558</ele>
        <time>2012-05-13T08:18:53Z</time>
      </trkpt>
      <trkpt lat="45.85858" lon="4.79179">
        <ele>558</ele>
        <time>2012-05-13T08:18:58Z</time>
      </trkpt>
      <trkpt lat="45.8586" lon="4.79162">
        <ele>557.75</ele>
        <time>2012-05-13T08:19:05Z</time>
      </trkpt>
      <trkpt lat="45.85859" lon="4.79149">
        <ele>557</ele>
        <time>2012-05-13T08:19:09Z</time>
      </trkpt>
      <trkpt lat="45.85858" lon="4.79134">
        <ele>556.75</ele>
        <time>2012-05-13T08:19:14Z</time>
      </trkpt>
      <trkpt lat="45.85854" lon="4.79122">
        <ele>556.75</ele>
        <time>2012-05-13T08:19:18Z</time>
      </trkpt>
      <trkpt lat="45.85849" lon="4.79107">
        <ele>557</ele>
        <time>2012-05-13T08:19:23Z</time>
      </trkpt>
      <trkpt lat="45.85846" lon="4.79095">
        <ele>558</ele>
        <time>2012-05-13T08:19:27Z</time>
      </trkpt>
      <trkpt lat="45.85841" lon="4.79081">
        <ele>559</ele>
        <time>2012-05-13T08:19:31Z</time>
      </trkpt>
      <trkpt lat="45.85834" lon="4.79066">
        <ele>560</ele>
        <time>2012-05-13T08:19:36Z</time>
      </trkpt>
      <trkpt lat="45.85829" lon="4.79051">
        <ele>561</ele>
        <time>2012-05-13T08:19:42Z</time>
      </trkpt>
      <trkpt lat="45.85825" lon="4.79037">
        <ele>562.25</ele>
        <time>2012-05-13T08:19:46Z</time>
      </trkpt>
      <trkpt lat="45.85821" lon="4.79024">
        <ele>563.25</ele>
        <time>2012-05-13T08:19:51Z</time>
      </trkpt>
      <trkpt lat="45.85818" lon="4.79011">
        <ele>564.25</ele>
        <time>2012-05-13T08:19:54Z</time>
      </trkpt>
      <trkpt lat="45.85815" lon="4.78996">
        <ele>565.25</ele>
        <time>2012-05-13T08:19:58Z</time>
      </trkpt>
      <trkpt lat="45.85812" lon="4.78983">
        <ele>566</ele>
        <time>2012-05-13T08:20:03Z</time>
      </trkpt>
      <trkpt lat="45.85808" lon="4.78967">
        <ele>566.75</ele>
        <time>2012-05-13T08:20:06Z</time>
      </trkpt>
      <trkpt lat="45.85804" lon="4.78955">
        <ele>567.5</ele>
        <time>2012-05-13T08:20:10Z</time>
      </trkpt>
      <trkpt lat="45.858" lon="4.78941">
        <ele>568.25</ele>
        <time>2012-05-13T08:20:16Z</time>
      </trkpt>
      <trkpt lat="45.85796" lon="4.78927">
        <ele>569.25</ele>
        <time>2012-05-13T08:20:19Z</time>
      </trkpt>
      <trkpt lat="45.85793" lon="4.78915">
        <ele>570.5</ele>
        <time>2012-05-13T08:20:23Z</time>
      </trkpt>
      <trkpt lat="45.85791" lon="4.78901">
        <ele>571</ele>
        <time>2012-05-13T08:20:26Z</time>
      </trkpt>
      <trkpt lat="45.85792" lon="4.78888">
        <ele>571</ele>
        <time>2012-05-13T08:20:30Z</time>
      </trkpt>
      <trkpt lat="45.85796" lon="4.78873">
        <ele>572.5</ele>
        <time>2012-05-13T08:20:35Z</time>
      </trkpt>
      <trkpt lat="45.85799" lon="4.7886">
        <ele>573.75</ele>
        <time>2012-05-13T08:20:40Z</time>
      </trkpt>
      <trkpt lat="45.85803" lon="4.78845">
        <ele>575.75</ele>
        <time>2012-05-13T08:20:45Z</time>
      </trkpt>
      <trkpt lat="45.85807" lon="4.78831">
        <ele>576.5</ele>
        <time>2012-05-13T08:20:50Z</time>
      </trkpt>
      <trkpt lat="45.85813" lon="4.7882">
        <ele>578.5</ele>
        <time>2012-05-13T08:20:55Z</time>
      </trkpt>
      <trkpt lat="45.85824" lon="4.78818">
        <ele>580.75</ele>
        <time>2012-05-13T08:21:01Z</time>
      </trkpt>
      <trkpt lat="45.85834" lon="4.78826">
        <ele>583.5</ele>
        <time>2012-05-13T08:21:08Z</time>
      </trkpt>
      <trkpt lat="45.85843" lon="4.78832">
        <ele>586.75</ele>
        <time>2012-05-13T08:21:15Z</time>
      </trkpt>
      <trkpt lat="45.85852" lon="4.78828">
        <ele>587.75</ele>
        <time>2012-05-13T08:21:21Z</time>
      </trkpt>
      <trkpt lat="45.85865" lon="4.78828">
        <ele>588.75</ele>
        <time>2012-05-13T08:21:24Z</time>
      </trkpt>
      <trkpt lat="45.85876" lon="4.78827">
        <ele>589</ele>
        <time>2012-05-13T08:21:26Z</time>
      </trkpt>
      <trkpt lat="45.85888" lon="4.78827">
        <ele>589</ele>
        <time>2012-05-13T08:21:29Z</time>
      </trkpt>
      <trkpt lat="45.85897" lon="4.78827">
        <ele>589.25</ele>
        <time>2012-05-13T08:21:32Z</time>
      </trkpt>
      <trkpt lat="45.85908" lon="4.78828">
        <ele>588.25</ele>
        <time>2012-05-13T08:21:38Z</time>
      </trkpt>
      <trkpt lat="45.8592" lon="4.78829">
        <ele>588.25</ele>
        <time>2012-05-13T08:21:41Z</time>
      </trkpt>
      <trkpt lat="45.85932" lon="4.78831">
        <ele>589</ele>
        <time>2012-05-13T08:21:44Z</time>
      </trkpt>
      <trkpt lat="45.85942" lon="4.78835">
        <ele>589</ele>
        <time>2012-05-13T08:21:46Z</time>
      </trkpt>
      <trkpt lat="45.85954" lon="4.78839">
        <ele>589.5</ele>
        <time>2012-05-13T08:21:48Z</time>
      </trkpt>
      <trkpt lat="45.85964" lon="4.78842">
        <ele>590.5</ele>
        <time>2012-05-13T08:21:50Z</time>
      </trkpt>
      <trkpt lat="45.85976" lon="4.78846">
        <ele>590.75</ele>
        <time>2012-05-13T08:21:53Z</time>
      </trkpt>
      <trkpt lat="45.85989" lon="4.78855">
        <ele>589.75</ele>
        <time>2012-05-13T08:21:57Z</time>
      </trkpt>
      <trkpt lat="45.86002" lon="4.78864">
        <ele>589.25</ele>
        <time>2012-05-13T08:21:59Z</time>
      </trkpt>
      <trkpt lat="45.86049" lon="4.78905">
        <ele>587.25</ele>
        <time>2012-05-13T08:22:32Z</time>
      </trkpt>
      <trkpt lat="45.86089" lon="4.78943">
        <ele>585.5</ele>
        <time>2012-05-13T08:22:33Z</time>
      </trkpt>
      <trkpt lat="45.86128" lon="4.78982">
        <ele>583.75</ele>
        <time>2012-05-13T08:22:34Z</time>
      </trkpt>
      <trkpt lat="45.86168" lon="4.79021">
        <ele>582</ele>
        <time>2012-05-13T08:22:35Z</time>
      </trkpt>
      <trkpt lat="45.86177" lon="4.79031">
        <ele>582</ele>
        <time>2012-05-13T08:22:37Z</time>
      </trkpt>
      <trkpt lat="45.86186" lon="4.79042">
        <ele>581.75</ele>
        <time>2012-05-13T08:22:39Z</time>
      </trkpt>
      <trkpt lat="45.86194" lon="4.79051">
        <ele>581.25</ele>
        <time>2012-05-13T08:22:42Z</time>
      </trkpt>
      <trkpt lat="45.86204" lon="4.79061">
        <ele>580.75</ele>
        <time>2012-05-13T08:22:44Z</time>
      </trkpt>
      <trkpt lat="45.86216" lon="4.79074">
        <ele>580.25</ele>
        <time>2012-05-13T08:22:46Z</time>
      </trkpt>
      <trkpt lat="45.86227" lon="4.79088">
        <ele>580.5</ele>
        <time>2012-05-13T08:22:48Z</time>
      </trkpt>
      <trkpt lat="45.86235" lon="4.79101">
        <ele>581</ele>
        <time>2012-05-13T08:22:50Z</time>
      </trkpt>
      <trkpt lat="45.86243" lon="4.79114">
        <ele>580.75</ele>
        <time>2012-05-13T08:22:52Z</time>
      </trkpt>
      <trkpt lat="45.86252" lon="4.79128">
        <ele>580.5</ele>
        <time>2012-05-13T08:22:55Z</time>
      </trkpt>
      <trkpt lat="45.86263" lon="4.79143">
        <ele>579.75</ele>
        <time>2012-05-13T08:22:57Z</time>
      </trkpt>
      <trkpt lat="45.86273" lon="4.79155">
        <ele>578.75</ele>
        <time>2012-05-13T08:22:59Z</time>
      </trkpt>
      <trkpt lat="45.86281" lon="4.79163">
        <ele>578.25</ele>
        <time>2012-05-13T08:23:00Z</time>
      </trkpt>
      <trkpt lat="45.86295" lon="4.79179">
        <ele>578</ele>
        <time>2012-05-13T08:23:04Z</time>
      </trkpt>
      <trkpt lat="45.86303" lon="4.79188">
        <ele>578</ele>
        <time>2012-05-13T08:23:05Z</time>
      </trkpt>
      <trkpt lat="45.86313" lon="4.79199">
        <ele>578</ele>
        <time>2012-05-13T08:23:06Z</time>
      </trkpt>
      <trkpt lat="45.8632" lon="4.79208">
        <ele>578</ele>
        <time>2012-05-13T08:23:08Z</time>
      </trkpt>
      <trkpt lat="45.86328" lon="4.7922">
        <ele>577.75</ele>
        <time>2012-05-13T08:23:09Z</time>
      </trkpt>
      <trkpt lat="45.86337" lon="4.79232">
        <ele>577.75</ele>
        <time>2012-05-13T08:23:10Z</time>
      </trkpt>
      <trkpt lat="45.86345" lon="4.79243">
        <ele>577.75</ele>
        <time>2012-05-13T08:23:11Z</time>
      </trkpt>
      <trkpt lat="45.86354" lon="4.79255">
        <ele>577.75</ele>
        <time>2012-05-13T08:23:12Z</time>
      </trkpt>
      <trkpt lat="45.86361" lon="4.79264">
        <ele>578</ele>
        <time>2012-05-13T08:23:13Z</time>
      </trkpt>
      <trkpt lat="45.86374" lon="4.79278">
        <ele>577.75</ele>
        <time>2012-05-13T08:23:15Z</time>
      </trkpt>
      <trkpt lat="45.86385" lon="4.79291">
        <ele>577</ele>
        <time>2012-05-13T08:23:17Z</time>
      </trkpt>
      <trkpt lat="45.86395" lon="4.79301">
        <ele>576</ele>
        <time>2012-05-13T08:23:19Z</time>
      </trkpt>
      <trkpt lat="45.86405" lon="4.79312">
        <ele>575</ele>
        <time>2012-05-13T08:23:22Z</time>
      </trkpt>
      <trkpt lat="45.86418" lon="4.79326">
        <ele>574.25</ele>
        <time>2012-05-13T08:23:24Z</time>
      </trkpt>
      <trkpt lat="45.86426" lon="4.79335">
        <ele>574</ele>
        <time>2012-05-13T08:23:26Z</time>
      </trkpt>
      <trkpt lat="45.86439" lon="4.79348">
        <ele>573.25</ele>
        <time>2012-05-13T08:23:28Z</time>
      </trkpt>
      <trkpt lat="45.86447" lon="4.79356">
        <ele>572.75</ele>
        <time>2012-05-13T08:23:29Z</time>
      </trkpt>
      <trkpt lat="45.86456" lon="4.79366">
        <ele>572</ele>
        <time>2012-05-13T08:23:30Z</time>
      </trkpt>
      <trkpt lat="45.86468" lon="4.79375">
        <ele>571.25</ele>
        <time>2012-05-13T08:23:32Z</time>
      </trkpt>
      <trkpt lat="45.86479" lon="4.79383">
        <ele>570.75</ele>
        <time>2012-05-13T08:23:35Z</time>
      </trkpt>
      <trkpt lat="45.8649" lon="4.79394">
        <ele>570</ele>
        <time>2012-05-13T08:23:37Z</time>
      </trkpt>
      <trkpt lat="45.86502" lon="4.79406">
        <ele>569</ele>
        <time>2012-05-13T08:23:39Z</time>
      </trkpt>
      <trkpt lat="45.86513" lon="4.79418">
        <ele>568</ele>
        <time>2012-05-13T08:23:41Z</time>
      </trkpt>
      <trkpt lat="45.86525" lon="4.79431">
        <ele>567</ele>
        <time>2012-05-13T08:23:43Z</time>
      </trkpt>
      <trkpt lat="45.86533" lon="4.7944">
        <ele>566.25</ele>
        <time>2012-05-13T08:23:45Z</time>
      </trkpt>
      <trkpt lat="45.86544" lon="4.79455">
        <ele>565</ele>
        <time>2012-05-13T08:23:48Z</time>
      </trkpt>
      <trkpt lat="45.8656" lon="4.79477">
        <ele>563</ele>
        <time>2012-05-13T08:23:50Z</time>
      </trkpt>
      <trkpt lat="45.86569" lon="4.79489">
        <ele>562</ele>
        <time>2012-05-13T08:23:51Z</time>
      </trkpt>
      <trkpt lat="45.8658" lon="4.79503">
        <ele>560.75</ele>
        <time>2012-05-13T08:23:52Z</time>
      </trkpt>
      <trkpt lat="45.86592" lon="4.7952">
        <ele>559.5</ele>
        <time>2012-05-13T08:23:53Z</time>
      </trkpt>
      <trkpt lat="45.86599" lon="4.79529">
        <ele>559</ele>
        <time>2012-05-13T08:23:54Z</time>
      </trkpt>
      <trkpt lat="45.8661" lon="4.79546">
        <ele>558</ele>
        <time>2012-05-13T08:23:56Z</time>
      </trkpt>
      <trkpt lat="45.86619" lon="4.79564">
        <ele>556.5</ele>
        <time>2012-05-13T08:23:58Z</time>
      </trkpt>
      <trkpt lat="45.86626" lon="4.79581">
        <ele>554.5</ele>
        <time>2012-05-13T08:24:01Z</time>
      </trkpt>
      <trkpt lat="45.86635" lon="4.796">
        <ele>551</ele>
        <time>2012-05-13T08:24:04Z</time>
      </trkpt>
      <trkpt lat="45.86643" lon="4.79615">
        <ele>546.75</ele>
        <time>2012-05-13T08:24:06Z</time>
      </trkpt>
      <trkpt lat="45.86649" lon="4.79628">
        <ele>540.25</ele>
        <time>2012-05-13T08:24:09Z</time>
      </trkpt>
      <trkpt lat="45.86658" lon="4.79631">
        <ele>526.75</ele>
        <time>2012-05-13T08:24:17Z</time>
      </trkpt>
      <trkpt lat="45.86661" lon="4.79616">
        <ele>524.25</ele>
        <time>2012-05-13T08:24:20Z</time>
      </trkpt>
      <trkpt lat="45.86661" lon="4.79598">
        <ele>523.25</ele>
        <time>2012-05-13T08:24:23Z</time>
      </trkpt>
      <trkpt lat="45.86661" lon="4.79584">
        <ele>522</ele>
        <time>2012-05-13T08:24:26Z</time>
      </trkpt>
      <trkpt lat="45.86661" lon="4.7957">
        <ele>520.75</ele>
        <time>2012-05-13T08:24:28Z</time>
      </trkpt>
      <trkpt lat="45.86661" lon="4.79549">
        <ele>518.75</ele>
        <time>2012-05-13T08:24:31Z</time>
      </trkpt>
      <trkpt lat="45.86663" lon="4.79532">
        <ele>518</ele>
        <time>2012-05-13T08:24:33Z</time>
      </trkpt>
      <trkpt lat="45.86665" lon="4.79518">
        <ele>517.75</ele>
        <time>2012-05-13T08:24:35Z</time>
      </trkpt>
      <trkpt lat="45.86665" lon="4.79503">
        <ele>517.25</ele>
        <time>2012-05-13T08:24:37Z</time>
      </trkpt>
      <trkpt lat="45.86665" lon="4.79487">
        <ele>516.5</ele>
        <time>2012-05-13T08:24:39Z</time>
      </trkpt>
      <trkpt lat="45.86663" lon="4.79462">
        <ele>515</ele>
        <time>2012-05-13T08:24:41Z</time>
      </trkpt>
      <trkpt lat="45.86662" lon="4.79448">
        <ele>514</ele>
        <time>2012-05-13T08:24:42Z</time>
      </trkpt>
      <trkpt lat="45.8666" lon="4.79431">
        <ele>511.5</ele>
        <time>2012-05-13T08:24:46Z</time>
      </trkpt>
      <trkpt lat="45.8666" lon="4.79415">
        <ele>507.75</ele>
        <time>2012-05-13T08:24:50Z</time>
      </trkpt>
      <trkpt lat="45.86659" lon="4.79395">
        <ele>505</ele>
        <time>2012-05-13T08:24:53Z</time>
      </trkpt>
      <trkpt lat="45.86659" lon="4.79378">
        <ele>504</ele>
        <time>2012-05-13T08:24:55Z</time>
      </trkpt>
      <trkpt lat="45.86658" lon="4.79358">
        <ele>502</ele>
        <time>2012-05-13T08:24:57Z</time>
      </trkpt>
      <trkpt lat="45.86656" lon="4.7934">
        <ele>500</ele>
        <time>2012-05-13T08:25:00Z</time>
      </trkpt>
      <trkpt lat="45.86637" lon="4.79298">
        <ele>497.25</ele>
        <time>2012-05-13T08:25:32Z</time>
      </trkpt>
      <trkpt lat="45.86618" lon="4.79257">
        <ele>494.75</ele>
        <time>2012-05-13T08:25:33Z</time>
      </trkpt>
      <trkpt lat="45.86599" lon="4.79217">
        <ele>492.25</ele>
        <time>2012-05-13T08:25:34Z</time>
      </trkpt>
      <trkpt lat="45.8658" lon="4.79177">
        <ele>490.25</ele>
        <time>2012-05-13T08:25:35Z</time>
      </trkpt>
      <trkpt lat="45.86572" lon="4.79161">
        <ele>491</ele>
        <time>2012-05-13T08:25:39Z</time>
      </trkpt>
      <trkpt lat="45.86566" lon="4.79149">
        <ele>491.25</ele>
        <time>2012-05-13T08:25:41Z</time>
      </trkpt>
      <trkpt lat="45.8656" lon="4.79134">
        <ele>492</ele>
        <time>2012-05-13T08:25:44Z</time>
      </trkpt>
      <trkpt lat="45.86553" lon="4.79121">
        <ele>492.75</ele>
        <time>2012-05-13T08:25:47Z</time>
      </trkpt>
      <trkpt lat="45.86546" lon="4.7911">
        <ele>493</ele>
        <time>2012-05-13T08:25:51Z</time>
      </trkpt>
      <trkpt lat="45.86537" lon="4.79094">
        <ele>493</ele>
        <time>2012-05-13T08:25:54Z</time>
      </trkpt>
      <trkpt lat="45.86528" lon="4.79082">
        <ele>493</ele>
        <time>2012-05-13T08:25:57Z</time>
      </trkpt>
      <trkpt lat="45.86519" lon="4.79071">
        <ele>493</ele>
        <time>2012-05-13T08:26:00Z</time>
      </trkpt>
      <trkpt lat="45.8651" lon="4.79058">
        <ele>493.75</ele>
        <time>2012-05-13T08:26:03Z</time>
      </trkpt>
      <trkpt lat="45.86503" lon="4.79049">
        <ele>494.5</ele>
        <time>2012-05-13T08:26:06Z</time>
      </trkpt>
      <trkpt lat="45.86495" lon="4.79039">
        <ele>495</ele>
        <time>2012-05-13T08:26:09Z</time>
      </trkpt>
      <trkpt lat="45.86488" lon="4.79029">
        <ele>495.5</ele>
        <time>2012-05-13T08:26:11Z</time>
      </trkpt>
      <trkpt lat="45.86481" lon="4.79019">
        <ele>496.25</ele>
        <time>2012-05-13T08:26:14Z</time>
      </trkpt>
      <trkpt lat="45.86473" lon="4.79007">
        <ele>496.75</ele>
        <time>2012-05-13T08:26:17Z</time>
      </trkpt>
      <trkpt lat="45.86467" lon="4.78997">
        <ele>497</ele>
        <time>2012-05-13T08:26:19Z</time>
      </trkpt>
      <trkpt lat="45.86459" lon="4.78985">
        <ele>497</ele>
        <time>2012-05-13T08:26:22Z</time>
      </trkpt>
      <trkpt lat="45.8645" lon="4.7897">
        <ele>497</ele>
        <time>2012-05-13T08:26:25Z</time>
      </trkpt>
      <trkpt lat="45.86443" lon="4.78959">
        <ele>497</ele>
        <time>2012-05-13T08:26:27Z</time>
      </trkpt>
      <trkpt lat="45.86436" lon="4.78947">
        <ele>497.5</ele>
        <time>2012-05-13T08:26:29Z</time>
      </trkpt>
      <trkpt lat="45.86429" lon="4.78935">
        <ele>498.25</ele>
        <time>2012-05-13T08:26:31Z</time>
      </trkpt>
      <trkpt lat="45.86423" lon="4.78921">
        <ele>498.75</ele>
        <time>2012-05-13T08:26:34Z</time>
      </trkpt>
      <trkpt lat="45.86418" lon="4.78908">
        <ele>499</ele>
        <time>2012-05-13T08:26:36Z</time>
      </trkpt>
      <trkpt lat="45.86412" lon="4.78892">
        <ele>499</ele>
        <time>2012-05-13T08:26:39Z</time>
      </trkpt>
      <trkpt lat="45.86406" lon="4.78876">
        <ele>498.5</ele>
        <time>2012-05-13T08:26:42Z</time>
      </trkpt>
      <trkpt lat="45.864" lon="4.78863">
        <ele>498.25</ele>
        <time>2012-05-13T08:26:45Z</time>
      </trkpt>
      <trkpt lat="45.86394" lon="4.78852">
        <ele>498.75</ele>
        <time>2012-05-13T08:26:47Z</time>
      </trkpt>
      <trkpt lat="45.86387" lon="4.78838">
        <ele>499</ele>
        <time>2012-05-13T08:26:49Z</time>
      </trkpt>
      <trkpt lat="45.86379" lon="4.78827">
        <ele>499.5</ele>
        <time>2012-05-13T08:26:52Z</time>
      </trkpt>
      <trkpt lat="45.86372" lon="4.78819">
        <ele>500.25</ele>
        <time>2012-05-13T08:26:54Z</time>
      </trkpt>
      <trkpt lat="45.86362" lon="4.7881">
        <ele>500.75</ele>
        <time>2012-05-13T08:26:57Z</time>
      </trkpt>
      <trkpt lat="45.86352" lon="4.78801">
        <ele>500.75</ele>
        <time>2012-05-13T08:27:00Z</time>
      </trkpt>
      <trkpt lat="45.86342" lon="4.78792">
        <ele>501.75</ele>
        <time>2012-05-13T08:27:03Z</time>
      </trkpt>
      <trkpt lat="45.86335" lon="4.78784">
        <ele>502.75</ele>
        <time>2012-05-13T08:27:07Z</time>
      </trkpt>
      <trkpt lat="45.86325" lon="4.78774">
        <ele>504.25</ele>
        <time>2012-05-13T08:27:10Z</time>
      </trkpt>
      <trkpt lat="45.86316" lon="4.78765">
        <ele>506.25</ele>
        <time>2012-05-13T08:27:14Z</time>
      </trkpt>
      <trkpt lat="45.86307" lon="4.78754">
        <ele>507.25</ele>
        <time>2012-05-13T08:27:17Z</time>
      </trkpt>
      <trkpt lat="45.86299" lon="4.78745">
        <ele>508</ele>
        <time>2012-05-13T08:27:22Z</time>
      </trkpt>
      <trkpt lat="45.86289" lon="4.78735">
        <ele>507.75</ele>
        <time>2012-05-13T08:27:25Z</time>
      </trkpt>
      <trkpt lat="45.86279" lon="4.7873">
        <ele>507.5</ele>
        <time>2012-05-13T08:27:29Z</time>
      </trkpt>
      <trkpt lat="45.86269" lon="4.78722">
        <ele>508.25</ele>
        <time>2012-05-13T08:27:32Z</time>
      </trkpt>
      <trkpt lat="45.8626" lon="4.78715">
        <ele>509</ele>
        <time>2012-05-13T08:27:35Z</time>
      </trkpt>
      <trkpt lat="45.8625" lon="4.7871">
        <ele>509.75</ele>
        <time>2012-05-13T08:27:38Z</time>
      </trkpt>
      <trkpt lat="45.86241" lon="4.78702">
        <ele>510</ele>
        <time>2012-05-13T08:27:41Z</time>
      </trkpt>
      <trkpt lat="45.86231" lon="4.78693">
        <ele>510.25</ele>
        <time>2012-05-13T08:27:44Z</time>
      </trkpt>
      <trkpt lat="45.86222" lon="4.78687">
        <ele>510.25</ele>
        <time>2012-05-13T08:27:47Z</time>
      </trkpt>
      <trkpt lat="45.86212" lon="4.78682">
        <ele>510</ele>
        <time>2012-05-13T08:27:49Z</time>
      </trkpt>
      <trkpt lat="45.86201" lon="4.78676">
        <ele>510.25</ele>
        <time>2012-05-13T08:27:52Z</time>
      </trkpt>
      <trkpt lat="45.86191" lon="4.78669">
        <ele>511</ele>
        <time>2012-05-13T08:27:56Z</time>
      </trkpt>
      <trkpt lat="45.86183" lon="4.78662">
        <ele>511.25</ele>
        <time>2012-05-13T08:27:58Z</time>
      </trkpt>
      <trkpt lat="45.8615" lon="4.78638">
        <ele>513</ele>
        <time>2012-05-13T08:28:33Z</time>
      </trkpt>
      <trkpt lat="45.86121" lon="4.78617">
        <ele>514.5</ele>
        <time>2012-05-13T08:28:34Z</time>
      </trkpt>
      <trkpt lat="45.86091" lon="4.78596">
        <ele>515.75</ele>
        <time>2012-05-13T08:28:35Z</time>
      </trkpt>
      <trkpt lat="45.86062" lon="4.78575">
        <ele>517</ele>
        <time>2012-05-13T08:28:36Z</time>
      </trkpt>
      <trkpt lat="45.86052" lon="4.7857">
        <ele>517</ele>
        <time>2012-05-13T08:28:39Z</time>
      </trkpt>
      <trkpt lat="45.86043" lon="4.78565">
        <ele>516.5</ele>
        <time>2012-05-13T08:28:42Z</time>
      </trkpt>
      <trkpt lat="45.86031" lon="4.78557">
        <ele>516.75</ele>
        <time>2012-05-13T08:28:45Z</time>
      </trkpt>
      <trkpt lat="45.86021" lon="4.78551">
        <ele>517.75</ele>
        <time>2012-05-13T08:28:48Z</time>
      </trkpt>
      <trkpt lat="45.86012" lon="4.78546">
        <ele>518</ele>
        <time>2012-05-13T08:28:50Z</time>
      </trkpt>
      <trkpt lat="45.86001" lon="4.78542">
        <ele>518</ele>
        <time>2012-05-13T08:28:53Z</time>
      </trkpt>
      <trkpt lat="45.85991" lon="4.78536">
        <ele>517.75</ele>
        <time>2012-05-13T08:28:56Z</time>
      </trkpt>
      <trkpt lat="45.85983" lon="4.78523">
        <ele>519.25</ele>
        <time>2012-05-13T08:29:00Z</time>
      </trkpt>
      <trkpt lat="45.85975" lon="4.78511">
        <ele>519.75</ele>
        <time>2012-05-13T08:29:03Z</time>
      </trkpt>
      <trkpt lat="45.85969" lon="4.78498">
        <ele>519.25</ele>
        <time>2012-05-13T08:29:05Z</time>
      </trkpt>
      <trkpt lat="45.85963" lon="4.78486">
        <ele>519.25</ele>
        <time>2012-05-13T08:29:07Z</time>
      </trkpt>
      <trkpt lat="45.85956" lon="4.78473">
        <ele>520.25</ele>
        <time>2012-05-13T08:29:10Z</time>
      </trkpt>
      <trkpt lat="45.85949" lon="4.78462">
        <ele>521.5</ele>
        <time>2012-05-13T08:29:12Z</time>
      </trkpt>
      <trkpt lat="45.8594" lon="4.78452">
        <ele>523</ele>
        <time>2012-05-13T08:29:15Z</time>
      </trkpt>
      <trkpt lat="45.85931" lon="4.78444">
        <ele>525</ele>
        <time>2012-05-13T08:29:19Z</time>
      </trkpt>
      <trkpt lat="45.85921" lon="4.78435">
        <ele>526</ele>
        <time>2012-05-13T08:29:22Z</time>
      </trkpt>
      <trkpt lat="45.85911" lon="4.78428">
        <ele>527.5</ele>
        <time>2012-05-13T08:29:26Z</time>
      </trkpt>
      <trkpt lat="45.85901" lon="4.78423">
        <ele>528.5</ele>
        <time>2012-05-13T08:29:29Z</time>
      </trkpt>
      <trkpt lat="45.85889" lon="4.78418">
        <ele>529</ele>
        <time>2012-05-13T08:29:33Z</time>
      </trkpt>
      <trkpt lat="45.85881" lon="4.78414">
        <ele>529</ele>
        <time>2012-05-13T08:29:35Z</time>
      </trkpt>
      <trkpt lat="45.85871" lon="4.7841">
        <ele>529</ele>
        <time>2012-05-13T08:29:37Z</time>
      </trkpt>
      <trkpt lat="45.85863" lon="4.78405">
        <ele>529</ele>
        <time>2012-05-13T08:29:40Z</time>
      </trkpt>
      <trkpt lat="45.85853" lon="4.78398">
        <ele>529.5</ele>
        <time>2012-05-13T08:29:44Z</time>
      </trkpt>
      <trkpt lat="45.85842" lon="4.78391">
        <ele>530.5</ele>
        <time>2012-05-13T08:29:47Z</time>
      </trkpt>
      <trkpt lat="45.85832" lon="4.78387">
        <ele>531</ele>
        <time>2012-05-13T08:29:50Z</time>
      </trkpt>
      <trkpt lat="45.85822" lon="4.78383">
        <ele>531.75</ele>
        <time>2012-05-13T08:29:53Z</time>
      </trkpt>
      <trkpt lat="45.85813" lon="4.78379">
        <ele>532.75</ele>
        <time>2012-05-13T08:29:56Z</time>
      </trkpt>
      <trkpt lat="45.85799" lon="4.78369">
        <ele>533.75</ele>
        <time>2012-05-13T08:30:00Z</time>
      </trkpt>
      <trkpt lat="45.8579" lon="4.78365">
        <ele>534</ele>
        <time>2012-05-13T08:30:04Z</time>
      </trkpt>
      <trkpt lat="45.85779" lon="4.78362">
        <ele>534</ele>
        <time>2012-05-13T08:30:06Z</time>
      </trkpt>
      <trkpt lat="45.85769" lon="4.78358">
        <ele>534.5</ele>
        <time>2012-05-13T08:30:09Z</time>
      </trkpt>
      <trkpt lat="45.8576" lon="4.78353">
        <ele>535</ele>
        <time>2012-05-13T08:30:12Z</time>
      </trkpt>
      <trkpt lat="45.85749" lon="4.78345">
        <ele>535.5</ele>
        <time>2012-05-13T08:30:17Z</time>
      </trkpt>
      <trkpt lat="45.85739" lon="4.78337">
        <ele>536.25</ele>
        <time>2012-05-13T08:30:20Z</time>
      </trkpt>
      <trkpt lat="45.8573" lon="4.78331">
        <ele>537.5</ele>
        <time>2012-05-13T08:30:23Z</time>
      </trkpt>
      <trkpt lat="45.85722" lon="4.78325">
        <ele>538</ele>
        <time>2012-05-13T08:30:26Z</time>
      </trkpt>
      <trkpt lat="45.85711" lon="4.7832">
        <ele>538.75</ele>
        <time>2012-05-13T08:30:30Z</time>
      </trkpt>
      <trkpt lat="45.85702" lon="4.78316">
        <ele>539</ele>
        <time>2012-05-13T08:30:35Z</time>
      </trkpt>
      <trkpt lat="45.85692" lon="4.78311">
        <ele>542.25</ele>
        <time>2012-05-13T08:30:50Z</time>
      </trkpt>
      <trkpt lat="45.85684" lon="4.78306">
        <ele>543</ele>
        <time>2012-05-13T08:30:59Z</time>
      </trkpt>
      <trkpt lat="45.85678" lon="4.78294">
        <ele>542</ele>
        <time>2012-05-13T08:31:11Z</time>
      </trkpt>
      <trkpt lat="45.85672" lon="4.78281">
        <ele>542</ele>
        <time>2012-05-13T08:31:21Z</time>
      </trkpt>
      <trkpt lat="45.85666" lon="4.78269">
        <ele>542</ele>
        <time>2012-05-13T08:31:26Z</time>
      </trkpt>
      <trkpt lat="45.8566" lon="4.78256">
        <ele>543.25</ele>
        <time>2012-05-13T08:31:31Z</time>
      </trkpt>
      <trkpt lat="45.85652" lon="4.78247">
        <ele>544.75</ele>
        <time>2012-05-13T08:31:37Z</time>
      </trkpt>
      <trkpt lat="45.85644" lon="4.78241">
        <ele>546.25</ele>
        <time>2012-05-13T08:31:41Z</time>
      </trkpt>
      <trkpt lat="45.85636" lon="4.78233">
        <ele>546.5</ele>
        <time>2012-05-13T08:31:46Z</time>
      </trkpt>
      <trkpt lat="45.85628" lon="4.78225">
        <ele>547.5</ele>
        <time>2012-05-13T08:31:51Z</time>
      </trkpt>
      <trkpt lat="45.85619" lon="4.78217">
        <ele>548.5</ele>
        <time>2012-05-13T08:31:57Z</time>
      </trkpt>
      <trkpt lat="45.85608" lon="4.78207">
        <ele>549.75</ele>
        <time>2012-05-13T08:32:03Z</time>
      </trkpt>
      <trkpt lat="45.85598" lon="4.78201">
        <ele>550.25</ele>
        <time>2012-05-13T08:32:06Z</time>
      </trkpt>
      <trkpt lat="45.85589" lon="4.78194">
        <ele>552</ele>
        <time>2012-05-13T08:32:11Z</time>
      </trkpt>
      <trkpt lat="45.85581" lon="4.78183">
        <ele>553.5</ele>
        <time>2012-05-13T08:32:17Z</time>
      </trkpt>
      <trkpt lat="45.85574" lon="4.78174">
        <ele>554</ele>
        <time>2012-05-13T08:32:21Z</time>
      </trkpt>
      <trkpt lat="45.85569" lon="4.78161">
        <ele>555.25</ele>
        <time>2012-05-13T08:32:27Z</time>
      </trkpt>
      <trkpt lat="45.85563" lon="4.7815">
        <ele>556.5</ele>
        <time>2012-05-13T08:32:31Z</time>
      </trkpt>
      <trkpt lat="45.85555" lon="4.78142">
        <ele>556.25</ele>
        <time>2012-05-13T08:32:36Z</time>
      </trkpt>
      <trkpt lat="45.85546" lon="4.78131">
        <ele>557</ele>
        <time>2012-05-13T08:32:40Z</time>
      </trkpt>
      <trkpt lat="45.85538" lon="4.78122">
        <ele>557</ele>
        <time>2012-05-13T08:32:43Z</time>
      </trkpt>
      <trkpt lat="45.8553" lon="4.78114">
        <ele>557</ele>
        <time>2012-05-13T08:32:46Z</time>
      </trkpt>
      <trkpt lat="45.85521" lon="4.78104">
        <ele>557.25</ele>
        <time>2012-05-13T08:32:51Z</time>
      </trkpt>
      <trkpt lat="45.8551" lon="4.78093">
        <ele>558</ele>
        <time>2012-05-13T08:32:54Z</time>
      </trkpt>
      <trkpt lat="45.855" lon="4.78085">
        <ele>558.75</ele>
        <time>2012-05-13T08:32:58Z</time>
      </trkpt>
      <trkpt lat="45.85489" lon="4.78077">
        <ele>559</ele>
        <time>2012-05-13T08:33:03Z</time>
      </trkpt>
      <trkpt lat="45.85478" lon="4.78067">
        <ele>559</ele>
        <time>2012-05-13T08:33:06Z</time>
      </trkpt>
      <trkpt lat="45.85469" lon="4.7806">
        <ele>559</ele>
        <time>2012-05-13T08:33:10Z</time>
      </trkpt>
      <trkpt lat="45.85458" lon="4.7805">
        <ele>559</ele>
        <time>2012-05-13T08:33:13Z</time>
      </trkpt>
      <trkpt lat="45.85449" lon="4.78041">
        <ele>559</ele>
        <time>2012-05-13T08:33:16Z</time>
      </trkpt>
      <trkpt lat="45.85441" lon="4.78031">
        <ele>559.25</ele>
        <time>2012-05-13T08:33:20Z</time>
      </trkpt>
      <trkpt lat="45.85431" lon="4.7802">
        <ele>560</ele>
        <time>2012-05-13T08:33:23Z</time>
      </trkpt>
      <trkpt lat="45.8542" lon="4.78008">
        <ele>560</ele>
        <time>2012-05-13T08:33:27Z</time>
      </trkpt>
      <trkpt lat="45.85412" lon="4.77998">
        <ele>560.5</ele>
        <time>2012-05-13T08:33:31Z</time>
      </trkpt>
      <trkpt lat="45.85404" lon="4.77989">
        <ele>561</ele>
        <time>2012-05-13T08:33:35Z</time>
      </trkpt>
      <trkpt lat="45.85393" lon="4.77975">
        <ele>561</ele>
        <time>2012-05-13T08:33:38Z</time>
      </trkpt>
      <trkpt lat="45.85385" lon="4.77968">
        <ele>561.75</ele>
        <time>2012-05-13T08:33:43Z</time>
      </trkpt>
      <trkpt lat="45.85377" lon="4.77961">
        <ele>561.75</ele>
        <time>2012-05-13T08:33:52Z</time>
      </trkpt>
      <trkpt lat="45.85368" lon="4.77954">
        <ele>564</ele>
        <time>2012-05-13T08:34:00Z</time>
      </trkpt>
      <trkpt lat="45.85352" lon="4.77948">
        <ele>565.5</ele>
        <time>2012-05-13T08:34:32Z</time>
      </trkpt>
      <trkpt lat="45.85336" lon="4.77941">
        <ele>567</ele>
        <time>2012-05-13T08:34:33Z</time>
      </trkpt>
      <trkpt lat="45.8532" lon="4.77933">
        <ele>568.75</ele>
        <time>2012-05-13T08:34:34Z</time>
      </trkpt>
      <trkpt lat="45.85305" lon="4.77922">
        <ele>570.25</ele>
        <time>2012-05-13T08:34:36Z</time>
      </trkpt>
      <trkpt lat="45.85302" lon="4.77903">
        <ele>571.25</ele>
        <time>2012-05-13T08:34:39Z</time>
      </trkpt>
      <trkpt lat="45.85301" lon="4.77886">
        <ele>571.75</ele>
        <time>2012-05-13T08:34:42Z</time>
      </trkpt>
      <trkpt lat="45.853" lon="4.77868">
        <ele>571.75</ele>
        <time>2012-05-13T08:34:45Z</time>
      </trkpt>
      <trkpt lat="45.85297" lon="4.77849">
        <ele>571.25</ele>
        <time>2012-05-13T08:34:47Z</time>
      </trkpt>
      <trkpt lat="45.85293" lon="4.77829">
        <ele>571</ele>
        <time>2012-05-13T08:34:50Z</time>
      </trkpt>
      <trkpt lat="45.85289" lon="4.77814">
        <ele>571</ele>
        <time>2012-05-13T08:34:53Z</time>
      </trkpt>
      <trkpt lat="45.85286" lon="4.77797">
        <ele>571</ele>
        <time>2012-05-13T08:34:56Z</time>
      </trkpt>
      <trkpt lat="45.85285" lon="4.7778">
        <ele>571</ele>
        <time>2012-05-13T08:34:59Z</time>
      </trkpt>
      <trkpt lat="45.85283" lon="4.77764">
        <ele>571</ele>
        <time>2012-05-13T08:35:03Z</time>
      </trkpt>
      <trkpt lat="45.85282" lon="4.77748">
        <ele>571</ele>
        <time>2012-05-13T08:35:05Z</time>
      </trkpt>
      <trkpt lat="45.85281" lon="4.77733">
        <ele>571.5</ele>
        <time>2012-05-13T08:35:07Z</time>
      </trkpt>
      <trkpt lat="45.85282" lon="4.77718">
        <ele>572</ele>
        <time>2012-05-13T08:35:10Z</time>
      </trkpt>
      <trkpt lat="45.85279" lon="4.77705">
        <ele>572</ele>
        <time>2012-05-13T08:35:12Z</time>
      </trkpt>
      <trkpt lat="45.85271" lon="4.77693">
        <ele>572.75</ele>
        <time>2012-05-13T08:35:15Z</time>
      </trkpt>
      <trkpt lat="45.85262" lon="4.77685">
        <ele>573</ele>
        <time>2012-05-13T08:35:18Z</time>
      </trkpt>
      <trkpt lat="45.85255" lon="4.77678">
        <ele>573.5</ele>
        <time>2012-05-13T08:35:21Z</time>
      </trkpt>
      <trkpt lat="45.85245" lon="4.77668">
        <ele>574</ele>
        <time>2012-05-13T08:35:24Z</time>
      </trkpt>
      <trkpt lat="45.85236" lon="4.77658">
        <ele>574.25</ele>
        <time>2012-05-13T08:35:26Z</time>
      </trkpt>
      <trkpt lat="45.85228" lon="4.77648">
        <ele>574.75</ele>
        <time>2012-05-13T08:35:28Z</time>
      </trkpt>
      <trkpt lat="45.85222" lon="4.77638">
        <ele>575</ele>
        <time>2012-05-13T08:35:31Z</time>
      </trkpt>
      <trkpt lat="45.85212" lon="4.77626">
        <ele>575</ele>
        <time>2012-05-13T08:35:35Z</time>
      </trkpt>
      <trkpt lat="45.85205" lon="4.77616">
        <ele>575</ele>
        <time>2012-05-13T08:35:38Z</time>
      </trkpt>
      <trkpt lat="45.85196" lon="4.77606">
        <ele>575.75</ele>
        <time>2012-05-13T08:35:43Z</time>
      </trkpt>
      <trkpt lat="45.85185" lon="4.77606">
        <ele>576</ele>
        <time>2012-05-13T08:35:47Z</time>
      </trkpt>
      <trkpt lat="45.85175" lon="4.77612">
        <ele>577</ele>
        <time>2012-05-13T08:35:51Z</time>
      </trkpt>
      <trkpt lat="45.85164" lon="4.77614">
        <ele>576.25</ele>
        <time>2012-05-13T08:35:56Z</time>
      </trkpt>
      <trkpt lat="45.85154" lon="4.77616">
        <ele>578</ele>
        <time>2012-05-13T08:36:02Z</time>
      </trkpt>
      <trkpt lat="45.85145" lon="4.77616">
        <ele>581</ele>
        <time>2012-05-13T08:36:11Z</time>
      </trkpt>
      <trkpt lat="45.85136" lon="4.77619">
        <ele>583.5</ele>
        <time>2012-05-13T08:36:16Z</time>
      </trkpt>
      <trkpt lat="45.85125" lon="4.77621">
        <ele>586.25</ele>
        <time>2012-05-13T08:36:23Z</time>
      </trkpt>
      <trkpt lat="45.85116" lon="4.77624">
        <ele>589</ele>
        <time>2012-05-13T08:36:30Z</time>
      </trkpt>
      <trkpt lat="45.85106" lon="4.77627">
        <ele>592.5</ele>
        <time>2012-05-13T08:36:41Z</time>
      </trkpt>
      <trkpt lat="45.85096" lon="4.77628">
        <ele>596</ele>
        <time>2012-05-13T08:36:55Z</time>
      </trkpt>
      <trkpt lat="45.85086" lon="4.77629">
        <ele>598</ele>
        <time>2012-05-13T08:37:05Z</time>
      </trkpt>
      <trkpt lat="45.85077" lon="4.7763">
        <ele>597</ele>
        <time>2012-05-13T08:37:18Z</time>
      </trkpt>
      <trkpt lat="45.85068" lon="4.77634">
        <ele>598.75</ele>
        <time>2012-05-13T08:37:29Z</time>
      </trkpt>
      <trkpt lat="45.85058" lon="4.77637">
        <ele>599</ele>
        <time>2012-05-13T08:37:40Z</time>
      </trkpt>
      <trkpt lat="45.85049" lon="4.77635">
        <ele>599.75</ele>
        <time>2012-05-13T08:37:48Z</time>
      </trkpt>
      <trkpt lat="45.85039" lon="4.77632">
        <ele>600.75</ele>
        <time>2012-05-13T08:37:52Z</time>
      </trkpt>
      <trkpt lat="45.85029" lon="4.77629">
        <ele>601.75</ele>
        <time>2012-05-13T08:37:56Z</time>
      </trkpt>
      <trkpt lat="45.8499" lon="4.77624">
        <ele>602.75</ele>
        <time>2012-05-13T08:38:32Z</time>
      </trkpt>
      <trkpt lat="45.84958" lon="4.77622">
        <ele>603.5</ele>
        <time>2012-05-13T08:38:33Z</time>
      </trkpt>
      <trkpt lat="45.84925" lon="4.7762">
        <ele>604.25</ele>
        <time>2012-05-13T08:38:34Z</time>
      </trkpt>
      <trkpt lat="45.84891" lon="4.77618">
        <ele>605</ele>
        <time>2012-05-13T08:38:35Z</time>
      </trkpt>
      <trkpt lat="45.84881" lon="4.77619">
        <ele>605</ele>
        <time>2012-05-13T08:38:37Z</time>
      </trkpt>
      <trkpt lat="45.84871" lon="4.77621">
        <ele>605</ele>
        <time>2012-05-13T08:38:39Z</time>
      </trkpt>
      <trkpt lat="45.84862" lon="4.77623">
        <ele>605</ele>
        <time>2012-05-13T08:38:41Z</time>
      </trkpt>
      <trkpt lat="45.84853" lon="4.77625">
        <ele>605</ele>
        <time>2012-05-13T08:38:43Z</time>
      </trkpt>
      <trkpt lat="45.84841" lon="4.77625">
        <ele>605.25</ele>
        <time>2012-05-13T08:38:46Z</time>
      </trkpt>
      <trkpt lat="45.84829" lon="4.77623">
        <ele>605.75</ele>
        <time>2012-05-13T08:38:48Z</time>
      </trkpt>
      <trkpt lat="45.84819" lon="4.77622">
        <ele>606</ele>
        <time>2012-05-13T08:38:50Z</time>
      </trkpt>
      <trkpt lat="45.84809" lon="4.77619">
        <ele>605.75</ele>
        <time>2012-05-13T08:38:52Z</time>
      </trkpt>
      <trkpt lat="45.84798" lon="4.77615">
        <ele>605.5</ele>
        <time>2012-05-13T08:38:54Z</time>
      </trkpt>
      <trkpt lat="45.84788" lon="4.7761">
        <ele>605.75</ele>
        <time>2012-05-13T08:38:56Z</time>
      </trkpt>
      <trkpt lat="45.84777" lon="4.77605">
        <ele>606</ele>
        <time>2012-05-13T08:38:58Z</time>
      </trkpt>
      <trkpt lat="45.84767" lon="4.77598">
        <ele>606</ele>
        <time>2012-05-13T08:39:01Z</time>
      </trkpt>
      <trkpt lat="45.84754" lon="4.77585">
        <ele>606</ele>
        <time>2012-05-13T08:39:04Z</time>
      </trkpt>
      <trkpt lat="45.84742" lon="4.77575">
        <ele>606</ele>
        <time>2012-05-13T08:39:07Z</time>
      </trkpt>
      <trkpt lat="45.84731" lon="4.7757">
        <ele>605.25</ele>
        <time>2012-05-13T08:39:09Z</time>
      </trkpt>
      <trkpt lat="45.84718" lon="4.77566">
        <ele>604</ele>
        <time>2012-05-13T08:39:11Z</time>
      </trkpt>
      <trkpt lat="45.84706" lon="4.77563">
        <ele>602.75</ele>
        <time>2012-05-13T08:39:13Z</time>
      </trkpt>
      <trkpt lat="45.84694" lon="4.77561">
        <ele>602</ele>
        <time>2012-05-13T08:39:15Z</time>
      </trkpt>
      <trkpt lat="45.8468" lon="4.77559">
        <ele>602</ele>
        <time>2012-05-13T08:39:17Z</time>
      </trkpt>
      <trkpt lat="45.84663" lon="4.77559">
        <ele>601.25</ele>
        <time>2012-05-13T08:39:20Z</time>
      </trkpt>
      <trkpt lat="45.84653" lon="4.7756">
        <ele>600.75</ele>
        <time>2012-05-13T08:39:21Z</time>
      </trkpt>
      <trkpt lat="45.84643" lon="4.77562">
        <ele>600</ele>
        <time>2012-05-13T08:39:22Z</time>
      </trkpt>
      <trkpt lat="45.84632" lon="4.77564">
        <ele>599.5</ele>
        <time>2012-05-13T08:39:23Z</time>
      </trkpt>
      <trkpt lat="45.84615" lon="4.7757">
        <ele>598.75</ele>
        <time>2012-05-13T08:39:25Z</time>
      </trkpt>
      <trkpt lat="45.84601" lon="4.77576">
        <ele>599</ele>
        <time>2012-05-13T08:39:27Z</time>
      </trkpt>
      <trkpt lat="45.84586" lon="4.77583">
        <ele>599.75</ele>
        <time>2012-05-13T08:39:29Z</time>
      </trkpt>
      <trkpt lat="45.84571" lon="4.77591">
        <ele>600</ele>
        <time>2012-05-13T08:39:32Z</time>
      </trkpt>
      <trkpt lat="45.84556" lon="4.77602">
        <ele>599.5</ele>
        <time>2012-05-13T08:39:34Z</time>
      </trkpt>
      <trkpt lat="45.84546" lon="4.77608">
        <ele>598.5</ele>
        <time>2012-05-13T08:39:36Z</time>
      </trkpt>
      <trkpt lat="45.84535" lon="4.77611">
        <ele>598</ele>
        <time>2012-05-13T08:39:39Z</time>
      </trkpt>
      <trkpt lat="45.84522" lon="4.77619">
        <ele>598</ele>
        <time>2012-05-13T08:39:41Z</time>
      </trkpt>
      <trkpt lat="45.84504" lon="4.7763">
        <ele>597.75</ele>
        <time>2012-05-13T08:39:44Z</time>
      </trkpt>
      <trkpt lat="45.84493" lon="4.77636">
        <ele>597.25</ele>
        <time>2012-05-13T08:39:45Z</time>
      </trkpt>
      <trkpt lat="45.84481" lon="4.77641">
        <ele>596.5</ele>
        <time>2012-05-13T08:39:46Z</time>
      </trkpt>
      <trkpt lat="45.8447" lon="4.77647">
        <ele>595.5</ele>
        <time>2012-05-13T08:39:47Z</time>
      </trkpt>
      <trkpt lat="45.84453" lon="4.77656">
        <ele>594</ele>
        <time>2012-05-13T08:39:49Z</time>
      </trkpt>
      <trkpt lat="45.8444" lon="4.77665">
        <ele>593</ele>
        <time>2012-05-13T08:39:51Z</time>
      </trkpt>
      <trkpt lat="45.84425" lon="4.77673">
        <ele>591.75</ele>
        <time>2012-05-13T08:39:53Z</time>
      </trkpt>
      <trkpt lat="45.84408" lon="4.7768">
        <ele>590.25</ele>
        <time>2012-05-13T08:39:55Z</time>
      </trkpt>
      <trkpt lat="45.84391" lon="4.77685">
        <ele>588</ele>
        <time>2012-05-13T08:39:57Z</time>
      </trkpt>
      <trkpt lat="45.84375" lon="4.7769">
        <ele>584</ele>
        <time>2012-05-13T08:40:00Z</time>
      </trkpt>
      <trkpt lat="45.84363" lon="4.77695">
        <ele>581.25</ele>
        <time>2012-05-13T08:40:03Z</time>
      </trkpt>
      <trkpt lat="45.84351" lon="4.77699">
        <ele>581</ele>
        <time>2012-05-13T08:40:05Z</time>
      </trkpt>
      <trkpt lat="45.84338" lon="4.77705">
        <ele>581</ele>
        <time>2012-05-13T08:40:07Z</time>
      </trkpt>
      <trkpt lat="45.84323" lon="4.77711">
        <ele>581.25</ele>
        <time>2012-05-13T08:40:09Z</time>
      </trkpt>
      <trkpt lat="45.84306" lon="4.77717">
        <ele>581.25</ele>
        <time>2012-05-13T08:40:11Z</time>
      </trkpt>
      <trkpt lat="45.84298" lon="4.7772">
        <ele>581.25</ele>
        <time>2012-05-13T08:40:12Z</time>
      </trkpt>
      <trkpt lat="45.84281" lon="4.77725">
        <ele>580.5</ele>
        <time>2012-05-13T08:40:14Z</time>
      </trkpt>
      <trkpt lat="45.84268" lon="4.77731">
        <ele>579.25</ele>
        <time>2012-05-13T08:40:17Z</time>
      </trkpt>
      <trkpt lat="45.84259" lon="4.77736">
        <ele>577.25</ele>
        <time>2012-05-13T08:40:19Z</time>
      </trkpt>
      <trkpt lat="45.8425" lon="4.77739">
        <ele>574.25</ele>
        <time>2012-05-13T08:40:22Z</time>
      </trkpt>
      <trkpt lat="45.8424" lon="4.7774">
        <ele>570.25</ele>
        <time>2012-05-13T08:40:26Z</time>
      </trkpt>
      <trkpt lat="45.8423" lon="4.77741">
        <ele>568.25</ele>
        <time>2012-05-13T08:40:29Z</time>
      </trkpt>
      <trkpt lat="45.84214" lon="4.77742">
        <ele>567.5</ele>
        <time>2012-05-13T08:40:32Z</time>
      </trkpt>
      <trkpt lat="45.84205" lon="4.77743">
        <ele>567</ele>
        <time>2012-05-13T08:40:33Z</time>
      </trkpt>
      <trkpt lat="45.84192" lon="4.77746">
        <ele>566.25</ele>
        <time>2012-05-13T08:40:35Z</time>
      </trkpt>
      <trkpt lat="45.84183" lon="4.77749">
        <ele>565.75</ele>
        <time>2012-05-13T08:40:36Z</time>
      </trkpt>
      <trkpt lat="45.84174" lon="4.77755">
        <ele>564.75</ele>
        <time>2012-05-13T08:40:37Z</time>
      </trkpt>
      <trkpt lat="45.84161" lon="4.77765">
        <ele>562.5</ele>
        <time>2012-05-13T08:40:39Z</time>
      </trkpt>
      <trkpt lat="45.84152" lon="4.77772">
        <ele>559.25</ele>
        <time>2012-05-13T08:40:42Z</time>
      </trkpt>
      <trkpt lat="45.84142" lon="4.77772">
        <ele>557.25</ele>
        <time>2012-05-13T08:40:44Z</time>
      </trkpt>
      <trkpt lat="45.84128" lon="4.77772">
        <ele>554.5</ele>
        <time>2012-05-13T08:40:46Z</time>
      </trkpt>
      <trkpt lat="45.84118" lon="4.77773">
        <ele>552.5</ele>
        <time>2012-05-13T08:40:48Z</time>
      </trkpt>
      <trkpt lat="45.84109" lon="4.77774">
        <ele>550.5</ele>
        <time>2012-05-13T08:40:51Z</time>
      </trkpt>
      <trkpt lat="45.84097" lon="4.77776">
        <ele>547.25</ele>
        <time>2012-05-13T08:40:54Z</time>
      </trkpt>
      <trkpt lat="45.84086" lon="4.77781">
        <ele>544.25</ele>
        <time>2012-05-13T08:40:58Z</time>
      </trkpt>
      <trkpt lat="45.84076" lon="4.77784">
        <ele>542.75</ele>
        <time>2012-05-13T08:41:00Z</time>
      </trkpt>
      <trkpt lat="45.84004" lon="4.77749">
        <ele>536.25</ele>
        <time>2012-05-13T08:41:33Z</time>
      </trkpt>
      <trkpt lat="45.83937" lon="4.77707">
        <ele>530.25</ele>
        <time>2012-05-13T08:41:34Z</time>
      </trkpt>
      <trkpt lat="45.83868" lon="4.77661">
        <ele>523.75</ele>
        <time>2012-05-13T08:41:35Z</time>
      </trkpt>
      <trkpt lat="45.83798" lon="4.7761">
        <ele>516.75</ele>
        <time>2012-05-13T08:41:36Z</time>
      </trkpt>
      <trkpt lat="45.83794" lon="4.77592">
        <ele>515</ele>
        <time>2012-05-13T08:41:37Z</time>
      </trkpt>
      <trkpt lat="45.83789" lon="4.77574">
        <ele>513</ele>
        <time>2012-05-13T08:41:38Z</time>
      </trkpt>
      <trkpt lat="45.83785" lon="4.77557">
        <ele>511</ele>
        <time>2012-05-13T08:41:39Z</time>
      </trkpt>
      <trkpt lat="45.83782" lon="4.7754">
        <ele>508.75</ele>
        <time>2012-05-13T08:41:40Z</time>
      </trkpt>
      <trkpt lat="45.8378" lon="4.77525">
        <ele>506.75</ele>
        <time>2012-05-13T08:41:41Z</time>
      </trkpt>
      <trkpt lat="45.83777" lon="4.77505">
        <ele>502.75</ele>
        <time>2012-05-13T08:41:43Z</time>
      </trkpt>
      <trkpt lat="45.83771" lon="4.77495">
        <ele>499.25</ele>
        <time>2012-05-13T08:41:46Z</time>
      </trkpt>
      <trkpt lat="45.83763" lon="4.77506">
        <ele>495</ele>
        <time>2012-05-13T08:41:49Z</time>
      </trkpt>
      <trkpt lat="45.8376" lon="4.7752">
        <ele>492.5</ele>
        <time>2012-05-13T08:41:51Z</time>
      </trkpt>
      <trkpt lat="45.83759" lon="4.77535">
        <ele>491.5</ele>
        <time>2012-05-13T08:41:53Z</time>
      </trkpt>
      <trkpt lat="45.83758" lon="4.7755">
        <ele>490.25</ele>
        <time>2012-05-13T08:41:55Z</time>
      </trkpt>
      <trkpt lat="45.83757" lon="4.77569">
        <ele>489.25</ele>
        <time>2012-05-13T08:41:57Z</time>
      </trkpt>
      <trkpt lat="45.83755" lon="4.7759">
        <ele>488.75</ele>
        <time>2012-05-13T08:42:00Z</time>
      </trkpt>
      <trkpt lat="45.83755" lon="4.77609">
        <ele>488.25</ele>
        <time>2012-05-13T08:42:03Z</time>
      </trkpt>
      <trkpt lat="45.83756" lon="4.77635">
        <ele>487.75</ele>
        <time>2012-05-13T08:42:05Z</time>
      </trkpt>
      <trkpt lat="45.83757" lon="4.7765">
        <ele>487.75</ele>
        <time>2012-05-13T08:42:07Z</time>
      </trkpt>
      <trkpt lat="45.83757" lon="4.77673">
        <ele>487.5</ele>
        <time>2012-05-13T08:42:09Z</time>
      </trkpt>
      <trkpt lat="45.83758" lon="4.77696">
        <ele>487.25</ele>
        <time>2012-05-13T08:42:11Z</time>
      </trkpt>
      <trkpt lat="45.83761" lon="4.77715">
        <ele>486.5</ele>
        <time>2012-05-13T08:42:13Z</time>
      </trkpt>
      <trkpt lat="45.83765" lon="4.77733">
        <ele>485.5</ele>
        <time>2012-05-13T08:42:15Z</time>
      </trkpt>
      <trkpt lat="45.83769" lon="4.77751">
        <ele>484.75</ele>
        <time>2012-05-13T08:42:17Z</time>
      </trkpt>
      <trkpt lat="45.83773" lon="4.77768">
        <ele>484.25</ele>
        <time>2012-05-13T08:42:19Z</time>
      </trkpt>
      <trkpt lat="45.83778" lon="4.77785">
        <ele>484.25</ele>
        <time>2012-05-13T08:42:22Z</time>
      </trkpt>
      <trkpt lat="45.83786" lon="4.77802">
        <ele>485.25</ele>
        <time>2012-05-13T08:42:24Z</time>
      </trkpt>
      <trkpt lat="45.83791" lon="4.77814">
        <ele>486.5</ele>
        <time>2012-05-13T08:42:26Z</time>
      </trkpt>
      <trkpt lat="45.83786" lon="4.77826">
        <ele>488</ele>
        <time>2012-05-13T08:42:29Z</time>
      </trkpt>
      <trkpt lat="45.83778" lon="4.77836">
        <ele>488.5</ele>
        <time>2012-05-13T08:42:31Z</time>
      </trkpt>
      <trkpt lat="45.83764" lon="4.77836">
        <ele>487</ele>
        <time>2012-05-13T08:42:34Z</time>
      </trkpt>
      <trkpt lat="45.83748" lon="4.77834">
        <ele>486</ele>
        <time>2012-05-13T08:42:36Z</time>
      </trkpt>
      <trkpt lat="45.83733" lon="4.7783">
        <ele>485.5</ele>
        <time>2012-05-13T08:42:38Z</time>
      </trkpt>
      <trkpt lat="45.8372" lon="4.77826">
        <ele>485</ele>
        <time>2012-05-13T08:42:41Z</time>
      </trkpt>
      <trkpt lat="45.83711" lon="4.77824">
        <ele>485</ele>
        <time>2012-05-13T08:42:43Z</time>
      </trkpt>
      <trkpt lat="45.83701" lon="4.77821">
        <ele>485</ele>
        <time>2012-05-13T08:42:45Z</time>
      </trkpt>
      <trkpt lat="45.83691" lon="4.77819">
        <ele>485.5</ele>
        <time>2012-05-13T08:42:47Z</time>
      </trkpt>
      <trkpt lat="45.8368" lon="4.77817">
        <ele>486</ele>
        <time>2012-05-13T08:42:50Z</time>
      </trkpt>
      <trkpt lat="45.83672" lon="4.77809">
        <ele>486</ele>
        <time>2012-05-13T08:42:55Z</time>
      </trkpt>
      <trkpt lat="45.83668" lon="4.77791">
        <ele>486.75</ele>
        <time>2012-05-13T08:43:00Z</time>
      </trkpt>
      <trkpt lat="45.83669" lon="4.77776">
        <ele>487.75</ele>
        <time>2012-05-13T08:43:05Z</time>
      </trkpt>
      <trkpt lat="45.83671" lon="4.77756">
        <ele>488</ele>
        <time>2012-05-13T08:43:07Z</time>
      </trkpt>
      <trkpt lat="45.83673" lon="4.77734">
        <ele>487.75</ele>
        <time>2012-05-13T08:43:09Z</time>
      </trkpt>
      <trkpt lat="45.83674" lon="4.77715">
        <ele>487</ele>
        <time>2012-05-13T08:43:11Z</time>
      </trkpt>
      <trkpt lat="45.83675" lon="4.77697">
        <ele>486.25</ele>
        <time>2012-05-13T08:43:13Z</time>
      </trkpt>
      <trkpt lat="45.83673" lon="4.77682">
        <ele>485.75</ele>
        <time>2012-05-13T08:43:15Z</time>
      </trkpt>
      <trkpt lat="45.83667" lon="4.7767">
        <ele>485</ele>
        <time>2012-05-13T08:43:18Z</time>
      </trkpt>
      <trkpt lat="45.8366" lon="4.77661">
        <ele>484.25</ele>
        <time>2012-05-13T08:43:20Z</time>
      </trkpt>
      <trkpt lat="45.83651" lon="4.77649">
        <ele>484.25</ele>
        <time>2012-05-13T08:43:23Z</time>
      </trkpt>
      <trkpt lat="45.83645" lon="4.77638">
        <ele>485.25</ele>
        <time>2012-05-13T08:43:25Z</time>
      </trkpt>
      <trkpt lat="45.83637" lon="4.77624">
        <ele>486.5</ele>
        <time>2012-05-13T08:43:27Z</time>
      </trkpt>
      <trkpt lat="45.83628" lon="4.77609">
        <ele>486.5</ele>
        <time>2012-05-13T08:43:30Z</time>
      </trkpt>
      <trkpt lat="45.83616" lon="4.77592">
        <ele>486.5</ele>
        <time>2012-05-13T08:43:32Z</time>
      </trkpt>
      <trkpt lat="45.83604" lon="4.77581">
        <ele>487</ele>
        <time>2012-05-13T08:43:34Z</time>
      </trkpt>
      <trkpt lat="45.83595" lon="4.77574">
        <ele>486.25</ele>
        <time>2012-05-13T08:43:36Z</time>
      </trkpt>
      <trkpt lat="45.83586" lon="4.77562">
        <ele>484.25</ele>
        <time>2012-05-13T08:43:39Z</time>
      </trkpt>
      <trkpt lat="45.83583" lon="4.77548">
        <ele>482.5</ele>
        <time>2012-05-13T08:43:42Z</time>
      </trkpt>
      <trkpt lat="45.83586" lon="4.77535">
        <ele>482</ele>
        <time>2012-05-13T08:43:47Z</time>
      </trkpt>
      <trkpt lat="45.83594" lon="4.77529">
        <ele>482.5</ele>
        <time>2012-05-13T08:43:50Z</time>
      </trkpt>
      <trkpt lat="45.83605" lon="4.77525">
        <ele>483.5</ele>
        <time>2012-05-13T08:43:53Z</time>
      </trkpt>
      <trkpt lat="45.83619" lon="4.77526">
        <ele>483</ele>
        <time>2012-05-13T08:43:57Z</time>
      </trkpt>
      <trkpt lat="45.83631" lon="4.77525">
        <ele>482</ele>
        <time>2012-05-13T08:44:00Z</time>
      </trkpt>
      <trkpt lat="45.83642" lon="4.77524">
        <ele>481</ele>
        <time>2012-05-13T08:44:05Z</time>
      </trkpt>
      <trkpt lat="45.83649" lon="4.77514">
        <ele>479.5</ele>
        <time>2012-05-13T08:44:09Z</time>
      </trkpt>
      <trkpt lat="45.83652" lon="4.77498">
        <ele>478.5</ele>
        <time>2012-05-13T08:44:13Z</time>
      </trkpt>
      <trkpt lat="45.83653" lon="4.77484">
        <ele>477.5</ele>
        <time>2012-05-13T08:44:16Z</time>
      </trkpt>
      <trkpt lat="45.83653" lon="4.77469">
        <ele>476.25</ele>
        <time>2012-05-13T08:44:19Z</time>
      </trkpt>
      <trkpt lat="45.83653" lon="4.77453">
        <ele>475.25</ele>
        <time>2012-05-13T08:44:21Z</time>
      </trkpt>
      <trkpt lat="45.83655" lon="4.77437">
        <ele>474.75</ele>
        <time>2012-05-13T08:44:23Z</time>
      </trkpt>
      <trkpt lat="45.83657" lon="4.77415">
        <ele>473.5</ele>
        <time>2012-05-13T08:44:25Z</time>
      </trkpt>
      <trkpt lat="45.83658" lon="4.774">
        <ele>472.25</ele>
        <time>2012-05-13T08:44:27Z</time>
      </trkpt>
      <trkpt lat="45.8365" lon="4.77387">
        <ele>471</ele>
        <time>2012-05-13T08:44:29Z</time>
      </trkpt>
      <trkpt lat="45.83636" lon="4.77373">
        <ele>469</ele>
        <time>2012-05-13T08:44:31Z</time>
      </trkpt>
      <trkpt lat="45.83626" lon="4.77365">
        <ele>467.75</ele>
        <time>2012-05-13T08:44:32Z</time>
      </trkpt>
      <trkpt lat="45.83614" lon="4.77357">
        <ele>466.25</ele>
        <time>2012-05-13T08:44:34Z</time>
      </trkpt>
      <trkpt lat="45.83602" lon="4.77348">
        <ele>464.75</ele>
        <time>2012-05-13T08:44:35Z</time>
      </trkpt>
      <trkpt lat="45.83591" lon="4.77342">
        <ele>462.75</ele>
        <time>2012-05-13T08:44:37Z</time>
      </trkpt>
      <trkpt lat="45.83581" lon="4.7734">
        <ele>459.5</ele>
        <time>2012-05-13T08:44:39Z</time>
      </trkpt>
      <trkpt lat="45.83572" lon="4.77339">
        <ele>456.75</ele>
        <time>2012-05-13T08:44:41Z</time>
      </trkpt>
      <trkpt lat="45.83562" lon="4.77339">
        <ele>455.25</ele>
        <time>2012-05-13T08:44:45Z</time>
      </trkpt>
      <trkpt lat="45.83552" lon="4.77341">
        <ele>453.75</ele>
        <time>2012-05-13T08:44:47Z</time>
      </trkpt>
      <trkpt lat="45.83541" lon="4.77342">
        <ele>452</ele>
        <time>2012-05-13T08:44:50Z</time>
      </trkpt>
      <trkpt lat="45.83531" lon="4.77341">
        <ele>450.75</ele>
        <time>2012-05-13T08:44:52Z</time>
      </trkpt>
      <trkpt lat="45.83519" lon="4.77337">
        <ele>450</ele>
        <time>2012-05-13T08:44:56Z</time>
      </trkpt>
      <trkpt lat="45.8351" lon="4.77325">
        <ele>450</ele>
        <time>2012-05-13T08:44:58Z</time>
      </trkpt>
      <trkpt lat="45.83497" lon="4.77309">
        <ele>450.25</ele>
        <time>2012-05-13T08:45:00Z</time>
      </trkpt>
      <trkpt lat="45.83451" lon="4.77305">
        <ele>447.5</ele>
        <time>2012-05-13T08:45:33Z</time>
      </trkpt>
      <trkpt lat="45.83404" lon="4.77309">
        <ele>445</ele>
        <time>2012-05-13T08:45:34Z</time>
      </trkpt>
      <trkpt lat="45.83357" lon="4.77316">
        <ele>442.75</ele>
        <time>2012-05-13T08:45:35Z</time>
      </trkpt>
      <trkpt lat="45.83311" lon="4.77327">
        <ele>440.25</ele>
        <time>2012-05-13T08:45:36Z</time>
      </trkpt>
      <trkpt lat="45.83307" lon="4.7734">
        <ele>440.75</ele>
        <time>2012-05-13T08:45:37Z</time>
      </trkpt>
      <trkpt lat="45.83302" lon="4.77355">
        <ele>440.75</ele>
        <time>2012-05-13T08:45:39Z</time>
      </trkpt>
      <trkpt lat="45.83295" lon="4.77365">
        <ele>440.75</ele>
        <time>2012-05-13T08:45:41Z</time>
      </trkpt>
      <trkpt lat="45.83287" lon="4.77374">
        <ele>441.25</ele>
        <time>2012-05-13T08:45:43Z</time>
      </trkpt>
      <trkpt lat="45.83279" lon="4.77385">
        <ele>443</ele>
        <time>2012-05-13T08:45:46Z</time>
      </trkpt>
      <trkpt lat="45.83272" lon="4.77399">
        <ele>444.75</ele>
        <time>2012-05-13T08:45:48Z</time>
      </trkpt>
      <trkpt lat="45.83267" lon="4.77412">
        <ele>445</ele>
        <time>2012-05-13T08:45:50Z</time>
      </trkpt>
      <trkpt lat="45.83262" lon="4.77425">
        <ele>445.25</ele>
        <time>2012-05-13T08:45:53Z</time>
      </trkpt>
      <trkpt lat="45.83258" lon="4.77437">
        <ele>446</ele>
        <time>2012-05-13T08:45:55Z</time>
      </trkpt>
      <trkpt lat="45.83254" lon="4.77451">
        <ele>446.25</ele>
        <time>2012-05-13T08:45:57Z</time>
      </trkpt>
      <trkpt lat="45.8325" lon="4.77463">
        <ele>446.5</ele>
        <time>2012-05-13T08:46:00Z</time>
      </trkpt>
      <trkpt lat="45.83246" lon="4.77475">
        <ele>446.75</ele>
        <time>2012-05-13T08:46:03Z</time>
      </trkpt>
      <trkpt lat="45.8324" lon="4.77493">
        <ele>446.5</ele>
        <time>2012-05-13T08:46:05Z</time>
      </trkpt>
      <trkpt lat="45.83234" lon="4.7751">
        <ele>446.75</ele>
        <time>2012-05-13T08:46:08Z</time>
      </trkpt>
      <trkpt lat="45.8323" lon="4.77523">
        <ele>446.5</ele>
        <time>2012-05-13T08:46:10Z</time>
      </trkpt>
      <trkpt lat="45.83223" lon="4.77538">
        <ele>445.5</ele>
        <time>2012-05-13T08:46:13Z</time>
      </trkpt>
      <trkpt lat="45.83214" lon="4.77549">
        <ele>444.25</ele>
        <time>2012-05-13T08:46:16Z</time>
      </trkpt>
      <trkpt lat="45.83204" lon="4.77557">
        <ele>443.25</ele>
        <time>2012-05-13T08:46:19Z</time>
      </trkpt>
      <trkpt lat="45.83192" lon="4.77563">
        <ele>442</ele>
        <time>2012-05-13T08:46:23Z</time>
      </trkpt>
      <trkpt lat="45.83181" lon="4.77569">
        <ele>441.75</ele>
        <time>2012-05-13T08:46:26Z</time>
      </trkpt>
      <trkpt lat="45.83171" lon="4.77576">
        <ele>442.25</ele>
        <time>2012-05-13T08:46:29Z</time>
      </trkpt>
      <trkpt lat="45.83163" lon="4.77582">
        <ele>442</ele>
        <time>2012-05-13T08:46:32Z</time>
      </trkpt>
      <trkpt lat="45.83153" lon="4.77597">
        <ele>443</ele>
        <time>2012-05-13T08:46:37Z</time>
      </trkpt>
      <trkpt lat="45.83148" lon="4.77609">
        <ele>443.75</ele>
        <time>2012-05-13T08:46:39Z</time>
      </trkpt>
      <trkpt lat="45.83145" lon="4.77623">
        <ele>444</ele>
        <time>2012-05-13T08:46:42Z</time>
      </trkpt>
      <trkpt lat="45.83143" lon="4.77638">
        <ele>444.5</ele>
        <time>2012-05-13T08:46:46Z</time>
      </trkpt>
      <trkpt lat="45.83141" lon="4.77651">
        <ele>445.25</ele>
        <time>2012-05-13T08:46:49Z</time>
      </trkpt>
      <trkpt lat="45.83136" lon="4.77667">
        <ele>446</ele>
        <time>2012-05-13T08:46:52Z</time>
      </trkpt>
      <trkpt lat="45.8313" lon="4.7768">
        <ele>446.75</ele>
        <time>2012-05-13T08:46:54Z</time>
      </trkpt>
      <trkpt lat="45.83119" lon="4.77688">
        <ele>447</ele>
        <time>2012-05-13T08:46:58Z</time>
      </trkpt>
      <trkpt lat="45.8311" lon="4.77696">
        <ele>446.25</ele>
        <time>2012-05-13T08:47:01Z</time>
      </trkpt>
      <trkpt lat="45.83102" lon="4.77702">
        <ele>446</ele>
        <time>2012-05-13T08:47:04Z</time>
      </trkpt>
      <trkpt lat="45.83093" lon="4.77705">
        <ele>446.25</ele>
        <time>2012-05-13T08:47:08Z</time>
      </trkpt>
      <trkpt lat="45.83082" lon="4.77708">
        <ele>446</ele>
        <time>2012-05-13T08:47:11Z</time>
      </trkpt>
      <trkpt lat="45.83071" lon="4.7771">
        <ele>446</ele>
        <time>2012-05-13T08:47:13Z</time>
      </trkpt>
      <trkpt lat="45.83056" lon="4.77711">
        <ele>445.5</ele>
        <time>2012-05-13T08:47:15Z</time>
      </trkpt>
      <trkpt lat="45.83046" lon="4.77711">
        <ele>445</ele>
        <time>2012-05-13T08:47:17Z</time>
      </trkpt>
      <trkpt lat="45.83036" lon="4.77712">
        <ele>444.5</ele>
        <time>2012-05-13T08:47:18Z</time>
      </trkpt>
      <trkpt lat="45.83026" lon="4.77714">
        <ele>444.25</ele>
        <time>2012-05-13T08:47:19Z</time>
      </trkpt>
      <trkpt lat="45.83017" lon="4.77716">
        <ele>444</ele>
        <time>2012-05-13T08:47:20Z</time>
      </trkpt>
      <trkpt lat="45.83002" lon="4.7772">
        <ele>443.5</ele>
        <time>2012-05-13T08:47:22Z</time>
      </trkpt>
      <trkpt lat="45.82988" lon="4.77724">
        <ele>443</ele>
        <time>2012-05-13T08:47:24Z</time>
      </trkpt>
      <trkpt lat="45.82973" lon="4.77727">
        <ele>442.5</ele>
        <time>2012-05-13T08:47:26Z</time>
      </trkpt>
      <trkpt lat="45.82958" lon="4.77726">
        <ele>442.5</ele>
        <time>2012-05-13T08:47:28Z</time>
      </trkpt>
      <trkpt lat="45.82942" lon="4.77722">
        <ele>442.5</ele>
        <time>2012-05-13T08:47:30Z</time>
      </trkpt>
      <trkpt lat="45.82924" lon="4.77716">
        <ele>441.25</ele>
        <time>2012-05-13T08:47:32Z</time>
      </trkpt>
      <trkpt lat="45.82915" lon="4.77711">
        <ele>440.5</ele>
        <time>2012-05-13T08:47:34Z</time>
      </trkpt>
      <trkpt lat="45.82903" lon="4.77706">
        <ele>439.25</ele>
        <time>2012-05-13T08:47:36Z</time>
      </trkpt>
      <trkpt lat="45.82892" lon="4.77701">
        <ele>438</ele>
        <time>2012-05-13T08:47:38Z</time>
      </trkpt>
      <trkpt lat="45.82881" lon="4.77694">
        <ele>436.25</ele>
        <time>2012-05-13T08:47:40Z</time>
      </trkpt>
      <trkpt lat="45.82872" lon="4.77681">
        <ele>434</ele>
        <time>2012-05-13T08:47:43Z</time>
      </trkpt>
      <trkpt lat="45.82867" lon="4.77668">
        <ele>433.25</ele>
        <time>2012-05-13T08:47:46Z</time>
      </trkpt>
      <trkpt lat="45.82858" lon="4.77665">
        <ele>432.25</ele>
        <time>2012-05-13T08:47:48Z</time>
      </trkpt>
      <trkpt lat="45.82846" lon="4.7767">
        <ele>431</ele>
        <time>2012-05-13T08:47:50Z</time>
      </trkpt>
      <trkpt lat="45.82839" lon="4.77679">
        <ele>429.75</ele>
        <time>2012-05-13T08:47:53Z</time>
      </trkpt>
      <trkpt lat="45.82834" lon="4.77694">
        <ele>428.75</ele>
        <time>2012-05-13T08:47:56Z</time>
      </trkpt>
      <trkpt lat="45.82837" lon="4.77707">
        <ele>428.25</ele>
        <time>2012-05-13T08:47:58Z</time>
      </trkpt>
      <trkpt lat="45.82839" lon="4.77749">
        <ele>426.25</ele>
        <time>2012-05-13T08:48:32Z</time>
      </trkpt>
      <trkpt lat="45.82837" lon="4.7778">
        <ele>424.25</ele>
        <time>2012-05-13T08:48:33Z</time>
      </trkpt>
      <trkpt lat="45.82833" lon="4.77811">
        <ele>422.25</ele>
        <time>2012-05-13T08:48:34Z</time>
      </trkpt>
      <trkpt lat="45.82828" lon="4.77842">
        <ele>420.25</ele>
        <time>2012-05-13T08:48:35Z</time>
      </trkpt>
      <trkpt lat="45.82818" lon="4.77846">
        <ele>420</ele>
        <time>2012-05-13T08:48:38Z</time>
      </trkpt>
      <trkpt lat="45.82809" lon="4.77849">
        <ele>420</ele>
        <time>2012-05-13T08:48:43Z</time>
      </trkpt>
      <trkpt lat="45.82798" lon="4.77856">
        <ele>420</ele>
        <time>2012-05-13T08:48:47Z</time>
      </trkpt>
      <trkpt lat="45.82789" lon="4.77862">
        <ele>420</ele>
        <time>2012-05-13T08:48:51Z</time>
      </trkpt>
      <trkpt lat="45.82778" lon="4.77866">
        <ele>421</ele>
        <time>2012-05-13T08:48:58Z</time>
      </trkpt>
      <trkpt lat="45.82769" lon="4.77867">
        <ele>422.25</ele>
        <time>2012-05-13T08:49:03Z</time>
      </trkpt>
      <trkpt lat="45.8276" lon="4.77868">
        <ele>423</ele>
        <time>2012-05-13T08:49:08Z</time>
      </trkpt>
      <trkpt lat="45.82749" lon="4.77872">
        <ele>423.75</ele>
        <time>2012-05-13T08:49:14Z</time>
      </trkpt>
      <trkpt lat="45.8274" lon="4.77876">
        <ele>422.5</ele>
        <time>2012-05-13T08:49:18Z</time>
      </trkpt>
      <trkpt lat="45.82728" lon="4.77879">
        <ele>422</ele>
        <time>2012-05-13T08:49:23Z</time>
      </trkpt>
      <trkpt lat="45.82717" lon="4.77879">
        <ele>422.5</ele>
        <time>2012-05-13T08:49:26Z</time>
      </trkpt>
      <trkpt lat="45.82708" lon="4.77879">
        <ele>423</ele>
        <time>2012-05-13T08:49:29Z</time>
      </trkpt>
      <trkpt lat="45.82699" lon="4.77881">
        <ele>422.75</ele>
        <time>2012-05-13T08:49:32Z</time>
      </trkpt>
      <trkpt lat="45.82686" lon="4.77882">
        <ele>422</ele>
        <time>2012-05-13T08:49:35Z</time>
      </trkpt>
      <trkpt lat="45.82675" lon="4.77887">
        <ele>422</ele>
        <time>2012-05-13T08:49:39Z</time>
      </trkpt>
      <trkpt lat="45.82671" lon="4.77899">
        <ele>421.5</ele>
        <time>2012-05-13T08:49:42Z</time>
      </trkpt>
      <trkpt lat="45.8267" lon="4.77912">
        <ele>421.75</ele>
        <time>2012-05-13T08:49:46Z</time>
      </trkpt>
      <trkpt lat="45.82668" lon="4.77928">
        <ele>422.5</ele>
        <time>2012-05-13T08:49:52Z</time>
      </trkpt>
      <trkpt lat="45.82667" lon="4.77941">
        <ele>423.25</ele>
        <time>2012-05-13T08:49:54Z</time>
      </trkpt>
      <trkpt lat="45.82662" lon="4.77955">
        <ele>423.25</ele>
        <time>2012-05-13T08:49:58Z</time>
      </trkpt>
      <trkpt lat="45.82657" lon="4.77969">
        <ele>424.25</ele>
        <time>2012-05-13T08:50:03Z</time>
      </trkpt>
      <trkpt lat="45.82657" lon="4.77986">
        <ele>425.5</ele>
        <time>2012-05-13T08:50:06Z</time>
      </trkpt>
      <trkpt lat="45.82658" lon="4.78003">
        <ele>426.25</ele>
        <time>2012-05-13T08:50:09Z</time>
      </trkpt>
      <trkpt lat="45.82657" lon="4.78017">
        <ele>425.5</ele>
        <time>2012-05-13T08:50:11Z</time>
      </trkpt>
      <trkpt lat="45.82645" lon="4.78031">
        <ele>423.75</ele>
        <time>2012-05-13T08:50:15Z</time>
      </trkpt>
      <trkpt lat="45.82631" lon="4.78036">
        <ele>422.25</ele>
        <time>2012-05-13T08:50:17Z</time>
      </trkpt>
      <trkpt lat="45.82617" lon="4.78038">
        <ele>421.25</ele>
        <time>2012-05-13T08:50:19Z</time>
      </trkpt>
      <trkpt lat="45.82608" lon="4.7804">
        <ele>421.75</ele>
        <time>2012-05-13T08:50:21Z</time>
      </trkpt>
      <trkpt lat="45.82601" lon="4.78049">
        <ele>423.5</ele>
        <time>2012-05-13T08:50:24Z</time>
      </trkpt>
      <trkpt lat="45.82598" lon="4.78062">
        <ele>424</ele>
        <time>2012-05-13T08:50:26Z</time>
      </trkpt>
      <trkpt lat="45.82595" lon="4.78076">
        <ele>423.5</ele>
        <time>2012-05-13T08:50:28Z</time>
      </trkpt>
      <trkpt lat="45.82597" lon="4.78089">
        <ele>423</ele>
        <time>2012-05-13T08:50:31Z</time>
      </trkpt>
      <trkpt lat="45.82603" lon="4.78101">
        <ele>423</ele>
        <time>2012-05-13T08:50:33Z</time>
      </trkpt>
      <trkpt lat="45.8261" lon="4.78116">
        <ele>423</ele>
        <time>2012-05-13T08:50:35Z</time>
      </trkpt>
      <trkpt lat="45.82617" lon="4.7813">
        <ele>423.5</ele>
        <time>2012-05-13T08:50:37Z</time>
      </trkpt>
      <trkpt lat="45.82624" lon="4.78141">
        <ele>423.5</ele>
        <time>2012-05-13T08:50:39Z</time>
      </trkpt>
      <trkpt lat="45.82634" lon="4.78155">
        <ele>422.25</ele>
        <time>2012-05-13T08:50:41Z</time>
      </trkpt>
      <trkpt lat="45.82642" lon="4.78167">
        <ele>421.25</ele>
        <time>2012-05-13T08:50:43Z</time>
      </trkpt>
      <trkpt lat="45.82651" lon="4.78178">
        <ele>420.5</ele>
        <time>2012-05-13T08:50:46Z</time>
      </trkpt>
      <trkpt lat="45.8266" lon="4.78191">
        <ele>420</ele>
        <time>2012-05-13T08:50:49Z</time>
      </trkpt>
      <trkpt lat="45.8267" lon="4.78205">
        <ele>420</ele>
        <time>2012-05-13T08:50:52Z</time>
      </trkpt>
      <trkpt lat="45.82679" lon="4.78217">
        <ele>420</ele>
        <time>2012-05-13T08:50:54Z</time>
      </trkpt>
      <trkpt lat="45.82689" lon="4.78227">
        <ele>420</ele>
        <time>2012-05-13T08:50:57Z</time>
      </trkpt>
      <trkpt lat="45.82692" lon="4.78243">
        <ele>421.25</ele>
        <time>2012-05-13T08:51:03Z</time>
      </trkpt>
      <trkpt lat="45.82686" lon="4.78255">
        <ele>422.5</ele>
        <time>2012-05-13T08:51:06Z</time>
      </trkpt>
      <trkpt lat="45.82674" lon="4.78258">
        <ele>424.25</ele>
        <time>2012-05-13T08:51:10Z</time>
      </trkpt>
      <trkpt lat="45.82665" lon="4.78261">
        <ele>423.75</ele>
        <time>2012-05-13T08:51:13Z</time>
      </trkpt>
      <trkpt lat="45.82656" lon="4.78265">
        <ele>423</ele>
        <time>2012-05-13T08:51:16Z</time>
      </trkpt>
      <trkpt lat="45.82646" lon="4.78269">
        <ele>422.25</ele>
        <time>2012-05-13T08:51:18Z</time>
      </trkpt>
      <trkpt lat="45.82636" lon="4.78276">
        <ele>421.5</ele>
        <time>2012-05-13T08:51:21Z</time>
      </trkpt>
      <trkpt lat="45.82628" lon="4.78287">
        <ele>421</ele>
        <time>2012-05-13T08:51:25Z</time>
      </trkpt>
      <trkpt lat="45.82623" lon="4.783">
        <ele>420.75</ele>
        <time>2012-05-13T08:51:30Z</time>
      </trkpt>
      <trkpt lat="45.8262" lon="4.78312">
        <ele>420.5</ele>
        <time>2012-05-13T08:51:34Z</time>
      </trkpt>
      <trkpt lat="45.82616" lon="4.78324">
        <ele>422</ele>
        <time>2012-05-13T08:51:40Z</time>
      </trkpt>
      <trkpt lat="45.82614" lon="4.78338">
        <ele>423.5</ele>
        <time>2012-05-13T08:51:46Z</time>
      </trkpt>
      <trkpt lat="45.82614" lon="4.78352">
        <ele>424.75</ele>
        <time>2012-05-13T08:52:00Z</time>
      </trkpt>
      <trkpt lat="45.82619" lon="4.78363">
        <ele>425</ele>
        <time>2012-05-13T08:52:35Z</time>
      </trkpt>
      <trkpt lat="45.82611" lon="4.78356">
        <ele>426.25</ele>
        <time>2012-05-13T08:53:13Z</time>
      </trkpt>
      <trkpt lat="45.826" lon="4.78353">
        <ele>426</ele>
        <time>2012-05-13T08:53:17Z</time>
      </trkpt>
      <trkpt lat="45.82589" lon="4.78352">
        <ele>425.75</ele>
        <time>2012-05-13T08:53:20Z</time>
      </trkpt>
      <trkpt lat="45.82577" lon="4.78348">
        <ele>425.75</ele>
        <time>2012-05-13T08:53:23Z</time>
      </trkpt>
      <trkpt lat="45.82562" lon="4.78343">
        <ele>426</ele>
        <time>2012-05-13T08:53:27Z</time>
      </trkpt>
      <trkpt lat="45.82549" lon="4.78338">
        <ele>426</ele>
        <time>2012-05-13T08:53:29Z</time>
      </trkpt>
      <trkpt lat="45.82537" lon="4.78334">
        <ele>426</ele>
        <time>2012-05-13T08:53:31Z</time>
      </trkpt>
      <trkpt lat="45.82525" lon="4.78329">
        <ele>426</ele>
        <time>2012-05-13T08:53:34Z</time>
      </trkpt>
      <trkpt lat="45.82513" lon="4.78327">
        <ele>426</ele>
        <time>2012-05-13T08:53:38Z</time>
      </trkpt>
      <trkpt lat="45.825" lon="4.78326">
        <ele>425.5</ele>
        <time>2012-05-13T08:53:42Z</time>
      </trkpt>
      <trkpt lat="45.82488" lon="4.78323">
        <ele>425</ele>
        <time>2012-05-13T08:53:45Z</time>
      </trkpt>
      <trkpt lat="45.82478" lon="4.78319">
        <ele>425</ele>
        <time>2012-05-13T08:53:47Z</time>
      </trkpt>
      <trkpt lat="45.82468" lon="4.78315">
        <ele>424.5</ele>
        <time>2012-05-13T08:53:49Z</time>
      </trkpt>
      <trkpt lat="45.82454" lon="4.78313">
        <ele>422.75</ele>
        <time>2012-05-13T08:53:53Z</time>
      </trkpt>
      <trkpt lat="45.8244" lon="4.78313">
        <ele>420.75</ele>
        <time>2012-05-13T08:53:55Z</time>
      </trkpt>
      <trkpt lat="45.82429" lon="4.78312">
        <ele>417.75</ele>
        <time>2012-05-13T08:54:00Z</time>
      </trkpt>
      <trkpt lat="45.82421" lon="4.78307">
        <ele>414.5</ele>
        <time>2012-05-13T08:54:05Z</time>
      </trkpt>
      <trkpt lat="45.82411" lon="4.78301">
        <ele>413</ele>
        <time>2012-05-13T08:54:10Z</time>
      </trkpt>
      <trkpt lat="45.82401" lon="4.78298">
        <ele>413</ele>
        <time>2012-05-13T08:54:14Z</time>
      </trkpt>
      <trkpt lat="45.82386" lon="4.78296">
        <ele>413</ele>
        <time>2012-05-13T08:54:17Z</time>
      </trkpt>
      <trkpt lat="45.82374" lon="4.78297">
        <ele>412.75</ele>
        <time>2012-05-13T08:54:19Z</time>
      </trkpt>
      <trkpt lat="45.82363" lon="4.78297">
        <ele>412</ele>
        <time>2012-05-13T08:54:22Z</time>
      </trkpt>
      <trkpt lat="45.82354" lon="4.78298">
        <ele>411.75</ele>
        <time>2012-05-13T08:54:25Z</time>
      </trkpt>
      <trkpt lat="45.82342" lon="4.78298">
        <ele>410.5</ele>
        <time>2012-05-13T08:54:29Z</time>
      </trkpt>
      <trkpt lat="45.8233" lon="4.78297">
        <ele>409.75</ele>
        <time>2012-05-13T08:54:33Z</time>
      </trkpt>
      <trkpt lat="45.8232" lon="4.78295">
        <ele>409.5</ele>
        <time>2012-05-13T08:54:36Z</time>
      </trkpt>
      <trkpt lat="45.82311" lon="4.78289">
        <ele>408.5</ele>
        <time>2012-05-13T08:54:40Z</time>
      </trkpt>
      <trkpt lat="45.82302" lon="4.78283">
        <ele>407.5</ele>
        <time>2012-05-13T08:54:44Z</time>
      </trkpt>
      <trkpt lat="45.82293" lon="4.7828">
        <ele>405</ele>
        <time>2012-05-13T08:54:48Z</time>
      </trkpt>
      <trkpt lat="45.82284" lon="4.78277">
        <ele>402.5</ele>
        <time>2012-05-13T08:54:53Z</time>
      </trkpt>
      <trkpt lat="45.8227" lon="4.78278">
        <ele>401</ele>
        <time>2012-05-13T08:54:57Z</time>
      </trkpt>
      <trkpt lat="45.82259" lon="4.78281">
        <ele>400</ele>
        <time>2012-05-13T08:54:59Z</time>
      </trkpt>
      <trkpt lat="45.82247" lon="4.78283">
        <ele>400</ele>
        <time>2012-05-13T08:55:03Z</time>
      </trkpt>
      <trkpt lat="45.82237" lon="4.78284">
        <ele>400</ele>
        <time>2012-05-13T08:55:05Z</time>
      </trkpt>
      <trkpt lat="45.82227" lon="4.78283">
        <ele>400</ele>
        <time>2012-05-13T08:55:07Z</time>
      </trkpt>
      <trkpt lat="45.82216" lon="4.7828">
        <ele>399.75</ele>
        <time>2012-05-13T08:55:11Z</time>
      </trkpt>
      <trkpt lat="45.82207" lon="4.78278">
        <ele>398.25</ele>
        <time>2012-05-13T08:55:14Z</time>
      </trkpt>
      <trkpt lat="45.82192" lon="4.78276">
        <ele>397.25</ele>
        <time>2012-05-13T08:55:19Z</time>
      </trkpt>
      <trkpt lat="45.82179" lon="4.78277">
        <ele>396.75</ele>
        <time>2012-05-13T08:55:21Z</time>
      </trkpt>
      <trkpt lat="45.82168" lon="4.78278">
        <ele>396.25</ele>
        <time>2012-05-13T08:55:23Z</time>
      </trkpt>
      <trkpt lat="45.82155" lon="4.78279">
        <ele>395.25</ele>
        <time>2012-05-13T08:55:26Z</time>
      </trkpt>
      <trkpt lat="45.82143" lon="4.78278">
        <ele>394</ele>
        <time>2012-05-13T08:55:30Z</time>
      </trkpt>
      <trkpt lat="45.82133" lon="4.78279">
        <ele>393</ele>
        <time>2012-05-13T08:55:34Z</time>
      </trkpt>
      <trkpt lat="45.82121" lon="4.78279">
        <ele>391.5</ele>
        <time>2012-05-13T08:55:37Z</time>
      </trkpt>
      <trkpt lat="45.82111" lon="4.7828">
        <ele>390.5</ele>
        <time>2012-05-13T08:55:40Z</time>
      </trkpt>
      <trkpt lat="45.821" lon="4.78278">
        <ele>390</ele>
        <time>2012-05-13T08:55:43Z</time>
      </trkpt>
      <trkpt lat="45.82091" lon="4.78275">
        <ele>390</ele>
        <time>2012-05-13T08:55:45Z</time>
      </trkpt>
      <trkpt lat="45.82081" lon="4.78272">
        <ele>390</ele>
        <time>2012-05-13T08:55:47Z</time>
      </trkpt>
      <trkpt lat="45.82071" lon="4.78269">
        <ele>389.75</ele>
        <time>2012-05-13T08:55:49Z</time>
      </trkpt>
      <trkpt lat="45.82059" lon="4.78264">
        <ele>388.75</ele>
        <time>2012-05-13T08:55:53Z</time>
      </trkpt>
      <trkpt lat="45.8205" lon="4.78261">
        <ele>387.75</ele>
        <time>2012-05-13T08:55:56Z</time>
      </trkpt>
      <trkpt lat="45.82038" lon="4.7826">
        <ele>385.75</ele>
        <time>2012-05-13T08:55:59Z</time>
      </trkpt>
      <trkpt lat="45.82028" lon="4.78263">
        <ele>381</ele>
        <time>2012-05-13T08:56:06Z</time>
      </trkpt>
      <trkpt lat="45.82019" lon="4.78262">
        <ele>376.25</ele>
        <time>2012-05-13T08:56:14Z</time>
      </trkpt>
      <trkpt lat="45.82013" lon="4.78252">
        <ele>370.75</ele>
        <time>2012-05-13T08:56:29Z</time>
      </trkpt>
      <trkpt lat="45.82008" lon="4.78238">
        <ele>367.25</ele>
        <time>2012-05-13T08:56:38Z</time>
      </trkpt>
      <trkpt lat="45.81998" lon="4.78237">
        <ele>366</ele>
        <time>2012-05-13T08:56:47Z</time>
      </trkpt>
      <trkpt lat="45.81988" lon="4.78237">
        <ele>365</ele>
        <time>2012-05-13T08:56:54Z</time>
      </trkpt>
      <trkpt lat="45.81977" lon="4.78237">
        <ele>365</ele>
        <time>2012-05-13T08:57:00Z</time>
      </trkpt>
      <trkpt lat="45.81968" lon="4.78239">
        <ele>363</ele>
        <time>2012-05-13T08:57:09Z</time>
      </trkpt>
      <trkpt lat="45.81958" lon="4.78244">
        <ele>363.75</ele>
        <time>2012-05-13T08:57:15Z</time>
      </trkpt>
      <trkpt lat="45.81948" lon="4.78247">
        <ele>363.5</ele>
        <time>2012-05-13T08:57:19Z</time>
      </trkpt>
      <trkpt lat="45.81939" lon="4.78248">
        <ele>362.75</ele>
        <time>2012-05-13T08:57:25Z</time>
      </trkpt>
      <trkpt lat="45.8193" lon="4.78248">
        <ele>363.75</ele>
        <time>2012-05-13T08:57:35Z</time>
      </trkpt>
      <trkpt lat="45.81919" lon="4.7825">
        <ele>364</ele>
        <time>2012-05-13T08:57:40Z</time>
      </trkpt>
      <trkpt lat="45.81908" lon="4.78253">
        <ele>364</ele>
        <time>2012-05-13T08:57:44Z</time>
      </trkpt>
      <trkpt lat="45.81908" lon="4.78266">
        <ele>366</ele>
        <time>2012-05-13T08:57:52Z</time>
      </trkpt>
      <trkpt lat="45.81914" lon="4.78277">
        <ele>366</ele>
        <time>2012-05-13T08:57:59Z</time>
      </trkpt>
      <trkpt lat="45.8192" lon="4.78286">
        <ele>367.25</ele>
        <time>2012-05-13T08:58:04Z</time>
      </trkpt>
      <trkpt lat="45.81928" lon="4.78296">
        <ele>369.25</ele>
        <time>2012-05-13T08:58:07Z</time>
      </trkpt>
      <trkpt lat="45.81937" lon="4.78302">
        <ele>370.5</ele>
        <time>2012-05-13T08:58:10Z</time>
      </trkpt>
      <trkpt lat="45.81947" lon="4.78311">
        <ele>371.75</ele>
        <time>2012-05-13T08:58:13Z</time>
      </trkpt>
      <trkpt lat="45.81956" lon="4.78319">
        <ele>372</ele>
        <time>2012-05-13T08:58:17Z</time>
      </trkpt>
      <trkpt lat="45.81964" lon="4.78327">
        <ele>372.5</ele>
        <time>2012-05-13T08:58:20Z</time>
      </trkpt>
      <trkpt lat="45.81973" lon="4.78335">
        <ele>369</ele>
        <time>2012-05-13T08:58:23Z</time>
      </trkpt>
      <trkpt lat="45.81981" lon="4.78341">
        <ele>365.25</ele>
        <time>2012-05-13T08:58:25Z</time>
      </trkpt>
      <trkpt lat="45.81993" lon="4.78341">
        <ele>366.5</ele>
        <time>2012-05-13T08:58:28Z</time>
      </trkpt>
      <trkpt lat="45.82004" lon="4.78341">
        <ele>367.5</ele>
        <time>2012-05-13T08:58:31Z</time>
      </trkpt>
      <trkpt lat="45.82015" lon="4.78343">
        <ele>368.75</ele>
        <time>2012-05-13T08:58:34Z</time>
      </trkpt>
      <trkpt lat="45.82024" lon="4.78347">
        <ele>369.25</ele>
        <time>2012-05-13T08:58:38Z</time>
      </trkpt>
      <trkpt lat="45.82034" lon="4.78352">
        <ele>371.5</ele>
        <time>2012-05-13T08:58:42Z</time>
      </trkpt>
      <trkpt lat="45.82044" lon="4.78357">
        <ele>372</ele>
        <time>2012-05-13T08:58:46Z</time>
      </trkpt>
      <trkpt lat="45.82053" lon="4.7836">
        <ele>372.25</ele>
        <time>2012-05-13T08:58:50Z</time>
      </trkpt>
      <trkpt lat="45.82063" lon="4.78361">
        <ele>372</ele>
        <time>2012-05-13T08:58:53Z</time>
      </trkpt>
      <trkpt lat="45.82075" lon="4.78363">
        <ele>372.75</ele>
        <time>2012-05-13T08:58:58Z</time>
      </trkpt>
      <trkpt lat="45.82105" lon="4.78368">
        <ele>374.5</ele>
        <time>2012-05-13T08:59:32Z</time>
      </trkpt>
      <trkpt lat="45.82128" lon="4.78371">
        <ele>375.5</ele>
        <time>2012-05-13T08:59:33Z</time>
      </trkpt>
      <trkpt lat="45.82152" lon="4.78373">
        <ele>376.5</ele>
        <time>2012-05-13T08:59:34Z</time>
      </trkpt>
      <trkpt lat="45.82176" lon="4.78374">
        <ele>377.25</ele>
        <time>2012-05-13T08:59:35Z</time>
      </trkpt>
      <trkpt lat="45.82185" lon="4.78373">
        <ele>377</ele>
        <time>2012-05-13T08:59:39Z</time>
      </trkpt>
      <trkpt lat="45.82196" lon="4.78373">
        <ele>377.75</ele>
        <time>2012-05-13T08:59:42Z</time>
      </trkpt>
      <trkpt lat="45.82205" lon="4.78378">
        <ele>378.25</ele>
        <time>2012-05-13T08:59:47Z</time>
      </trkpt>
      <trkpt lat="45.82216" lon="4.78385">
        <ele>379.5</ele>
        <time>2012-05-13T08:59:53Z</time>
      </trkpt>
      <trkpt lat="45.82229" lon="4.78392">
        <ele>381.5</ele>
        <time>2012-05-13T08:59:57Z</time>
      </trkpt>
      <trkpt lat="45.82241" lon="4.78397">
        <ele>382</ele>
        <time>2012-05-13T09:00:00Z</time>
      </trkpt>
      <trkpt lat="45.82253" lon="4.78401">
        <ele>382.5</ele>
        <time>2012-05-13T09:00:07Z</time>
      </trkpt>
      <trkpt lat="45.82264" lon="4.78407">
        <ele>384</ele>
        <time>2012-05-13T09:00:11Z</time>
      </trkpt>
      <trkpt lat="45.82274" lon="4.78413">
        <ele>387.25</ele>
        <time>2012-05-13T09:00:16Z</time>
      </trkpt>
      <trkpt lat="45.82284" lon="4.78418">
        <ele>391</ele>
        <time>2012-05-13T09:00:21Z</time>
      </trkpt>
      <trkpt lat="45.82293" lon="4.78425">
        <ele>393</ele>
        <time>2012-05-13T09:00:27Z</time>
      </trkpt>
      <trkpt lat="45.82301" lon="4.78434">
        <ele>394.75</ele>
        <time>2012-05-13T09:00:30Z</time>
      </trkpt>
      <trkpt lat="45.82309" lon="4.78443">
        <ele>395.25</ele>
        <time>2012-05-13T09:00:34Z</time>
      </trkpt>
      <trkpt lat="45.82319" lon="4.78449">
        <ele>394.5</ele>
        <time>2012-05-13T09:00:40Z</time>
      </trkpt>
      <trkpt lat="45.82328" lon="4.78454">
        <ele>393.75</ele>
        <time>2012-05-13T09:00:44Z</time>
      </trkpt>
      <trkpt lat="45.82337" lon="4.78455">
        <ele>393.5</ele>
        <time>2012-05-13T09:00:52Z</time>
      </trkpt>
      <trkpt lat="45.82332" lon="4.7847">
        <ele>395.75</ele>
        <time>2012-05-13T09:01:05Z</time>
      </trkpt>
      <trkpt lat="45.82329" lon="4.78484">
        <ele>394.5</ele>
        <time>2012-05-13T09:01:10Z</time>
      </trkpt>
      <trkpt lat="45.8233" lon="4.78498">
        <ele>392.5</ele>
        <time>2012-05-13T09:01:17Z</time>
      </trkpt>
      <trkpt lat="45.82337" lon="4.78506">
        <ele>397</ele>
        <time>2012-05-13T09:01:29Z</time>
      </trkpt>
      <trkpt lat="45.82345" lon="4.78514">
        <ele>401.5</ele>
        <time>2012-05-13T09:01:38Z</time>
      </trkpt>
      <trkpt lat="45.8235" lon="4.78526">
        <ele>404</ele>
        <time>2012-05-13T09:01:45Z</time>
      </trkpt>
      <trkpt lat="45.82356" lon="4.78538">
        <ele>404.5</ele>
        <time>2012-05-13T09:01:52Z</time>
      </trkpt>
      <trkpt lat="45.82363" lon="4.7855">
        <ele>405</ele>
        <time>2012-05-13T09:01:58Z</time>
      </trkpt>
      <trkpt lat="45.82371" lon="4.78559">
        <ele>404.5</ele>
        <time>2012-05-13T09:02:04Z</time>
      </trkpt>
      <trkpt lat="45.82378" lon="4.78568">
        <ele>404.5</ele>
        <time>2012-05-13T09:02:10Z</time>
      </trkpt>
      <trkpt lat="45.82388" lon="4.78576">
        <ele>404.25</ele>
        <time>2012-05-13T09:02:17Z</time>
      </trkpt>
      <trkpt lat="45.82398" lon="4.78581">
        <ele>403.25</ele>
        <time>2012-05-13T09:02:23Z</time>
      </trkpt>
      <trkpt lat="45.82408" lon="4.78586">
        <ele>403</ele>
        <time>2012-05-13T09:02:30Z</time>
      </trkpt>
      <trkpt lat="45.82417" lon="4.78591">
        <ele>403</ele>
        <time>2012-05-13T09:02:36Z</time>
      </trkpt>
      <trkpt lat="45.82426" lon="4.78595">
        <ele>403.5</ele>
        <time>2012-05-13T09:02:41Z</time>
      </trkpt>
      <trkpt lat="45.82435" lon="4.786">
        <ele>402.5</ele>
        <time>2012-05-13T09:02:47Z</time>
      </trkpt>
      <trkpt lat="45.82444" lon="4.78603">
        <ele>404</ele>
        <time>2012-05-13T09:02:54Z</time>
      </trkpt>
      <trkpt lat="45.82454" lon="4.78607">
        <ele>407.25</ele>
        <time>2012-05-13T09:03:03Z</time>
      </trkpt>
      <trkpt lat="45.82463" lon="4.78608">
        <ele>408</ele>
        <time>2012-05-13T09:03:07Z</time>
      </trkpt>
      <trkpt lat="45.82473" lon="4.78609">
        <ele>408.5</ele>
        <time>2012-05-13T09:03:14Z</time>
      </trkpt>
      <trkpt lat="45.82483" lon="4.7861">
        <ele>410</ele>
        <time>2012-05-13T09:03:17Z</time>
      </trkpt>
      <trkpt lat="45.82493" lon="4.78614">
        <ele>410.25</ele>
        <time>2012-05-13T09:03:25Z</time>
      </trkpt>
      <trkpt lat="45.82504" lon="4.78616">
        <ele>411</ele>
        <time>2012-05-13T09:03:30Z</time>
      </trkpt>
      <trkpt lat="45.82515" lon="4.78617">
        <ele>411.25</ele>
        <time>2012-05-13T09:03:35Z</time>
      </trkpt>
      <trkpt lat="45.82526" lon="4.78622">
        <ele>413</ele>
        <time>2012-05-13T09:03:41Z</time>
      </trkpt>
      <trkpt lat="45.82536" lon="4.78628">
        <ele>414</ele>
        <time>2012-05-13T09:03:46Z</time>
      </trkpt>
      <trkpt lat="45.82547" lon="4.78632">
        <ele>414</ele>
        <time>2012-05-13T09:03:50Z</time>
      </trkpt>
      <trkpt lat="45.82558" lon="4.78633">
        <ele>414.25</ele>
        <time>2012-05-13T09:03:54Z</time>
      </trkpt>
      <trkpt lat="45.8257" lon="4.78634">
        <ele>415</ele>
        <time>2012-05-13T09:03:57Z</time>
      </trkpt>
      <trkpt lat="45.8258" lon="4.78637">
        <ele>415.5</ele>
        <time>2012-05-13T09:04:01Z</time>
      </trkpt>
      <trkpt lat="45.82589" lon="4.78642">
        <ele>417.25</ele>
        <time>2012-05-13T09:04:05Z</time>
      </trkpt>
      <trkpt lat="45.82598" lon="4.78649">
        <ele>420.5</ele>
        <time>2012-05-13T09:04:10Z</time>
      </trkpt>
      <trkpt lat="45.82607" lon="4.78656">
        <ele>421.5</ele>
        <time>2012-05-13T09:04:14Z</time>
      </trkpt>
      <trkpt lat="45.82617" lon="4.78662">
        <ele>423.5</ele>
        <time>2012-05-13T09:04:19Z</time>
      </trkpt>
      <trkpt lat="45.82627" lon="4.7867">
        <ele>425.25</ele>
        <time>2012-05-13T09:04:23Z</time>
      </trkpt>
      <trkpt lat="45.82636" lon="4.78678">
        <ele>426.75</ele>
        <time>2012-05-13T09:04:27Z</time>
      </trkpt>
      <trkpt lat="45.82645" lon="4.78685">
        <ele>427</ele>
        <time>2012-05-13T09:04:30Z</time>
      </trkpt>
      <trkpt lat="45.82652" lon="4.78697">
        <ele>427</ele>
        <time>2012-05-13T09:04:34Z</time>
      </trkpt>
      <trkpt lat="45.82657" lon="4.78711">
        <ele>427</ele>
        <time>2012-05-13T09:04:37Z</time>
      </trkpt>
      <trkpt lat="45.82656" lon="4.78725">
        <ele>426.5</ele>
        <time>2012-05-13T09:04:43Z</time>
      </trkpt>
      <trkpt lat="45.82651" lon="4.78736">
        <ele>426</ele>
        <time>2012-05-13T09:04:47Z</time>
      </trkpt>
      <trkpt lat="45.82642" lon="4.78752">
        <ele>426.25</ele>
        <time>2012-05-13T09:04:51Z</time>
      </trkpt>
      <trkpt lat="45.82635" lon="4.78766">
        <ele>428</ele>
        <time>2012-05-13T09:04:54Z</time>
      </trkpt>
      <trkpt lat="45.82633" lon="4.78779">
        <ele>430</ele>
        <time>2012-05-13T09:04:58Z</time>
      </trkpt>
      <trkpt lat="45.82627" lon="4.78795">
        <ele>431.75</ele>
        <time>2012-05-13T09:05:01Z</time>
      </trkpt>
      <trkpt lat="45.82617" lon="4.78806">
        <ele>432</ele>
        <time>2012-05-13T09:05:05Z</time>
      </trkpt>
      <trkpt lat="45.82607" lon="4.78815">
        <ele>432.25</ele>
        <time>2012-05-13T09:05:09Z</time>
      </trkpt>
      <trkpt lat="45.82595" lon="4.78821">
        <ele>433</ele>
        <time>2012-05-13T09:05:12Z</time>
      </trkpt>
      <trkpt lat="45.82583" lon="4.78823">
        <ele>433.25</ele>
        <time>2012-05-13T09:05:16Z</time>
      </trkpt>
      <trkpt lat="45.82573" lon="4.78824">
        <ele>434.25</ele>
        <time>2012-05-13T09:05:18Z</time>
      </trkpt>
      <trkpt lat="45.82562" lon="4.78824">
        <ele>435.25</ele>
        <time>2012-05-13T09:05:20Z</time>
      </trkpt>
      <trkpt lat="45.82549" lon="4.78829">
        <ele>436.75</ele>
        <time>2012-05-13T09:05:23Z</time>
      </trkpt>
      <trkpt lat="45.8254" lon="4.78835">
        <ele>436.75</ele>
        <time>2012-05-13T09:05:25Z</time>
      </trkpt>
      <trkpt lat="45.8253" lon="4.78839">
        <ele>436</ele>
        <time>2012-05-13T09:05:27Z</time>
      </trkpt>
      <trkpt lat="45.82519" lon="4.78841">
        <ele>435.75</ele>
        <time>2012-05-13T09:05:30Z</time>
      </trkpt>
      <trkpt lat="45.8251" lon="4.78845">
        <ele>435.75</ele>
        <time>2012-05-13T09:05:32Z</time>
      </trkpt>
      <trkpt lat="45.82498" lon="4.78851">
        <ele>434.75</ele>
        <time>2012-05-13T09:05:34Z</time>
      </trkpt>
      <trkpt lat="45.82486" lon="4.78856">
        <ele>433.75</ele>
        <time>2012-05-13T09:05:36Z</time>
      </trkpt>
      <trkpt lat="45.82477" lon="4.7886">
        <ele>433.25</ele>
        <time>2012-05-13T09:05:38Z</time>
      </trkpt>
      <trkpt lat="45.82467" lon="4.78863">
        <ele>432.75</ele>
        <time>2012-05-13T09:05:41Z</time>
      </trkpt>
      <trkpt lat="45.82457" lon="4.78866">
        <ele>432.25</ele>
        <time>2012-05-13T09:05:44Z</time>
      </trkpt>
      <trkpt lat="45.82445" lon="4.7887">
        <ele>432</ele>
        <time>2012-05-13T09:05:46Z</time>
      </trkpt>
      <trkpt lat="45.82435" lon="4.78872">
        <ele>432.25</ele>
        <time>2012-05-13T09:05:48Z</time>
      </trkpt>
      <trkpt lat="45.82424" lon="4.78875">
        <ele>432.25</ele>
        <time>2012-05-13T09:05:50Z</time>
      </trkpt>
      <trkpt lat="45.8241" lon="4.78877">
        <ele>432</ele>
        <time>2012-05-13T09:05:52Z</time>
      </trkpt>
      <trkpt lat="45.824" lon="4.78878">
        <ele>432</ele>
        <time>2012-05-13T09:05:54Z</time>
      </trkpt>
      <trkpt lat="45.8239" lon="4.78882">
        <ele>431.5</ele>
        <time>2012-05-13T09:05:56Z</time>
      </trkpt>
      <trkpt lat="45.82377" lon="4.78887">
        <ele>431</ele>
        <time>2012-05-13T09:05:59Z</time>
      </trkpt>
      <trkpt lat="45.8234" lon="4.78925">
        <ele>430.5</ele>
        <time>2012-05-13T09:06:32Z</time>
      </trkpt>
      <trkpt lat="45.82311" lon="4.78962">
        <ele>429.75</ele>
        <time>2012-05-13T09:06:34Z</time>
      </trkpt>
      <trkpt lat="45.82283" lon="4.78999">
        <ele>429.25</ele>
        <time>2012-05-13T09:06:35Z</time>
      </trkpt>
      <trkpt lat="45.82255" lon="4.79037">
        <ele>428.75</ele>
        <time>2012-05-13T09:06:36Z</time>
      </trkpt>
      <trkpt lat="45.82247" lon="4.79045">
        <ele>429</ele>
        <time>2012-05-13T09:06:38Z</time>
      </trkpt>
      <trkpt lat="45.82237" lon="4.79053">
        <ele>428.5</ele>
        <time>2012-05-13T09:06:41Z</time>
      </trkpt>
      <trkpt lat="45.82228" lon="4.7906">
        <ele>428</ele>
        <time>2012-05-13T09:06:45Z</time>
      </trkpt>
      <trkpt lat="45.82217" lon="4.79069">
        <ele>428.25</ele>
        <time>2012-05-13T09:06:48Z</time>
      </trkpt>
      <trkpt lat="45.82207" lon="4.79076">
        <ele>428.75</ele>
        <time>2012-05-13T09:06:50Z</time>
      </trkpt>
      <trkpt lat="45.82198" lon="4.79083">
        <ele>429</ele>
        <time>2012-05-13T09:06:53Z</time>
      </trkpt>
      <trkpt lat="45.82188" lon="4.79089">
        <ele>429</ele>
        <time>2012-05-13T09:06:56Z</time>
      </trkpt>
      <trkpt lat="45.82181" lon="4.79097">
        <ele>428.5</ele>
        <time>2012-05-13T09:06:59Z</time>
      </trkpt>
      <trkpt lat="45.82173" lon="4.79104">
        <ele>435.75</ele>
        <time>2012-05-13T09:07:20Z</time>
      </trkpt>
      <trkpt lat="45.82181" lon="4.79112">
        <ele>436</ele>
        <time>2012-05-13T09:17:33Z</time>
      </trkpt>
      <trkpt lat="45.8219" lon="4.79106">
        <ele>436</ele>
        <time>2012-05-13T09:17:38Z</time>
      </trkpt>
      <trkpt lat="45.822" lon="4.79099">
        <ele>436</ele>
        <time>2012-05-13T09:17:42Z</time>
      </trkpt>
      <trkpt lat="45.8221" lon="4.79091">
        <ele>436</ele>
        <time>2012-05-13T09:17:45Z</time>
      </trkpt>
      <trkpt lat="45.82219" lon="4.79084">
        <ele>436</ele>
        <time>2012-05-13T09:17:49Z</time>
      </trkpt>
      <trkpt lat="45.82228" lon="4.79078">
        <ele>436</ele>
        <time>2012-05-13T09:17:51Z</time>
      </trkpt>
      <trkpt lat="45.82237" lon="4.7907">
        <ele>436</ele>
        <time>2012-05-13T09:17:53Z</time>
      </trkpt>
      <trkpt lat="45.82247" lon="4.79062">
        <ele>436</ele>
        <time>2012-05-13T09:17:56Z</time>
      </trkpt>
      <trkpt lat="45.82237" lon="4.79066">
        <ele>436.5</ele>
        <time>2012-05-13T09:18:12Z</time>
      </trkpt>
      <trkpt lat="45.82229" lon="4.79073">
        <ele>438</ele>
        <time>2012-05-13T09:18:17Z</time>
      </trkpt>
      <trkpt lat="45.82221" lon="4.7908">
        <ele>439.5</ele>
        <time>2012-05-13T09:18:20Z</time>
      </trkpt>
      <trkpt lat="45.82211" lon="4.79087">
        <ele>441</ele>
        <time>2012-05-13T09:18:24Z</time>
      </trkpt>
      <trkpt lat="45.82202" lon="4.79095">
        <ele>442.25</ele>
        <time>2012-05-13T09:18:28Z</time>
      </trkpt>
      <trkpt lat="45.82193" lon="4.79106">
        <ele>441.25</ele>
        <time>2012-05-13T09:18:33Z</time>
      </trkpt>
      <trkpt lat="45.82185" lon="4.79116">
        <ele>440.5</ele>
        <time>2012-05-13T09:18:36Z</time>
      </trkpt>
      <trkpt lat="45.82177" lon="4.79126">
        <ele>440.25</ele>
        <time>2012-05-13T09:18:40Z</time>
      </trkpt>
      <trkpt lat="45.82169" lon="4.79134">
        <ele>440.5</ele>
        <time>2012-05-13T09:18:44Z</time>
      </trkpt>
      <trkpt lat="45.8216" lon="4.79142">
        <ele>441</ele>
        <time>2012-05-13T09:18:48Z</time>
      </trkpt>
      <trkpt lat="45.82151" lon="4.79148">
        <ele>441</ele>
        <time>2012-05-13T09:18:53Z</time>
      </trkpt>
      <trkpt lat="45.82143" lon="4.79156">
        <ele>441.5</ele>
        <time>2012-05-13T09:18:56Z</time>
      </trkpt>
      <trkpt lat="45.82136" lon="4.79165">
        <ele>442</ele>
        <time>2012-05-13T09:18:59Z</time>
      </trkpt>
      <trkpt lat="45.8213" lon="4.79175">
        <ele>442</ele>
        <time>2012-05-13T09:19:04Z</time>
      </trkpt>
      <trkpt lat="45.82122" lon="4.79183">
        <ele>443.25</ele>
        <time>2012-05-13T09:19:08Z</time>
      </trkpt>
      <trkpt lat="45.82116" lon="4.79195">
        <ele>445.75</ele>
        <time>2012-05-13T09:19:13Z</time>
      </trkpt>
      <trkpt lat="45.82111" lon="4.79208">
        <ele>446.25</ele>
        <time>2012-05-13T09:19:19Z</time>
      </trkpt>
      <trkpt lat="45.82109" lon="4.79222">
        <ele>447.5</ele>
        <time>2012-05-13T09:19:24Z</time>
      </trkpt>
      <trkpt lat="45.82109" lon="4.79235">
        <ele>448.5</ele>
        <time>2012-05-13T09:19:28Z</time>
      </trkpt>
      <trkpt lat="45.82111" lon="4.79248">
        <ele>450.5</ele>
        <time>2012-05-13T09:19:34Z</time>
      </trkpt>
      <trkpt lat="45.82116" lon="4.79261">
        <ele>449.5</ele>
        <time>2012-05-13T09:19:38Z</time>
      </trkpt>
      <trkpt lat="45.8212" lon="4.79272">
        <ele>451</ele>
        <time>2012-05-13T09:19:43Z</time>
      </trkpt>
      <trkpt lat="45.82127" lon="4.79283">
        <ele>452.75</ele>
        <time>2012-05-13T09:19:51Z</time>
      </trkpt>
      <trkpt lat="45.82133" lon="4.79294">
        <ele>453</ele>
        <time>2012-05-13T09:19:56Z</time>
      </trkpt>
      <trkpt lat="45.82142" lon="4.793">
        <ele>454.5</ele>
        <time>2012-05-13T09:20:02Z</time>
      </trkpt>
      <trkpt lat="45.82153" lon="4.79297">
        <ele>456.75</ele>
        <time>2012-05-13T09:20:08Z</time>
      </trkpt>
      <trkpt lat="45.82163" lon="4.79295">
        <ele>458.75</ele>
        <time>2012-05-13T09:20:13Z</time>
      </trkpt>
      <trkpt lat="45.82172" lon="4.79291">
        <ele>461.5</ele>
        <time>2012-05-13T09:20:16Z</time>
      </trkpt>
      <trkpt lat="45.82183" lon="4.79287">
        <ele>464.5</ele>
        <time>2012-05-13T09:20:20Z</time>
      </trkpt>
      <trkpt lat="45.82196" lon="4.79284">
        <ele>466.75</ele>
        <time>2012-05-13T09:20:23Z</time>
      </trkpt>
      <trkpt lat="45.82206" lon="4.79282">
        <ele>468</ele>
        <time>2012-05-13T09:20:26Z</time>
      </trkpt>
      <trkpt lat="45.82216" lon="4.79279">
        <ele>468</ele>
        <time>2012-05-13T09:20:29Z</time>
      </trkpt>
      <trkpt lat="45.82228" lon="4.79276">
        <ele>467.25</ele>
        <time>2012-05-13T09:20:33Z</time>
      </trkpt>
      <trkpt lat="45.82231" lon="4.79289">
        <ele>469</ele>
        <time>2012-05-13T09:20:41Z</time>
      </trkpt>
      <trkpt lat="45.82224" lon="4.79304">
        <ele>469.5</ele>
        <time>2012-05-13T09:20:44Z</time>
      </trkpt>
      <trkpt lat="45.82218" lon="4.79317">
        <ele>470.5</ele>
        <time>2012-05-13T09:20:46Z</time>
      </trkpt>
      <trkpt lat="45.8221" lon="4.79328">
        <ele>471.25</ele>
        <time>2012-05-13T09:20:48Z</time>
      </trkpt>
      <trkpt lat="45.82202" lon="4.7934">
        <ele>471.75</ele>
        <time>2012-05-13T09:20:50Z</time>
      </trkpt>
      <trkpt lat="45.82193" lon="4.79355">
        <ele>472</ele>
        <time>2012-05-13T09:20:52Z</time>
      </trkpt>
      <trkpt lat="45.82184" lon="4.79373">
        <ele>472</ele>
        <time>2012-05-13T09:20:55Z</time>
      </trkpt>
      <trkpt lat="45.82175" lon="4.79395">
        <ele>472.25</ele>
        <time>2012-05-13T09:20:57Z</time>
      </trkpt>
      <trkpt lat="45.8217" lon="4.79407">
        <ele>472.5</ele>
        <time>2012-05-13T09:20:58Z</time>
      </trkpt>
      <trkpt lat="45.82164" lon="4.79419">
        <ele>473</ele>
        <time>2012-05-13T09:20:59Z</time>
      </trkpt>
      <trkpt lat="45.82159" lon="4.79431">
        <ele>473.5</ele>
        <time>2012-05-13T09:21:00Z</time>
      </trkpt>
      <trkpt lat="45.82155" lon="4.79467">
        <ele>470.5</ele>
        <time>2012-05-13T09:21:32Z</time>
      </trkpt>
      <trkpt lat="45.82153" lon="4.79502">
        <ele>467.5</ele>
        <time>2012-05-13T09:21:33Z</time>
      </trkpt>
      <trkpt lat="45.82153" lon="4.79536">
        <ele>464.25</ele>
        <time>2012-05-13T09:21:34Z</time>
      </trkpt>
      <trkpt lat="45.82154" lon="4.7957">
        <ele>461</ele>
        <time>2012-05-13T09:21:35Z</time>
      </trkpt>
      <trkpt lat="45.8216" lon="4.79584">
        <ele>460.5</ele>
        <time>2012-05-13T09:21:38Z</time>
      </trkpt>
      <trkpt lat="45.82165" lon="4.79598">
        <ele>459.75</ele>
        <time>2012-05-13T09:21:40Z</time>
      </trkpt>
      <trkpt lat="45.82171" lon="4.79614">
        <ele>458.5</ele>
        <time>2012-05-13T09:21:42Z</time>
      </trkpt>
      <trkpt lat="45.82177" lon="4.79629">
        <ele>457</ele>
        <time>2012-05-13T09:21:44Z</time>
      </trkpt>
      <trkpt lat="45.82183" lon="4.79643">
        <ele>456</ele>
        <time>2012-05-13T09:21:46Z</time>
      </trkpt>
      <trkpt lat="45.82189" lon="4.79656">
        <ele>454.5</ele>
        <time>2012-05-13T09:21:48Z</time>
      </trkpt>
      <trkpt lat="45.82196" lon="4.7967">
        <ele>452</ele>
        <time>2012-05-13T09:21:51Z</time>
      </trkpt>
      <trkpt lat="45.82203" lon="4.7968">
        <ele>449</ele>
        <time>2012-05-13T09:21:57Z</time>
      </trkpt>
      <trkpt lat="45.82213" lon="4.79679">
        <ele>447.25</ele>
        <time>2012-05-13T09:22:00Z</time>
      </trkpt>
      <trkpt lat="45.82227" lon="4.79682">
        <ele>444</ele>
        <time>2012-05-13T09:22:04Z</time>
      </trkpt>
      <trkpt lat="45.8224" lon="4.7969">
        <ele>440.5</ele>
        <time>2012-05-13T09:22:06Z</time>
      </trkpt>
      <trkpt lat="45.82247" lon="4.79698">
        <ele>440</ele>
        <time>2012-05-13T09:22:09Z</time>
      </trkpt>
      <trkpt lat="45.82251" lon="4.79713">
        <ele>440</ele>
        <time>2012-05-13T09:22:12Z</time>
      </trkpt>
      <trkpt lat="45.82249" lon="4.79731">
        <ele>440.5</ele>
        <time>2012-05-13T09:22:15Z</time>
      </trkpt>
      <trkpt lat="45.82247" lon="4.79744">
        <ele>441</ele>
        <time>2012-05-13T09:22:17Z</time>
      </trkpt>
      <trkpt lat="45.82245" lon="4.79757">
        <ele>441</ele>
        <time>2012-05-13T09:22:19Z</time>
      </trkpt>
      <trkpt lat="45.82243" lon="4.79771">
        <ele>441.5</ele>
        <time>2012-05-13T09:22:22Z</time>
      </trkpt>
      <trkpt lat="45.8224" lon="4.79785">
        <ele>441.75</ele>
        <time>2012-05-13T09:22:24Z</time>
      </trkpt>
      <trkpt lat="45.82238" lon="4.79798">
        <ele>440.75</ele>
        <time>2012-05-13T09:22:26Z</time>
      </trkpt>
      <trkpt lat="45.82239" lon="4.79811">
        <ele>438.75</ele>
        <time>2012-05-13T09:22:29Z</time>
      </trkpt>
      <trkpt lat="45.82249" lon="4.79815">
        <ele>435</ele>
        <time>2012-05-13T09:22:35Z</time>
      </trkpt>
      <trkpt lat="45.82256" lon="4.79805">
        <ele>436</ele>
        <time>2012-05-13T09:22:40Z</time>
      </trkpt>
      <trkpt lat="45.82262" lon="4.79795">
        <ele>436.25</ele>
        <time>2012-05-13T09:22:44Z</time>
      </trkpt>
      <trkpt lat="45.82268" lon="4.79783">
        <ele>437</ele>
        <time>2012-05-13T09:22:50Z</time>
      </trkpt>
      <trkpt lat="45.82273" lon="4.79772">
        <ele>438</ele>
        <time>2012-05-13T09:22:54Z</time>
      </trkpt>
      <trkpt lat="45.82279" lon="4.79761">
        <ele>438</ele>
        <time>2012-05-13T09:22:58Z</time>
      </trkpt>
      <trkpt lat="45.82286" lon="4.79751">
        <ele>438</ele>
        <time>2012-05-13T09:23:04Z</time>
      </trkpt>
      <trkpt lat="45.82293" lon="4.79743">
        <ele>438.75</ele>
        <time>2012-05-13T09:23:08Z</time>
      </trkpt>
      <trkpt lat="45.82302" lon="4.79736">
        <ele>439</ele>
        <time>2012-05-13T09:23:13Z</time>
      </trkpt>
      <trkpt lat="45.82312" lon="4.79729">
        <ele>440.5</ele>
        <time>2012-05-13T09:23:19Z</time>
      </trkpt>
      <trkpt lat="45.82322" lon="4.79723">
        <ele>442</ele>
        <time>2012-05-13T09:23:24Z</time>
      </trkpt>
      <trkpt lat="45.82331" lon="4.79714">
        <ele>443.5</ele>
        <time>2012-05-13T09:23:29Z</time>
      </trkpt>
      <trkpt lat="45.82337" lon="4.79705">
        <ele>444.75</ele>
        <time>2012-05-13T09:23:34Z</time>
      </trkpt>
      <trkpt lat="45.82345" lon="4.79696">
        <ele>446.75</ele>
        <time>2012-05-13T09:23:38Z</time>
      </trkpt>
      <trkpt lat="45.82354" lon="4.7969">
        <ele>447</ele>
        <time>2012-05-13T09:23:42Z</time>
      </trkpt>
      <trkpt lat="45.82363" lon="4.79681">
        <ele>447.5</ele>
        <time>2012-05-13T09:23:47Z</time>
      </trkpt>
      <trkpt lat="45.82373" lon="4.79672">
        <ele>449</ele>
        <time>2012-05-13T09:23:51Z</time>
      </trkpt>
      <trkpt lat="45.82381" lon="4.79664">
        <ele>450.25</ele>
        <time>2012-05-13T09:23:54Z</time>
      </trkpt>
      <trkpt lat="45.82388" lon="4.79655">
        <ele>452</ele>
        <time>2012-05-13T09:23:59Z</time>
      </trkpt>
      <trkpt lat="45.82396" lon="4.79645">
        <ele>453.75</ele>
        <time>2012-05-13T09:24:03Z</time>
      </trkpt>
      <trkpt lat="45.82403" lon="4.79634">
        <ele>454.75</ele>
        <time>2012-05-13T09:24:08Z</time>
      </trkpt>
      <trkpt lat="45.82411" lon="4.79626">
        <ele>456.25</ele>
        <time>2012-05-13T09:24:17Z</time>
      </trkpt>
      <trkpt lat="45.82419" lon="4.79623">
        <ele>458.25</ele>
        <time>2012-05-13T09:24:29Z</time>
      </trkpt>
      <trkpt lat="45.82427" lon="4.79615">
        <ele>458.5</ele>
        <time>2012-05-13T09:24:34Z</time>
      </trkpt>
      <trkpt lat="45.82437" lon="4.79609">
        <ele>460</ele>
        <time>2012-05-13T09:24:40Z</time>
      </trkpt>
      <trkpt lat="45.82446" lon="4.796">
        <ele>460.75</ele>
        <time>2012-05-13T09:24:43Z</time>
      </trkpt>
      <trkpt lat="45.82453" lon="4.79591">
        <ele>462</ele>
        <time>2012-05-13T09:24:46Z</time>
      </trkpt>
      <trkpt lat="45.82462" lon="4.79583">
        <ele>463.75</ele>
        <time>2012-05-13T09:24:52Z</time>
      </trkpt>
      <trkpt lat="45.82471" lon="4.7958">
        <ele>465.25</ele>
        <time>2012-05-13T09:24:56Z</time>
      </trkpt>
      <trkpt lat="45.82481" lon="4.79576">
        <ele>466.25</ele>
        <time>2012-05-13T09:24:59Z</time>
      </trkpt>
      <trkpt lat="45.82489" lon="4.79574">
        <ele>466.75</ele>
        <time>2012-05-13T09:25:03Z</time>
      </trkpt>
      <trkpt lat="45.825" lon="4.79572">
        <ele>465</ele>
        <time>2012-05-13T09:25:08Z</time>
      </trkpt>
      <trkpt lat="45.82509" lon="4.79568">
        <ele>464.25</ele>
        <time>2012-05-13T09:25:14Z</time>
      </trkpt>
      <trkpt lat="45.82518" lon="4.79561">
        <ele>465.25</ele>
        <time>2012-05-13T09:25:17Z</time>
      </trkpt>
      <trkpt lat="45.82526" lon="4.79554">
        <ele>467.25</ele>
        <time>2012-05-13T09:25:21Z</time>
      </trkpt>
      <trkpt lat="45.82535" lon="4.79548">
        <ele>469</ele>
        <time>2012-05-13T09:25:25Z</time>
      </trkpt>
      <trkpt lat="45.82545" lon="4.79543">
        <ele>469.5</ele>
        <time>2012-05-13T09:25:30Z</time>
      </trkpt>
      <trkpt lat="45.82556" lon="4.79538">
        <ele>471</ele>
        <time>2012-05-13T09:25:35Z</time>
      </trkpt>
      <trkpt lat="45.82566" lon="4.79532">
        <ele>473</ele>
        <time>2012-05-13T09:25:40Z</time>
      </trkpt>
      <trkpt lat="45.82573" lon="4.79542">
        <ele>474</ele>
        <time>2012-05-13T09:25:46Z</time>
      </trkpt>
      <trkpt lat="45.82579" lon="4.79558">
        <ele>474</ele>
        <time>2012-05-13T09:25:50Z</time>
      </trkpt>
      <trkpt lat="45.82585" lon="4.79572">
        <ele>474.75</ele>
        <time>2012-05-13T09:25:53Z</time>
      </trkpt>
      <trkpt lat="45.8259" lon="4.79584">
        <ele>475.25</ele>
        <time>2012-05-13T09:25:56Z</time>
      </trkpt>
      <trkpt lat="45.82596" lon="4.796">
        <ele>475.75</ele>
        <time>2012-05-13T09:25:58Z</time>
      </trkpt>
      <trkpt lat="45.826" lon="4.79613">
        <ele>476</ele>
        <time>2012-05-13T09:26:00Z</time>
      </trkpt>
      <trkpt lat="45.82604" lon="4.79626">
        <ele>475.25</ele>
        <time>2012-05-13T09:26:03Z</time>
      </trkpt>
      <trkpt lat="45.82609" lon="4.79638">
        <ele>474.5</ele>
        <time>2012-05-13T09:26:07Z</time>
      </trkpt>
      <trkpt lat="45.82618" lon="4.79654">
        <ele>473.25</ele>
        <time>2012-05-13T09:26:10Z</time>
      </trkpt>
      <trkpt lat="45.82625" lon="4.79666">
        <ele>472</ele>
        <time>2012-05-13T09:26:12Z</time>
      </trkpt>
      <trkpt lat="45.82634" lon="4.79679">
        <ele>470.5</ele>
        <time>2012-05-13T09:26:15Z</time>
      </trkpt>
      <trkpt lat="45.82631" lon="4.79693">
        <ele>469.75</ele>
        <time>2012-05-13T09:26:21Z</time>
      </trkpt>
      <trkpt lat="45.82622" lon="4.79705">
        <ele>469</ele>
        <time>2012-05-13T09:26:25Z</time>
      </trkpt>
      <trkpt lat="45.82617" lon="4.79717">
        <ele>469.25</ele>
        <time>2012-05-13T09:26:27Z</time>
      </trkpt>
      <trkpt lat="45.82613" lon="4.79731">
        <ele>469.75</ele>
        <time>2012-05-13T09:26:29Z</time>
      </trkpt>
      <trkpt lat="45.82609" lon="4.79748">
        <ele>469.75</ele>
        <time>2012-05-13T09:26:32Z</time>
      </trkpt>
      <trkpt lat="45.82607" lon="4.79761">
        <ele>468.75</ele>
        <time>2012-05-13T09:26:35Z</time>
      </trkpt>
      <trkpt lat="45.82605" lon="4.79775">
        <ele>468</ele>
        <time>2012-05-13T09:26:39Z</time>
      </trkpt>
      <trkpt lat="45.82601" lon="4.79792">
        <ele>467.25</ele>
        <time>2012-05-13T09:26:42Z</time>
      </trkpt>
      <trkpt lat="45.82599" lon="4.79806">
        <ele>467</ele>
        <time>2012-05-13T09:26:44Z</time>
      </trkpt>
      <trkpt lat="45.82597" lon="4.79819">
        <ele>467</ele>
        <time>2012-05-13T09:26:46Z</time>
      </trkpt>
      <trkpt lat="45.82594" lon="4.79833">
        <ele>467</ele>
        <time>2012-05-13T09:26:48Z</time>
      </trkpt>
      <trkpt lat="45.8259" lon="4.79848">
        <ele>466.5</ele>
        <time>2012-05-13T09:26:51Z</time>
      </trkpt>
      <trkpt lat="45.82587" lon="4.79866">
        <ele>465.5</ele>
        <time>2012-05-13T09:26:53Z</time>
      </trkpt>
      <trkpt lat="45.82583" lon="4.79886">
        <ele>465.25</ele>
        <time>2012-05-13T09:26:55Z</time>
      </trkpt>
      <trkpt lat="45.82581" lon="4.79905">
        <ele>465.75</ele>
        <time>2012-05-13T09:26:57Z</time>
      </trkpt>
      <trkpt lat="45.82579" lon="4.79921">
        <ele>466.5</ele>
        <time>2012-05-13T09:26:59Z</time>
      </trkpt>
      <trkpt lat="45.82555" lon="4.79982">
        <ele>465.75</ele>
        <time>2012-05-13T09:27:33Z</time>
      </trkpt>
      <trkpt lat="45.82528" lon="4.80043">
        <ele>464.75</ele>
        <time>2012-05-13T09:27:34Z</time>
      </trkpt>
      <trkpt lat="45.82499" lon="4.80105">
        <ele>463.25</ele>
        <time>2012-05-13T09:27:35Z</time>
      </trkpt>
      <trkpt lat="45.82468" lon="4.80167">
        <ele>461.75</ele>
        <time>2012-05-13T09:27:36Z</time>
      </trkpt>
      <trkpt lat="45.82454" lon="4.80183">
        <ele>461.25</ele>
        <time>2012-05-13T09:27:38Z</time>
      </trkpt>
      <trkpt lat="45.82445" lon="4.80199">
        <ele>461.75</ele>
        <time>2012-05-13T09:27:40Z</time>
      </trkpt>
      <trkpt lat="45.82439" lon="4.80214">
        <ele>462</ele>
        <time>2012-05-13T09:27:42Z</time>
      </trkpt>
      <trkpt lat="45.82436" lon="4.80226">
        <ele>461</ele>
        <time>2012-05-13T09:27:45Z</time>
      </trkpt>
      <trkpt lat="45.82434" lon="4.8024">
        <ele>458.5</ele>
        <time>2012-05-13T09:27:50Z</time>
      </trkpt>
      <trkpt lat="45.82432" lon="4.80256">
        <ele>456.5</ele>
        <time>2012-05-13T09:27:54Z</time>
      </trkpt>
      <trkpt lat="45.8243" lon="4.8027">
        <ele>455.75</ele>
        <time>2012-05-13T09:27:58Z</time>
      </trkpt>
      <trkpt lat="45.82424" lon="4.80285">
        <ele>456.5</ele>
        <time>2012-05-13T09:28:04Z</time>
      </trkpt>
      <trkpt lat="45.8242" lon="4.80298">
        <ele>457.5</ele>
        <time>2012-05-13T09:28:09Z</time>
      </trkpt>
      <trkpt lat="45.82416" lon="4.8031">
        <ele>459.25</ele>
        <time>2012-05-13T09:28:14Z</time>
      </trkpt>
      <trkpt lat="45.82412" lon="4.80322">
        <ele>460.75</ele>
        <time>2012-05-13T09:28:19Z</time>
      </trkpt>
      <trkpt lat="45.82409" lon="4.80337">
        <ele>461.5</ele>
        <time>2012-05-13T09:28:26Z</time>
      </trkpt>
      <trkpt lat="45.82406" lon="4.8035">
        <ele>462.5</ele>
        <time>2012-05-13T09:28:30Z</time>
      </trkpt>
      <trkpt lat="45.82404" lon="4.80365">
        <ele>464</ele>
        <time>2012-05-13T09:28:36Z</time>
      </trkpt>
      <trkpt lat="45.824" lon="4.8038">
        <ele>465.5</ele>
        <time>2012-05-13T09:28:43Z</time>
      </trkpt>
      <trkpt lat="45.82395" lon="4.80395">
        <ele>466.25</ele>
        <time>2012-05-13T09:28:47Z</time>
      </trkpt>
      <trkpt lat="45.82391" lon="4.8041">
        <ele>466.5</ele>
        <time>2012-05-13T09:28:50Z</time>
      </trkpt>
      <trkpt lat="45.8239" lon="4.80424">
        <ele>466</ele>
        <time>2012-05-13T09:28:54Z</time>
      </trkpt>
      <trkpt lat="45.82393" lon="4.80437">
        <ele>465.5</ele>
        <time>2012-05-13T09:29:08Z</time>
      </trkpt>
      <trkpt lat="45.82403" lon="4.80437">
        <ele>466</ele>
        <time>2012-05-13T09:29:22Z</time>
      </trkpt>
      <trkpt lat="45.82414" lon="4.80436">
        <ele>467.25</ele>
        <time>2012-05-13T09:29:27Z</time>
      </trkpt>
      <trkpt lat="45.82423" lon="4.80435">
        <ele>468</ele>
        <time>2012-05-13T09:29:33Z</time>
      </trkpt>
      <trkpt lat="45.82433" lon="4.80431">
        <ele>468.5</ele>
        <time>2012-05-13T09:29:40Z</time>
      </trkpt>
      <trkpt lat="45.82441" lon="4.80423">
        <ele>470.5</ele>
        <time>2012-05-13T09:29:47Z</time>
      </trkpt>
      <trkpt lat="45.82451" lon="4.80415">
        <ele>472.5</ele>
        <time>2012-05-13T09:29:52Z</time>
      </trkpt>
      <trkpt lat="45.82459" lon="4.80407">
        <ele>474</ele>
        <time>2012-05-13T09:29:57Z</time>
      </trkpt>
      <trkpt lat="45.82469" lon="4.80402">
        <ele>476</ele>
        <time>2012-05-13T09:30:04Z</time>
      </trkpt>
      <trkpt lat="45.82479" lon="4.80397">
        <ele>478</ele>
        <time>2012-05-13T09:30:10Z</time>
      </trkpt>
      <trkpt lat="45.82488" lon="4.80392">
        <ele>480.25</ele>
        <time>2012-05-13T09:30:17Z</time>
      </trkpt>
      <trkpt lat="45.82497" lon="4.80389">
        <ele>482.25</ele>
        <time>2012-05-13T09:30:22Z</time>
      </trkpt>
      <trkpt lat="45.82505" lon="4.80385">
        <ele>483.75</ele>
        <time>2012-05-13T09:30:29Z</time>
      </trkpt>
      <trkpt lat="45.82515" lon="4.80378">
        <ele>484.75</ele>
        <time>2012-05-13T09:30:35Z</time>
      </trkpt>
      <trkpt lat="45.82523" lon="4.8037">
        <ele>486</ele>
        <time>2012-05-13T09:30:42Z</time>
      </trkpt>
      <trkpt lat="45.82531" lon="4.8036">
        <ele>488</ele>
        <time>2012-05-13T09:30:47Z</time>
      </trkpt>
      <trkpt lat="45.82539" lon="4.80351">
        <ele>492</ele>
        <time>2012-05-13T09:30:55Z</time>
      </trkpt>
      <trkpt lat="45.82545" lon="4.80341">
        <ele>494.5</ele>
        <time>2012-05-13T09:31:00Z</time>
      </trkpt>
      <trkpt lat="45.82552" lon="4.80332">
        <ele>495.75</ele>
        <time>2012-05-13T09:31:08Z</time>
      </trkpt>
      <trkpt lat="45.82559" lon="4.80323">
        <ele>496</ele>
        <time>2012-05-13T09:31:15Z</time>
      </trkpt>
      <trkpt lat="45.82565" lon="4.80314">
        <ele>496.25</ele>
        <time>2012-05-13T09:31:23Z</time>
      </trkpt>
      <trkpt lat="45.82573" lon="4.80303">
        <ele>498</ele>
        <time>2012-05-13T09:31:30Z</time>
      </trkpt>
      <trkpt lat="45.8258" lon="4.80293">
        <ele>498.5</ele>
        <time>2012-05-13T09:31:38Z</time>
      </trkpt>
      <trkpt lat="45.82589" lon="4.80284">
        <ele>500</ele>
        <time>2012-05-13T09:31:45Z</time>
      </trkpt>
      <trkpt lat="45.82597" lon="4.80276">
        <ele>500.75</ele>
        <time>2012-05-13T09:31:51Z</time>
      </trkpt>
      <trkpt lat="45.82604" lon="4.80268">
        <ele>502.5</ele>
        <time>2012-05-13T09:31:59Z</time>
      </trkpt>
      <trkpt lat="45.82612" lon="4.80261">
        <ele>505.25</ele>
        <time>2012-05-13T09:32:06Z</time>
      </trkpt>
      <trkpt lat="45.82621" lon="4.80253">
        <ele>506.75</ele>
        <time>2012-05-13T09:32:12Z</time>
      </trkpt>
      <trkpt lat="45.82629" lon="4.80244">
        <ele>508.25</ele>
        <time>2012-05-13T09:32:19Z</time>
      </trkpt>
      <trkpt lat="45.82638" lon="4.80238">
        <ele>511</ele>
        <time>2012-05-13T09:32:27Z</time>
      </trkpt>
      <trkpt lat="45.82648" lon="4.80231">
        <ele>512.75</ele>
        <time>2012-05-13T09:32:36Z</time>
      </trkpt>
      <trkpt lat="45.82655" lon="4.80223">
        <ele>514.75</ele>
        <time>2012-05-13T09:32:42Z</time>
      </trkpt>
      <trkpt lat="45.82664" lon="4.80217">
        <ele>517.5</ele>
        <time>2012-05-13T09:32:49Z</time>
      </trkpt>
      <trkpt lat="45.82672" lon="4.8021">
        <ele>520</ele>
        <time>2012-05-13T09:32:56Z</time>
      </trkpt>
      <trkpt lat="45.82688" lon="4.80196">
        <ele>524</ele>
        <time>2012-05-13T09:33:33Z</time>
      </trkpt>
      <trkpt lat="45.82699" lon="4.8019">
        <ele>525.25</ele>
        <time>2012-05-13T09:33:34Z</time>
      </trkpt>
      <trkpt lat="45.82709" lon="4.80183">
        <ele>526.5</ele>
        <time>2012-05-13T09:33:35Z</time>
      </trkpt>
      <trkpt lat="45.8272" lon="4.80177">
        <ele>527.5</ele>
        <time>2012-05-13T09:33:36Z</time>
      </trkpt>
      <trkpt lat="45.82729" lon="4.80172">
        <ele>530.75</ele>
        <time>2012-05-13T09:33:47Z</time>
      </trkpt>
      <trkpt lat="45.82739" lon="4.80166">
        <ele>532.5</ele>
        <time>2012-05-13T09:33:53Z</time>
      </trkpt>
      <trkpt lat="45.82747" lon="4.80162">
        <ele>534.5</ele>
        <time>2012-05-13T09:34:01Z</time>
      </trkpt>
      <trkpt lat="45.82756" lon="4.80155">
        <ele>537.5</ele>
        <time>2012-05-13T09:34:10Z</time>
      </trkpt>
      <trkpt lat="45.82764" lon="4.80148">
        <ele>538.5</ele>
        <time>2012-05-13T09:34:18Z</time>
      </trkpt>
      <trkpt lat="45.82773" lon="4.80142">
        <ele>540</ele>
        <time>2012-05-13T09:34:26Z</time>
      </trkpt>
      <trkpt lat="45.82782" lon="4.8014">
        <ele>542</ele>
        <time>2012-05-13T09:34:33Z</time>
      </trkpt>
      <trkpt lat="45.82793" lon="4.80137">
        <ele>544</ele>
        <time>2012-05-13T09:34:40Z</time>
      </trkpt>
      <trkpt lat="45.82802" lon="4.80138">
        <ele>545</ele>
        <time>2012-05-13T09:34:44Z</time>
      </trkpt>
      <trkpt lat="45.82812" lon="4.80141">
        <ele>546.75</ele>
        <time>2012-05-13T09:34:49Z</time>
      </trkpt>
      <trkpt lat="45.82823" lon="4.80141">
        <ele>549</ele>
        <time>2012-05-13T09:34:59Z</time>
      </trkpt>
      <trkpt lat="45.82832" lon="4.80136">
        <ele>551</ele>
        <time>2012-05-13T09:35:06Z</time>
      </trkpt>
      <trkpt lat="45.82841" lon="4.80128">
        <ele>555.25</ele>
        <time>2012-05-13T09:35:13Z</time>
      </trkpt>
      <trkpt lat="45.82848" lon="4.8012">
        <ele>558</ele>
        <time>2012-05-13T09:35:19Z</time>
      </trkpt>
      <trkpt lat="45.82854" lon="4.8011">
        <ele>560.25</ele>
        <time>2012-05-13T09:35:24Z</time>
      </trkpt>
      <trkpt lat="45.8286" lon="4.801">
        <ele>562.25</ele>
        <time>2012-05-13T09:35:33Z</time>
      </trkpt>
      <trkpt lat="45.82867" lon="4.80088">
        <ele>564.25</ele>
        <time>2012-05-13T09:35:40Z</time>
      </trkpt>
      <trkpt lat="45.82872" lon="4.80075">
        <ele>565</ele>
        <time>2012-05-13T09:35:47Z</time>
      </trkpt>
      <trkpt lat="45.82878" lon="4.80065">
        <ele>565</ele>
        <time>2012-05-13T09:35:54Z</time>
      </trkpt>
      <trkpt lat="45.82885" lon="4.80056">
        <ele>564.5</ele>
        <time>2012-05-13T09:36:04Z</time>
      </trkpt>
      <trkpt lat="45.82893" lon="4.80048">
        <ele>565</ele>
        <time>2012-05-13T09:36:10Z</time>
      </trkpt>
      <trkpt lat="45.82902" lon="4.8004">
        <ele>566</ele>
        <time>2012-05-13T09:36:18Z</time>
      </trkpt>
      <trkpt lat="45.8291" lon="4.80032">
        <ele>566</ele>
        <time>2012-05-13T09:36:25Z</time>
      </trkpt>
      <trkpt lat="45.8292" lon="4.80026">
        <ele>565.25</ele>
        <time>2012-05-13T09:36:33Z</time>
      </trkpt>
      <trkpt lat="45.82928" lon="4.80019">
        <ele>565</ele>
        <time>2012-05-13T09:36:38Z</time>
      </trkpt>
      <trkpt lat="45.82937" lon="4.80014">
        <ele>566.25</ele>
        <time>2012-05-13T09:36:47Z</time>
      </trkpt>
      <trkpt lat="45.82946" lon="4.80007">
        <ele>567.75</ele>
        <time>2012-05-13T09:36:51Z</time>
      </trkpt>
      <trkpt lat="45.82955" lon="4.79998">
        <ele>569</ele>
        <time>2012-05-13T09:36:56Z</time>
      </trkpt>
      <trkpt lat="45.82963" lon="4.7999">
        <ele>570</ele>
        <time>2012-05-13T09:37:02Z</time>
      </trkpt>
      <trkpt lat="45.82972" lon="4.79985">
        <ele>571</ele>
        <time>2012-05-13T09:37:10Z</time>
      </trkpt>
      <trkpt lat="45.82982" lon="4.7998">
        <ele>573.5</ele>
        <time>2012-05-13T09:37:18Z</time>
      </trkpt>
      <trkpt lat="45.82991" lon="4.79974">
        <ele>575</ele>
        <time>2012-05-13T09:37:26Z</time>
      </trkpt>
      <trkpt lat="45.82999" lon="4.79965">
        <ele>575</ele>
        <time>2012-05-13T09:37:33Z</time>
      </trkpt>
      <trkpt lat="45.83009" lon="4.79958">
        <ele>575.75</ele>
        <time>2012-05-13T09:37:36Z</time>
      </trkpt>
      <trkpt lat="45.8302" lon="4.79958">
        <ele>577</ele>
        <time>2012-05-13T09:37:41Z</time>
      </trkpt>
      <trkpt lat="45.8303" lon="4.79954">
        <ele>581.5</ele>
        <time>2012-05-13T09:38:46Z</time>
      </trkpt>
      <trkpt lat="45.83042" lon="4.7995">
        <ele>580.75</ele>
        <time>2012-05-13T09:38:51Z</time>
      </trkpt>
      <trkpt lat="45.83051" lon="4.79949">
        <ele>580</ele>
        <time>2012-05-13T09:38:56Z</time>
      </trkpt>
      <trkpt lat="45.83063" lon="4.79946">
        <ele>579</ele>
        <time>2012-05-13T09:39:02Z</time>
      </trkpt>
      <trkpt lat="45.83077" lon="4.79941">
        <ele>578.5</ele>
        <time>2012-05-13T09:39:05Z</time>
      </trkpt>
      <trkpt lat="45.83087" lon="4.7994">
        <ele>578</ele>
        <time>2012-05-13T09:39:07Z</time>
      </trkpt>
      <trkpt lat="45.83098" lon="4.79938">
        <ele>578</ele>
        <time>2012-05-13T09:39:09Z</time>
      </trkpt>
      <trkpt lat="45.83107" lon="4.79937">
        <ele>578</ele>
        <time>2012-05-13T09:39:11Z</time>
      </trkpt>
      <trkpt lat="45.8312" lon="4.79937">
        <ele>577.25</ele>
        <time>2012-05-13T09:39:14Z</time>
      </trkpt>
      <trkpt lat="45.83131" lon="4.79934">
        <ele>577</ele>
        <time>2012-05-13T09:39:18Z</time>
      </trkpt>
      <trkpt lat="45.83142" lon="4.79933">
        <ele>577</ele>
        <time>2012-05-13T09:39:21Z</time>
      </trkpt>
      <trkpt lat="45.83152" lon="4.79935">
        <ele>576</ele>
        <time>2012-05-13T09:39:26Z</time>
      </trkpt>
      <trkpt lat="45.83162" lon="4.79938">
        <ele>575.25</ele>
        <time>2012-05-13T09:39:31Z</time>
      </trkpt>
      <trkpt lat="45.83171" lon="4.79945">
        <ele>574</ele>
        <time>2012-05-13T09:39:37Z</time>
      </trkpt>
      <trkpt lat="45.83177" lon="4.79959">
        <ele>574</ele>
        <time>2012-05-13T09:39:42Z</time>
      </trkpt>
      <trkpt lat="45.83183" lon="4.79971">
        <ele>573.25</ele>
        <time>2012-05-13T09:39:46Z</time>
      </trkpt>
      <trkpt lat="45.83186" lon="4.79986">
        <ele>572.5</ele>
        <time>2012-05-13T09:39:51Z</time>
      </trkpt>
      <trkpt lat="45.83187" lon="4.80001">
        <ele>571.25</ele>
        <time>2012-05-13T09:39:54Z</time>
      </trkpt>
      <trkpt lat="45.83193" lon="4.80014">
        <ele>570</ele>
        <time>2012-05-13T09:39:59Z</time>
      </trkpt>
      <trkpt lat="45.83192" lon="4.80031">
        <ele>568</ele>
        <time>2012-05-13T09:40:05Z</time>
      </trkpt>
      <trkpt lat="45.83186" lon="4.80045">
        <ele>566.75</ele>
        <time>2012-05-13T09:40:10Z</time>
      </trkpt>
      <trkpt lat="45.83178" lon="4.80057">
        <ele>565.25</ele>
        <time>2012-05-13T09:40:13Z</time>
      </trkpt>
      <trkpt lat="45.8317" lon="4.80068">
        <ele>564.25</ele>
        <time>2012-05-13T09:40:16Z</time>
      </trkpt>
      <trkpt lat="45.83165" lon="4.80081">
        <ele>563</ele>
        <time>2012-05-13T09:40:20Z</time>
      </trkpt>
      <trkpt lat="45.83158" lon="4.80092">
        <ele>563</ele>
        <time>2012-05-13T09:40:23Z</time>
      </trkpt>
      <trkpt lat="45.83148" lon="4.80103">
        <ele>563</ele>
        <time>2012-05-13T09:40:27Z</time>
      </trkpt>
      <trkpt lat="45.8314" lon="4.8011">
        <ele>563</ele>
        <time>2012-05-13T09:40:29Z</time>
      </trkpt>
      <trkpt lat="45.8313" lon="4.8012">
        <ele>563</ele>
        <time>2012-05-13T09:40:32Z</time>
      </trkpt>
      <trkpt lat="45.83121" lon="4.80127">
        <ele>562.75</ele>
        <time>2012-05-13T09:40:35Z</time>
      </trkpt>
      <trkpt lat="45.83113" lon="4.80134">
        <ele>561.5</ele>
        <time>2012-05-13T09:40:39Z</time>
      </trkpt>
      <trkpt lat="45.83105" lon="4.80141">
        <ele>560.25</ele>
        <time>2012-05-13T09:40:41Z</time>
      </trkpt>
      <trkpt lat="45.83095" lon="4.80149">
        <ele>558.75</ele>
        <time>2012-05-13T09:40:43Z</time>
      </trkpt>
      <trkpt lat="45.83084" lon="4.80156">
        <ele>557.5</ele>
        <time>2012-05-13T09:40:45Z</time>
      </trkpt>
      <trkpt lat="45.83076" lon="4.80163">
        <ele>557</ele>
        <time>2012-05-13T09:40:47Z</time>
      </trkpt>
      <trkpt lat="45.83067" lon="4.8017">
        <ele>556.75</ele>
        <time>2012-05-13T09:40:50Z</time>
      </trkpt>
      <trkpt lat="45.83057" lon="4.80179">
        <ele>556.5</ele>
        <time>2012-05-13T09:40:53Z</time>
      </trkpt>
      <trkpt lat="45.83049" lon="4.80187">
        <ele>556</ele>
        <time>2012-05-13T09:40:56Z</time>
      </trkpt>
      <trkpt lat="45.83041" lon="4.80195">
        <ele>556.25</ele>
        <time>2012-05-13T09:40:58Z</time>
      </trkpt>
      <trkpt lat="45.83032" lon="4.80207">
        <ele>556.25</ele>
        <time>2012-05-13T09:41:00Z</time>
      </trkpt>
      <trkpt lat="45.83025" lon="4.80216">
        <ele>556</ele>
        <time>2012-05-13T09:41:04Z</time>
      </trkpt>
      <trkpt lat="45.83015" lon="4.80229">
        <ele>555.5</ele>
        <time>2012-05-13T09:41:06Z</time>
      </trkpt>
      <trkpt lat="45.83004" lon="4.80243">
        <ele>554.5</ele>
        <time>2012-05-13T09:41:08Z</time>
      </trkpt>
      <trkpt lat="45.82994" lon="4.80255">
        <ele>553.5</ele>
        <time>2012-05-13T09:41:10Z</time>
      </trkpt>
      <trkpt lat="45.82986" lon="4.80266">
        <ele>552.5</ele>
        <time>2012-05-13T09:41:12Z</time>
      </trkpt>
      <trkpt lat="45.82977" lon="4.80277">
        <ele>552</ele>
        <time>2012-05-13T09:41:14Z</time>
      </trkpt>
      <trkpt lat="45.82968" lon="4.80288">
        <ele>551.5</ele>
        <time>2012-05-13T09:41:17Z</time>
      </trkpt>
      <trkpt lat="45.82957" lon="4.80303">
        <ele>550.25</ele>
        <time>2012-05-13T09:41:19Z</time>
      </trkpt>
      <trkpt lat="45.82946" lon="4.80319">
        <ele>549</ele>
        <time>2012-05-13T09:41:21Z</time>
      </trkpt>
      <trkpt lat="45.82935" lon="4.80333">
        <ele>548.25</ele>
        <time>2012-05-13T09:41:23Z</time>
      </trkpt>
      <trkpt lat="45.82928" lon="4.80342">
        <ele>547.25</ele>
        <time>2012-05-13T09:41:25Z</time>
      </trkpt>
      <trkpt lat="45.82921" lon="4.80354">
        <ele>543.25</ele>
        <time>2012-05-13T09:41:30Z</time>
      </trkpt>
      <trkpt lat="45.82919" lon="4.80368">
        <ele>541</ele>
        <time>2012-05-13T09:41:39Z</time>
      </trkpt>
      <trkpt lat="45.82911" lon="4.80376">
        <ele>532.25</ele>
        <time>2012-05-13T09:42:10Z</time>
      </trkpt>
      <trkpt lat="45.829" lon="4.8038">
        <ele>532</ele>
        <time>2012-05-13T09:42:13Z</time>
      </trkpt>
      <trkpt lat="45.8289" lon="4.80387">
        <ele>531.75</ele>
        <time>2012-05-13T09:42:16Z</time>
      </trkpt>
      <trkpt lat="45.82884" lon="4.80398">
        <ele>531.5</ele>
        <time>2012-05-13T09:42:18Z</time>
      </trkpt>
      <trkpt lat="45.82879" lon="4.80412">
        <ele>531.5</ele>
        <time>2012-05-13T09:42:21Z</time>
      </trkpt>
      <trkpt lat="45.82872" lon="4.80427">
        <ele>530.5</ele>
        <time>2012-05-13T09:42:23Z</time>
      </trkpt>
      <trkpt lat="45.82861" lon="4.80446">
        <ele>528.25</ele>
        <time>2012-05-13T09:42:25Z</time>
      </trkpt>
      <trkpt lat="45.82854" lon="4.80456">
        <ele>527</ele>
        <time>2012-05-13T09:42:26Z</time>
      </trkpt>
      <trkpt lat="45.82846" lon="4.80465">
        <ele>525.75</ele>
        <time>2012-05-13T09:42:27Z</time>
      </trkpt>
      <trkpt lat="45.82836" lon="4.80474">
        <ele>524.75</ele>
        <time>2012-05-13T09:42:28Z</time>
      </trkpt>
      <trkpt lat="45.82826" lon="4.8048">
        <ele>524</ele>
        <time>2012-05-13T09:42:29Z</time>
      </trkpt>
      <trkpt lat="45.82817" lon="4.80485">
        <ele>523.25</ele>
        <time>2012-05-13T09:42:30Z</time>
      </trkpt>
      <trkpt lat="45.82808" lon="4.80489">
        <ele>522.5</ele>
        <time>2012-05-13T09:42:31Z</time>
      </trkpt>
      <trkpt lat="45.828" lon="4.80493">
        <ele>521.5</ele>
        <time>2012-05-13T09:42:32Z</time>
      </trkpt>
      <trkpt lat="45.82791" lon="4.80497">
        <ele>520.5</ele>
        <time>2012-05-13T09:42:33Z</time>
      </trkpt>
      <trkpt lat="45.82782" lon="4.80501">
        <ele>519.75</ele>
        <time>2012-05-13T09:42:35Z</time>
      </trkpt>
      <trkpt lat="45.82773" lon="4.80504">
        <ele>518.75</ele>
        <time>2012-05-13T09:42:36Z</time>
      </trkpt>
      <trkpt lat="45.82764" lon="4.80507">
        <ele>518</ele>
        <time>2012-05-13T09:42:37Z</time>
      </trkpt>
      <trkpt lat="45.82753" lon="4.80512">
        <ele>517.25</ele>
        <time>2012-05-13T09:42:38Z</time>
      </trkpt>
      <trkpt lat="45.82742" lon="4.80517">
        <ele>516</ele>
        <time>2012-05-13T09:42:39Z</time>
      </trkpt>
      <trkpt lat="45.8273" lon="4.80523">
        <ele>515</ele>
        <time>2012-05-13T09:42:40Z</time>
      </trkpt>
      <trkpt lat="45.82718" lon="4.80529">
        <ele>514</ele>
        <time>2012-05-13T09:42:41Z</time>
      </trkpt>
      <trkpt lat="45.82709" lon="4.80535">
        <ele>513</ele>
        <time>2012-05-13T09:42:42Z</time>
      </trkpt>
      <trkpt lat="45.82699" lon="4.80541">
        <ele>512.5</ele>
        <time>2012-05-13T09:42:43Z</time>
      </trkpt>
      <trkpt lat="45.82689" lon="4.80548">
        <ele>511.75</ele>
        <time>2012-05-13T09:42:44Z</time>
      </trkpt>
      <trkpt lat="45.82679" lon="4.80556">
        <ele>510.5</ele>
        <time>2012-05-13T09:42:45Z</time>
      </trkpt>
      <trkpt lat="45.82669" lon="4.80563">
        <ele>509</ele>
        <time>2012-05-13T09:42:46Z</time>
      </trkpt>
      <trkpt lat="45.82658" lon="4.80568">
        <ele>507</ele>
        <time>2012-05-13T09:42:47Z</time>
      </trkpt>
      <trkpt lat="45.82648" lon="4.80573">
        <ele>505.25</ele>
        <time>2012-05-13T09:42:48Z</time>
      </trkpt>
      <trkpt lat="45.8263" lon="4.8058">
        <ele>502.25</ele>
        <time>2012-05-13T09:42:51Z</time>
      </trkpt>
      <trkpt lat="45.82619" lon="4.80584">
        <ele>500.5</ele>
        <time>2012-05-13T09:42:52Z</time>
      </trkpt>
      <trkpt lat="45.82609" lon="4.8059">
        <ele>498.5</ele>
        <time>2012-05-13T09:42:53Z</time>
      </trkpt>
      <trkpt lat="45.82595" lon="4.80599">
        <ele>495.75</ele>
        <time>2012-05-13T09:42:54Z</time>
      </trkpt>
      <trkpt lat="45.82582" lon="4.80608">
        <ele>493.5</ele>
        <time>2012-05-13T09:42:55Z</time>
      </trkpt>
      <trkpt lat="45.82572" lon="4.80616">
        <ele>491.75</ele>
        <time>2012-05-13T09:42:56Z</time>
      </trkpt>
      <trkpt lat="45.82555" lon="4.80628">
        <ele>488.75</ele>
        <time>2012-05-13T09:42:58Z</time>
      </trkpt>
      <trkpt lat="45.82545" lon="4.80633">
        <ele>487</ele>
        <time>2012-05-13T09:42:59Z</time>
      </trkpt>
      <trkpt lat="45.82532" lon="4.8064">
        <ele>485</ele>
        <time>2012-05-13T09:43:00Z</time>
      </trkpt>
      <trkpt lat="45.82483" lon="4.8068">
        <ele>474.5</ele>
        <time>2012-05-13T09:43:32Z</time>
      </trkpt>
      <trkpt lat="45.82441" lon="4.80717">
        <ele>465</ele>
        <time>2012-05-13T09:43:33Z</time>
      </trkpt>
      <trkpt lat="45.82402" lon="4.80755">
        <ele>455.75</ele>
        <time>2012-05-13T09:43:34Z</time>
      </trkpt>
      <trkpt lat="45.82366" lon="4.80794">
        <ele>446.5</ele>
        <time>2012-05-13T09:43:35Z</time>
      </trkpt>
      <trkpt lat="45.82367" lon="4.80808">
        <ele>444.75</ele>
        <time>2012-05-13T09:43:38Z</time>
      </trkpt>
      <trkpt lat="45.82369" lon="4.80825">
        <ele>443.25</ele>
        <time>2012-05-13T09:43:41Z</time>
      </trkpt>
      <trkpt lat="45.82373" lon="4.80842">
        <ele>439.25</ele>
        <time>2012-05-13T09:43:46Z</time>
      </trkpt>
      <trkpt lat="45.8238" lon="4.80853">
        <ele>436.5</ele>
        <time>2012-05-13T09:43:48Z</time>
      </trkpt>
      <trkpt lat="45.8239" lon="4.80864">
        <ele>434</ele>
        <time>2012-05-13T09:43:52Z</time>
      </trkpt>
      <trkpt lat="45.82401" lon="4.80877">
        <ele>431.5</ele>
        <time>2012-05-13T09:43:55Z</time>
      </trkpt>
      <trkpt lat="45.82408" lon="4.80886">
        <ele>430.25</ele>
        <time>2012-05-13T09:43:57Z</time>
      </trkpt>
      <trkpt lat="45.82417" lon="4.80897">
        <ele>429</ele>
        <time>2012-05-13T09:44:00Z</time>
      </trkpt>
      <trkpt lat="45.82429" lon="4.8091">
        <ele>427.25</ele>
        <time>2012-05-13T09:44:04Z</time>
      </trkpt>
      <trkpt lat="45.82438" lon="4.80919">
        <ele>426</ele>
        <time>2012-05-13T09:44:06Z</time>
      </trkpt>
      <trkpt lat="45.82448" lon="4.8093">
        <ele>425</ele>
        <time>2012-05-13T09:44:10Z</time>
      </trkpt>
      <trkpt lat="45.82457" lon="4.80938">
        <ele>424.5</ele>
        <time>2012-05-13T09:44:12Z</time>
      </trkpt>
      <trkpt lat="45.82467" lon="4.80946">
        <ele>424</ele>
        <time>2012-05-13T09:44:14Z</time>
      </trkpt>
      <trkpt lat="45.82476" lon="4.80951">
        <ele>423.5</ele>
        <time>2012-05-13T09:44:16Z</time>
      </trkpt>
      <trkpt lat="45.82488" lon="4.80956">
        <ele>423</ele>
        <time>2012-05-13T09:44:19Z</time>
      </trkpt>
      <trkpt lat="45.825" lon="4.8096">
        <ele>423</ele>
        <time>2012-05-13T09:44:22Z</time>
      </trkpt>
      <trkpt lat="45.82512" lon="4.80964">
        <ele>423</ele>
        <time>2012-05-13T09:44:26Z</time>
      </trkpt>
      <trkpt lat="45.82525" lon="4.80967">
        <ele>422.25</ele>
        <time>2012-05-13T09:44:29Z</time>
      </trkpt>
      <trkpt lat="45.82535" lon="4.8097">
        <ele>422.25</ele>
        <time>2012-05-13T09:44:31Z</time>
      </trkpt>
      <trkpt lat="45.82546" lon="4.80971">
        <ele>421.75</ele>
        <time>2012-05-13T09:44:34Z</time>
      </trkpt>
      <trkpt lat="45.82557" lon="4.80972">
        <ele>421.75</ele>
        <time>2012-05-13T09:44:37Z</time>
      </trkpt>
      <trkpt lat="45.82567" lon="4.80976">
        <ele>422</ele>
        <time>2012-05-13T09:44:41Z</time>
      </trkpt>
      <trkpt lat="45.8258" lon="4.80979">
        <ele>422</ele>
        <time>2012-05-13T09:44:44Z</time>
      </trkpt>
      <trkpt lat="45.82593" lon="4.80981">
        <ele>422</ele>
        <time>2012-05-13T09:44:47Z</time>
      </trkpt>
      <trkpt lat="45.82605" lon="4.80983">
        <ele>422</ele>
        <time>2012-05-13T09:44:49Z</time>
      </trkpt>
      <trkpt lat="45.82616" lon="4.80988">
        <ele>422.5</ele>
        <time>2012-05-13T09:44:52Z</time>
      </trkpt>
      <trkpt lat="45.82624" lon="4.80996">
        <ele>423</ele>
        <time>2012-05-13T09:44:56Z</time>
      </trkpt>
      <trkpt lat="45.82632" lon="4.81006">
        <ele>423.5</ele>
        <time>2012-05-13T09:44:59Z</time>
      </trkpt>
      <trkpt lat="45.82639" lon="4.81016">
        <ele>425</ele>
        <time>2012-05-13T09:45:04Z</time>
      </trkpt>
      <trkpt lat="45.82649" lon="4.81018">
        <ele>426.25</ele>
        <time>2012-05-13T09:45:09Z</time>
      </trkpt>
      <trkpt lat="45.82659" lon="4.81015">
        <ele>427.5</ele>
        <time>2012-05-13T09:45:14Z</time>
      </trkpt>
      <trkpt lat="45.82669" lon="4.81014">
        <ele>429.25</ele>
        <time>2012-05-13T09:45:19Z</time>
      </trkpt>
      <trkpt lat="45.8268" lon="4.81016">
        <ele>431.75</ele>
        <time>2012-05-13T09:45:27Z</time>
      </trkpt>
      <trkpt lat="45.82688" lon="4.81021">
        <ele>432.75</ele>
        <time>2012-05-13T09:45:32Z</time>
      </trkpt>
      <trkpt lat="45.82697" lon="4.81026">
        <ele>433.5</ele>
        <time>2012-05-13T09:45:40Z</time>
      </trkpt>
      <trkpt lat="45.82705" lon="4.81033">
        <ele>435.5</ele>
        <time>2012-05-13T09:45:47Z</time>
      </trkpt>
      <trkpt lat="45.82713" lon="4.81039">
        <ele>436.75</ele>
        <time>2012-05-13T09:45:54Z</time>
      </trkpt>
      <trkpt lat="45.82721" lon="4.81048">
        <ele>439.25</ele>
        <time>2012-05-13T09:46:00Z</time>
      </trkpt>
      <trkpt lat="45.82728" lon="4.81056">
        <ele>440.75</ele>
        <time>2012-05-13T09:46:08Z</time>
      </trkpt>
      <trkpt lat="45.82735" lon="4.81068">
        <ele>442</ele>
        <time>2012-05-13T09:46:13Z</time>
      </trkpt>
      <trkpt lat="45.82742" lon="4.81076">
        <ele>443.75</ele>
        <time>2012-05-13T09:46:19Z</time>
      </trkpt>
      <trkpt lat="45.82749" lon="4.81084">
        <ele>444.5</ele>
        <time>2012-05-13T09:46:26Z</time>
      </trkpt>
      <trkpt lat="45.82757" lon="4.81092">
        <ele>446.5</ele>
        <time>2012-05-13T09:46:33Z</time>
      </trkpt>
      <trkpt lat="45.82766" lon="4.811">
        <ele>448.5</ele>
        <time>2012-05-13T09:46:41Z</time>
      </trkpt>
      <trkpt lat="45.82775" lon="4.81107">
        <ele>449.75</ele>
        <time>2012-05-13T09:46:47Z</time>
      </trkpt>
      <trkpt lat="45.82785" lon="4.81111">
        <ele>449.25</ele>
        <time>2012-05-13T09:46:53Z</time>
      </trkpt>
      <trkpt lat="45.82794" lon="4.81113">
        <ele>450.5</ele>
        <time>2012-05-13T09:46:58Z</time>
      </trkpt>
      <trkpt lat="45.82803" lon="4.81119">
        <ele>451.5</ele>
        <time>2012-05-13T09:47:04Z</time>
      </trkpt>
      <trkpt lat="45.82811" lon="4.81127">
        <ele>452</ele>
        <time>2012-05-13T09:47:08Z</time>
      </trkpt>
      <trkpt lat="45.8282" lon="4.81135">
        <ele>451.75</ele>
        <time>2012-05-13T09:47:13Z</time>
      </trkpt>
      <trkpt lat="45.82818" lon="4.81147">
        <ele>454.25</ele>
        <time>2012-05-13T09:47:20Z</time>
      </trkpt>
      <trkpt lat="45.82814" lon="4.81159">
        <ele>456</ele>
        <time>2012-05-13T09:47:23Z</time>
      </trkpt>
      <trkpt lat="45.82809" lon="4.81173">
        <ele>457.5</ele>
        <time>2012-05-13T09:47:26Z</time>
      </trkpt>
      <trkpt lat="45.82805" lon="4.81186">
        <ele>458.5</ele>
        <time>2012-05-13T09:47:29Z</time>
      </trkpt>
      <trkpt lat="45.82801" lon="4.812">
        <ele>459.25</ele>
        <time>2012-05-13T09:47:35Z</time>
      </trkpt>
      <trkpt lat="45.82797" lon="4.81215">
        <ele>460.5</ele>
        <time>2012-05-13T09:47:38Z</time>
      </trkpt>
      <trkpt lat="45.82793" lon="4.81228">
        <ele>461.75</ele>
        <time>2012-05-13T09:47:41Z</time>
      </trkpt>
      <trkpt lat="45.82789" lon="4.81242">
        <ele>464.5</ele>
        <time>2012-05-13T09:47:45Z</time>
      </trkpt>
      <trkpt lat="45.82787" lon="4.81257">
        <ele>466.25</ele>
        <time>2012-05-13T09:47:50Z</time>
      </trkpt>
      <trkpt lat="45.82785" lon="4.81275">
        <ele>467.5</ele>
        <time>2012-05-13T09:47:53Z</time>
      </trkpt>
      <trkpt lat="45.82784" lon="4.8129">
        <ele>468</ele>
        <time>2012-05-13T09:47:56Z</time>
      </trkpt>
      <trkpt lat="45.82782" lon="4.81303">
        <ele>468.5</ele>
        <time>2012-05-13T09:47:59Z</time>
      </trkpt>
      <trkpt lat="45.8278" lon="4.81319">
        <ele>470</ele>
        <time>2012-05-13T09:48:04Z</time>
      </trkpt>
      <trkpt lat="45.82777" lon="4.81332">
        <ele>471.5</ele>
        <time>2012-05-13T09:48:07Z</time>
      </trkpt>
      <trkpt lat="45.82774" lon="4.81347">
        <ele>472</ele>
        <time>2012-05-13T09:48:11Z</time>
      </trkpt>
      <trkpt lat="45.82771" lon="4.81361">
        <ele>472.5</ele>
        <time>2012-05-13T09:48:15Z</time>
      </trkpt>
      <trkpt lat="45.82769" lon="4.81375">
        <ele>474.5</ele>
        <time>2012-05-13T09:48:20Z</time>
      </trkpt>
      <trkpt lat="45.82767" lon="4.8139">
        <ele>476</ele>
        <time>2012-05-13T09:48:23Z</time>
      </trkpt>
      <trkpt lat="45.82765" lon="4.81402">
        <ele>477.25</ele>
        <time>2012-05-13T09:48:26Z</time>
      </trkpt>
      <trkpt lat="45.82763" lon="4.81418">
        <ele>478</ele>
        <time>2012-05-13T09:48:32Z</time>
      </trkpt>
      <trkpt lat="45.82761" lon="4.8143">
        <ele>478.75</ele>
        <time>2012-05-13T09:48:36Z</time>
      </trkpt>
      <trkpt lat="45.82757" lon="4.81444">
        <ele>479.25</ele>
        <time>2012-05-13T09:48:41Z</time>
      </trkpt>
      <trkpt lat="45.82754" lon="4.81458">
        <ele>480</ele>
        <time>2012-05-13T09:48:46Z</time>
      </trkpt>
      <trkpt lat="45.82751" lon="4.81471">
        <ele>481.5</ele>
        <time>2012-05-13T09:48:52Z</time>
      </trkpt>
      <trkpt lat="45.82749" lon="4.81486">
        <ele>483.5</ele>
        <time>2012-05-13T09:48:58Z</time>
      </trkpt>
      <trkpt lat="45.82747" lon="4.815">
        <ele>485</ele>
        <time>2012-05-13T09:49:06Z</time>
      </trkpt>
      <trkpt lat="45.82742" lon="4.81512">
        <ele>483.5</ele>
        <time>2012-05-13T09:49:15Z</time>
      </trkpt>
      <trkpt lat="45.82734" lon="4.81519">
        <ele>484.25</ele>
        <time>2012-05-13T09:49:22Z</time>
      </trkpt>
      <trkpt lat="45.82725" lon="4.81526">
        <ele>485.75</ele>
        <time>2012-05-13T09:49:26Z</time>
      </trkpt>
      <trkpt lat="45.8272" lon="4.81537">
        <ele>486.75</ele>
        <time>2012-05-13T09:49:34Z</time>
      </trkpt>
      <trkpt lat="45.82714" lon="4.81552">
        <ele>488.75</ele>
        <time>2012-05-13T09:49:39Z</time>
      </trkpt>
      <trkpt lat="45.82709" lon="4.81565">
        <ele>489.5</ele>
        <time>2012-05-13T09:49:44Z</time>
      </trkpt>
      <trkpt lat="45.82703" lon="4.81578">
        <ele>490.75</ele>
        <time>2012-05-13T09:49:49Z</time>
      </trkpt>
      <trkpt lat="45.82699" lon="4.8159">
        <ele>492.25</ele>
        <time>2012-05-13T09:49:53Z</time>
      </trkpt>
      <trkpt lat="45.82696" lon="4.81604">
        <ele>493.5</ele>
        <time>2012-05-13T09:49:57Z</time>
      </trkpt>
      <trkpt lat="45.82694" lon="4.81618">
        <ele>494</ele>
        <time>2012-05-13T09:50:03Z</time>
      </trkpt>
      <trkpt lat="45.82692" lon="4.81635">
        <ele>495</ele>
        <time>2012-05-13T09:50:07Z</time>
      </trkpt>
      <trkpt lat="45.82691" lon="4.81648">
        <ele>494.5</ele>
        <time>2012-05-13T09:50:11Z</time>
      </trkpt>
      <trkpt lat="45.82691" lon="4.81664">
        <ele>494.75</ele>
        <time>2012-05-13T09:50:15Z</time>
      </trkpt>
      <trkpt lat="45.82689" lon="4.81679">
        <ele>496.25</ele>
        <time>2012-05-13T09:50:20Z</time>
      </trkpt>
      <trkpt lat="45.82686" lon="4.81694">
        <ele>498</ele>
        <time>2012-05-13T09:50:24Z</time>
      </trkpt>
      <trkpt lat="45.82684" lon="4.81709">
        <ele>498</ele>
        <time>2012-05-13T09:50:29Z</time>
      </trkpt>
      <trkpt lat="45.82681" lon="4.81722">
        <ele>498</ele>
        <time>2012-05-13T09:50:34Z</time>
      </trkpt>
      <trkpt lat="45.8268" lon="4.81738">
        <ele>498.5</ele>
        <time>2012-05-13T09:50:38Z</time>
      </trkpt>
      <trkpt lat="45.82677" lon="4.81752">
        <ele>499.75</ele>
        <time>2012-05-13T09:50:42Z</time>
      </trkpt>
      <trkpt lat="45.82675" lon="4.81765">
        <ele>500</ele>
        <time>2012-05-13T09:50:45Z</time>
      </trkpt>
      <trkpt lat="45.82674" lon="4.81778">
        <ele>500.5</ele>
        <time>2012-05-13T09:50:48Z</time>
      </trkpt>
      <trkpt lat="45.82672" lon="4.81791">
        <ele>501.75</ele>
        <time>2012-05-13T09:50:52Z</time>
      </trkpt>
      <trkpt lat="45.82669" lon="4.81807">
        <ele>502.5</ele>
        <time>2012-05-13T09:50:56Z</time>
      </trkpt>
      <trkpt lat="45.82667" lon="4.8182">
        <ele>503.25</ele>
        <time>2012-05-13T09:50:59Z</time>
      </trkpt>
      <trkpt lat="45.82655" lon="4.81867">
        <ele>505</ele>
        <time>2012-05-13T09:51:32Z</time>
      </trkpt>
      <trkpt lat="45.82644" lon="4.8191">
        <ele>506.25</ele>
        <time>2012-05-13T09:51:33Z</time>
      </trkpt>
      <trkpt lat="45.82633" lon="4.81954">
        <ele>508</ele>
        <time>2012-05-13T09:51:34Z</time>
      </trkpt>
      <trkpt lat="45.82621" lon="4.81998">
        <ele>509.5</ele>
        <time>2012-05-13T09:51:35Z</time>
      </trkpt>
      <trkpt lat="45.8262" lon="4.82014">
        <ele>510</ele>
        <time>2012-05-13T09:51:39Z</time>
      </trkpt>
      <trkpt lat="45.82621" lon="4.82029">
        <ele>510</ele>
        <time>2012-05-13T09:51:41Z</time>
      </trkpt>
      <trkpt lat="45.82622" lon="4.82041">
        <ele>510</ele>
        <time>2012-05-13T09:51:43Z</time>
      </trkpt>
      <trkpt lat="45.82625" lon="4.82054">
        <ele>510.5</ele>
        <time>2012-05-13T09:51:45Z</time>
      </trkpt>
      <trkpt lat="45.82627" lon="4.8207">
        <ele>511</ele>
        <time>2012-05-13T09:51:47Z</time>
      </trkpt>
      <trkpt lat="45.8263" lon="4.82083">
        <ele>511</ele>
        <time>2012-05-13T09:51:49Z</time>
      </trkpt>
      <trkpt lat="45.82634" lon="4.82101">
        <ele>510.25</ele>
        <time>2012-05-13T09:51:53Z</time>
      </trkpt>
      <trkpt lat="45.82637" lon="4.82113">
        <ele>510.5</ele>
        <time>2012-05-13T09:51:55Z</time>
      </trkpt>
      <trkpt lat="45.82641" lon="4.82127">
        <ele>511</ele>
        <time>2012-05-13T09:51:57Z</time>
      </trkpt>
      <trkpt lat="45.82646" lon="4.82142">
        <ele>510.75</ele>
        <time>2012-05-13T09:51:59Z</time>
      </trkpt>
      <trkpt lat="45.8265" lon="4.82154">
        <ele>510.25</ele>
        <time>2012-05-13T09:52:01Z</time>
      </trkpt>
      <trkpt lat="45.82655" lon="4.82167">
        <ele>510</ele>
        <time>2012-05-13T09:52:05Z</time>
      </trkpt>
      <trkpt lat="45.8266" lon="4.82181">
        <ele>510</ele>
        <time>2012-05-13T09:52:07Z</time>
      </trkpt>
      <trkpt lat="45.82655" lon="4.82192">
        <ele>508</ele>
        <time>2012-05-13T09:52:17Z</time>
      </trkpt>
      <trkpt lat="45.82646" lon="4.82197">
        <ele>508.5</ele>
        <time>2012-05-13T09:52:23Z</time>
      </trkpt>
      <trkpt lat="45.82635" lon="4.82203">
        <ele>510.5</ele>
        <time>2012-05-13T09:52:28Z</time>
      </trkpt>
      <trkpt lat="45.82625" lon="4.82206">
        <ele>511</ele>
        <time>2012-05-13T09:52:32Z</time>
      </trkpt>
      <trkpt lat="45.82615" lon="4.8221">
        <ele>512</ele>
        <time>2012-05-13T09:52:37Z</time>
      </trkpt>
      <trkpt lat="45.82604" lon="4.82215">
        <ele>512</ele>
        <time>2012-05-13T09:52:40Z</time>
      </trkpt>
      <trkpt lat="45.82596" lon="4.82221">
        <ele>512.5</ele>
        <time>2012-05-13T09:52:42Z</time>
      </trkpt>
      <trkpt lat="45.82587" lon="4.82226">
        <ele>513</ele>
        <time>2012-05-13T09:52:45Z</time>
      </trkpt>
      <trkpt lat="45.82576" lon="4.82224">
        <ele>513</ele>
        <time>2012-05-13T09:52:49Z</time>
      </trkpt>
      <trkpt lat="45.82564" lon="4.82223">
        <ele>513</ele>
        <time>2012-05-13T09:52:52Z</time>
      </trkpt>
      <trkpt lat="45.82553" lon="4.82223">
        <ele>513.75</ele>
        <time>2012-05-13T09:52:55Z</time>
      </trkpt>
      <trkpt lat="45.82543" lon="4.82222">
        <ele>514.25</ele>
        <time>2012-05-13T09:52:58Z</time>
      </trkpt>
      <trkpt lat="45.82533" lon="4.82222">
        <ele>515</ele>
        <time>2012-05-13T09:53:03Z</time>
      </trkpt>
      <trkpt lat="45.82523" lon="4.8222">
        <ele>514.25</ele>
        <time>2012-05-13T09:53:08Z</time>
      </trkpt>
      <trkpt lat="45.82515" lon="4.82232">
        <ele>515.75</ele>
        <time>2012-05-13T09:53:13Z</time>
      </trkpt>
      <trkpt lat="45.82509" lon="4.82242">
        <ele>516</ele>
        <time>2012-05-13T09:53:16Z</time>
      </trkpt>
      <trkpt lat="45.82501" lon="4.82254">
        <ele>516</ele>
        <time>2012-05-13T09:53:18Z</time>
      </trkpt>
      <trkpt lat="45.8249" lon="4.82267">
        <ele>516</ele>
        <time>2012-05-13T09:53:20Z</time>
      </trkpt>
      <trkpt lat="45.82483" lon="4.82276">
        <ele>515.75</ele>
        <time>2012-05-13T09:53:22Z</time>
      </trkpt>
      <trkpt lat="45.82479" lon="4.8229">
        <ele>513.25</ele>
        <time>2012-05-13T09:53:28Z</time>
      </trkpt>
      <trkpt lat="45.82486" lon="4.82302">
        <ele>512</ele>
        <time>2012-05-13T09:53:30Z</time>
      </trkpt>
      <trkpt lat="45.82495" lon="4.82316">
        <ele>510.75</ele>
        <time>2012-05-13T09:53:32Z</time>
      </trkpt>
      <trkpt lat="45.82502" lon="4.82325">
        <ele>510</ele>
        <time>2012-05-13T09:53:34Z</time>
      </trkpt>
      <trkpt lat="45.82493" lon="4.82325">
        <ele>510</ele>
        <time>2012-05-13T09:53:41Z</time>
      </trkpt>
      <trkpt lat="45.82484" lon="4.82318">
        <ele>510</ele>
        <time>2012-05-13T09:53:43Z</time>
      </trkpt>
      <trkpt lat="45.82476" lon="4.8231">
        <ele>510</ele>
        <time>2012-05-13T09:53:45Z</time>
      </trkpt>
      <trkpt lat="45.82467" lon="4.82304">
        <ele>510</ele>
        <time>2012-05-13T09:53:47Z</time>
      </trkpt>
      <trkpt lat="45.82454" lon="4.82305">
        <ele>510</ele>
        <time>2012-05-13T09:53:49Z</time>
      </trkpt>
      <trkpt lat="45.82436" lon="4.82308">
        <ele>510</ele>
        <time>2012-05-13T09:53:51Z</time>
      </trkpt>
      <trkpt lat="45.82427" lon="4.82311">
        <ele>510.25</ele>
        <time>2012-05-13T09:53:52Z</time>
      </trkpt>
      <trkpt lat="45.82417" lon="4.82313">
        <ele>510.75</ele>
        <time>2012-05-13T09:53:53Z</time>
      </trkpt>
      <trkpt lat="45.82408" lon="4.82316">
        <ele>511.5</ele>
        <time>2012-05-13T09:53:54Z</time>
      </trkpt>
      <trkpt lat="45.82392" lon="4.8232">
        <ele>512.75</ele>
        <time>2012-05-13T09:53:57Z</time>
      </trkpt>
      <trkpt lat="45.82371" lon="4.82323">
        <ele>512.5</ele>
        <time>2012-05-13T09:53:59Z</time>
      </trkpt>
      <trkpt lat="45.82362" lon="4.82323">
        <ele>512</ele>
        <time>2012-05-13T09:54:00Z</time>
      </trkpt>
      <trkpt lat="45.82352" lon="4.82323">
        <ele>511.25</ele>
        <time>2012-05-13T09:54:01Z</time>
      </trkpt>
      <trkpt lat="45.82338" lon="4.82322">
        <ele>511</ele>
        <time>2012-05-13T09:54:03Z</time>
      </trkpt>
      <trkpt lat="45.82329" lon="4.82322">
        <ele>511.25</ele>
        <time>2012-05-13T09:54:04Z</time>
      </trkpt>
      <trkpt lat="45.82316" lon="4.8232">
        <ele>512</ele>
        <time>2012-05-13T09:54:05Z</time>
      </trkpt>
      <trkpt lat="45.82303" lon="4.82318">
        <ele>513.25</ele>
        <time>2012-05-13T09:54:06Z</time>
      </trkpt>
      <trkpt lat="45.82288" lon="4.82314">
        <ele>514.75</ele>
        <time>2012-05-13T09:54:08Z</time>
      </trkpt>
      <trkpt lat="45.82276" lon="4.82312">
        <ele>511</ele>
        <time>2012-05-13T09:54:12Z</time>
      </trkpt>
      <trkpt lat="45.82262" lon="4.82311">
        <ele>504.75</ele>
        <time>2012-05-13T09:54:15Z</time>
      </trkpt>
      <trkpt lat="45.82253" lon="4.82311">
        <ele>501.75</ele>
        <time>2012-05-13T09:54:17Z</time>
      </trkpt>
      <trkpt lat="45.8224" lon="4.82307">
        <ele>499.25</ele>
        <time>2012-05-13T09:54:20Z</time>
      </trkpt>
      <trkpt lat="45.82228" lon="4.82306">
        <ele>497.5</ele>
        <time>2012-05-13T09:54:22Z</time>
      </trkpt>
      <trkpt lat="45.82211" lon="4.8231">
        <ele>495.5</ele>
        <time>2012-05-13T09:54:25Z</time>
      </trkpt>
      <trkpt lat="45.822" lon="4.82312">
        <ele>494.5</ele>
        <time>2012-05-13T09:54:26Z</time>
      </trkpt>
      <trkpt lat="45.82187" lon="4.82316">
        <ele>493</ele>
        <time>2012-05-13T09:54:27Z</time>
      </trkpt>
      <trkpt lat="45.82173" lon="4.8232">
        <ele>491.5</ele>
        <time>2012-05-13T09:54:28Z</time>
      </trkpt>
      <trkpt lat="45.82159" lon="4.82325">
        <ele>490</ele>
        <time>2012-05-13T09:54:29Z</time>
      </trkpt>
      <trkpt lat="45.82147" lon="4.82329">
        <ele>488.25</ele>
        <time>2012-05-13T09:54:30Z</time>
      </trkpt>
      <trkpt lat="45.82133" lon="4.82329">
        <ele>485</ele>
        <time>2012-05-13T09:54:32Z</time>
      </trkpt>
      <trkpt lat="45.82122" lon="4.82324">
        <ele>481.5</ele>
        <time>2012-05-13T09:54:34Z</time>
      </trkpt>
      <trkpt lat="45.82111" lon="4.82317">
        <ele>479.25</ele>
        <time>2012-05-13T09:54:36Z</time>
      </trkpt>
      <trkpt lat="45.82101" lon="4.82311">
        <ele>477.75</ele>
        <time>2012-05-13T09:54:38Z</time>
      </trkpt>
      <trkpt lat="45.82092" lon="4.82306">
        <ele>475.75</ele>
        <time>2012-05-13T09:54:41Z</time>
      </trkpt>
      <trkpt lat="45.82083" lon="4.82296">
        <ele>471.25</ele>
        <time>2012-05-13T09:54:44Z</time>
      </trkpt>
      <trkpt lat="45.82078" lon="4.82282">
        <ele>467.75</ele>
        <time>2012-05-13T09:54:47Z</time>
      </trkpt>
      <trkpt lat="45.82071" lon="4.82272">
        <ele>465.75</ele>
        <time>2012-05-13T09:54:51Z</time>
      </trkpt>
      <trkpt lat="45.8206" lon="4.82272">
        <ele>462.25</ele>
        <time>2012-05-13T09:54:54Z</time>
      </trkpt>
      <trkpt lat="45.82044" lon="4.8228">
        <ele>457.75</ele>
        <time>2012-05-13T09:54:56Z</time>
      </trkpt>
      <trkpt lat="45.82036" lon="4.82286">
        <ele>455.5</ele>
        <time>2012-05-13T09:54:57Z</time>
      </trkpt>
      <trkpt lat="45.8202" lon="4.82296">
        <ele>451</ele>
        <time>2012-05-13T09:54:59Z</time>
      </trkpt>
      <trkpt lat="45.82003" lon="4.8234">
        <ele>443.25</ele>
        <time>2012-05-13T09:55:33Z</time>
      </trkpt>
      <trkpt lat="45.81998" lon="4.82386">
        <ele>437</ele>
        <time>2012-05-13T09:55:34Z</time>
      </trkpt>
      <trkpt lat="45.81994" lon="4.82432">
        <ele>430.75</ele>
        <time>2012-05-13T09:55:35Z</time>
      </trkpt>
      <trkpt lat="45.81992" lon="4.82477">
        <ele>425</ele>
        <time>2012-05-13T09:55:36Z</time>
      </trkpt>
      <trkpt lat="45.81994" lon="4.82491">
        <ele>422.25</ele>
        <time>2012-05-13T09:55:38Z</time>
      </trkpt>
      <trkpt lat="45.81988" lon="4.82504">
        <ele>420.75</ele>
        <time>2012-05-13T09:55:40Z</time>
      </trkpt>
      <trkpt lat="45.81981" lon="4.82518">
        <ele>419.25</ele>
        <time>2012-05-13T09:55:42Z</time>
      </trkpt>
      <trkpt lat="45.81971" lon="4.82535">
        <ele>417.75</ele>
        <time>2012-05-13T09:55:44Z</time>
      </trkpt>
      <trkpt lat="45.81962" lon="4.8255">
        <ele>416.5</ele>
        <time>2012-05-13T09:55:47Z</time>
      </trkpt>
      <trkpt lat="45.81955" lon="4.82564">
        <ele>415.5</ele>
        <time>2012-05-13T09:55:50Z</time>
      </trkpt>
      <trkpt lat="45.81955" lon="4.82577">
        <ele>407.5</ele>
        <time>2012-05-13T09:55:55Z</time>
      </trkpt>
      <trkpt lat="45.81962" lon="4.82586">
        <ele>404.5</ele>
        <time>2012-05-13T09:55:58Z</time>
      </trkpt>
      <trkpt lat="45.81974" lon="4.82596">
        <ele>403.25</ele>
        <time>2012-05-13T09:56:03Z</time>
      </trkpt>
      <trkpt lat="45.81985" lon="4.82604">
        <ele>402.25</ele>
        <time>2012-05-13T09:56:06Z</time>
      </trkpt>
      <trkpt lat="45.81995" lon="4.8261">
        <ele>401.5</ele>
        <time>2012-05-13T09:56:09Z</time>
      </trkpt>
      <trkpt lat="45.82002" lon="4.82618">
        <ele>399</ele>
        <time>2012-05-13T09:56:22Z</time>
      </trkpt>
      <trkpt lat="45.82009" lon="4.82628">
        <ele>398</ele>
        <time>2012-05-13T09:56:34Z</time>
      </trkpt>
      <trkpt lat="45.8202" lon="4.8264">
        <ele>398.25</ele>
        <time>2012-05-13T09:56:37Z</time>
      </trkpt>
      <trkpt lat="45.82028" lon="4.82649">
        <ele>398.25</ele>
        <time>2012-05-13T09:56:39Z</time>
      </trkpt>
      <trkpt lat="45.82039" lon="4.82661">
        <ele>397.5</ele>
        <time>2012-05-13T09:56:42Z</time>
      </trkpt>
      <trkpt lat="45.82049" lon="4.8267">
        <ele>396.75</ele>
        <time>2012-05-13T09:56:45Z</time>
      </trkpt>
      <trkpt lat="45.82061" lon="4.82679">
        <ele>396.25</ele>
        <time>2012-05-13T09:56:47Z</time>
      </trkpt>
      <trkpt lat="45.82073" lon="4.82686">
        <ele>395.75</ele>
        <time>2012-05-13T09:56:49Z</time>
      </trkpt>
      <trkpt lat="45.82084" lon="4.82691">
        <ele>395.75</ele>
        <time>2012-05-13T09:56:51Z</time>
      </trkpt>
      <trkpt lat="45.82095" lon="4.82697">
        <ele>395.75</ele>
        <time>2012-05-13T09:56:53Z</time>
      </trkpt>
      <trkpt lat="45.82106" lon="4.82704">
        <ele>395.25</ele>
        <time>2012-05-13T09:56:55Z</time>
      </trkpt>
      <trkpt lat="45.82115" lon="4.8271">
        <ele>394.5</ele>
        <time>2012-05-13T09:56:58Z</time>
      </trkpt>
      <trkpt lat="45.82129" lon="4.8272">
        <ele>393.25</ele>
        <time>2012-05-13T09:57:01Z</time>
      </trkpt>
      <trkpt lat="45.82139" lon="4.82726">
        <ele>392.5</ele>
        <time>2012-05-13T09:57:03Z</time>
      </trkpt>
      <trkpt lat="45.82151" lon="4.82733">
        <ele>391.75</ele>
        <time>2012-05-13T09:57:04Z</time>
      </trkpt>
      <trkpt lat="45.82166" lon="4.8274">
        <ele>391</ele>
        <time>2012-05-13T09:57:06Z</time>
      </trkpt>
      <trkpt lat="45.82177" lon="4.82752">
        <ele>390.5</ele>
        <time>2012-05-13T09:57:08Z</time>
      </trkpt>
      <trkpt lat="45.82191" lon="4.8277">
        <ele>389.25</ele>
        <time>2012-05-13T09:57:10Z</time>
      </trkpt>
      <trkpt lat="45.822" lon="4.8278">
        <ele>388.25</ele>
        <time>2012-05-13T09:57:12Z</time>
      </trkpt>
      <trkpt lat="45.82211" lon="4.82786">
        <ele>387.25</ele>
        <time>2012-05-13T09:57:15Z</time>
      </trkpt>
      <trkpt lat="45.82222" lon="4.82786">
        <ele>386.25</ele>
        <time>2012-05-13T09:57:18Z</time>
      </trkpt>
      <trkpt lat="45.82231" lon="4.8278">
        <ele>386</ele>
        <time>2012-05-13T09:57:22Z</time>
      </trkpt>
      <trkpt lat="45.8224" lon="4.82776">
        <ele>386</ele>
        <time>2012-05-13T09:57:24Z</time>
      </trkpt>
      <trkpt lat="45.82249" lon="4.82772">
        <ele>385</ele>
        <time>2012-05-13T09:57:28Z</time>
      </trkpt>
      <trkpt lat="45.82261" lon="4.82769">
        <ele>385.5</ele>
        <time>2012-05-13T09:57:34Z</time>
      </trkpt>
      <trkpt lat="45.82271" lon="4.82767">
        <ele>386.25</ele>
        <time>2012-05-13T09:57:39Z</time>
      </trkpt>
      <trkpt lat="45.82281" lon="4.82764">
        <ele>387.75</ele>
        <time>2012-05-13T09:57:44Z</time>
      </trkpt>
      <trkpt lat="45.82291" lon="4.82759">
        <ele>389.5</ele>
        <time>2012-05-13T09:57:49Z</time>
      </trkpt>
      <trkpt lat="45.82297" lon="4.82749">
        <ele>390.25</ele>
        <time>2012-05-13T09:57:55Z</time>
      </trkpt>
      <trkpt lat="45.82299" lon="4.82736">
        <ele>391.25</ele>
        <time>2012-05-13T09:58:03Z</time>
      </trkpt>
      <trkpt lat="45.82305" lon="4.82726">
        <ele>392</ele>
        <time>2012-05-13T09:58:10Z</time>
      </trkpt>
      <trkpt lat="45.82314" lon="4.82717">
        <ele>395.25</ele>
        <time>2012-05-13T09:58:16Z</time>
      </trkpt>
      <trkpt lat="45.82323" lon="4.82712">
        <ele>396.25</ele>
        <time>2012-05-13T09:58:20Z</time>
      </trkpt>
      <trkpt lat="45.82334" lon="4.82708">
        <ele>397</ele>
        <time>2012-05-13T09:58:23Z</time>
      </trkpt>
      <trkpt lat="45.82344" lon="4.82707">
        <ele>397</ele>
        <time>2012-05-13T09:58:26Z</time>
      </trkpt>
      <trkpt lat="45.82354" lon="4.82707">
        <ele>397</ele>
        <time>2012-05-13T09:58:29Z</time>
      </trkpt>
      <trkpt lat="45.82366" lon="4.82707">
        <ele>398</ele>
        <time>2012-05-13T09:58:33Z</time>
      </trkpt>
      <trkpt lat="45.82376" lon="4.82707">
        <ele>398.75</ele>
        <time>2012-05-13T09:58:35Z</time>
      </trkpt>
      <trkpt lat="45.82388" lon="4.82708">
        <ele>399.5</ele>
        <time>2012-05-13T09:58:38Z</time>
      </trkpt>
      <trkpt lat="45.82399" lon="4.82711">
        <ele>400</ele>
        <time>2012-05-13T09:58:41Z</time>
      </trkpt>
      <trkpt lat="45.82409" lon="4.82711">
        <ele>399.25</ele>
        <time>2012-05-13T09:58:44Z</time>
      </trkpt>
      <trkpt lat="45.8242" lon="4.82712">
        <ele>398.25</ele>
        <time>2012-05-13T09:58:47Z</time>
      </trkpt>
      <trkpt lat="45.82432" lon="4.82713">
        <ele>398</ele>
        <time>2012-05-13T09:58:51Z</time>
      </trkpt>
      <trkpt lat="45.82445" lon="4.82715">
        <ele>397.75</ele>
        <time>2012-05-13T09:58:54Z</time>
      </trkpt>
      <trkpt lat="45.82455" lon="4.82716">
        <ele>397.25</ele>
        <time>2012-05-13T09:58:56Z</time>
      </trkpt>
      <trkpt lat="45.82465" lon="4.82719">
        <ele>397</ele>
        <time>2012-05-13T09:58:59Z</time>
      </trkpt>
      <trkpt lat="45.82479" lon="4.82723">
        <ele>396.75</ele>
        <time>2012-05-13T09:59:04Z</time>
      </trkpt>
      <trkpt lat="45.82495" lon="4.82725">
        <ele>396.75</ele>
        <time>2012-05-13T09:59:06Z</time>
      </trkpt>
      <trkpt lat="45.82506" lon="4.82725">
        <ele>397</ele>
        <time>2012-05-13T09:59:08Z</time>
      </trkpt>
      <trkpt lat="45.82516" lon="4.82723">
        <ele>397.5</ele>
        <time>2012-05-13T09:59:10Z</time>
      </trkpt>
      <trkpt lat="45.82526" lon="4.82718">
        <ele>398.5</ele>
        <time>2012-05-13T09:59:13Z</time>
      </trkpt>
      <trkpt lat="45.82535" lon="4.82713">
        <ele>400</ele>
        <time>2012-05-13T09:59:19Z</time>
      </trkpt>
      <trkpt lat="45.82546" lon="4.82716">
        <ele>401.25</ele>
        <time>2012-05-13T09:59:23Z</time>
      </trkpt>
      <trkpt lat="45.82559" lon="4.82721">
        <ele>401.25</ele>
        <time>2012-05-13T09:59:26Z</time>
      </trkpt>
      <trkpt lat="45.82572" lon="4.82725">
        <ele>401</ele>
        <time>2012-05-13T09:59:29Z</time>
      </trkpt>
      <trkpt lat="45.82584" lon="4.82728">
        <ele>401</ele>
        <time>2012-05-13T09:59:32Z</time>
      </trkpt>
      <trkpt lat="45.82594" lon="4.82728">
        <ele>400.75</ele>
        <time>2012-05-13T09:59:35Z</time>
      </trkpt>
      <trkpt lat="45.82605" lon="4.8273">
        <ele>400.5</ele>
        <time>2012-05-13T09:59:37Z</time>
      </trkpt>
      <trkpt lat="45.82615" lon="4.82734">
        <ele>400.75</ele>
        <time>2012-05-13T09:59:39Z</time>
      </trkpt>
      <trkpt lat="45.82625" lon="4.82739">
        <ele>401.25</ele>
        <time>2012-05-13T09:59:41Z</time>
      </trkpt>
      <trkpt lat="45.82636" lon="4.82749">
        <ele>401.5</ele>
        <time>2012-05-13T09:59:44Z</time>
      </trkpt>
      <trkpt lat="45.82643" lon="4.82758">
        <ele>401.75</ele>
        <time>2012-05-13T09:59:48Z</time>
      </trkpt>
      <trkpt lat="45.82652" lon="4.82767">
        <ele>402</ele>
        <time>2012-05-13T09:59:50Z</time>
      </trkpt>
      <trkpt lat="45.82663" lon="4.82781">
        <ele>402.25</ele>
        <time>2012-05-13T09:59:52Z</time>
      </trkpt>
      <trkpt lat="45.82669" lon="4.82792">
        <ele>402.75</ele>
        <time>2012-05-13T09:59:54Z</time>
      </trkpt>
      <trkpt lat="45.82677" lon="4.82808">
        <ele>403.25</ele>
        <time>2012-05-13T09:59:57Z</time>
      </trkpt>
      <trkpt lat="45.82683" lon="4.82819">
        <ele>403.25</ele>
        <time>2012-05-13T09:59:59Z</time>
      </trkpt>
      <trkpt lat="45.82729" lon="4.82839">
        <ele>403.25</ele>
        <time>2012-05-13T10:00:32Z</time>
      </trkpt>
      <trkpt lat="45.82777" lon="4.82857">
        <ele>403</ele>
        <time>2012-05-13T10:00:33Z</time>
      </trkpt>
      <trkpt lat="45.82826" lon="4.82874">
        <ele>403</ele>
        <time>2012-05-13T10:00:35Z</time>
      </trkpt>
      <trkpt lat="45.82877" lon="4.82889">
        <ele>403</ele>
        <time>2012-05-13T10:00:36Z</time>
      </trkpt>
      <trkpt lat="45.82894" lon="4.82883">
        <ele>403</ele>
        <time>2012-05-13T10:00:38Z</time>
      </trkpt>
      <trkpt lat="45.82903" lon="4.82879">
        <ele>403.25</ele>
        <time>2012-05-13T10:00:39Z</time>
      </trkpt>
      <trkpt lat="45.82919" lon="4.82871">
        <ele>403.75</ele>
        <time>2012-05-13T10:00:41Z</time>
      </trkpt>
      <trkpt lat="45.82931" lon="4.82864">
        <ele>404</ele>
        <time>2012-05-13T10:00:43Z</time>
      </trkpt>
      <trkpt lat="45.8294" lon="4.82858">
        <ele>404</ele>
        <time>2012-05-13T10:00:45Z</time>
      </trkpt>
      <trkpt lat="45.82936" lon="4.82881">
        <ele>402.75</ele>
        <time>2012-05-13T10:00:55Z</time>
      </trkpt>
      <trkpt lat="45.82934" lon="4.82905">
        <ele>403</ele>
        <time>2012-05-13T10:00:57Z</time>
      </trkpt>
      <trkpt lat="45.82931" lon="4.82923">
        <ele>403</ele>
        <time>2012-05-13T10:00:59Z</time>
      </trkpt>
      <trkpt lat="45.82929" lon="4.82935">
        <ele>402.75</ele>
        <time>2012-05-13T10:01:01Z</time>
      </trkpt>
      <trkpt lat="45.82926" lon="4.82954">
        <ele>402</ele>
        <time>2012-05-13T10:01:03Z</time>
      </trkpt>
      <trkpt lat="45.82925" lon="4.82975">
        <ele>401</ele>
        <time>2012-05-13T10:01:06Z</time>
      </trkpt>
      <trkpt lat="45.8293" lon="4.82989">
        <ele>398.5</ele>
        <time>2012-05-13T10:01:08Z</time>
      </trkpt>
      <trkpt lat="45.82938" lon="4.82998">
        <ele>394.25</ele>
        <time>2012-05-13T10:01:10Z</time>
      </trkpt>
      <trkpt lat="45.82946" lon="4.83004">
        <ele>390.25</ele>
        <time>2012-05-13T10:01:13Z</time>
      </trkpt>
      <trkpt lat="45.82956" lon="4.83008">
        <ele>387.5</ele>
        <time>2012-05-13T10:01:16Z</time>
      </trkpt>
      <trkpt lat="45.82965" lon="4.83012">
        <ele>385.75</ele>
        <time>2012-05-13T10:01:19Z</time>
      </trkpt>
      <trkpt lat="45.82975" lon="4.83019">
        <ele>384</ele>
        <time>2012-05-13T10:01:21Z</time>
      </trkpt>
      <trkpt lat="45.82987" lon="4.83027">
        <ele>382</ele>
        <time>2012-05-13T10:01:23Z</time>
      </trkpt>
      <trkpt lat="45.82996" lon="4.83032">
        <ele>380.75</ele>
        <time>2012-05-13T10:01:24Z</time>
      </trkpt>
      <trkpt lat="45.83009" lon="4.83038">
        <ele>378.75</ele>
        <time>2012-05-13T10:01:26Z</time>
      </trkpt>
      <trkpt lat="45.83022" lon="4.83041">
        <ele>376.25</ele>
        <time>2012-05-13T10:01:29Z</time>
      </trkpt>
      <trkpt lat="45.8303" lon="4.8305">
        <ele>375</ele>
        <time>2012-05-13T10:01:33Z</time>
      </trkpt>
      <trkpt lat="45.83027" lon="4.83065">
        <ele>375</ele>
        <time>2012-05-13T10:01:37Z</time>
      </trkpt>
      <trkpt lat="45.83037" lon="4.83076">
        <ele>373.75</ele>
        <time>2012-05-13T10:01:41Z</time>
      </trkpt>
      <trkpt lat="45.83048" lon="4.8308">
        <ele>372.5</ele>
        <time>2012-05-13T10:01:43Z</time>
      </trkpt>
      <trkpt lat="45.83063" lon="4.83084">
        <ele>371.25</ele>
        <time>2012-05-13T10:01:45Z</time>
      </trkpt>
      <trkpt lat="45.83078" lon="4.83087">
        <ele>370.25</ele>
        <time>2012-05-13T10:01:47Z</time>
      </trkpt>
      <trkpt lat="45.83093" lon="4.8309">
        <ele>369</ele>
        <time>2012-05-13T10:01:49Z</time>
      </trkpt>
      <trkpt lat="45.83108" lon="4.83093">
        <ele>368</ele>
        <time>2012-05-13T10:01:52Z</time>
      </trkpt>
      <trkpt lat="45.8312" lon="4.83091">
        <ele>367</ele>
        <time>2012-05-13T10:01:54Z</time>
      </trkpt>
      <trkpt lat="45.83126" lon="4.83082">
        <ele>366.25</ele>
        <time>2012-05-13T10:01:56Z</time>
      </trkpt>
      <trkpt lat="45.83129" lon="4.83066">
        <ele>365.75</ele>
        <time>2012-05-13T10:01:59Z</time>
      </trkpt>
      <trkpt lat="45.83133" lon="4.83042">
        <ele>365.25</ele>
        <time>2012-05-13T10:02:00Z</time>
      </trkpt>
      <trkpt lat="45.83135" lon="4.83024">
        <ele>365.25</ele>
        <time>2012-05-13T10:02:03Z</time>
      </trkpt>
      <trkpt lat="45.83137" lon="4.83002">
        <ele>365.75</ele>
        <time>2012-05-13T10:02:05Z</time>
      </trkpt>
      <trkpt lat="45.83141" lon="4.82984">
        <ele>365.75</ele>
        <time>2012-05-13T10:02:08Z</time>
      </trkpt>
      <trkpt lat="45.83151" lon="4.82969">
        <ele>365</ele>
        <time>2012-05-13T10:02:10Z</time>
      </trkpt>
      <trkpt lat="45.83161" lon="4.82953">
        <ele>364.25</ele>
        <time>2012-05-13T10:02:12Z</time>
      </trkpt>
      <trkpt lat="45.83166" lon="4.82943">
        <ele>363.75</ele>
        <time>2012-05-13T10:02:13Z</time>
      </trkpt>
      <trkpt lat="45.83176" lon="4.82925">
        <ele>363.5</ele>
        <time>2012-05-13T10:02:15Z</time>
      </trkpt>
      <trkpt lat="45.83183" lon="4.82906">
        <ele>363</ele>
        <time>2012-05-13T10:02:17Z</time>
      </trkpt>
      <trkpt lat="45.83189" lon="4.82891">
        <ele>362.25</ele>
        <time>2012-05-13T10:02:19Z</time>
      </trkpt>
      <trkpt lat="45.83195" lon="4.82875">
        <ele>361.5</ele>
        <time>2012-05-13T10:02:21Z</time>
      </trkpt>
      <trkpt lat="45.83201" lon="4.82857">
        <ele>360.75</ele>
        <time>2012-05-13T10:02:23Z</time>
      </trkpt>
      <trkpt lat="45.83205" lon="4.82839">
        <ele>360.25</ele>
        <time>2012-05-13T10:02:26Z</time>
      </trkpt>
      <trkpt lat="45.83206" lon="4.82824">
        <ele>359.75</ele>
        <time>2012-05-13T10:02:28Z</time>
      </trkpt>
      <trkpt lat="45.83212" lon="4.82812">
        <ele>358.75</ele>
        <time>2012-05-13T10:02:30Z</time>
      </trkpt>
      <trkpt lat="45.83222" lon="4.82806">
        <ele>357.5</ele>
        <time>2012-05-13T10:02:32Z</time>
      </trkpt>
      <trkpt lat="45.83233" lon="4.828">
        <ele>356.75</ele>
        <time>2012-05-13T10:02:34Z</time>
      </trkpt>
      <trkpt lat="45.83247" lon="4.82791">
        <ele>355.75</ele>
        <time>2012-05-13T10:02:36Z</time>
      </trkpt>
      <trkpt lat="45.83262" lon="4.82779">
        <ele>354.25</ele>
        <time>2012-05-13T10:02:39Z</time>
      </trkpt>
      <trkpt lat="45.83279" lon="4.82766">
        <ele>353</ele>
        <time>2012-05-13T10:02:41Z</time>
      </trkpt>
      <trkpt lat="45.83289" lon="4.82759">
        <ele>352</ele>
        <time>2012-05-13T10:02:42Z</time>
      </trkpt>
      <trkpt lat="45.833" lon="4.82752">
        <ele>351</ele>
        <time>2012-05-13T10:02:43Z</time>
      </trkpt>
      <trkpt lat="45.83311" lon="4.82746">
        <ele>349.5</ele>
        <time>2012-05-13T10:02:44Z</time>
      </trkpt>
      <trkpt lat="45.8332" lon="4.82742">
        <ele>347.75</ele>
        <time>2012-05-13T10:02:45Z</time>
      </trkpt>
      <trkpt lat="45.83336" lon="4.82734">
        <ele>344.5</ele>
        <time>2012-05-13T10:02:47Z</time>
      </trkpt>
      <trkpt lat="45.8335" lon="4.82726">
        <ele>341</ele>
        <time>2012-05-13T10:02:49Z</time>
      </trkpt>
      <trkpt lat="45.83362" lon="4.82717">
        <ele>337.75</ele>
        <time>2012-05-13T10:02:52Z</time>
      </trkpt>
      <trkpt lat="45.83377" lon="4.82706">
        <ele>334.75</ele>
        <time>2012-05-13T10:02:54Z</time>
      </trkpt>
      <trkpt lat="45.83387" lon="4.827">
        <ele>333.25</ele>
        <time>2012-05-13T10:02:55Z</time>
      </trkpt>
      <trkpt lat="45.83397" lon="4.82694">
        <ele>331.75</ele>
        <time>2012-05-13T10:02:56Z</time>
      </trkpt>
      <trkpt lat="45.83407" lon="4.82687">
        <ele>330.5</ele>
        <time>2012-05-13T10:02:57Z</time>
      </trkpt>
      <trkpt lat="45.83415" lon="4.82681">
        <ele>329.75</ele>
        <time>2012-05-13T10:02:58Z</time>
      </trkpt>
      <trkpt lat="45.83423" lon="4.82675">
        <ele>329</ele>
        <time>2012-05-13T10:02:59Z</time>
      </trkpt>
      <trkpt lat="45.83431" lon="4.82668">
        <ele>328.25</ele>
        <time>2012-05-13T10:03:00Z</time>
      </trkpt>
      <trkpt lat="45.83444" lon="4.82656">
        <ele>326.75</ele>
        <time>2012-05-13T10:03:02Z</time>
      </trkpt>
      <trkpt lat="45.83452" lon="4.82648">
        <ele>325.25</ele>
        <time>2012-05-13T10:03:04Z</time>
      </trkpt>
      <trkpt lat="45.83463" lon="4.82647">
        <ele>320.5</ele>
        <time>2012-05-13T10:03:08Z</time>
      </trkpt>
      <trkpt lat="45.83466" lon="4.82661">
        <ele>316.5</ele>
        <time>2012-05-13T10:03:11Z</time>
      </trkpt>
      <trkpt lat="45.83473" lon="4.8267">
        <ele>312</ele>
        <time>2012-05-13T10:03:13Z</time>
      </trkpt>
      <trkpt lat="45.83483" lon="4.82677">
        <ele>306.5</ele>
        <time>2012-05-13T10:03:16Z</time>
      </trkpt>
      <trkpt lat="45.8348" lon="4.8269">
        <ele>300.5</ele>
        <time>2012-05-13T10:03:26Z</time>
      </trkpt>
      <trkpt lat="45.83471" lon="4.82704">
        <ele>300</ele>
        <time>2012-05-13T10:03:29Z</time>
      </trkpt>
      <trkpt lat="45.83465" lon="4.82718">
        <ele>300</ele>
        <time>2012-05-13T10:03:31Z</time>
      </trkpt>
      <trkpt lat="45.8346" lon="4.82729">
        <ele>300</ele>
        <time>2012-05-13T10:03:33Z</time>
      </trkpt>
      <trkpt lat="45.83452" lon="4.82743">
        <ele>300</ele>
        <time>2012-05-13T10:03:36Z</time>
      </trkpt>
      <trkpt lat="45.83445" lon="4.82756">
        <ele>300</ele>
        <time>2012-05-13T10:03:40Z</time>
      </trkpt>
      <trkpt lat="45.83442" lon="4.82769">
        <ele>300.5</ele>
        <time>2012-05-13T10:03:42Z</time>
      </trkpt>
      <trkpt lat="45.83439" lon="4.82785">
        <ele>301.25</ele>
        <time>2012-05-13T10:03:45Z</time>
      </trkpt>
      <trkpt lat="45.83437" lon="4.82804">
        <ele>302.5</ele>
        <time>2012-05-13T10:03:48Z</time>
      </trkpt>
      <trkpt lat="45.83434" lon="4.82821">
        <ele>303</ele>
        <time>2012-05-13T10:03:51Z</time>
      </trkpt>
      <trkpt lat="45.83432" lon="4.82834">
        <ele>303</ele>
        <time>2012-05-13T10:03:54Z</time>
      </trkpt>
      <trkpt lat="45.83429" lon="4.82847">
        <ele>303</ele>
        <time>2012-05-13T10:03:56Z</time>
      </trkpt>
      <trkpt lat="45.83425" lon="4.82864">
        <ele>303</ele>
        <time>2012-05-13T10:03:58Z</time>
      </trkpt>
      <trkpt lat="45.8342" lon="4.82884">
        <ele>303</ele>
        <time>2012-05-13T10:04:00Z</time>
      </trkpt>
      <trkpt lat="45.83391" lon="4.8294">
        <ele>304.25</ele>
        <time>2012-05-13T10:04:33Z</time>
      </trkpt>
      <trkpt lat="45.83363" lon="4.82994">
        <ele>305.5</ele>
        <time>2012-05-13T10:04:34Z</time>
      </trkpt>
      <trkpt lat="45.83334" lon="4.83048">
        <ele>306.75</ele>
        <time>2012-05-13T10:04:35Z</time>
      </trkpt>
      <trkpt lat="45.83306" lon="4.83101">
        <ele>308</ele>
        <time>2012-05-13T10:04:36Z</time>
      </trkpt>
      <trkpt lat="45.83301" lon="4.83114">
        <ele>307.75</ele>
        <time>2012-05-13T10:04:38Z</time>
      </trkpt>
      <trkpt lat="45.83295" lon="4.83127">
        <ele>307.5</ele>
        <time>2012-05-13T10:04:40Z</time>
      </trkpt>
      <trkpt lat="45.83289" lon="4.83141">
        <ele>307.75</ele>
        <time>2012-05-13T10:04:42Z</time>
      </trkpt>
      <trkpt lat="45.83283" lon="4.83153">
        <ele>308</ele>
        <time>2012-05-13T10:04:45Z</time>
      </trkpt>
      <trkpt lat="45.83274" lon="4.83164">
        <ele>308.25</ele>
        <time>2012-05-13T10:04:47Z</time>
      </trkpt>
      <trkpt lat="45.83264" lon="4.83178">
        <ele>308.75</ele>
        <time>2012-05-13T10:04:49Z</time>
      </trkpt>
      <trkpt lat="45.83254" lon="4.8319">
        <ele>309</ele>
        <time>2012-05-13T10:04:51Z</time>
      </trkpt>
      <trkpt lat="45.83247" lon="4.83202">
        <ele>309</ele>
        <time>2012-05-13T10:04:53Z</time>
      </trkpt>
      <trkpt lat="45.83239" lon="4.83214">
        <ele>309</ele>
        <time>2012-05-13T10:04:55Z</time>
      </trkpt>
      <trkpt lat="45.83233" lon="4.83225">
        <ele>309</ele>
        <time>2012-05-13T10:04:58Z</time>
      </trkpt>
      <trkpt lat="45.83223" lon="4.83243">
        <ele>309</ele>
        <time>2012-05-13T10:05:00Z</time>
      </trkpt>
      <trkpt lat="45.83213" lon="4.8326">
        <ele>309.5</ele>
        <time>2012-05-13T10:05:04Z</time>
      </trkpt>
      <trkpt lat="45.83205" lon="4.83277">
        <ele>310</ele>
        <time>2012-05-13T10:05:07Z</time>
      </trkpt>
      <trkpt lat="45.83198" lon="4.83292">
        <ele>310.25</ele>
        <time>2012-05-13T10:05:09Z</time>
      </trkpt>
      <trkpt lat="45.83189" lon="4.83309">
        <ele>310.75</ele>
        <time>2012-05-13T10:05:11Z</time>
      </trkpt>
      <trkpt lat="45.83179" lon="4.83322">
        <ele>311</ele>
        <time>2012-05-13T10:05:13Z</time>
      </trkpt>
      <trkpt lat="45.83171" lon="4.83333">
        <ele>311.5</ele>
        <time>2012-05-13T10:05:15Z</time>
      </trkpt>
      <trkpt lat="45.83162" lon="4.83343">
        <ele>312</ele>
        <time>2012-05-13T10:05:17Z</time>
      </trkpt>
      <trkpt lat="45.83151" lon="4.83351">
        <ele>312</ele>
        <time>2012-05-13T10:05:20Z</time>
      </trkpt>
      <trkpt lat="45.83139" lon="4.83361">
        <ele>312</ele>
        <time>2012-05-13T10:05:22Z</time>
      </trkpt>
      <trkpt lat="45.83127" lon="4.83372">
        <ele>312</ele>
        <time>2012-05-13T10:05:24Z</time>
      </trkpt>
      <trkpt lat="45.83116" lon="4.83382">
        <ele>311.75</ele>
        <time>2012-05-13T10:05:26Z</time>
      </trkpt>
      <trkpt lat="45.83105" lon="4.8339">
        <ele>311.5</ele>
        <time>2012-05-13T10:05:28Z</time>
      </trkpt>
      <trkpt lat="45.83094" lon="4.83399">
        <ele>312</ele>
        <time>2012-05-13T10:05:30Z</time>
      </trkpt>
      <trkpt lat="45.83082" lon="4.83408">
        <ele>312.5</ele>
        <time>2012-05-13T10:05:32Z</time>
      </trkpt>
      <trkpt lat="45.83073" lon="4.83415">
        <ele>312.25</ele>
        <time>2012-05-13T10:05:35Z</time>
      </trkpt>
      <trkpt lat="45.8308" lon="4.83434">
        <ele>309.75</ele>
        <time>2012-05-13T10:05:38Z</time>
      </trkpt>
      <trkpt lat="45.83093" lon="4.8345">
        <ele>307.5</ele>
        <time>2012-05-13T10:05:40Z</time>
      </trkpt>
      <trkpt lat="45.83106" lon="4.83466">
        <ele>306.5</ele>
        <time>2012-05-13T10:05:42Z</time>
      </trkpt>
      <trkpt lat="45.83115" lon="4.83476">
        <ele>306.25</ele>
        <time>2012-05-13T10:05:43Z</time>
      </trkpt>
      <trkpt lat="45.83127" lon="4.83491">
        <ele>305.75</ele>
        <time>2012-05-13T10:05:45Z</time>
      </trkpt>
      <trkpt lat="45.83141" lon="4.83506">
        <ele>305.25</ele>
        <time>2012-05-13T10:05:47Z</time>
      </trkpt>
      <trkpt lat="45.83149" lon="4.83515">
        <ele>305</ele>
        <time>2012-05-13T10:05:49Z</time>
      </trkpt>
      <trkpt lat="45.83164" lon="4.83531">
        <ele>304.75</ele>
        <time>2012-05-13T10:05:51Z</time>
      </trkpt>
      <trkpt lat="45.83172" lon="4.83539">
        <ele>304.25</ele>
        <time>2012-05-13T10:05:52Z</time>
      </trkpt>
      <trkpt lat="45.83181" lon="4.83547">
        <ele>303.5</ele>
        <time>2012-05-13T10:05:53Z</time>
      </trkpt>
      <trkpt lat="45.83188" lon="4.83555">
        <ele>302.75</ele>
        <time>2012-05-13T10:05:54Z</time>
      </trkpt>
      <trkpt lat="45.83194" lon="4.83566">
        <ele>301.75</ele>
        <time>2012-05-13T10:05:56Z</time>
      </trkpt>
      <trkpt lat="45.8319" lon="4.83584">
        <ele>301.5</ele>
        <time>2012-05-13T10:05:59Z</time>
      </trkpt>
      <trkpt lat="45.83168" lon="4.83662">
        <ele>303.75</ele>
        <time>2012-05-13T10:06:32Z</time>
      </trkpt>
      <trkpt lat="45.83147" lon="4.83741">
        <ele>306.25</ele>
        <time>2012-05-13T10:06:33Z</time>
      </trkpt>
      <trkpt lat="45.83126" lon="4.83822">
        <ele>308.5</ele>
        <time>2012-05-13T10:06:34Z</time>
      </trkpt>
      <trkpt lat="45.83106" lon="4.83904">
        <ele>310.75</ele>
        <time>2012-05-13T10:06:35Z</time>
      </trkpt>
      <trkpt lat="45.83103" lon="4.83925">
        <ele>310.75</ele>
        <time>2012-05-13T10:06:37Z</time>
      </trkpt>
      <trkpt lat="45.83096" lon="4.83941">
        <ele>309.75</ele>
        <time>2012-05-13T10:06:39Z</time>
      </trkpt>
      <trkpt lat="45.83085" lon="4.83949">
        <ele>308.25</ele>
        <time>2012-05-13T10:06:41Z</time>
      </trkpt>
      <trkpt lat="45.83075" lon="4.83953">
        <ele>306.75</ele>
        <time>2012-05-13T10:06:43Z</time>
      </trkpt>
      <trkpt lat="45.83064" lon="4.83957">
        <ele>305</ele>
        <time>2012-05-13T10:06:47Z</time>
      </trkpt>
      <trkpt lat="45.83054" lon="4.83962">
        <ele>299.5</ele>
        <time>2012-05-13T10:07:14Z</time>
      </trkpt>
      <trkpt lat="45.83045" lon="4.83962">
        <ele>300</ele>
        <time>2012-05-13T10:07:21Z</time>
      </trkpt>
      <trkpt lat="45.83035" lon="4.83962">
        <ele>299.25</ele>
        <time>2012-05-13T10:07:25Z</time>
      </trkpt>
      <trkpt lat="45.83025" lon="4.83964">
        <ele>298.5</ele>
        <time>2012-05-13T10:07:28Z</time>
      </trkpt>
      <trkpt lat="45.83015" lon="4.83966">
        <ele>298</ele>
        <time>2012-05-13T10:07:31Z</time>
      </trkpt>
      <trkpt lat="45.83005" lon="4.83969">
        <ele>298</ele>
        <time>2012-05-13T10:07:35Z</time>
      </trkpt>
      <trkpt lat="45.82995" lon="4.83973">
        <ele>295.5</ele>
        <time>2012-05-13T10:07:56Z</time>
      </trkpt>
      <trkpt lat="45.82981" lon="4.83973">
        <ele>294.75</ele>
        <time>2012-05-13T10:07:59Z</time>
      </trkpt>
      <trkpt lat="45.82972" lon="4.83973">
        <ele>294.25</ele>
        <time>2012-05-13T10:08:00Z</time>
      </trkpt>
      <trkpt lat="45.82961" lon="4.83975">
        <ele>294</ele>
        <time>2012-05-13T10:08:04Z</time>
      </trkpt>
      <trkpt lat="45.82948" lon="4.83978">
        <ele>294</ele>
        <time>2012-05-13T10:08:06Z</time>
      </trkpt>
      <trkpt lat="45.82935" lon="4.83982">
        <ele>294</ele>
        <time>2012-05-13T10:08:08Z</time>
      </trkpt>
      <trkpt lat="45.82922" lon="4.83986">
        <ele>294</ele>
        <time>2012-05-13T10:08:10Z</time>
      </trkpt>
      <trkpt lat="45.8291" lon="4.83991">
        <ele>294</ele>
        <time>2012-05-13T10:08:12Z</time>
      </trkpt>
      <trkpt lat="45.82901" lon="4.83996">
        <ele>293.75</ele>
        <time>2012-05-13T10:08:14Z</time>
      </trkpt>
      <trkpt lat="45.82896" lon="4.84013">
        <ele>293</ele>
        <time>2012-05-13T10:08:17Z</time>
      </trkpt>
      <trkpt lat="45.82895" lon="4.84029">
        <ele>293</ele>
        <time>2012-05-13T10:08:19Z</time>
      </trkpt>
      <trkpt lat="45.8289" lon="4.84042">
        <ele>293</ele>
        <time>2012-05-13T10:08:21Z</time>
      </trkpt>
      <trkpt lat="45.82881" lon="4.84046">
        <ele>293.5</ele>
        <time>2012-05-13T10:08:24Z</time>
      </trkpt>
      <trkpt lat="45.82868" lon="4.84044">
        <ele>293.75</ele>
        <time>2012-05-13T10:08:26Z</time>
      </trkpt>
      <trkpt lat="45.82854" lon="4.84041">
        <ele>293.25</ele>
        <time>2012-05-13T10:08:28Z</time>
      </trkpt>
      <trkpt lat="45.82844" lon="4.84039">
        <ele>293</ele>
        <time>2012-05-13T10:08:30Z</time>
      </trkpt>
      <trkpt lat="45.82835" lon="4.84036">
        <ele>293</ele>
        <time>2012-05-13T10:08:32Z</time>
      </trkpt>
      <trkpt lat="45.82821" lon="4.84033">
        <ele>293.5</ele>
        <time>2012-05-13T10:08:34Z</time>
      </trkpt>
      <trkpt lat="45.82807" lon="4.84031">
        <ele>294</ele>
        <time>2012-05-13T10:08:36Z</time>
      </trkpt>
      <trkpt lat="45.82794" lon="4.8403">
        <ele>294.5</ele>
        <time>2012-05-13T10:08:38Z</time>
      </trkpt>
      <trkpt lat="45.82781" lon="4.84028">
        <ele>295</ele>
        <time>2012-05-13T10:08:40Z</time>
      </trkpt>
      <trkpt lat="45.82768" lon="4.84026">
        <ele>295</ele>
        <time>2012-05-13T10:08:42Z</time>
      </trkpt>
      <trkpt lat="45.82751" lon="4.84025">
        <ele>294.5</ele>
        <time>2012-05-13T10:08:45Z</time>
      </trkpt>
      <trkpt lat="45.82731" lon="4.84023">
        <ele>293.25</ele>
        <time>2012-05-13T10:08:47Z</time>
      </trkpt>
      <trkpt lat="45.82719" lon="4.84022">
        <ele>292.5</ele>
        <time>2012-05-13T10:08:48Z</time>
      </trkpt>
      <trkpt lat="45.82708" lon="4.84021">
        <ele>291.75</ele>
        <time>2012-05-13T10:08:49Z</time>
      </trkpt>
      <trkpt lat="45.82697" lon="4.84019">
        <ele>291</ele>
        <time>2012-05-13T10:08:50Z</time>
      </trkpt>
      <trkpt lat="45.82683" lon="4.84017">
        <ele>289.75</ele>
        <time>2012-05-13T10:08:52Z</time>
      </trkpt>
      <trkpt lat="45.82669" lon="4.84014">
        <ele>288.75</ele>
        <time>2012-05-13T10:08:54Z</time>
      </trkpt>
      <trkpt lat="45.82657" lon="4.8401">
        <ele>288.25</ele>
        <time>2012-05-13T10:08:56Z</time>
      </trkpt>
      <trkpt lat="45.82647" lon="4.84002">
        <ele>288.25</ele>
        <time>2012-05-13T10:08:58Z</time>
      </trkpt>
      <trkpt lat="45.82639" lon="4.83992">
        <ele>289.25</ele>
        <time>2012-05-13T10:09:01Z</time>
      </trkpt>
      <trkpt lat="45.82626" lon="4.83983">
        <ele>291.75</ele>
        <time>2012-05-13T10:09:04Z</time>
      </trkpt>
      <trkpt lat="45.82617" lon="4.83981">
        <ele>293.25</ele>
        <time>2012-05-13T10:09:05Z</time>
      </trkpt>
      <trkpt lat="45.82606" lon="4.8398">
        <ele>294.5</ele>
        <time>2012-05-13T10:09:06Z</time>
      </trkpt>
      <trkpt lat="45.82589" lon="4.83981">
        <ele>296.25</ele>
        <time>2012-05-13T10:09:08Z</time>
      </trkpt>
      <trkpt lat="45.82575" lon="4.83982">
        <ele>297.5</ele>
        <time>2012-05-13T10:09:11Z</time>
      </trkpt>
      <trkpt lat="45.82566" lon="4.83982">
        <ele>298</ele>
        <time>2012-05-13T10:09:13Z</time>
      </trkpt>
      <trkpt lat="45.82551" lon="4.83982">
        <ele>298.25</ele>
        <time>2012-05-13T10:09:15Z</time>
      </trkpt>
      <trkpt lat="45.8254" lon="4.83982">
        <ele>298.5</ele>
        <time>2012-05-13T10:09:16Z</time>
      </trkpt>
      <trkpt lat="45.82525" lon="4.83985">
        <ele>299</ele>
        <time>2012-05-13T10:09:18Z</time>
      </trkpt>
      <trkpt lat="45.82512" lon="4.83986">
        <ele>299</ele>
        <time>2012-05-13T10:09:20Z</time>
      </trkpt>
      <trkpt lat="45.82499" lon="4.83987">
        <ele>298.75</ele>
        <time>2012-05-13T10:09:22Z</time>
      </trkpt>
      <trkpt lat="45.82487" lon="4.83987">
        <ele>298.25</ele>
        <time>2012-05-13T10:09:24Z</time>
      </trkpt>
      <trkpt lat="45.82477" lon="4.83988">
        <ele>298.5</ele>
        <time>2012-05-13T10:09:27Z</time>
      </trkpt>
      <trkpt lat="45.82465" lon="4.83987">
        <ele>299.25</ele>
        <time>2012-05-13T10:09:29Z</time>
      </trkpt>
      <trkpt lat="45.82452" lon="4.83984">
        <ele>299.75</ele>
        <time>2012-05-13T10:09:31Z</time>
      </trkpt>
      <trkpt lat="45.82439" lon="4.83981">
        <ele>300</ele>
        <time>2012-05-13T10:09:33Z</time>
      </trkpt>
      <trkpt lat="45.82427" lon="4.83978">
        <ele>300.25</ele>
        <time>2012-05-13T10:09:35Z</time>
      </trkpt>
      <trkpt lat="45.82414" lon="4.83975">
        <ele>301.5</ele>
        <time>2012-05-13T10:09:37Z</time>
      </trkpt>
      <trkpt lat="45.82404" lon="4.83972">
        <ele>304.25</ele>
        <time>2012-05-13T10:09:39Z</time>
      </trkpt>
      <trkpt lat="45.82391" lon="4.8397">
        <ele>310</ele>
        <time>2012-05-13T10:09:43Z</time>
      </trkpt>
      <trkpt lat="45.82378" lon="4.83974">
        <ele>314.25</ele>
        <time>2012-05-13T10:09:45Z</time>
      </trkpt>
      <trkpt lat="45.82366" lon="4.8398">
        <ele>319.5</ele>
        <time>2012-05-13T10:09:47Z</time>
      </trkpt>
      <trkpt lat="45.82357" lon="4.83991">
        <ele>319.25</ele>
        <time>2012-05-13T10:09:49Z</time>
      </trkpt>
      <trkpt lat="45.82351" lon="4.84007">
        <ele>313.75</ele>
        <time>2012-05-13T10:09:51Z</time>
      </trkpt>
      <trkpt lat="45.8235" lon="4.84025">
        <ele>311</ele>
        <time>2012-05-13T10:09:53Z</time>
      </trkpt>
      <trkpt lat="45.8235" lon="4.84042">
        <ele>310.75</ele>
        <time>2012-05-13T10:09:56Z</time>
      </trkpt>
      <trkpt lat="45.82349" lon="4.8406">
        <ele>311.5</ele>
        <time>2012-05-13T10:09:58Z</time>
      </trkpt>
      <trkpt lat="45.82348" lon="4.84079">
        <ele>312.25</ele>
        <time>2012-05-13T10:10:00Z</time>
      </trkpt>
      <trkpt lat="45.82365" lon="4.84151">
        <ele>308</ele>
        <time>2012-05-13T10:10:33Z</time>
      </trkpt>
      <trkpt lat="45.82383" lon="4.84219">
        <ele>302.5</ele>
        <time>2012-05-13T10:10:34Z</time>
      </trkpt>
      <trkpt lat="45.82402" lon="4.84288">
        <ele>295.75</ele>
        <time>2012-05-13T10:10:35Z</time>
      </trkpt>
      <trkpt lat="45.8242" lon="4.84351">
        <ele>289</ele>
        <time>2012-05-13T10:10:36Z</time>
      </trkpt>
      <trkpt lat="45.82433" lon="4.84347">
        <ele>280.25</ele>
        <time>2012-05-13T10:10:44Z</time>
      </trkpt>
      <trkpt lat="45.82446" lon="4.84345">
        <ele>280</ele>
        <time>2012-05-13T10:10:47Z</time>
      </trkpt>
      <trkpt lat="45.82461" lon="4.8435">
        <ele>279.25</ele>
        <time>2012-05-13T10:10:49Z</time>
      </trkpt>
      <trkpt lat="45.82478" lon="4.84366">
        <ele>277.75</ele>
        <time>2012-05-13T10:10:51Z</time>
      </trkpt>
      <trkpt lat="45.82489" lon="4.84376">
        <ele>276.75</ele>
        <time>2012-05-13T10:10:52Z</time>
      </trkpt>
      <trkpt lat="45.82498" lon="4.84385">
        <ele>275.75</ele>
        <time>2012-05-13T10:10:53Z</time>
      </trkpt>
      <trkpt lat="45.82509" lon="4.84395">
        <ele>274.25</ele>
        <time>2012-05-13T10:10:54Z</time>
      </trkpt>
      <trkpt lat="45.82518" lon="4.84402">
        <ele>273</ele>
        <time>2012-05-13T10:10:55Z</time>
      </trkpt>
      <trkpt lat="45.82526" lon="4.84408">
        <ele>271.5</ele>
        <time>2012-05-13T10:10:56Z</time>
      </trkpt>
      <trkpt lat="45.82535" lon="4.84415">
        <ele>270</ele>
        <time>2012-05-13T10:10:57Z</time>
      </trkpt>
      <trkpt lat="45.82544" lon="4.84422">
        <ele>268.75</ele>
        <time>2012-05-13T10:10:58Z</time>
      </trkpt>
      <trkpt lat="45.82559" lon="4.84432">
        <ele>265.75</ele>
        <time>2012-05-13T10:11:01Z</time>
      </trkpt>
      <trkpt lat="45.82571" lon="4.84443">
        <ele>260.75</ele>
        <time>2012-05-13T10:11:04Z</time>
      </trkpt>
      <trkpt lat="45.82581" lon="4.84457">
        <ele>256.5</ele>
        <time>2012-05-13T10:11:07Z</time>
      </trkpt>
      <trkpt lat="45.82588" lon="4.84472">
        <ele>254.5</ele>
        <time>2012-05-13T10:11:09Z</time>
      </trkpt>
      <trkpt lat="45.82593" lon="4.84484">
        <ele>252.25</ele>
        <time>2012-05-13T10:11:13Z</time>
      </trkpt>
      <trkpt lat="45.82597" lon="4.84495">
        <ele>251.5</ele>
        <time>2012-05-13T10:11:16Z</time>
      </trkpt>
      <trkpt lat="45.82604" lon="4.84509">
        <ele>249.75</ele>
        <time>2012-05-13T10:11:18Z</time>
      </trkpt>
      <trkpt lat="45.82611" lon="4.84526">
        <ele>247</ele>
        <time>2012-05-13T10:11:21Z</time>
      </trkpt>
      <trkpt lat="45.82615" lon="4.84549">
        <ele>245</ele>
        <time>2012-05-13T10:11:23Z</time>
      </trkpt>
      <trkpt lat="45.82618" lon="4.84572">
        <ele>244</ele>
        <time>2012-05-13T10:11:25Z</time>
      </trkpt>
      <trkpt lat="45.8262" lon="4.84587">
        <ele>242.5</ele>
        <time>2012-05-13T10:11:28Z</time>
      </trkpt>
      <trkpt lat="45.82629" lon="4.84595">
        <ele>241.25</ele>
        <time>2012-05-13T10:11:31Z</time>
      </trkpt>
      <trkpt lat="45.82641" lon="4.846">
        <ele>240.25</ele>
        <time>2012-05-13T10:11:33Z</time>
      </trkpt>
      <trkpt lat="45.82652" lon="4.84605">
        <ele>240</ele>
        <time>2012-05-13T10:11:36Z</time>
      </trkpt>
      <trkpt lat="45.82665" lon="4.84611">
        <ele>239.5</ele>
        <time>2012-05-13T10:11:38Z</time>
      </trkpt>
      <trkpt lat="45.82682" lon="4.84618">
        <ele>238.5</ele>
        <time>2012-05-13T10:11:40Z</time>
      </trkpt>
      <trkpt lat="45.82692" lon="4.84621">
        <ele>237.75</ele>
        <time>2012-05-13T10:11:41Z</time>
      </trkpt>
      <trkpt lat="45.82707" lon="4.84625">
        <ele>237</ele>
        <time>2012-05-13T10:11:43Z</time>
      </trkpt>
      <trkpt lat="45.82723" lon="4.84628">
        <ele>235.75</ele>
        <time>2012-05-13T10:11:45Z</time>
      </trkpt>
      <trkpt lat="45.82739" lon="4.84629">
        <ele>234.5</ele>
        <time>2012-05-13T10:11:47Z</time>
      </trkpt>
      <trkpt lat="45.82755" lon="4.84627">
        <ele>233.75</ele>
        <time>2012-05-13T10:11:50Z</time>
      </trkpt>
      <trkpt lat="45.82771" lon="4.84623">
        <ele>233.75</ele>
        <time>2012-05-13T10:11:52Z</time>
      </trkpt>
      <trkpt lat="45.82786" lon="4.84618">
        <ele>234.5</ele>
        <time>2012-05-13T10:11:54Z</time>
      </trkpt>
      <trkpt lat="45.82798" lon="4.84612">
        <ele>235.5</ele>
        <time>2012-05-13T10:11:56Z</time>
      </trkpt>
      <trkpt lat="45.82809" lon="4.84606">
        <ele>236.5</ele>
        <time>2012-05-13T10:11:58Z</time>
      </trkpt>
      <trkpt lat="45.8282" lon="4.84602">
        <ele>237</ele>
        <time>2012-05-13T10:12:01Z</time>
      </trkpt>
      <trkpt lat="45.82836" lon="4.84595">
        <ele>236.5</ele>
        <time>2012-05-13T10:12:04Z</time>
      </trkpt>
      <trkpt lat="45.82854" lon="4.84588">
        <ele>235.75</ele>
        <time>2012-05-13T10:12:06Z</time>
      </trkpt>
      <trkpt lat="45.82867" lon="4.84583">
        <ele>235.25</ele>
        <time>2012-05-13T10:12:08Z</time>
      </trkpt>
      <trkpt lat="45.8288" lon="4.8458">
        <ele>234.75</ele>
        <time>2012-05-13T10:12:10Z</time>
      </trkpt>
      <trkpt lat="45.82892" lon="4.84577">
        <ele>234.25</ele>
        <time>2012-05-13T10:12:12Z</time>
      </trkpt>
      <trkpt lat="45.82903" lon="4.84574">
        <ele>234</ele>
        <time>2012-05-13T10:12:15Z</time>
      </trkpt>
      <trkpt lat="45.82914" lon="4.84572">
        <ele>234</ele>
        <time>2012-05-13T10:12:17Z</time>
      </trkpt>
      <trkpt lat="45.82926" lon="4.84569">
        <ele>234</ele>
        <time>2012-05-13T10:12:19Z</time>
      </trkpt>
      <trkpt lat="45.82937" lon="4.84566">
        <ele>234</ele>
        <time>2012-05-13T10:12:21Z</time>
      </trkpt>
      <trkpt lat="45.82949" lon="4.84562">
        <ele>234.25</ele>
        <time>2012-05-13T10:12:23Z</time>
      </trkpt>
      <trkpt lat="45.82961" lon="4.84557">
        <ele>234.75</ele>
        <time>2012-05-13T10:12:25Z</time>
      </trkpt>
      <trkpt lat="45.82969" lon="4.84549">
        <ele>235.5</ele>
        <time>2012-05-13T10:12:27Z</time>
      </trkpt>
      <trkpt lat="45.82977" lon="4.8454">
        <ele>236</ele>
        <time>2012-05-13T10:12:29Z</time>
      </trkpt>
      <trkpt lat="45.82985" lon="4.84531">
        <ele>236.5</ele>
        <time>2012-05-13T10:12:32Z</time>
      </trkpt>
      <trkpt lat="45.82993" lon="4.84522">
        <ele>237.25</ele>
        <time>2012-05-13T10:12:34Z</time>
      </trkpt>
      <trkpt lat="45.83002" lon="4.84511">
        <ele>237.75</ele>
        <time>2012-05-13T10:12:36Z</time>
      </trkpt>
      <trkpt lat="45.8301" lon="4.845">
        <ele>238</ele>
        <time>2012-05-13T10:12:38Z</time>
      </trkpt>
      <trkpt lat="45.83017" lon="4.84489">
        <ele>238.25</ele>
        <time>2012-05-13T10:12:40Z</time>
      </trkpt>
      <trkpt lat="45.83024" lon="4.84478">
        <ele>238.75</ele>
        <time>2012-05-13T10:12:42Z</time>
      </trkpt>
      <trkpt lat="45.83031" lon="4.84468">
        <ele>239</ele>
        <time>2012-05-13T10:12:44Z</time>
      </trkpt>
      <trkpt lat="45.83038" lon="4.84458">
        <ele>239</ele>
        <time>2012-05-13T10:12:46Z</time>
      </trkpt>
      <trkpt lat="45.83048" lon="4.84443">
        <ele>239.75</ele>
        <time>2012-05-13T10:12:50Z</time>
      </trkpt>
      <trkpt lat="45.83055" lon="4.84432">
        <ele>240.25</ele>
        <time>2012-05-13T10:12:52Z</time>
      </trkpt>
      <trkpt lat="45.83062" lon="4.84422">
        <ele>240.75</ele>
        <time>2012-05-13T10:12:54Z</time>
      </trkpt>
      <trkpt lat="45.83071" lon="4.84411">
        <ele>241.5</ele>
        <time>2012-05-13T10:12:57Z</time>
      </trkpt>
      <trkpt lat="45.83061" lon="4.84447">
        <ele>240</ele>
        <time>2012-05-13T10:13:32Z</time>
      </trkpt>
      <trkpt lat="45.83042" lon="4.84485">
        <ele>238.5</ele>
        <time>2012-05-13T10:13:33Z</time>
      </trkpt>
      <trkpt lat="45.83022" lon="4.84523">
        <ele>237.25</ele>
        <time>2012-05-13T10:13:34Z</time>
      </trkpt>
      <trkpt lat="45.83" lon="4.84561">
        <ele>236</ele>
        <time>2012-05-13T10:13:35Z</time>
      </trkpt>
      <trkpt lat="45.82992" lon="4.84569">
        <ele>236</ele>
        <time>2012-05-13T10:13:37Z</time>
      </trkpt>
      <trkpt lat="45.82984" lon="4.84578">
        <ele>236</ele>
        <time>2012-05-13T10:13:39Z</time>
      </trkpt>
      <trkpt lat="45.82977" lon="4.84588">
        <ele>237</ele>
        <time>2012-05-13T10:13:41Z</time>
      </trkpt>
      <trkpt lat="45.82974" lon="4.84603">
        <ele>240.25</ele>
        <time>2012-05-13T10:13:45Z</time>
      </trkpt>
      <trkpt lat="45.8298" lon="4.84615">
        <ele>241</ele>
        <time>2012-05-13T10:13:47Z</time>
      </trkpt>
      <trkpt lat="45.82989" lon="4.84628">
        <ele>239.75</ele>
        <time>2012-05-13T10:13:49Z</time>
      </trkpt>
      <trkpt lat="45.83" lon="4.84642">
        <ele>237</ele>
        <time>2012-05-13T10:13:51Z</time>
      </trkpt>
      <trkpt lat="45.83011" lon="4.84655">
        <ele>234</ele>
        <time>2012-05-13T10:13:53Z</time>
      </trkpt>
      <trkpt lat="45.83023" lon="4.84667">
        <ele>231.5</ele>
        <time>2012-05-13T10:13:55Z</time>
      </trkpt>
      <trkpt lat="45.83033" lon="4.84678">
        <ele>229.75</ele>
        <time>2012-05-13T10:13:57Z</time>
      </trkpt>
      <trkpt lat="45.83041" lon="4.84686">
        <ele>229</ele>
        <time>2012-05-13T10:13:59Z</time>
      </trkpt>
      <trkpt lat="45.8305" lon="4.84696">
        <ele>228.5</ele>
        <time>2012-05-13T10:14:03Z</time>
      </trkpt>
      <trkpt lat="45.83064" lon="4.84714">
        <ele>227.5</ele>
        <time>2012-05-13T10:14:06Z</time>
      </trkpt>
      <trkpt lat="45.83071" lon="4.84726">
        <ele>226.75</ele>
        <time>2012-05-13T10:14:07Z</time>
      </trkpt>
      <trkpt lat="45.83079" lon="4.84738">
        <ele>226</ele>
        <time>2012-05-13T10:14:09Z</time>
      </trkpt>
      <trkpt lat="45.8309" lon="4.84747">
        <ele>225</ele>
        <time>2012-05-13T10:14:11Z</time>
      </trkpt>
      <trkpt lat="45.83104" lon="4.84751">
        <ele>224.25</ele>
        <time>2012-05-13T10:14:13Z</time>
      </trkpt>
      <trkpt lat="45.83117" lon="4.84758">
        <ele>224</ele>
        <time>2012-05-13T10:14:15Z</time>
      </trkpt>
      <trkpt lat="45.83127" lon="4.84767">
        <ele>224</ele>
        <time>2012-05-13T10:14:17Z</time>
      </trkpt>
      <trkpt lat="45.83136" lon="4.84777">
        <ele>224</ele>
        <time>2012-05-13T10:14:20Z</time>
      </trkpt>
      <trkpt lat="45.83147" lon="4.84787">
        <ele>224</ele>
        <time>2012-05-13T10:14:22Z</time>
      </trkpt>
      <trkpt lat="45.83159" lon="4.84798">
        <ele>224</ele>
        <time>2012-05-13T10:14:24Z</time>
      </trkpt>
      <trkpt lat="45.83169" lon="4.84808">
        <ele>224</ele>
        <time>2012-05-13T10:14:26Z</time>
      </trkpt>
      <trkpt lat="45.83181" lon="4.8482">
        <ele>223.75</ele>
        <time>2012-05-13T10:14:31Z</time>
      </trkpt>
      <trkpt lat="45.83196" lon="4.84835">
        <ele>223.25</ele>
        <time>2012-05-13T10:14:33Z</time>
      </trkpt>
      <trkpt lat="45.83205" lon="4.84844">
        <ele>223</ele>
        <time>2012-05-13T10:14:34Z</time>
      </trkpt>
      <trkpt lat="45.83218" lon="4.84857">
        <ele>222.75</ele>
        <time>2012-05-13T10:14:36Z</time>
      </trkpt>
      <trkpt lat="45.83226" lon="4.84868">
        <ele>222.25</ele>
        <time>2012-05-13T10:14:38Z</time>
      </trkpt>
      <trkpt lat="45.83227" lon="4.84881">
        <ele>222</ele>
        <time>2012-05-13T10:14:40Z</time>
      </trkpt>
      <trkpt lat="45.83223" lon="4.84894">
        <ele>222</ele>
        <time>2012-05-13T10:14:42Z</time>
      </trkpt>
      <trkpt lat="45.83217" lon="4.84908">
        <ele>222.25</ele>
        <time>2012-05-13T10:14:44Z</time>
      </trkpt>
      <trkpt lat="45.8321" lon="4.84922">
        <ele>222.5</ele>
        <time>2012-05-13T10:14:46Z</time>
      </trkpt>
      <trkpt lat="45.83203" lon="4.84936">
        <ele>222.25</ele>
        <time>2012-05-13T10:14:49Z</time>
      </trkpt>
      <trkpt lat="45.83195" lon="4.84949">
        <ele>222.25</ele>
        <time>2012-05-13T10:14:51Z</time>
      </trkpt>
      <trkpt lat="45.83199" lon="4.84933">
        <ele>224.5</ele>
        <time>2012-05-13T10:14:59Z</time>
      </trkpt>
      <trkpt lat="45.83204" lon="4.8492">
        <ele>224</ele>
        <time>2012-05-13T10:15:01Z</time>
      </trkpt>
      <trkpt lat="45.83211" lon="4.84903">
        <ele>223.5</ele>
        <time>2012-05-13T10:15:04Z</time>
      </trkpt>
      <trkpt lat="45.83218" lon="4.84885">
        <ele>223</ele>
        <time>2012-05-13T10:15:06Z</time>
      </trkpt>
      <trkpt lat="45.83223" lon="4.84867">
        <ele>223</ele>
        <time>2012-05-13T10:15:08Z</time>
      </trkpt>
      <trkpt lat="45.83229" lon="4.8485">
        <ele>223</ele>
        <time>2012-05-13T10:15:10Z</time>
      </trkpt>
      <trkpt lat="45.83235" lon="4.84837">
        <ele>223.25</ele>
        <time>2012-05-13T10:15:12Z</time>
      </trkpt>
      <trkpt lat="45.83242" lon="4.84821">
        <ele>223.5</ele>
        <time>2012-05-13T10:15:15Z</time>
      </trkpt>
      <trkpt lat="45.83248" lon="4.84804">
        <ele>224.25</ele>
        <time>2012-05-13T10:15:18Z</time>
      </trkpt>
      <trkpt lat="45.83257" lon="4.84785">
        <ele>225</ele>
        <time>2012-05-13T10:15:21Z</time>
      </trkpt>
      <trkpt lat="45.83264" lon="4.84769">
        <ele>225</ele>
        <time>2012-05-13T10:15:23Z</time>
      </trkpt>
      <trkpt lat="45.83269" lon="4.84757">
        <ele>225</ele>
        <time>2012-05-13T10:15:24Z</time>
      </trkpt>
      <trkpt lat="45.83275" lon="4.84739">
        <ele>225</ele>
        <time>2012-05-13T10:15:26Z</time>
      </trkpt>
      <trkpt lat="45.83279" lon="4.84722">
        <ele>225</ele>
        <time>2012-05-13T10:15:29Z</time>
      </trkpt>
      <trkpt lat="45.83285" lon="4.84701">
        <ele>225</ele>
        <time>2012-05-13T10:15:31Z</time>
      </trkpt>
      <trkpt lat="45.83291" lon="4.84682">
        <ele>225</ele>
        <time>2012-05-13T10:15:33Z</time>
      </trkpt>
      <trkpt lat="45.83296" lon="4.84665">
        <ele>224.75</ele>
        <time>2012-05-13T10:15:35Z</time>
      </trkpt>
      <trkpt lat="45.83301" lon="4.84647">
        <ele>224.25</ele>
        <time>2012-05-13T10:15:37Z</time>
      </trkpt>
      <trkpt lat="45.83307" lon="4.8463">
        <ele>224</ele>
        <time>2012-05-13T10:15:39Z</time>
      </trkpt>
      <trkpt lat="45.83312" lon="4.84615">
        <ele>224</ele>
        <time>2012-05-13T10:15:41Z</time>
      </trkpt>
      <trkpt lat="45.83317" lon="4.84601">
        <ele>224</ele>
        <time>2012-05-13T10:15:43Z</time>
      </trkpt>
      <trkpt lat="45.83321" lon="4.84586">
        <ele>224</ele>
        <time>2012-05-13T10:15:46Z</time>
      </trkpt>
      <trkpt lat="45.83325" lon="4.8457">
        <ele>224.25</ele>
        <time>2012-05-13T10:15:48Z</time>
      </trkpt>
      <trkpt lat="45.8333" lon="4.84554">
        <ele>224.75</ele>
        <time>2012-05-13T10:15:50Z</time>
      </trkpt>
      <trkpt lat="45.83334" lon="4.84537">
        <ele>225</ele>
        <time>2012-05-13T10:15:52Z</time>
      </trkpt>
      <trkpt lat="45.83339" lon="4.84519">
        <ele>225</ele>
        <time>2012-05-13T10:15:54Z</time>
      </trkpt>
      <trkpt lat="45.83343" lon="4.84503">
        <ele>225</ele>
        <time>2012-05-13T10:15:56Z</time>
      </trkpt>
      <trkpt lat="45.83347" lon="4.84488">
        <ele>225</ele>
        <time>2012-05-13T10:15:59Z</time>
      </trkpt>
      <trkpt lat="45.83367" lon="4.84413">
        <ele>224.25</ele>
        <time>2012-05-13T10:16:32Z</time>
      </trkpt>
      <trkpt lat="45.83386" lon="4.84343">
        <ele>223.5</ele>
        <time>2012-05-13T10:16:33Z</time>
      </trkpt>
      <trkpt lat="45.83405" lon="4.8427">
        <ele>222.5</ele>
        <time>2012-05-13T10:16:35Z</time>
      </trkpt>
      <trkpt lat="45.83425" lon="4.84195">
        <ele>221.75</ele>
        <time>2012-05-13T10:16:36Z</time>
      </trkpt>
      <trkpt lat="45.83428" lon="4.84176">
        <ele>221.25</ele>
        <time>2012-05-13T10:16:38Z</time>
      </trkpt>
      <trkpt lat="45.83432" lon="4.84157">
        <ele>221</ele>
        <time>2012-05-13T10:16:40Z</time>
      </trkpt>
      <trkpt lat="45.83436" lon="4.84137">
        <ele>220.75</ele>
        <time>2012-05-13T10:16:42Z</time>
      </trkpt>
      <trkpt lat="45.83439" lon="4.84125">
        <ele>220.5</ele>
        <time>2012-05-13T10:16:43Z</time>
      </trkpt>
      <trkpt lat="45.83448" lon="4.8411">
        <ele>220.5</ele>
        <time>2012-05-13T10:16:45Z</time>
      </trkpt>
      <trkpt lat="45.83459" lon="4.84108">
        <ele>221</ele>
        <time>2012-05-13T10:16:47Z</time>
      </trkpt>
      <trkpt lat="45.83468" lon="4.84113">
        <ele>221</ele>
        <time>2012-05-13T10:16:49Z</time>
      </trkpt>
      <trkpt lat="45.83476" lon="4.84121">
        <ele>220.75</ele>
        <time>2012-05-13T10:16:51Z</time>
      </trkpt>
      <trkpt lat="45.83487" lon="4.84127">
        <ele>220.75</ele>
        <time>2012-05-13T10:16:55Z</time>
      </trkpt>
      <trkpt lat="45.83497" lon="4.8412">
        <ele>222</ele>
        <time>2012-05-13T10:16:58Z</time>
      </trkpt>
      <trkpt lat="45.83505" lon="4.84111">
        <ele>223.25</ele>
        <time>2012-05-13T10:17:00Z</time>
      </trkpt>
      <trkpt lat="45.83515" lon="4.841">
        <ele>224.5</ele>
        <time>2012-05-13T10:17:03Z</time>
      </trkpt>
      <trkpt lat="45.83526" lon="4.84086">
        <ele>225.25</ele>
        <time>2012-05-13T10:17:05Z</time>
      </trkpt>
      <trkpt lat="45.83535" lon="4.84073">
        <ele>225.75</ele>
        <time>2012-05-13T10:17:08Z</time>
      </trkpt>
      <trkpt lat="45.83543" lon="4.84059">
        <ele>226</ele>
        <time>2012-05-13T10:17:10Z</time>
      </trkpt>
      <trkpt lat="45.83551" lon="4.84043">
        <ele>226</ele>
        <time>2012-05-13T10:17:12Z</time>
      </trkpt>
      <trkpt lat="45.83558" lon="4.84026">
        <ele>225.5</ele>
        <time>2012-05-13T10:17:14Z</time>
      </trkpt>
      <trkpt lat="45.83564" lon="4.84012">
        <ele>225</ele>
        <time>2012-05-13T10:17:16Z</time>
      </trkpt>
      <trkpt lat="45.8357" lon="4.83998">
        <ele>225</ele>
        <time>2012-05-13T10:17:18Z</time>
      </trkpt>
      <trkpt lat="45.83577" lon="4.8398">
        <ele>225</ele>
        <time>2012-05-13T10:17:21Z</time>
      </trkpt>
      <trkpt lat="45.83583" lon="4.83962">
        <ele>224.75</ele>
        <time>2012-05-13T10:17:23Z</time>
      </trkpt>
      <trkpt lat="45.83588" lon="4.83945">
        <ele>224.25</ele>
        <time>2012-05-13T10:17:25Z</time>
      </trkpt>
      <trkpt lat="45.83594" lon="4.83925">
        <ele>223.75</ele>
        <time>2012-05-13T10:17:27Z</time>
      </trkpt>
      <trkpt lat="45.83599" lon="4.83906">
        <ele>223.25</ele>
        <time>2012-05-13T10:17:29Z</time>
      </trkpt>
      <trkpt lat="45.83604" lon="4.8389">
        <ele>223</ele>
        <time>2012-05-13T10:17:31Z</time>
      </trkpt>
      <trkpt lat="45.83608" lon="4.83877">
        <ele>223.5</ele>
        <time>2012-05-13T10:17:33Z</time>
      </trkpt>
      <trkpt lat="45.83613" lon="4.83863">
        <ele>225</ele>
        <time>2012-05-13T10:17:37Z</time>
      </trkpt>
      <trkpt lat="45.83617" lon="4.83849">
        <ele>226</ele>
        <time>2012-05-13T10:17:39Z</time>
      </trkpt>
      <trkpt lat="45.83618" lon="4.83836">
        <ele>226.25</ele>
        <time>2012-05-13T10:17:41Z</time>
      </trkpt>
      <trkpt lat="45.83619" lon="4.83821">
        <ele>226.75</ele>
        <time>2012-05-13T10:17:43Z</time>
      </trkpt>
      <trkpt lat="45.83623" lon="4.83804">
        <ele>227</ele>
        <time>2012-05-13T10:17:46Z</time>
      </trkpt>
      <trkpt lat="45.8363" lon="4.8379">
        <ele>227</ele>
        <time>2012-05-13T10:17:49Z</time>
      </trkpt>
      <trkpt lat="45.83637" lon="4.8378">
        <ele>227</ele>
        <time>2012-05-13T10:17:53Z</time>
      </trkpt>
      <trkpt lat="45.83644" lon="4.83771">
        <ele>227</ele>
        <time>2012-05-13T10:17:58Z</time>
      </trkpt>
      <trkpt lat="45.83653" lon="4.83777">
        <ele>227</ele>
        <time>2012-05-13T10:18:07Z</time>
      </trkpt>
      <trkpt lat="45.83664" lon="4.83787">
        <ele>227.5</ele>
        <time>2012-05-13T10:18:10Z</time>
      </trkpt>
      <trkpt lat="45.83673" lon="4.83795">
        <ele>227.75</ele>
        <time>2012-05-13T10:18:12Z</time>
      </trkpt>
      <trkpt lat="45.83682" lon="4.83803">
        <ele>227.25</ele>
        <time>2012-05-13T10:18:14Z</time>
      </trkpt>
      <trkpt lat="45.83691" lon="4.83811">
        <ele>226.5</ele>
        <time>2012-05-13T10:18:16Z</time>
      </trkpt>
      <trkpt lat="45.837" lon="4.83819">
        <ele>226.25</ele>
        <time>2012-05-13T10:18:19Z</time>
      </trkpt>
      <trkpt lat="45.83708" lon="4.83826">
        <ele>226.75</ele>
        <time>2012-05-13T10:18:21Z</time>
      </trkpt>
      <trkpt lat="45.83717" lon="4.83835">
        <ele>226.5</ele>
        <time>2012-05-13T10:18:23Z</time>
      </trkpt>
      <trkpt lat="45.83726" lon="4.83846">
        <ele>225.5</ele>
        <time>2012-05-13T10:18:25Z</time>
      </trkpt>
      <trkpt lat="45.83734" lon="4.83854">
        <ele>225</ele>
        <time>2012-05-13T10:18:27Z</time>
      </trkpt>
      <trkpt lat="45.83742" lon="4.83862">
        <ele>225</ele>
        <time>2012-05-13T10:18:32Z</time>
      </trkpt>
      <trkpt lat="45.83751" lon="4.83867">
        <ele>226.25</ele>
        <time>2012-05-13T10:18:39Z</time>
      </trkpt>
      <trkpt lat="45.83745" lon="4.83879">
        <ele>228.75</ele>
        <time>2012-05-13T10:18:46Z</time>
      </trkpt>
      <trkpt lat="45.83741" lon="4.83891">
        <ele>230.75</ele>
        <time>2012-05-13T10:18:51Z</time>
      </trkpt>
      <trkpt lat="45.83738" lon="4.83905">
        <ele>231.75</ele>
        <time>2012-05-13T10:18:58Z</time>
      </trkpt>
      <trkpt lat="45.83736" lon="4.83919">
        <ele>229.5</ele>
        <time>2012-05-13T10:19:58Z</time>
      </trkpt>
      <trkpt lat="45.83734" lon="4.83934">
        <ele>230.5</ele>
        <time>2012-05-13T10:20:03Z</time>
      </trkpt>
      <trkpt lat="45.83735" lon="4.8395">
        <ele>232</ele>
        <time>2012-05-13T10:20:05Z</time>
      </trkpt>
      <trkpt lat="45.83736" lon="4.83964">
        <ele>233.25</ele>
        <time>2012-05-13T10:20:07Z</time>
      </trkpt>
      <trkpt lat="45.83737" lon="4.8398">
        <ele>234</ele>
        <time>2012-05-13T10:20:10Z</time>
      </trkpt>
      <trkpt lat="45.83738" lon="4.83995">
        <ele>234.25</ele>
        <time>2012-05-13T10:20:12Z</time>
      </trkpt>
      <trkpt lat="45.8374" lon="4.84013">
        <ele>234.25</ele>
        <time>2012-05-13T10:20:14Z</time>
      </trkpt>
      <trkpt lat="45.83745" lon="4.84028">
        <ele>234</ele>
        <time>2012-05-13T10:20:16Z</time>
      </trkpt>
      <trkpt lat="45.83752" lon="4.84041">
        <ele>234</ele>
        <time>2012-05-13T10:20:19Z</time>
      </trkpt>
      <trkpt lat="45.83761" lon="4.84052">
        <ele>233.25</ele>
        <time>2012-05-13T10:20:21Z</time>
      </trkpt>
      <trkpt lat="45.8377" lon="4.84063">
        <ele>232</ele>
        <time>2012-05-13T10:20:23Z</time>
      </trkpt>
      <trkpt lat="45.83778" lon="4.84071">
        <ele>231.25</ele>
        <time>2012-05-13T10:20:25Z</time>
      </trkpt>
      <trkpt lat="45.83777" lon="4.84084">
        <ele>231.75</ele>
        <time>2012-05-13T10:20:32Z</time>
      </trkpt>
      <trkpt lat="45.83766" lon="4.84087">
        <ele>231</ele>
        <time>2012-05-13T10:20:36Z</time>
      </trkpt>
      <trkpt lat="45.83776" lon="4.84089">
        <ele>230.25</ele>
        <time>2012-05-13T10:20:45Z</time>
      </trkpt>
      <trkpt lat="45.83789" lon="4.8409">
        <ele>230.5</ele>
        <time>2012-05-13T10:20:49Z</time>
      </trkpt>
      <trkpt lat="45.83797" lon="4.84095">
        <ele>231.25</ele>
        <time>2012-05-13T10:20:52Z</time>
      </trkpt>
      <trkpt lat="45.83807" lon="4.84109">
        <ele>231.5</ele>
        <time>2012-05-13T10:20:55Z</time>
      </trkpt>
      <trkpt lat="45.83815" lon="4.84123">
        <ele>231</ele>
        <time>2012-05-13T10:20:58Z</time>
      </trkpt>
      <trkpt lat="45.83822" lon="4.8414">
        <ele>231.25</ele>
        <time>2012-05-13T10:21:03Z</time>
      </trkpt>
      <trkpt lat="45.83828" lon="4.84159">
        <ele>231.75</ele>
        <time>2012-05-13T10:21:05Z</time>
      </trkpt>
      <trkpt lat="45.83835" lon="4.84178">
        <ele>232</ele>
        <time>2012-05-13T10:21:07Z</time>
      </trkpt>
      <trkpt lat="45.83841" lon="4.84195">
        <ele>232</ele>
        <time>2012-05-13T10:21:10Z</time>
      </trkpt>
      <trkpt lat="45.83848" lon="4.84211">
        <ele>232</ele>
        <time>2012-05-13T10:21:12Z</time>
      </trkpt>
      <trkpt lat="45.83856" lon="4.84228">
        <ele>232</ele>
        <time>2012-05-13T10:21:14Z</time>
      </trkpt>
      <trkpt lat="45.83861" lon="4.84243">
        <ele>232</ele>
        <time>2012-05-13T10:21:16Z</time>
      </trkpt>
      <trkpt lat="45.83866" lon="4.84257">
        <ele>232.25</ele>
        <time>2012-05-13T10:21:19Z</time>
      </trkpt>
      <trkpt lat="45.83871" lon="4.8427">
        <ele>232.75</ele>
        <time>2012-05-13T10:21:21Z</time>
      </trkpt>
      <trkpt lat="45.83877" lon="4.84288">
        <ele>233</ele>
        <time>2012-05-13T10:21:23Z</time>
      </trkpt>
      <trkpt lat="45.83882" lon="4.84306">
        <ele>233.5</ele>
        <time>2012-05-13T10:21:25Z</time>
      </trkpt>
      <trkpt lat="45.83887" lon="4.8432">
        <ele>234</ele>
        <time>2012-05-13T10:21:27Z</time>
      </trkpt>
      <trkpt lat="45.83894" lon="4.84332">
        <ele>234</ele>
        <time>2012-05-13T10:21:30Z</time>
      </trkpt>
      <trkpt lat="45.83904" lon="4.84346">
        <ele>234.5</ele>
        <time>2012-05-13T10:21:32Z</time>
      </trkpt>
      <trkpt lat="45.83914" lon="4.8436">
        <ele>235.5</ele>
        <time>2012-05-13T10:21:35Z</time>
      </trkpt>
      <trkpt lat="45.83923" lon="4.8437">
        <ele>235.75</ele>
        <time>2012-05-13T10:21:37Z</time>
      </trkpt>
      <trkpt lat="45.83933" lon="4.84381">
        <ele>235.5</ele>
        <time>2012-05-13T10:21:39Z</time>
      </trkpt>
      <trkpt lat="45.83943" lon="4.84392">
        <ele>235.75</ele>
        <time>2012-05-13T10:21:41Z</time>
      </trkpt>
      <trkpt lat="45.83951" lon="4.84402">
        <ele>236</ele>
        <time>2012-05-13T10:21:43Z</time>
      </trkpt>
      <trkpt lat="45.83958" lon="4.84413">
        <ele>236</ele>
        <time>2012-05-13T10:21:45Z</time>
      </trkpt>
      <trkpt lat="45.83965" lon="4.84425">
        <ele>236</ele>
        <time>2012-05-13T10:21:47Z</time>
      </trkpt>
      <trkpt lat="45.8397" lon="4.84437">
        <ele>236</ele>
        <time>2012-05-13T10:21:50Z</time>
      </trkpt>
      <trkpt lat="45.83975" lon="4.8445">
        <ele>236</ele>
        <time>2012-05-13T10:21:52Z</time>
      </trkpt>
      <trkpt lat="45.83982" lon="4.84464">
        <ele>236</ele>
        <time>2012-05-13T10:21:54Z</time>
      </trkpt>
      <trkpt lat="45.83989" lon="4.8448">
        <ele>235.75</ele>
        <time>2012-05-13T10:21:56Z</time>
      </trkpt>
      <trkpt lat="45.83994" lon="4.84493">
        <ele>235.75</ele>
        <time>2012-05-13T10:21:58Z</time>
      </trkpt>
      <trkpt lat="45.84006" lon="4.84555">
        <ele>237</ele>
        <time>2012-05-13T10:22:32Z</time>
      </trkpt>
      <trkpt lat="45.84015" lon="4.84611">
        <ele>238.5</ele>
        <time>2012-05-13T10:22:33Z</time>
      </trkpt>
      <trkpt lat="45.84024" lon="4.84668">
        <ele>240</ele>
        <time>2012-05-13T10:22:34Z</time>
      </trkpt>
      <trkpt lat="45.84033" lon="4.84726">
        <ele>241.75</ele>
        <time>2012-05-13T10:22:35Z</time>
      </trkpt>
      <trkpt lat="45.84036" lon="4.84743">
        <ele>242</ele>
        <time>2012-05-13T10:22:38Z</time>
      </trkpt>
      <trkpt lat="45.84039" lon="4.84764">
        <ele>242</ele>
        <time>2012-05-13T10:22:40Z</time>
      </trkpt>
      <trkpt lat="45.84041" lon="4.84787">
        <ele>242</ele>
        <time>2012-05-13T10:22:42Z</time>
      </trkpt>
      <trkpt lat="45.84041" lon="4.84806">
        <ele>242.25</ele>
        <time>2012-05-13T10:22:44Z</time>
      </trkpt>
      <trkpt lat="45.84039" lon="4.84822">
        <ele>242.75</ele>
        <time>2012-05-13T10:22:46Z</time>
      </trkpt>
      <trkpt lat="45.84037" lon="4.84835">
        <ele>243.5</ele>
        <time>2012-05-13T10:22:48Z</time>
      </trkpt>
      <trkpt lat="45.84039" lon="4.84849">
        <ele>244</ele>
        <time>2012-05-13T10:22:50Z</time>
      </trkpt>
      <trkpt lat="45.84043" lon="4.84864">
        <ele>244</ele>
        <time>2012-05-13T10:22:52Z</time>
      </trkpt>
      <trkpt lat="45.84045" lon="4.84881">
        <ele>244.5</ele>
        <time>2012-05-13T10:22:55Z</time>
      </trkpt>
      <trkpt lat="45.84047" lon="4.84903">
        <ele>245</ele>
        <time>2012-05-13T10:22:57Z</time>
      </trkpt>
      <trkpt lat="45.84049" lon="4.84928">
        <ele>245</ele>
        <time>2012-05-13T10:22:59Z</time>
      </trkpt>
      <trkpt lat="45.84051" lon="4.84941">
        <ele>245</ele>
        <time>2012-05-13T10:23:00Z</time>
      </trkpt>
      <trkpt lat="45.84052" lon="4.84962">
        <ele>244.5</ele>
        <time>2012-05-13T10:23:02Z</time>
      </trkpt>
      <trkpt lat="45.84054" lon="4.84985">
        <ele>243.75</ele>
        <time>2012-05-13T10:23:05Z</time>
      </trkpt>
      <trkpt lat="45.84058" lon="4.85008">
        <ele>243.25</ele>
        <time>2012-05-13T10:23:07Z</time>
      </trkpt>
      <trkpt lat="45.84063" lon="4.8503">
        <ele>243</ele>
        <time>2012-05-13T10:23:09Z</time>
      </trkpt>
      <trkpt lat="45.84068" lon="4.85042">
        <ele>243</ele>
        <time>2012-05-13T10:23:10Z</time>
      </trkpt>
      <trkpt lat="45.84073" lon="4.85054">
        <ele>243</ele>
        <time>2012-05-13T10:23:11Z</time>
      </trkpt>
      <trkpt lat="45.8408" lon="4.85068">
        <ele>243.25</ele>
        <time>2012-05-13T10:23:12Z</time>
      </trkpt>
      <trkpt lat="45.84086" lon="4.85078">
        <ele>243.75</ele>
        <time>2012-05-13T10:23:14Z</time>
      </trkpt>
      <trkpt lat="45.84099" lon="4.85093">
        <ele>244</ele>
        <time>2012-05-13T10:23:16Z</time>
      </trkpt>
      <trkpt lat="45.84112" lon="4.85108">
        <ele>244</ele>
        <time>2012-05-13T10:23:19Z</time>
      </trkpt>
      <trkpt lat="45.84128" lon="4.85119">
        <ele>243.75</ele>
        <time>2012-05-13T10:23:21Z</time>
      </trkpt>
      <trkpt lat="45.84137" lon="4.85126">
        <ele>243.5</ele>
        <time>2012-05-13T10:23:22Z</time>
      </trkpt>
      <trkpt lat="45.84148" lon="4.85136">
        <ele>243.25</ele>
        <time>2012-05-13T10:23:23Z</time>
      </trkpt>
      <trkpt lat="45.84155" lon="4.85146">
        <ele>243</ele>
        <time>2012-05-13T10:23:24Z</time>
      </trkpt>
      <trkpt lat="45.84161" lon="4.85157">
        <ele>243</ele>
        <time>2012-05-13T10:23:25Z</time>
      </trkpt>
      <trkpt lat="45.84167" lon="4.85169">
        <ele>243</ele>
        <time>2012-05-13T10:23:26Z</time>
      </trkpt>
      <trkpt lat="45.84172" lon="4.85182">
        <ele>243</ele>
        <time>2012-05-13T10:23:27Z</time>
      </trkpt>
      <trkpt lat="45.8418" lon="4.85201">
        <ele>243.25</ele>
        <time>2012-05-13T10:23:29Z</time>
      </trkpt>
      <trkpt lat="45.84187" lon="4.8522">
        <ele>243.75</ele>
        <time>2012-05-13T10:23:31Z</time>
      </trkpt>
      <trkpt lat="45.84195" lon="4.85239">
        <ele>244</ele>
        <time>2012-05-13T10:23:33Z</time>
      </trkpt>
      <trkpt lat="45.84204" lon="4.85257">
        <ele>244</ele>
        <time>2012-05-13T10:23:35Z</time>
      </trkpt>
      <trkpt lat="45.84212" lon="4.85274">
        <ele>244</ele>
        <time>2012-05-13T10:23:38Z</time>
      </trkpt>
      <trkpt lat="45.84219" lon="4.85291">
        <ele>244</ele>
        <time>2012-05-13T10:23:40Z</time>
      </trkpt>
      <trkpt lat="45.84225" lon="4.85308">
        <ele>243.75</ele>
        <time>2012-05-13T10:23:42Z</time>
      </trkpt>
      <trkpt lat="45.8423" lon="4.85331">
        <ele>243.5</ele>
        <time>2012-05-13T10:23:44Z</time>
      </trkpt>
      <trkpt lat="45.84233" lon="4.85351">
        <ele>243.75</ele>
        <time>2012-05-13T10:23:46Z</time>
      </trkpt>
      <trkpt lat="45.84237" lon="4.85366">
        <ele>243.75</ele>
        <time>2012-05-13T10:23:48Z</time>
      </trkpt>
      <trkpt lat="45.84245" lon="4.85382">
        <ele>243.25</ele>
        <time>2012-05-13T10:23:50Z</time>
      </trkpt>
      <trkpt lat="45.84255" lon="4.85397">
        <ele>243.25</ele>
        <time>2012-05-13T10:23:52Z</time>
      </trkpt>
      <trkpt lat="45.84264" lon="4.85409">
        <ele>243.75</ele>
        <time>2012-05-13T10:23:54Z</time>
      </trkpt>
      <trkpt lat="45.84271" lon="4.85423">
        <ele>244.5</ele>
        <time>2012-05-13T10:23:56Z</time>
      </trkpt>
      <trkpt lat="45.84277" lon="4.85438">
        <ele>245</ele>
        <time>2012-05-13T10:23:59Z</time>
      </trkpt>
      <trkpt lat="45.84282" lon="4.85452">
        <ele>244.5</ele>
        <time>2012-05-13T10:24:01Z</time>
      </trkpt>
      <trkpt lat="45.84288" lon="4.8547">
        <ele>244.5</ele>
        <time>2012-05-13T10:24:05Z</time>
      </trkpt>
      <trkpt lat="45.84294" lon="4.85488">
        <ele>245.25</ele>
        <time>2012-05-13T10:24:07Z</time>
      </trkpt>
      <trkpt lat="45.84297" lon="4.85506">
        <ele>246.25</ele>
        <time>2012-05-13T10:24:10Z</time>
      </trkpt>
      <trkpt lat="45.84298" lon="4.85525">
        <ele>247.75</ele>
        <time>2012-05-13T10:24:13Z</time>
      </trkpt>
      <trkpt lat="45.84305" lon="4.85536">
        <ele>248.75</ele>
        <time>2012-05-13T10:24:15Z</time>
      </trkpt>
      <trkpt lat="45.84314" lon="4.85543">
        <ele>249.5</ele>
        <time>2012-05-13T10:24:17Z</time>
      </trkpt>
      <trkpt lat="45.84322" lon="4.85553">
        <ele>250</ele>
        <time>2012-05-13T10:24:20Z</time>
      </trkpt>
      <trkpt lat="45.8433" lon="4.85567">
        <ele>250</ele>
        <time>2012-05-13T10:24:22Z</time>
      </trkpt>
      <trkpt lat="45.84337" lon="4.85578">
        <ele>250</ele>
        <time>2012-05-13T10:24:24Z</time>
      </trkpt>
      <trkpt lat="45.84349" lon="4.8559">
        <ele>250</ele>
        <time>2012-05-13T10:24:27Z</time>
      </trkpt>
      <trkpt lat="45.84362" lon="4.856">
        <ele>250</ele>
        <time>2012-05-13T10:24:29Z</time>
      </trkpt>
      <trkpt lat="45.8437" lon="4.85608">
        <ele>249.5</ele>
        <time>2012-05-13T10:24:32Z</time>
      </trkpt>
      <trkpt lat="45.84379" lon="4.8562">
        <ele>249</ele>
        <time>2012-05-13T10:24:34Z</time>
      </trkpt>
      <trkpt lat="45.8439" lon="4.85632">
        <ele>249</ele>
        <time>2012-05-13T10:24:36Z</time>
      </trkpt>
      <trkpt lat="45.844" lon="4.85641">
        <ele>248.5</ele>
        <time>2012-05-13T10:24:38Z</time>
      </trkpt>
      <trkpt lat="45.84409" lon="4.85649">
        <ele>248</ele>
        <time>2012-05-13T10:24:40Z</time>
      </trkpt>
      <trkpt lat="45.84419" lon="4.85654">
        <ele>248.5</ele>
        <time>2012-05-13T10:24:43Z</time>
      </trkpt>
      <trkpt lat="45.84431" lon="4.85658">
        <ele>249</ele>
        <time>2012-05-13T10:24:45Z</time>
      </trkpt>
      <trkpt lat="45.84442" lon="4.85659">
        <ele>249.25</ele>
        <time>2012-05-13T10:24:47Z</time>
      </trkpt>
      <trkpt lat="45.84453" lon="4.85658">
        <ele>249.75</ele>
        <time>2012-05-13T10:24:49Z</time>
      </trkpt>
      <trkpt lat="45.84467" lon="4.85656">
        <ele>250.25</ele>
        <time>2012-05-13T10:24:51Z</time>
      </trkpt>
      <trkpt lat="45.84482" lon="4.85653">
        <ele>250.5</ele>
        <time>2012-05-13T10:24:53Z</time>
      </trkpt>
      <trkpt lat="45.84492" lon="4.85652">
        <ele>250.75</ele>
        <time>2012-05-13T10:24:55Z</time>
      </trkpt>
      <trkpt lat="45.84499" lon="4.85661">
        <ele>251</ele>
        <time>2012-05-13T10:24:59Z</time>
      </trkpt>
      <trkpt lat="45.84506" lon="4.85696">
        <ele>251.5</ele>
        <time>2012-05-13T10:25:33Z</time>
      </trkpt>
      <trkpt lat="45.84512" lon="4.85725">
        <ele>252</ele>
        <time>2012-05-13T10:25:34Z</time>
      </trkpt>
      <trkpt lat="45.84519" lon="4.85752">
        <ele>252.5</ele>
        <time>2012-05-13T10:25:35Z</time>
      </trkpt>
      <trkpt lat="45.84527" lon="4.85779">
        <ele>253.25</ele>
        <time>2012-05-13T10:25:36Z</time>
      </trkpt>
      <trkpt lat="45.84527" lon="4.8578">
        <ele>253.75</ele>
        <time>2012-05-13T10:25:39Z</time>
      </trkpt>
    </trkseg>
  </trk>
</gpx>